<?xml version="1.0" encoding="UTF-8" standalone="no" ?>
<gpx xmlns="http://www.topografix.com/GPX/1/1" xmlns:xsi="http://www.w3.org/2001/XMLSchema-instance" xsi:schemaLocation="http://www.topografix.com/GPX/1/1 http://www.topografix.com/GPX/1/1/gpx.xsd" version="1.1" creator="VisuGPX - https://www.visugpx.com">
  <metadata>
    <name>Vosges - Pyrénées 01. De Wissembourg à l'abri du col de Hichtenbach</name>
    <desc><![CDATA[Trace AlpineQuest 09/03/2026 10:24:46]]></desc>
  </metadata>
  <trk>
    <name><![CDATA[visugpx_DNAbSsPrAy_1]]></name>
    <extensions>
      <line xmlns="http://www.topografix.com/GPX/gpx_style/0/2">
        <color>0000FF</color>
        <width>4</width>
      </line>
    </extensions>
    <trkseg>
      <trkpt lat="49.03193" lon="7.94981">
        <ele>156.8</ele>
        <time>2026-03-09T09:24:45Z</time>
      </trkpt>
      <trkpt lat="49.03194" lon="7.94984">
        <ele>156.7</ele>
        <time>2026-03-09T09:24:51Z</time>
      </trkpt>
      <trkpt lat="49.03192" lon="7.94987">
        <ele>156.7</ele>
        <time>2026-03-09T09:24:56Z</time>
      </trkpt>
      <trkpt lat="49.03193" lon="7.94988">
        <ele>156.6</ele>
        <time>2026-03-09T09:25:01Z</time>
      </trkpt>
      <trkpt lat="49.03195" lon="7.94989">
        <ele>156.5</ele>
        <time>2026-03-09T09:25:06Z</time>
      </trkpt>
      <trkpt lat="49.03197" lon="7.94988">
        <ele>156.5</ele>
        <time>2026-03-09T09:25:11Z</time>
      </trkpt>
      <trkpt lat="49.03198" lon="7.94988">
        <ele>156.5</ele>
        <time>2026-03-09T09:25:16Z</time>
      </trkpt>
      <trkpt lat="49.03199" lon="7.94988">
        <ele>156.5</ele>
        <time>2026-03-09T09:25:21Z</time>
      </trkpt>
      <trkpt lat="49.03199" lon="7.94988">
        <ele>156.5</ele>
        <time>2026-03-09T09:25:26Z</time>
      </trkpt>
      <trkpt lat="49.03203" lon="7.94995">
        <ele>156.2</ele>
        <time>2026-03-09T09:25:31Z</time>
      </trkpt>
      <trkpt lat="49.03208" lon="7.94989">
        <ele>156.2</ele>
        <time>2026-03-09T09:25:36Z</time>
      </trkpt>
      <trkpt lat="49.03214" lon="7.94982">
        <ele>156.2</ele>
        <time>2026-03-09T09:25:41Z</time>
      </trkpt>
      <trkpt lat="49.03217" lon="7.94975">
        <ele>156.2</ele>
        <time>2026-03-09T09:25:46Z</time>
      </trkpt>
      <trkpt lat="49.03221" lon="7.94966">
        <ele>156.2</ele>
        <time>2026-03-09T09:25:51Z</time>
      </trkpt>
      <trkpt lat="49.03225" lon="7.94958">
        <ele>156.3</ele>
        <time>2026-03-09T09:25:56Z</time>
      </trkpt>
      <trkpt lat="49.0323" lon="7.94946">
        <ele>156.3</ele>
        <time>2026-03-09T09:26:01Z</time>
      </trkpt>
      <trkpt lat="49.03231" lon="7.94941">
        <ele>156.3</ele>
        <time>2026-03-09T09:26:06Z</time>
      </trkpt>
      <trkpt lat="49.03231" lon="7.94941">
        <ele>156.3</ele>
        <time>2026-03-09T09:26:11Z</time>
      </trkpt>
      <trkpt lat="49.03233" lon="7.94935">
        <ele>156.3</ele>
        <time>2026-03-09T09:26:16Z</time>
      </trkpt>
      <trkpt lat="49.03238" lon="7.94924">
        <ele>156.3</ele>
        <time>2026-03-09T09:26:21Z</time>
      </trkpt>
      <trkpt lat="49.03243" lon="7.94916">
        <ele>156.3</ele>
        <time>2026-03-09T09:26:26Z</time>
      </trkpt>
      <trkpt lat="49.03247" lon="7.94909">
        <ele>156.4</ele>
        <time>2026-03-09T09:26:31Z</time>
      </trkpt>
      <trkpt lat="49.03252" lon="7.94904">
        <ele>156.5</ele>
        <time>2026-03-09T09:26:36Z</time>
      </trkpt>
      <trkpt lat="49.03255" lon="7.94896">
        <ele>156.8</ele>
        <time>2026-03-09T09:26:41Z</time>
      </trkpt>
      <trkpt lat="49.03257" lon="7.94885">
        <ele>157.3</ele>
        <time>2026-03-09T09:26:46Z</time>
      </trkpt>
      <trkpt lat="49.03258" lon="7.94875">
        <ele>157.6</ele>
        <time>2026-03-09T09:26:51Z</time>
      </trkpt>
      <trkpt lat="49.03258" lon="7.94867">
        <ele>157.9</ele>
        <time>2026-03-09T09:26:56Z</time>
      </trkpt>
      <trkpt lat="49.03261" lon="7.94858">
        <ele>158.3</ele>
        <time>2026-03-09T09:27:01Z</time>
      </trkpt>
      <trkpt lat="49.03264" lon="7.94846">
        <ele>158.7</ele>
        <time>2026-03-09T09:27:06Z</time>
      </trkpt>
      <trkpt lat="49.03267" lon="7.94835">
        <ele>159.1</ele>
        <time>2026-03-09T09:27:11Z</time>
      </trkpt>
      <trkpt lat="49.03271" lon="7.94823">
        <ele>159.4</ele>
        <time>2026-03-09T09:27:16Z</time>
      </trkpt>
      <trkpt lat="49.03275" lon="7.94812">
        <ele>159.7</ele>
        <time>2026-03-09T09:27:21Z</time>
      </trkpt>
      <trkpt lat="49.0328" lon="7.94804">
        <ele>159.8</ele>
        <time>2026-03-09T09:27:26Z</time>
      </trkpt>
      <trkpt lat="49.03285" lon="7.94796">
        <ele>159.9</ele>
        <time>2026-03-09T09:27:31Z</time>
      </trkpt>
      <trkpt lat="49.03288" lon="7.94789">
        <ele>160</ele>
        <time>2026-03-09T09:27:36Z</time>
      </trkpt>
      <trkpt lat="49.0329" lon="7.94781">
        <ele>160.1</ele>
        <time>2026-03-09T09:27:41Z</time>
      </trkpt>
      <trkpt lat="49.03293" lon="7.94772">
        <ele>160.2</ele>
        <time>2026-03-09T09:27:46Z</time>
      </trkpt>
      <trkpt lat="49.03294" lon="7.94761">
        <ele>160.3</ele>
        <time>2026-03-09T09:27:51Z</time>
      </trkpt>
      <trkpt lat="49.03296" lon="7.94747">
        <ele>160.5</ele>
        <time>2026-03-09T09:27:56Z</time>
      </trkpt>
      <trkpt lat="49.03299" lon="7.94738">
        <ele>160.4</ele>
        <time>2026-03-09T09:28:01Z</time>
      </trkpt>
      <trkpt lat="49.03302" lon="7.94729">
        <ele>160.4</ele>
        <time>2026-03-09T09:28:06Z</time>
      </trkpt>
      <trkpt lat="49.03303" lon="7.94717">
        <ele>160.5</ele>
        <time>2026-03-09T09:28:11Z</time>
      </trkpt>
      <trkpt lat="49.03304" lon="7.94706">
        <ele>160.5</ele>
        <time>2026-03-09T09:28:16Z</time>
      </trkpt>
      <trkpt lat="49.03307" lon="7.94696">
        <ele>160.6</ele>
        <time>2026-03-09T09:28:21Z</time>
      </trkpt>
      <trkpt lat="49.0331" lon="7.9469">
        <ele>160.6</ele>
        <time>2026-03-09T09:28:26Z</time>
      </trkpt>
      <trkpt lat="49.03313" lon="7.94675">
        <ele>160.7</ele>
        <time>2026-03-09T09:28:31Z</time>
      </trkpt>
      <trkpt lat="49.03317" lon="7.94664">
        <ele>160.8</ele>
        <time>2026-03-09T09:28:36Z</time>
      </trkpt>
      <trkpt lat="49.03322" lon="7.94654">
        <ele>161</ele>
        <time>2026-03-09T09:28:41Z</time>
      </trkpt>
      <trkpt lat="49.03327" lon="7.94643">
        <ele>161.2</ele>
        <time>2026-03-09T09:28:46Z</time>
      </trkpt>
      <trkpt lat="49.0333" lon="7.94635">
        <ele>161.3</ele>
        <time>2026-03-09T09:28:51Z</time>
      </trkpt>
      <trkpt lat="49.03335" lon="7.94625">
        <ele>161.5</ele>
        <time>2026-03-09T09:28:56Z</time>
      </trkpt>
      <trkpt lat="49.03336" lon="7.94614">
        <ele>161.6</ele>
        <time>2026-03-09T09:29:01Z</time>
      </trkpt>
      <trkpt lat="49.03335" lon="7.94603">
        <ele>161.8</ele>
        <time>2026-03-09T09:29:06Z</time>
      </trkpt>
      <trkpt lat="49.03335" lon="7.94594">
        <ele>161.9</ele>
        <time>2026-03-09T09:29:11Z</time>
      </trkpt>
      <trkpt lat="49.03336" lon="7.94583">
        <ele>162</ele>
        <time>2026-03-09T09:29:16Z</time>
      </trkpt>
      <trkpt lat="49.03342" lon="7.94578">
        <ele>161.9</ele>
        <time>2026-03-09T09:29:21Z</time>
      </trkpt>
      <trkpt lat="49.03349" lon="7.94573">
        <ele>161.8</ele>
        <time>2026-03-09T09:29:26Z</time>
      </trkpt>
      <trkpt lat="49.03356" lon="7.94568">
        <ele>161.7</ele>
        <time>2026-03-09T09:29:31Z</time>
      </trkpt>
      <trkpt lat="49.03363" lon="7.9456">
        <ele>161.5</ele>
        <time>2026-03-09T09:29:36Z</time>
      </trkpt>
      <trkpt lat="49.03366" lon="7.94548">
        <ele>161.2</ele>
        <time>2026-03-09T09:29:41Z</time>
      </trkpt>
      <trkpt lat="49.03368" lon="7.94539">
        <ele>161</ele>
        <time>2026-03-09T09:29:46Z</time>
      </trkpt>
      <trkpt lat="49.0337" lon="7.94532">
        <ele>160.8</ele>
        <time>2026-03-09T09:29:51Z</time>
      </trkpt>
      <trkpt lat="49.03372" lon="7.94524">
        <ele>160.6</ele>
        <time>2026-03-09T09:29:56Z</time>
      </trkpt>
      <trkpt lat="49.03376" lon="7.94515">
        <ele>160.3</ele>
        <time>2026-03-09T09:30:01Z</time>
      </trkpt>
      <trkpt lat="49.0338" lon="7.94501">
        <ele>159.9</ele>
        <time>2026-03-09T09:30:06Z</time>
      </trkpt>
      <trkpt lat="49.0338" lon="7.94489">
        <ele>160.2</ele>
        <time>2026-03-09T09:30:11Z</time>
      </trkpt>
      <trkpt lat="49.03382" lon="7.94478">
        <ele>160.4</ele>
        <time>2026-03-09T09:30:16Z</time>
      </trkpt>
      <trkpt lat="49.03384" lon="7.94473">
        <ele>160.6</ele>
        <time>2026-03-09T09:30:21Z</time>
      </trkpt>
      <trkpt lat="49.03386" lon="7.94472">
        <ele>160.6</ele>
        <time>2026-03-09T09:30:26Z</time>
      </trkpt>
      <trkpt lat="49.03386" lon="7.94472">
        <ele>160.6</ele>
        <time>2026-03-09T09:30:31Z</time>
      </trkpt>
      <trkpt lat="49.03386" lon="7.94472">
        <ele>160.6</ele>
        <time>2026-03-09T09:30:36Z</time>
      </trkpt>
      <trkpt lat="49.03386" lon="7.94472">
        <ele>160.6</ele>
        <time>2026-03-09T09:30:41Z</time>
      </trkpt>
      <trkpt lat="49.03386" lon="7.94472">
        <ele>160.6</ele>
        <time>2026-03-09T09:30:46Z</time>
      </trkpt>
      <trkpt lat="49.03386" lon="7.94472">
        <ele>160.6</ele>
        <time>2026-03-09T09:30:51Z</time>
      </trkpt>
      <trkpt lat="49.03386" lon="7.94472">
        <ele>160.6</ele>
        <time>2026-03-09T09:30:56Z</time>
      </trkpt>
      <trkpt lat="49.03386" lon="7.94472">
        <ele>160.6</ele>
        <time>2026-03-09T09:31:01Z</time>
      </trkpt>
      <trkpt lat="49.03386" lon="7.94472">
        <ele>160.6</ele>
        <time>2026-03-09T09:31:06Z</time>
      </trkpt>
      <trkpt lat="49.03386" lon="7.94472">
        <ele>160.6</ele>
        <time>2026-03-09T09:31:11Z</time>
      </trkpt>
      <trkpt lat="49.03386" lon="7.94472">
        <ele>160.6</ele>
        <time>2026-03-09T09:31:16Z</time>
      </trkpt>
      <trkpt lat="49.03386" lon="7.94472">
        <ele>160.6</ele>
        <time>2026-03-09T09:31:21Z</time>
      </trkpt>
      <trkpt lat="49.03386" lon="7.94472">
        <ele>160.6</ele>
        <time>2026-03-09T09:31:26Z</time>
      </trkpt>
      <trkpt lat="49.03386" lon="7.94472">
        <ele>160.6</ele>
        <time>2026-03-09T09:31:31Z</time>
      </trkpt>
      <trkpt lat="49.03386" lon="7.94472">
        <ele>160.6</ele>
        <time>2026-03-09T09:31:36Z</time>
      </trkpt>
      <trkpt lat="49.03386" lon="7.94472">
        <ele>160.6</ele>
        <time>2026-03-09T09:31:41Z</time>
      </trkpt>
      <trkpt lat="49.03386" lon="7.94472">
        <ele>160.6</ele>
        <time>2026-03-09T09:31:46Z</time>
      </trkpt>
      <trkpt lat="49.03386" lon="7.94472">
        <ele>160.6</ele>
        <time>2026-03-09T09:31:51Z</time>
      </trkpt>
      <trkpt lat="49.03386" lon="7.94472">
        <ele>160.6</ele>
        <time>2026-03-09T09:31:56Z</time>
      </trkpt>
      <trkpt lat="49.03386" lon="7.94472">
        <ele>160.6</ele>
        <time>2026-03-09T09:32:01Z</time>
      </trkpt>
      <trkpt lat="49.03386" lon="7.94472">
        <ele>160.6</ele>
        <time>2026-03-09T09:32:06Z</time>
      </trkpt>
      <trkpt lat="49.03386" lon="7.94472">
        <ele>160.6</ele>
        <time>2026-03-09T09:32:11Z</time>
      </trkpt>
      <trkpt lat="49.03386" lon="7.94472">
        <ele>160.6</ele>
        <time>2026-03-09T09:32:16Z</time>
      </trkpt>
      <trkpt lat="49.03386" lon="7.94472">
        <ele>160.6</ele>
        <time>2026-03-09T09:32:21Z</time>
      </trkpt>
      <trkpt lat="49.03386" lon="7.94472">
        <ele>160.6</ele>
        <time>2026-03-09T09:32:26Z</time>
      </trkpt>
      <trkpt lat="49.03386" lon="7.94472">
        <ele>160.6</ele>
        <time>2026-03-09T09:32:31Z</time>
      </trkpt>
      <trkpt lat="49.03386" lon="7.94472">
        <ele>160.6</ele>
        <time>2026-03-09T09:32:36Z</time>
      </trkpt>
      <trkpt lat="49.03386" lon="7.94472">
        <ele>160.6</ele>
        <time>2026-03-09T09:32:41Z</time>
      </trkpt>
      <trkpt lat="49.03386" lon="7.94472">
        <ele>160.6</ele>
        <time>2026-03-09T09:32:46Z</time>
      </trkpt>
      <trkpt lat="49.03386" lon="7.94472">
        <ele>160.6</ele>
        <time>2026-03-09T09:32:51Z</time>
      </trkpt>
      <trkpt lat="49.03386" lon="7.94472">
        <ele>160.6</ele>
        <time>2026-03-09T09:32:56Z</time>
      </trkpt>
      <trkpt lat="49.03386" lon="7.94472">
        <ele>160.6</ele>
        <time>2026-03-09T09:33:01Z</time>
      </trkpt>
      <trkpt lat="49.03386" lon="7.94472">
        <ele>160.6</ele>
        <time>2026-03-09T09:33:06Z</time>
      </trkpt>
      <trkpt lat="49.03386" lon="7.94472">
        <ele>160.6</ele>
        <time>2026-03-09T09:33:11Z</time>
      </trkpt>
      <trkpt lat="49.03386" lon="7.94472">
        <ele>160.6</ele>
        <time>2026-03-09T09:33:16Z</time>
      </trkpt>
      <trkpt lat="49.03386" lon="7.94472">
        <ele>160.6</ele>
        <time>2026-03-09T09:33:21Z</time>
      </trkpt>
      <trkpt lat="49.03386" lon="7.94472">
        <ele>160.6</ele>
        <time>2026-03-09T09:33:26Z</time>
      </trkpt>
      <trkpt lat="49.03386" lon="7.94472">
        <ele>160.6</ele>
        <time>2026-03-09T09:33:31Z</time>
      </trkpt>
      <trkpt lat="49.03386" lon="7.94472">
        <ele>160.6</ele>
        <time>2026-03-09T09:33:36Z</time>
      </trkpt>
      <trkpt lat="49.03386" lon="7.94472">
        <ele>160.6</ele>
        <time>2026-03-09T09:33:41Z</time>
      </trkpt>
      <trkpt lat="49.03386" lon="7.94472">
        <ele>160.6</ele>
        <time>2026-03-09T09:33:46Z</time>
      </trkpt>
      <trkpt lat="49.03386" lon="7.94472">
        <ele>160.6</ele>
        <time>2026-03-09T09:33:51Z</time>
      </trkpt>
      <trkpt lat="49.03383" lon="7.94473">
        <ele>160.6</ele>
        <time>2026-03-09T09:33:56Z</time>
      </trkpt>
      <trkpt lat="49.03382" lon="7.94473">
        <ele>160.6</ele>
        <time>2026-03-09T09:34:01Z</time>
      </trkpt>
      <trkpt lat="49.03382" lon="7.94473">
        <ele>160.6</ele>
        <time>2026-03-09T09:34:06Z</time>
      </trkpt>
      <trkpt lat="49.03382" lon="7.94473">
        <ele>160.6</ele>
        <time>2026-03-09T09:34:11Z</time>
      </trkpt>
      <trkpt lat="49.03382" lon="7.94473">
        <ele>160.6</ele>
        <time>2026-03-09T09:34:16Z</time>
      </trkpt>
      <trkpt lat="49.03382" lon="7.94473">
        <ele>160.6</ele>
        <time>2026-03-09T09:34:21Z</time>
      </trkpt>
      <trkpt lat="49.03382" lon="7.94473">
        <ele>160.6</ele>
        <time>2026-03-09T09:34:26Z</time>
      </trkpt>
      <trkpt lat="49.03384" lon="7.94465">
        <ele>160.8</ele>
        <time>2026-03-09T09:34:31Z</time>
      </trkpt>
      <trkpt lat="49.03383" lon="7.94463">
        <ele>160.9</ele>
        <time>2026-03-09T09:34:36Z</time>
      </trkpt>
      <trkpt lat="49.03383" lon="7.94456">
        <ele>161.1</ele>
        <time>2026-03-09T09:34:41Z</time>
      </trkpt>
      <trkpt lat="49.03383" lon="7.94448">
        <ele>161.3</ele>
        <time>2026-03-09T09:34:46Z</time>
      </trkpt>
      <trkpt lat="49.03383" lon="7.94441">
        <ele>161.5</ele>
        <time>2026-03-09T09:34:51Z</time>
      </trkpt>
      <trkpt lat="49.03383" lon="7.94434">
        <ele>161.7</ele>
        <time>2026-03-09T09:34:56Z</time>
      </trkpt>
      <trkpt lat="49.03383" lon="7.94424">
        <ele>162</ele>
        <time>2026-03-09T09:35:01Z</time>
      </trkpt>
      <trkpt lat="49.03381" lon="7.94416">
        <ele>162.2</ele>
        <time>2026-03-09T09:35:06Z</time>
      </trkpt>
      <trkpt lat="49.03382" lon="7.94402">
        <ele>162.7</ele>
        <time>2026-03-09T09:35:11Z</time>
      </trkpt>
      <trkpt lat="49.03382" lon="7.9439">
        <ele>163.1</ele>
        <time>2026-03-09T09:35:16Z</time>
      </trkpt>
      <trkpt lat="49.03383" lon="7.94382">
        <ele>163.4</ele>
        <time>2026-03-09T09:35:21Z</time>
      </trkpt>
      <trkpt lat="49.03384" lon="7.94373">
        <ele>163.7</ele>
        <time>2026-03-09T09:35:26Z</time>
      </trkpt>
      <trkpt lat="49.03385" lon="7.94364">
        <ele>164</ele>
        <time>2026-03-09T09:35:31Z</time>
      </trkpt>
      <trkpt lat="49.03385" lon="7.94355">
        <ele>164.3</ele>
        <time>2026-03-09T09:35:36Z</time>
      </trkpt>
      <trkpt lat="49.03385" lon="7.94342">
        <ele>164.7</ele>
        <time>2026-03-09T09:35:41Z</time>
      </trkpt>
      <trkpt lat="49.03387" lon="7.94333">
        <ele>165</ele>
        <time>2026-03-09T09:35:46Z</time>
      </trkpt>
      <trkpt lat="49.03387" lon="7.94325">
        <ele>165.1</ele>
        <time>2026-03-09T09:35:51Z</time>
      </trkpt>
      <trkpt lat="49.03387" lon="7.94316">
        <ele>165.2</ele>
        <time>2026-03-09T09:35:56Z</time>
      </trkpt>
      <trkpt lat="49.03387" lon="7.94307">
        <ele>165.3</ele>
        <time>2026-03-09T09:36:01Z</time>
      </trkpt>
      <trkpt lat="49.03388" lon="7.94297">
        <ele>165.4</ele>
        <time>2026-03-09T09:36:06Z</time>
      </trkpt>
      <trkpt lat="49.03389" lon="7.9429">
        <ele>165.5</ele>
        <time>2026-03-09T09:36:11Z</time>
      </trkpt>
      <trkpt lat="49.03391" lon="7.9428">
        <ele>165.6</ele>
        <time>2026-03-09T09:36:16Z</time>
      </trkpt>
      <trkpt lat="49.03394" lon="7.94269">
        <ele>165.8</ele>
        <time>2026-03-09T09:36:21Z</time>
      </trkpt>
      <trkpt lat="49.03396" lon="7.9426">
        <ele>165.9</ele>
        <time>2026-03-09T09:36:26Z</time>
      </trkpt>
      <trkpt lat="49.03399" lon="7.94252">
        <ele>166</ele>
        <time>2026-03-09T09:36:31Z</time>
      </trkpt>
      <trkpt lat="49.03402" lon="7.94243">
        <ele>166</ele>
        <time>2026-03-09T09:36:36Z</time>
      </trkpt>
      <trkpt lat="49.03405" lon="7.94231">
        <ele>166</ele>
        <time>2026-03-09T09:36:41Z</time>
      </trkpt>
      <trkpt lat="49.03408" lon="7.94223">
        <ele>165.9</ele>
        <time>2026-03-09T09:36:46Z</time>
      </trkpt>
      <trkpt lat="49.03411" lon="7.94214">
        <ele>165.8</ele>
        <time>2026-03-09T09:36:51Z</time>
      </trkpt>
      <trkpt lat="49.03414" lon="7.94204">
        <ele>165.6</ele>
        <time>2026-03-09T09:36:56Z</time>
      </trkpt>
      <trkpt lat="49.03419" lon="7.94192">
        <ele>165.3</ele>
        <time>2026-03-09T09:37:01Z</time>
      </trkpt>
      <trkpt lat="49.03422" lon="7.94183">
        <ele>165.2</ele>
        <time>2026-03-09T09:37:06Z</time>
      </trkpt>
      <trkpt lat="49.03426" lon="7.94174">
        <ele>165.2</ele>
        <time>2026-03-09T09:37:11Z</time>
      </trkpt>
      <trkpt lat="49.03429" lon="7.94166">
        <ele>165.2</ele>
        <time>2026-03-09T09:37:16Z</time>
      </trkpt>
      <trkpt lat="49.03432" lon="7.94158">
        <ele>165.6</ele>
        <time>2026-03-09T09:37:21Z</time>
      </trkpt>
      <trkpt lat="49.03437" lon="7.94145">
        <ele>166.2</ele>
        <time>2026-03-09T09:37:26Z</time>
      </trkpt>
      <trkpt lat="49.0344" lon="7.94135">
        <ele>166.5</ele>
        <time>2026-03-09T09:37:31Z</time>
      </trkpt>
      <trkpt lat="49.03444" lon="7.94126">
        <ele>166.8</ele>
        <time>2026-03-09T09:37:36Z</time>
      </trkpt>
      <trkpt lat="49.03447" lon="7.9412">
        <ele>166.9</ele>
        <time>2026-03-09T09:37:41Z</time>
      </trkpt>
      <trkpt lat="49.03454" lon="7.94112">
        <ele>167</ele>
        <time>2026-03-09T09:37:46Z</time>
      </trkpt>
      <trkpt lat="49.03459" lon="7.94106">
        <ele>166.9</ele>
        <time>2026-03-09T09:37:51Z</time>
      </trkpt>
      <trkpt lat="49.03463" lon="7.94107">
        <ele>166.7</ele>
        <time>2026-03-09T09:37:56Z</time>
      </trkpt>
      <trkpt lat="49.03467" lon="7.9411">
        <ele>166.5</ele>
        <time>2026-03-09T09:38:01Z</time>
      </trkpt>
      <trkpt lat="49.03467" lon="7.94111">
        <ele>166.5</ele>
        <time>2026-03-09T09:38:06Z</time>
      </trkpt>
      <trkpt lat="49.03467" lon="7.94111">
        <ele>166.5</ele>
        <time>2026-03-09T09:38:11Z</time>
      </trkpt>
      <trkpt lat="49.03474" lon="7.94108">
        <ele>166.3</ele>
        <time>2026-03-09T09:38:16Z</time>
      </trkpt>
      <trkpt lat="49.03478" lon="7.94105">
        <ele>166.2</ele>
        <time>2026-03-09T09:38:21Z</time>
      </trkpt>
      <trkpt lat="49.03478" lon="7.94105">
        <ele>166.2</ele>
        <time>2026-03-09T09:38:26Z</time>
      </trkpt>
      <trkpt lat="49.03477" lon="7.94104">
        <ele>166.2</ele>
        <time>2026-03-09T09:38:31Z</time>
      </trkpt>
      <trkpt lat="49.03485" lon="7.94095">
        <ele>165.9</ele>
        <time>2026-03-09T09:38:36Z</time>
      </trkpt>
      <trkpt lat="49.03491" lon="7.94089">
        <ele>165.6</ele>
        <time>2026-03-09T09:38:41Z</time>
      </trkpt>
      <trkpt lat="49.03496" lon="7.94086">
        <ele>165.3</ele>
        <time>2026-03-09T09:38:46Z</time>
      </trkpt>
      <trkpt lat="49.03501" lon="7.94083">
        <ele>165</ele>
        <time>2026-03-09T09:38:51Z</time>
      </trkpt>
      <trkpt lat="49.03507" lon="7.94075">
        <ele>164.8</ele>
        <time>2026-03-09T09:38:56Z</time>
      </trkpt>
      <trkpt lat="49.03512" lon="7.94068">
        <ele>164.8</ele>
        <time>2026-03-09T09:39:01Z</time>
      </trkpt>
      <trkpt lat="49.03518" lon="7.94062">
        <ele>164.7</ele>
        <time>2026-03-09T09:39:06Z</time>
      </trkpt>
      <trkpt lat="49.03523" lon="7.94055">
        <ele>164.6</ele>
        <time>2026-03-09T09:39:11Z</time>
      </trkpt>
      <trkpt lat="49.03529" lon="7.9405">
        <ele>164.6</ele>
        <time>2026-03-09T09:39:16Z</time>
      </trkpt>
      <trkpt lat="49.03533" lon="7.94048">
        <ele>164.5</ele>
        <time>2026-03-09T09:39:21Z</time>
      </trkpt>
      <trkpt lat="49.03538" lon="7.94043">
        <ele>164.5</ele>
        <time>2026-03-09T09:39:26Z</time>
      </trkpt>
      <trkpt lat="49.03543" lon="7.94036">
        <ele>164.6</ele>
        <time>2026-03-09T09:39:31Z</time>
      </trkpt>
      <trkpt lat="49.03547" lon="7.94034">
        <ele>164.5</ele>
        <time>2026-03-09T09:39:36Z</time>
      </trkpt>
      <trkpt lat="49.03554" lon="7.94032">
        <ele>164.5</ele>
        <time>2026-03-09T09:39:41Z</time>
      </trkpt>
      <trkpt lat="49.03561" lon="7.94033">
        <ele>164.4</ele>
        <time>2026-03-09T09:39:46Z</time>
      </trkpt>
      <trkpt lat="49.03564" lon="7.94032">
        <ele>164.4</ele>
        <time>2026-03-09T09:39:51Z</time>
      </trkpt>
      <trkpt lat="49.03564" lon="7.94031">
        <ele>164.4</ele>
        <time>2026-03-09T09:39:56Z</time>
      </trkpt>
      <trkpt lat="49.03564" lon="7.94023">
        <ele>164.6</ele>
        <time>2026-03-09T09:40:01Z</time>
      </trkpt>
      <trkpt lat="49.03565" lon="7.94015">
        <ele>164.7</ele>
        <time>2026-03-09T09:40:06Z</time>
      </trkpt>
      <trkpt lat="49.03564" lon="7.94008">
        <ele>164.9</ele>
        <time>2026-03-09T09:40:11Z</time>
      </trkpt>
      <trkpt lat="49.03564" lon="7.93999">
        <ele>165</ele>
        <time>2026-03-09T09:40:16Z</time>
      </trkpt>
      <trkpt lat="49.03566" lon="7.93991">
        <ele>165.3</ele>
        <time>2026-03-09T09:40:21Z</time>
      </trkpt>
      <trkpt lat="49.03569" lon="7.93982">
        <ele>165.6</ele>
        <time>2026-03-09T09:40:26Z</time>
      </trkpt>
      <trkpt lat="49.03571" lon="7.93973">
        <ele>166</ele>
        <time>2026-03-09T09:40:31Z</time>
      </trkpt>
      <trkpt lat="49.03572" lon="7.93965">
        <ele>166.3</ele>
        <time>2026-03-09T09:40:36Z</time>
      </trkpt>
      <trkpt lat="49.03571" lon="7.9396">
        <ele>166.4</ele>
        <time>2026-03-09T09:40:41Z</time>
      </trkpt>
      <trkpt lat="49.03572" lon="7.9395">
        <ele>166.8</ele>
        <time>2026-03-09T09:40:46Z</time>
      </trkpt>
      <trkpt lat="49.03576" lon="7.93941">
        <ele>167.1</ele>
        <time>2026-03-09T09:40:51Z</time>
      </trkpt>
      <trkpt lat="49.0358" lon="7.93933">
        <ele>167.4</ele>
        <time>2026-03-09T09:40:56Z</time>
      </trkpt>
      <trkpt lat="49.03583" lon="7.93924">
        <ele>167.7</ele>
        <time>2026-03-09T09:41:01Z</time>
      </trkpt>
      <trkpt lat="49.0359" lon="7.93914">
        <ele>167.9</ele>
        <time>2026-03-09T09:41:06Z</time>
      </trkpt>
      <trkpt lat="49.0359" lon="7.93902">
        <ele>168.3</ele>
        <time>2026-03-09T09:41:11Z</time>
      </trkpt>
      <trkpt lat="49.0359" lon="7.93892">
        <ele>168.7</ele>
        <time>2026-03-09T09:41:16Z</time>
      </trkpt>
      <trkpt lat="49.03589" lon="7.93882">
        <ele>169.1</ele>
        <time>2026-03-09T09:41:21Z</time>
      </trkpt>
      <trkpt lat="49.03589" lon="7.93871">
        <ele>169.5</ele>
        <time>2026-03-09T09:41:26Z</time>
      </trkpt>
      <trkpt lat="49.03589" lon="7.9386">
        <ele>169.9</ele>
        <time>2026-03-09T09:41:31Z</time>
      </trkpt>
      <trkpt lat="49.03588" lon="7.9385">
        <ele>170.3</ele>
        <time>2026-03-09T09:41:36Z</time>
      </trkpt>
      <trkpt lat="49.03588" lon="7.93838">
        <ele>170.8</ele>
        <time>2026-03-09T09:41:41Z</time>
      </trkpt>
      <trkpt lat="49.03586" lon="7.93829">
        <ele>171.3</ele>
        <time>2026-03-09T09:41:46Z</time>
      </trkpt>
      <trkpt lat="49.03582" lon="7.9382">
        <ele>172</ele>
        <time>2026-03-09T09:41:51Z</time>
      </trkpt>
      <trkpt lat="49.03578" lon="7.93812">
        <ele>172.6</ele>
        <time>2026-03-09T09:41:56Z</time>
      </trkpt>
      <trkpt lat="49.03573" lon="7.93805">
        <ele>173.1</ele>
        <time>2026-03-09T09:42:01Z</time>
      </trkpt>
      <trkpt lat="49.0357" lon="7.93798">
        <ele>173.6</ele>
        <time>2026-03-09T09:42:06Z</time>
      </trkpt>
      <trkpt lat="49.03567" lon="7.9379">
        <ele>174.2</ele>
        <time>2026-03-09T09:42:11Z</time>
      </trkpt>
      <trkpt lat="49.03565" lon="7.93784">
        <ele>174.7</ele>
        <time>2026-03-09T09:42:16Z</time>
      </trkpt>
      <trkpt lat="49.03562" lon="7.93777">
        <ele>175.2</ele>
        <time>2026-03-09T09:42:21Z</time>
      </trkpt>
      <trkpt lat="49.03559" lon="7.93768">
        <ele>175.9</ele>
        <time>2026-03-09T09:42:26Z</time>
      </trkpt>
      <trkpt lat="49.03558" lon="7.9376">
        <ele>176.5</ele>
        <time>2026-03-09T09:42:31Z</time>
      </trkpt>
      <trkpt lat="49.03555" lon="7.93752">
        <ele>177.2</ele>
        <time>2026-03-09T09:42:36Z</time>
      </trkpt>
      <trkpt lat="49.03549" lon="7.93746">
        <ele>177.6</ele>
        <time>2026-03-09T09:42:41Z</time>
      </trkpt>
      <trkpt lat="49.03542" lon="7.93739">
        <ele>178.1</ele>
        <time>2026-03-09T09:42:46Z</time>
      </trkpt>
      <trkpt lat="49.03537" lon="7.93734">
        <ele>178.4</ele>
        <time>2026-03-09T09:42:51Z</time>
      </trkpt>
      <trkpt lat="49.03532" lon="7.93731">
        <ele>178.7</ele>
        <time>2026-03-09T09:42:56Z</time>
      </trkpt>
      <trkpt lat="49.03527" lon="7.93726">
        <ele>179</ele>
        <time>2026-03-09T09:43:01Z</time>
      </trkpt>
      <trkpt lat="49.03522" lon="7.93723">
        <ele>179.3</ele>
        <time>2026-03-09T09:43:06Z</time>
      </trkpt>
      <trkpt lat="49.03515" lon="7.93717">
        <ele>179.7</ele>
        <time>2026-03-09T09:43:11Z</time>
      </trkpt>
      <trkpt lat="49.0351" lon="7.93711">
        <ele>180.2</ele>
        <time>2026-03-09T09:43:16Z</time>
      </trkpt>
      <trkpt lat="49.03503" lon="7.93703">
        <ele>180.8</ele>
        <time>2026-03-09T09:43:21Z</time>
      </trkpt>
      <trkpt lat="49.03497" lon="7.93696">
        <ele>181.2</ele>
        <time>2026-03-09T09:43:26Z</time>
      </trkpt>
      <trkpt lat="49.03493" lon="7.9369">
        <ele>181.5</ele>
        <time>2026-03-09T09:43:31Z</time>
      </trkpt>
      <trkpt lat="49.03488" lon="7.93683">
        <ele>181.8</ele>
        <time>2026-03-09T09:43:36Z</time>
      </trkpt>
      <trkpt lat="49.03483" lon="7.93676">
        <ele>182.2</ele>
        <time>2026-03-09T09:43:41Z</time>
      </trkpt>
      <trkpt lat="49.03479" lon="7.9367">
        <ele>182.5</ele>
        <time>2026-03-09T09:43:46Z</time>
      </trkpt>
      <trkpt lat="49.03474" lon="7.93663">
        <ele>182.9</ele>
        <time>2026-03-09T09:43:51Z</time>
      </trkpt>
      <trkpt lat="49.03469" lon="7.93655">
        <ele>183.2</ele>
        <time>2026-03-09T09:43:56Z</time>
      </trkpt>
      <trkpt lat="49.03464" lon="7.93648">
        <ele>183.5</ele>
        <time>2026-03-09T09:44:01Z</time>
      </trkpt>
      <trkpt lat="49.03459" lon="7.9364">
        <ele>183.9</ele>
        <time>2026-03-09T09:44:06Z</time>
      </trkpt>
      <trkpt lat="49.03454" lon="7.93632">
        <ele>184.4</ele>
        <time>2026-03-09T09:44:11Z</time>
      </trkpt>
      <trkpt lat="49.03449" lon="7.93623">
        <ele>184.9</ele>
        <time>2026-03-09T09:44:16Z</time>
      </trkpt>
      <trkpt lat="49.03443" lon="7.93616">
        <ele>185.4</ele>
        <time>2026-03-09T09:44:21Z</time>
      </trkpt>
      <trkpt lat="49.03439" lon="7.93611">
        <ele>185.7</ele>
        <time>2026-03-09T09:44:26Z</time>
      </trkpt>
      <trkpt lat="49.03435" lon="7.93604">
        <ele>186.2</ele>
        <time>2026-03-09T09:44:31Z</time>
      </trkpt>
      <trkpt lat="49.0343" lon="7.93595">
        <ele>186.9</ele>
        <time>2026-03-09T09:44:36Z</time>
      </trkpt>
      <trkpt lat="49.03424" lon="7.93585">
        <ele>187.7</ele>
        <time>2026-03-09T09:44:41Z</time>
      </trkpt>
      <trkpt lat="49.03421" lon="7.93579">
        <ele>188.3</ele>
        <time>2026-03-09T09:44:46Z</time>
      </trkpt>
      <trkpt lat="49.03415" lon="7.93568">
        <ele>189.4</ele>
        <time>2026-03-09T09:44:51Z</time>
      </trkpt>
      <trkpt lat="49.03411" lon="7.9356">
        <ele>190.3</ele>
        <time>2026-03-09T09:44:56Z</time>
      </trkpt>
      <trkpt lat="49.03406" lon="7.93552">
        <ele>191.2</ele>
        <time>2026-03-09T09:45:01Z</time>
      </trkpt>
      <trkpt lat="49.03403" lon="7.93546">
        <ele>191.8</ele>
        <time>2026-03-09T09:45:06Z</time>
      </trkpt>
      <trkpt lat="49.03399" lon="7.93538">
        <ele>192.6</ele>
        <time>2026-03-09T09:45:11Z</time>
      </trkpt>
      <trkpt lat="49.03393" lon="7.93529">
        <ele>193.5</ele>
        <time>2026-03-09T09:45:16Z</time>
      </trkpt>
      <trkpt lat="49.03387" lon="7.93522">
        <ele>194.2</ele>
        <time>2026-03-09T09:45:21Z</time>
      </trkpt>
      <trkpt lat="49.03384" lon="7.93516">
        <ele>194.7</ele>
        <time>2026-03-09T09:45:26Z</time>
      </trkpt>
      <trkpt lat="49.03379" lon="7.93507">
        <ele>195.5</ele>
        <time>2026-03-09T09:45:31Z</time>
      </trkpt>
      <trkpt lat="49.03374" lon="7.93501">
        <ele>196</ele>
        <time>2026-03-09T09:45:36Z</time>
      </trkpt>
      <trkpt lat="49.03369" lon="7.93493">
        <ele>196.4</ele>
        <time>2026-03-09T09:45:41Z</time>
      </trkpt>
      <trkpt lat="49.03364" lon="7.93478">
        <ele>197.2</ele>
        <time>2026-03-09T09:45:46Z</time>
      </trkpt>
      <trkpt lat="49.03365" lon="7.93474">
        <ele>197.3</ele>
        <time>2026-03-09T09:45:51Z</time>
      </trkpt>
      <trkpt lat="49.03361" lon="7.9346">
        <ele>197.9</ele>
        <time>2026-03-09T09:45:56Z</time>
      </trkpt>
      <trkpt lat="49.03361" lon="7.93453">
        <ele>198.2</ele>
        <time>2026-03-09T09:46:01Z</time>
      </trkpt>
      <trkpt lat="49.03357" lon="7.93448">
        <ele>198.5</ele>
        <time>2026-03-09T09:46:06Z</time>
      </trkpt>
      <trkpt lat="49.03356" lon="7.93439">
        <ele>198.9</ele>
        <time>2026-03-09T09:46:11Z</time>
      </trkpt>
      <trkpt lat="49.03353" lon="7.93431">
        <ele>199.2</ele>
        <time>2026-03-09T09:46:16Z</time>
      </trkpt>
      <trkpt lat="49.03352" lon="7.93425">
        <ele>199.5</ele>
        <time>2026-03-09T09:46:21Z</time>
      </trkpt>
      <trkpt lat="49.03353" lon="7.93424">
        <ele>199.5</ele>
        <time>2026-03-09T09:46:26Z</time>
      </trkpt>
      <trkpt lat="49.03353" lon="7.93424">
        <ele>199.5</ele>
        <time>2026-03-09T09:46:31Z</time>
      </trkpt>
      <trkpt lat="49.03353" lon="7.93424">
        <ele>199.5</ele>
        <time>2026-03-09T09:46:36Z</time>
      </trkpt>
      <trkpt lat="49.03353" lon="7.93424">
        <ele>199.5</ele>
        <time>2026-03-09T09:46:41Z</time>
      </trkpt>
      <trkpt lat="49.03353" lon="7.93424">
        <ele>199.5</ele>
        <time>2026-03-09T09:46:46Z</time>
      </trkpt>
      <trkpt lat="49.03353" lon="7.93424">
        <ele>199.5</ele>
        <time>2026-03-09T09:46:51Z</time>
      </trkpt>
      <trkpt lat="49.03353" lon="7.93424">
        <ele>199.5</ele>
        <time>2026-03-09T09:46:56Z</time>
      </trkpt>
      <trkpt lat="49.03353" lon="7.93424">
        <ele>199.5</ele>
        <time>2026-03-09T09:47:01Z</time>
      </trkpt>
      <trkpt lat="49.03353" lon="7.93424">
        <ele>199.5</ele>
        <time>2026-03-09T09:47:06Z</time>
      </trkpt>
      <trkpt lat="49.03353" lon="7.93424">
        <ele>199.5</ele>
        <time>2026-03-09T09:47:11Z</time>
      </trkpt>
      <trkpt lat="49.03353" lon="7.93424">
        <ele>199.5</ele>
        <time>2026-03-09T09:47:16Z</time>
      </trkpt>
      <trkpt lat="49.03353" lon="7.93424">
        <ele>199.5</ele>
        <time>2026-03-09T09:47:21Z</time>
      </trkpt>
      <trkpt lat="49.03353" lon="7.93424">
        <ele>199.5</ele>
        <time>2026-03-09T09:47:26Z</time>
      </trkpt>
      <trkpt lat="49.03353" lon="7.93424">
        <ele>199.5</ele>
        <time>2026-03-09T09:47:31Z</time>
      </trkpt>
      <trkpt lat="49.03353" lon="7.93424">
        <ele>199.5</ele>
        <time>2026-03-09T09:47:36Z</time>
      </trkpt>
      <trkpt lat="49.03353" lon="7.93424">
        <ele>199.5</ele>
        <time>2026-03-09T09:47:41Z</time>
      </trkpt>
      <trkpt lat="49.03353" lon="7.93424">
        <ele>199.5</ele>
        <time>2026-03-09T09:47:46Z</time>
      </trkpt>
      <trkpt lat="49.03353" lon="7.93424">
        <ele>199.5</ele>
        <time>2026-03-09T09:47:51Z</time>
      </trkpt>
      <trkpt lat="49.03353" lon="7.93424">
        <ele>199.5</ele>
        <time>2026-03-09T09:47:56Z</time>
      </trkpt>
      <trkpt lat="49.03353" lon="7.93424">
        <ele>199.5</ele>
        <time>2026-03-09T09:48:01Z</time>
      </trkpt>
      <trkpt lat="49.03353" lon="7.93424">
        <ele>199.5</ele>
        <time>2026-03-09T09:48:06Z</time>
      </trkpt>
      <trkpt lat="49.03353" lon="7.93424">
        <ele>199.5</ele>
        <time>2026-03-09T09:48:11Z</time>
      </trkpt>
      <trkpt lat="49.03353" lon="7.93424">
        <ele>199.5</ele>
        <time>2026-03-09T09:48:16Z</time>
      </trkpt>
      <trkpt lat="49.03353" lon="7.93424">
        <ele>199.5</ele>
        <time>2026-03-09T09:48:21Z</time>
      </trkpt>
      <trkpt lat="49.03353" lon="7.93424">
        <ele>199.5</ele>
        <time>2026-03-09T09:48:26Z</time>
      </trkpt>
      <trkpt lat="49.03353" lon="7.93424">
        <ele>199.5</ele>
        <time>2026-03-09T09:48:31Z</time>
      </trkpt>
      <trkpt lat="49.03353" lon="7.93424">
        <ele>199.5</ele>
        <time>2026-03-09T09:48:36Z</time>
      </trkpt>
      <trkpt lat="49.03354" lon="7.93417">
        <ele>199.7</ele>
        <time>2026-03-09T09:48:41Z</time>
      </trkpt>
      <trkpt lat="49.03352" lon="7.93412">
        <ele>200.1</ele>
        <time>2026-03-09T09:48:46Z</time>
      </trkpt>
      <trkpt lat="49.0335" lon="7.93412">
        <ele>200.1</ele>
        <time>2026-03-09T09:48:51Z</time>
      </trkpt>
      <trkpt lat="49.0335" lon="7.93413">
        <ele>200</ele>
        <time>2026-03-09T09:48:56Z</time>
      </trkpt>
      <trkpt lat="49.03347" lon="7.93412">
        <ele>200.1</ele>
        <time>2026-03-09T09:49:01Z</time>
      </trkpt>
      <trkpt lat="49.03343" lon="7.93406">
        <ele>200.5</ele>
        <time>2026-03-09T09:49:06Z</time>
      </trkpt>
      <trkpt lat="49.03338" lon="7.93397">
        <ele>201.1</ele>
        <time>2026-03-09T09:49:11Z</time>
      </trkpt>
      <trkpt lat="49.0334" lon="7.93392">
        <ele>201.4</ele>
        <time>2026-03-09T09:49:16Z</time>
      </trkpt>
      <trkpt lat="49.03339" lon="7.9339">
        <ele>201.5</ele>
        <time>2026-03-09T09:49:21Z</time>
      </trkpt>
      <trkpt lat="49.03333" lon="7.93384">
        <ele>202</ele>
        <time>2026-03-09T09:49:26Z</time>
      </trkpt>
      <trkpt lat="49.03327" lon="7.93379">
        <ele>202.6</ele>
        <time>2026-03-09T09:49:31Z</time>
      </trkpt>
      <trkpt lat="49.03321" lon="7.93372">
        <ele>203.3</ele>
        <time>2026-03-09T09:49:36Z</time>
      </trkpt>
      <trkpt lat="49.03316" lon="7.93365">
        <ele>204</ele>
        <time>2026-03-09T09:49:41Z</time>
      </trkpt>
      <trkpt lat="49.03311" lon="7.93361">
        <ele>204.5</ele>
        <time>2026-03-09T09:49:46Z</time>
      </trkpt>
      <trkpt lat="49.03306" lon="7.93358">
        <ele>204.9</ele>
        <time>2026-03-09T09:49:51Z</time>
      </trkpt>
      <trkpt lat="49.03301" lon="7.93348">
        <ele>205.7</ele>
        <time>2026-03-09T09:49:56Z</time>
      </trkpt>
      <trkpt lat="49.03298" lon="7.93342">
        <ele>206.2</ele>
        <time>2026-03-09T09:50:01Z</time>
      </trkpt>
      <trkpt lat="49.03301" lon="7.9333">
        <ele>206.7</ele>
        <time>2026-03-09T09:50:06Z</time>
      </trkpt>
      <trkpt lat="49.03304" lon="7.93323">
        <ele>206.8</ele>
        <time>2026-03-09T09:50:11Z</time>
      </trkpt>
      <trkpt lat="49.03308" lon="7.93316">
        <ele>206.9</ele>
        <time>2026-03-09T09:50:16Z</time>
      </trkpt>
      <trkpt lat="49.03313" lon="7.93309">
        <ele>207</ele>
        <time>2026-03-09T09:50:21Z</time>
      </trkpt>
      <trkpt lat="49.03315" lon="7.933">
        <ele>207.3</ele>
        <time>2026-03-09T09:50:26Z</time>
      </trkpt>
      <trkpt lat="49.03316" lon="7.93292">
        <ele>207.6</ele>
        <time>2026-03-09T09:50:31Z</time>
      </trkpt>
      <trkpt lat="49.03317" lon="7.9328">
        <ele>208.1</ele>
        <time>2026-03-09T09:50:36Z</time>
      </trkpt>
      <trkpt lat="49.03313" lon="7.93266">
        <ele>208.8</ele>
        <time>2026-03-09T09:50:41Z</time>
      </trkpt>
      <trkpt lat="49.03311" lon="7.93258">
        <ele>209.2</ele>
        <time>2026-03-09T09:50:46Z</time>
      </trkpt>
      <trkpt lat="49.03307" lon="7.9325">
        <ele>209.6</ele>
        <time>2026-03-09T09:50:51Z</time>
      </trkpt>
      <trkpt lat="49.03304" lon="7.93243">
        <ele>210</ele>
        <time>2026-03-09T09:50:56Z</time>
      </trkpt>
      <trkpt lat="49.03301" lon="7.93236">
        <ele>210.3</ele>
        <time>2026-03-09T09:51:01Z</time>
      </trkpt>
      <trkpt lat="49.03297" lon="7.93229">
        <ele>210.7</ele>
        <time>2026-03-09T09:51:06Z</time>
      </trkpt>
      <trkpt lat="49.03295" lon="7.93222">
        <ele>211.1</ele>
        <time>2026-03-09T09:51:11Z</time>
      </trkpt>
      <trkpt lat="49.03291" lon="7.93215">
        <ele>211.5</ele>
        <time>2026-03-09T09:51:16Z</time>
      </trkpt>
      <trkpt lat="49.03289" lon="7.93208">
        <ele>211.8</ele>
        <time>2026-03-09T09:51:21Z</time>
      </trkpt>
      <trkpt lat="49.03289" lon="7.93208">
        <ele>211.8</ele>
        <time>2026-03-09T09:51:26Z</time>
      </trkpt>
      <trkpt lat="49.03289" lon="7.93208">
        <ele>211.8</ele>
        <time>2026-03-09T09:51:31Z</time>
      </trkpt>
      <trkpt lat="49.03289" lon="7.93208">
        <ele>211.8</ele>
        <time>2026-03-09T09:51:36Z</time>
      </trkpt>
      <trkpt lat="49.03291" lon="7.93203">
        <ele>212</ele>
        <time>2026-03-09T09:51:41Z</time>
      </trkpt>
      <trkpt lat="49.03287" lon="7.93196">
        <ele>212.4</ele>
        <time>2026-03-09T09:51:46Z</time>
      </trkpt>
      <trkpt lat="49.03283" lon="7.93189">
        <ele>212.8</ele>
        <time>2026-03-09T09:51:51Z</time>
      </trkpt>
      <trkpt lat="49.03281" lon="7.93181">
        <ele>213.3</ele>
        <time>2026-03-09T09:51:56Z</time>
      </trkpt>
      <trkpt lat="49.0328" lon="7.9317">
        <ele>213.8</ele>
        <time>2026-03-09T09:52:01Z</time>
      </trkpt>
      <trkpt lat="49.03279" lon="7.9316">
        <ele>214.3</ele>
        <time>2026-03-09T09:52:06Z</time>
      </trkpt>
      <trkpt lat="49.03278" lon="7.93151">
        <ele>214.7</ele>
        <time>2026-03-09T09:52:11Z</time>
      </trkpt>
      <trkpt lat="49.03276" lon="7.9314">
        <ele>215.2</ele>
        <time>2026-03-09T09:52:16Z</time>
      </trkpt>
      <trkpt lat="49.03278" lon="7.93133">
        <ele>215.5</ele>
        <time>2026-03-09T09:52:21Z</time>
      </trkpt>
      <trkpt lat="49.03278" lon="7.9313">
        <ele>215.6</ele>
        <time>2026-03-09T09:52:26Z</time>
      </trkpt>
      <trkpt lat="49.03278" lon="7.9313">
        <ele>215.6</ele>
        <time>2026-03-09T09:52:31Z</time>
      </trkpt>
      <trkpt lat="49.03278" lon="7.9313">
        <ele>215.6</ele>
        <time>2026-03-09T09:52:36Z</time>
      </trkpt>
      <trkpt lat="49.03278" lon="7.9313">
        <ele>215.6</ele>
        <time>2026-03-09T09:52:41Z</time>
      </trkpt>
      <trkpt lat="49.03278" lon="7.9313">
        <ele>215.6</ele>
        <time>2026-03-09T09:52:46Z</time>
      </trkpt>
      <trkpt lat="49.03278" lon="7.9313">
        <ele>215.6</ele>
        <time>2026-03-09T09:52:51Z</time>
      </trkpt>
      <trkpt lat="49.03278" lon="7.9313">
        <ele>215.6</ele>
        <time>2026-03-09T09:52:56Z</time>
      </trkpt>
      <trkpt lat="49.03278" lon="7.9313">
        <ele>215.6</ele>
        <time>2026-03-09T09:53:01Z</time>
      </trkpt>
      <trkpt lat="49.03278" lon="7.9313">
        <ele>215.6</ele>
        <time>2026-03-09T09:53:06Z</time>
      </trkpt>
      <trkpt lat="49.03275" lon="7.9312">
        <ele>216.1</ele>
        <time>2026-03-09T09:53:11Z</time>
      </trkpt>
      <trkpt lat="49.03276" lon="7.93109">
        <ele>216.6</ele>
        <time>2026-03-09T09:53:16Z</time>
      </trkpt>
      <trkpt lat="49.03276" lon="7.93099">
        <ele>217</ele>
        <time>2026-03-09T09:53:21Z</time>
      </trkpt>
      <trkpt lat="49.03276" lon="7.93088">
        <ele>217.5</ele>
        <time>2026-03-09T09:53:26Z</time>
      </trkpt>
      <trkpt lat="49.03276" lon="7.93083">
        <ele>217.7</ele>
        <time>2026-03-09T09:53:31Z</time>
      </trkpt>
      <trkpt lat="49.03275" lon="7.93081">
        <ele>217.8</ele>
        <time>2026-03-09T09:53:36Z</time>
      </trkpt>
      <trkpt lat="49.03275" lon="7.93081">
        <ele>217.8</ele>
        <time>2026-03-09T09:53:41Z</time>
      </trkpt>
      <trkpt lat="49.03275" lon="7.93081">
        <ele>217.8</ele>
        <time>2026-03-09T09:53:46Z</time>
      </trkpt>
      <trkpt lat="49.03275" lon="7.93073">
        <ele>218.2</ele>
        <time>2026-03-09T09:53:51Z</time>
      </trkpt>
      <trkpt lat="49.03277" lon="7.93064">
        <ele>218.7</ele>
        <time>2026-03-09T09:53:56Z</time>
      </trkpt>
      <trkpt lat="49.03277" lon="7.93057">
        <ele>219</ele>
        <time>2026-03-09T09:54:01Z</time>
      </trkpt>
      <trkpt lat="49.03277" lon="7.93049">
        <ele>219.5</ele>
        <time>2026-03-09T09:54:06Z</time>
      </trkpt>
      <trkpt lat="49.03277" lon="7.93041">
        <ele>219.9</ele>
        <time>2026-03-09T09:54:11Z</time>
      </trkpt>
      <trkpt lat="49.03278" lon="7.93033">
        <ele>220.3</ele>
        <time>2026-03-09T09:54:16Z</time>
      </trkpt>
      <trkpt lat="49.03278" lon="7.93023">
        <ele>220.8</ele>
        <time>2026-03-09T09:54:21Z</time>
      </trkpt>
      <trkpt lat="49.03279" lon="7.93015">
        <ele>221.2</ele>
        <time>2026-03-09T09:54:26Z</time>
      </trkpt>
      <trkpt lat="49.0328" lon="7.93008">
        <ele>221.6</ele>
        <time>2026-03-09T09:54:31Z</time>
      </trkpt>
      <trkpt lat="49.03279" lon="7.92998">
        <ele>222.1</ele>
        <time>2026-03-09T09:54:36Z</time>
      </trkpt>
      <trkpt lat="49.03278" lon="7.92988">
        <ele>222.6</ele>
        <time>2026-03-09T09:54:41Z</time>
      </trkpt>
      <trkpt lat="49.03279" lon="7.92981">
        <ele>222.9</ele>
        <time>2026-03-09T09:54:46Z</time>
      </trkpt>
      <trkpt lat="49.0328" lon="7.92973">
        <ele>223.3</ele>
        <time>2026-03-09T09:54:51Z</time>
      </trkpt>
      <trkpt lat="49.0328" lon="7.92965">
        <ele>223.7</ele>
        <time>2026-03-09T09:54:56Z</time>
      </trkpt>
      <trkpt lat="49.03282" lon="7.92957">
        <ele>224.1</ele>
        <time>2026-03-09T09:55:01Z</time>
      </trkpt>
      <trkpt lat="49.03283" lon="7.92949">
        <ele>224.4</ele>
        <time>2026-03-09T09:55:06Z</time>
      </trkpt>
      <trkpt lat="49.03286" lon="7.92942">
        <ele>224.8</ele>
        <time>2026-03-09T09:55:11Z</time>
      </trkpt>
      <trkpt lat="49.03285" lon="7.92936">
        <ele>225.1</ele>
        <time>2026-03-09T09:55:16Z</time>
      </trkpt>
      <trkpt lat="49.03284" lon="7.92934">
        <ele>225.2</ele>
        <time>2026-03-09T09:55:21Z</time>
      </trkpt>
      <trkpt lat="49.03284" lon="7.92934">
        <ele>225.2</ele>
        <time>2026-03-09T09:55:26Z</time>
      </trkpt>
      <trkpt lat="49.03284" lon="7.92934">
        <ele>225.2</ele>
        <time>2026-03-09T09:55:31Z</time>
      </trkpt>
      <trkpt lat="49.03287" lon="7.92927">
        <ele>225.5</ele>
        <time>2026-03-09T09:55:36Z</time>
      </trkpt>
      <trkpt lat="49.03288" lon="7.9292">
        <ele>225.8</ele>
        <time>2026-03-09T09:55:41Z</time>
      </trkpt>
      <trkpt lat="49.03291" lon="7.92912">
        <ele>226.5</ele>
        <time>2026-03-09T09:55:46Z</time>
      </trkpt>
      <trkpt lat="49.03292" lon="7.92906">
        <ele>227.1</ele>
        <time>2026-03-09T09:55:51Z</time>
      </trkpt>
      <trkpt lat="49.03296" lon="7.92901">
        <ele>227.6</ele>
        <time>2026-03-09T09:55:56Z</time>
      </trkpt>
      <trkpt lat="49.03299" lon="7.92896">
        <ele>228.1</ele>
        <time>2026-03-09T09:56:01Z</time>
      </trkpt>
      <trkpt lat="49.03301" lon="7.92889">
        <ele>228.9</ele>
        <time>2026-03-09T09:56:06Z</time>
      </trkpt>
      <trkpt lat="49.03303" lon="7.92883">
        <ele>229.5</ele>
        <time>2026-03-09T09:56:11Z</time>
      </trkpt>
      <trkpt lat="49.03305" lon="7.92879">
        <ele>229.9</ele>
        <time>2026-03-09T09:56:16Z</time>
      </trkpt>
      <trkpt lat="49.03306" lon="7.92875">
        <ele>230.3</ele>
        <time>2026-03-09T09:56:21Z</time>
      </trkpt>
      <trkpt lat="49.03305" lon="7.92872">
        <ele>230.6</ele>
        <time>2026-03-09T09:56:26Z</time>
      </trkpt>
      <trkpt lat="49.03304" lon="7.92871">
        <ele>230.7</ele>
        <time>2026-03-09T09:56:31Z</time>
      </trkpt>
      <trkpt lat="49.03304" lon="7.92871">
        <ele>230.7</ele>
        <time>2026-03-09T09:56:36Z</time>
      </trkpt>
      <trkpt lat="49.03302" lon="7.92866">
        <ele>231.2</ele>
        <time>2026-03-09T09:56:41Z</time>
      </trkpt>
      <trkpt lat="49.03299" lon="7.92859">
        <ele>231.9</ele>
        <time>2026-03-09T09:56:46Z</time>
      </trkpt>
      <trkpt lat="49.03298" lon="7.92852">
        <ele>232.7</ele>
        <time>2026-03-09T09:56:51Z</time>
      </trkpt>
      <trkpt lat="49.03296" lon="7.92845">
        <ele>233.4</ele>
        <time>2026-03-09T09:56:56Z</time>
      </trkpt>
      <trkpt lat="49.03293" lon="7.92836">
        <ele>234.2</ele>
        <time>2026-03-09T09:57:01Z</time>
      </trkpt>
      <trkpt lat="49.0329" lon="7.92828">
        <ele>235</ele>
        <time>2026-03-09T09:57:06Z</time>
      </trkpt>
      <trkpt lat="49.03287" lon="7.92821">
        <ele>235.5</ele>
        <time>2026-03-09T09:57:11Z</time>
      </trkpt>
      <trkpt lat="49.03284" lon="7.92815">
        <ele>236</ele>
        <time>2026-03-09T09:57:16Z</time>
      </trkpt>
      <trkpt lat="49.03284" lon="7.92808">
        <ele>236.7</ele>
        <time>2026-03-09T09:57:21Z</time>
      </trkpt>
      <trkpt lat="49.03286" lon="7.92798">
        <ele>237.6</ele>
        <time>2026-03-09T09:57:26Z</time>
      </trkpt>
      <trkpt lat="49.03288" lon="7.92789">
        <ele>238.4</ele>
        <time>2026-03-09T09:57:31Z</time>
      </trkpt>
      <trkpt lat="49.03289" lon="7.92782">
        <ele>239.1</ele>
        <time>2026-03-09T09:57:36Z</time>
      </trkpt>
      <trkpt lat="49.03292" lon="7.92774">
        <ele>239.8</ele>
        <time>2026-03-09T09:57:41Z</time>
      </trkpt>
      <trkpt lat="49.03293" lon="7.92767">
        <ele>240.5</ele>
        <time>2026-03-09T09:57:46Z</time>
      </trkpt>
      <trkpt lat="49.03294" lon="7.9276">
        <ele>241.2</ele>
        <time>2026-03-09T09:57:51Z</time>
      </trkpt>
      <trkpt lat="49.03294" lon="7.92754">
        <ele>241.7</ele>
        <time>2026-03-09T09:57:56Z</time>
      </trkpt>
      <trkpt lat="49.03293" lon="7.92749">
        <ele>242.1</ele>
        <time>2026-03-09T09:58:01Z</time>
      </trkpt>
      <trkpt lat="49.03292" lon="7.92749">
        <ele>242.1</ele>
        <time>2026-03-09T09:58:06Z</time>
      </trkpt>
      <trkpt lat="49.03293" lon="7.92742">
        <ele>242.4</ele>
        <time>2026-03-09T09:58:11Z</time>
      </trkpt>
      <trkpt lat="49.03297" lon="7.92737">
        <ele>242.7</ele>
        <time>2026-03-09T09:58:16Z</time>
      </trkpt>
      <trkpt lat="49.03297" lon="7.92728">
        <ele>243.1</ele>
        <time>2026-03-09T09:58:21Z</time>
      </trkpt>
      <trkpt lat="49.03295" lon="7.92718">
        <ele>243.4</ele>
        <time>2026-03-09T09:58:26Z</time>
      </trkpt>
      <trkpt lat="49.03297" lon="7.92718">
        <ele>243.5</ele>
        <time>2026-03-09T09:58:31Z</time>
      </trkpt>
      <trkpt lat="49.03297" lon="7.92718">
        <ele>243.5</ele>
        <time>2026-03-09T09:58:36Z</time>
      </trkpt>
      <trkpt lat="49.03297" lon="7.92718">
        <ele>243.5</ele>
        <time>2026-03-09T09:58:41Z</time>
      </trkpt>
      <trkpt lat="49.03298" lon="7.92707">
        <ele>244</ele>
        <time>2026-03-09T09:58:46Z</time>
      </trkpt>
      <trkpt lat="49.03301" lon="7.92697">
        <ele>244.5</ele>
        <time>2026-03-09T09:58:51Z</time>
      </trkpt>
      <trkpt lat="49.03303" lon="7.92686">
        <ele>245.1</ele>
        <time>2026-03-09T09:58:56Z</time>
      </trkpt>
      <trkpt lat="49.03304" lon="7.92677">
        <ele>245.5</ele>
        <time>2026-03-09T09:59:01Z</time>
      </trkpt>
      <trkpt lat="49.03307" lon="7.92667">
        <ele>246</ele>
        <time>2026-03-09T09:59:06Z</time>
      </trkpt>
      <trkpt lat="49.0331" lon="7.92659">
        <ele>246.5</ele>
        <time>2026-03-09T09:59:11Z</time>
      </trkpt>
      <trkpt lat="49.03312" lon="7.9265">
        <ele>247</ele>
        <time>2026-03-09T09:59:16Z</time>
      </trkpt>
      <trkpt lat="49.03316" lon="7.9264">
        <ele>247.5</ele>
        <time>2026-03-09T09:59:21Z</time>
      </trkpt>
      <trkpt lat="49.03321" lon="7.9263">
        <ele>248.1</ele>
        <time>2026-03-09T09:59:26Z</time>
      </trkpt>
      <trkpt lat="49.03326" lon="7.92625">
        <ele>248.4</ele>
        <time>2026-03-09T09:59:31Z</time>
      </trkpt>
      <trkpt lat="49.03331" lon="7.92621">
        <ele>248.6</ele>
        <time>2026-03-09T09:59:36Z</time>
      </trkpt>
      <trkpt lat="49.03337" lon="7.92618">
        <ele>248.6</ele>
        <time>2026-03-09T09:59:41Z</time>
      </trkpt>
      <trkpt lat="49.03344" lon="7.92615">
        <ele>248.5</ele>
        <time>2026-03-09T09:59:46Z</time>
      </trkpt>
      <trkpt lat="49.0335" lon="7.92611">
        <ele>248.4</ele>
        <time>2026-03-09T09:59:51Z</time>
      </trkpt>
      <trkpt lat="49.03357" lon="7.92608">
        <ele>248.3</ele>
        <time>2026-03-09T09:59:56Z</time>
      </trkpt>
      <trkpt lat="49.03364" lon="7.92604">
        <ele>248.2</ele>
        <time>2026-03-09T10:00:01Z</time>
      </trkpt>
      <trkpt lat="49.03366" lon="7.92603">
        <ele>248.1</ele>
        <time>2026-03-09T10:00:06Z</time>
      </trkpt>
      <trkpt lat="49.03367" lon="7.92603">
        <ele>248.1</ele>
        <time>2026-03-09T10:00:11Z</time>
      </trkpt>
      <trkpt lat="49.03371" lon="7.92601">
        <ele>248</ele>
        <time>2026-03-09T10:00:16Z</time>
      </trkpt>
      <trkpt lat="49.03378" lon="7.92597">
        <ele>247.9</ele>
        <time>2026-03-09T10:00:21Z</time>
      </trkpt>
      <trkpt lat="49.03381" lon="7.92588">
        <ele>248.1</ele>
        <time>2026-03-09T10:00:26Z</time>
      </trkpt>
      <trkpt lat="49.03384" lon="7.92581">
        <ele>248.3</ele>
        <time>2026-03-09T10:00:31Z</time>
      </trkpt>
      <trkpt lat="49.03387" lon="7.92572">
        <ele>248.6</ele>
        <time>2026-03-09T10:00:36Z</time>
      </trkpt>
      <trkpt lat="49.03386" lon="7.92562">
        <ele>249</ele>
        <time>2026-03-09T10:00:41Z</time>
      </trkpt>
      <trkpt lat="49.03384" lon="7.92552">
        <ele>249.5</ele>
        <time>2026-03-09T10:00:46Z</time>
      </trkpt>
      <trkpt lat="49.03383" lon="7.92543">
        <ele>250</ele>
        <time>2026-03-09T10:00:51Z</time>
      </trkpt>
      <trkpt lat="49.0338" lon="7.92531">
        <ele>250.6</ele>
        <time>2026-03-09T10:00:56Z</time>
      </trkpt>
      <trkpt lat="49.03378" lon="7.92527">
        <ele>250.8</ele>
        <time>2026-03-09T10:01:01Z</time>
      </trkpt>
      <trkpt lat="49.03374" lon="7.92523">
        <ele>251.1</ele>
        <time>2026-03-09T10:01:06Z</time>
      </trkpt>
      <trkpt lat="49.0337" lon="7.92513">
        <ele>251.6</ele>
        <time>2026-03-09T10:01:11Z</time>
      </trkpt>
      <trkpt lat="49.03366" lon="7.92503">
        <ele>252.1</ele>
        <time>2026-03-09T10:01:16Z</time>
      </trkpt>
      <trkpt lat="49.03363" lon="7.92494">
        <ele>252.4</ele>
        <time>2026-03-09T10:01:21Z</time>
      </trkpt>
      <trkpt lat="49.0336" lon="7.92484">
        <ele>252.7</ele>
        <time>2026-03-09T10:01:26Z</time>
      </trkpt>
      <trkpt lat="49.03358" lon="7.92478">
        <ele>252.9</ele>
        <time>2026-03-09T10:01:31Z</time>
      </trkpt>
      <trkpt lat="49.03357" lon="7.92475">
        <ele>252.9</ele>
        <time>2026-03-09T10:01:36Z</time>
      </trkpt>
      <trkpt lat="49.03357" lon="7.92474">
        <ele>253</ele>
        <time>2026-03-09T10:01:41Z</time>
      </trkpt>
      <trkpt lat="49.03356" lon="7.92464">
        <ele>253.2</ele>
        <time>2026-03-09T10:01:46Z</time>
      </trkpt>
      <trkpt lat="49.03354" lon="7.92455">
        <ele>253.5</ele>
        <time>2026-03-09T10:01:51Z</time>
      </trkpt>
      <trkpt lat="49.03354" lon="7.92443">
        <ele>253.7</ele>
        <time>2026-03-09T10:01:56Z</time>
      </trkpt>
      <trkpt lat="49.03352" lon="7.92433">
        <ele>254</ele>
        <time>2026-03-09T10:02:01Z</time>
      </trkpt>
      <trkpt lat="49.0335" lon="7.92423">
        <ele>254.3</ele>
        <time>2026-03-09T10:02:06Z</time>
      </trkpt>
      <trkpt lat="49.03348" lon="7.92415">
        <ele>254.5</ele>
        <time>2026-03-09T10:02:11Z</time>
      </trkpt>
      <trkpt lat="49.03344" lon="7.92405">
        <ele>254.7</ele>
        <time>2026-03-09T10:02:16Z</time>
      </trkpt>
      <trkpt lat="49.03341" lon="7.92395">
        <ele>254.9</ele>
        <time>2026-03-09T10:02:21Z</time>
      </trkpt>
      <trkpt lat="49.03338" lon="7.92385">
        <ele>255.2</ele>
        <time>2026-03-09T10:02:26Z</time>
      </trkpt>
      <trkpt lat="49.03335" lon="7.92379">
        <ele>255.4</ele>
        <time>2026-03-09T10:02:31Z</time>
      </trkpt>
      <trkpt lat="49.03327" lon="7.92372">
        <ele>255.9</ele>
        <time>2026-03-09T10:02:36Z</time>
      </trkpt>
      <trkpt lat="49.0332" lon="7.92365">
        <ele>256.4</ele>
        <time>2026-03-09T10:02:41Z</time>
      </trkpt>
      <trkpt lat="49.03314" lon="7.92357">
        <ele>256.8</ele>
        <time>2026-03-09T10:02:46Z</time>
      </trkpt>
      <trkpt lat="49.0331" lon="7.92349">
        <ele>257.2</ele>
        <time>2026-03-09T10:02:51Z</time>
      </trkpt>
      <trkpt lat="49.03304" lon="7.92339">
        <ele>257.7</ele>
        <time>2026-03-09T10:02:56Z</time>
      </trkpt>
      <trkpt lat="49.03303" lon="7.9233">
        <ele>257.9</ele>
        <time>2026-03-09T10:03:01Z</time>
      </trkpt>
      <trkpt lat="49.03301" lon="7.92318">
        <ele>258.2</ele>
        <time>2026-03-09T10:03:06Z</time>
      </trkpt>
      <trkpt lat="49.03301" lon="7.92306">
        <ele>258.5</ele>
        <time>2026-03-09T10:03:11Z</time>
      </trkpt>
      <trkpt lat="49.03301" lon="7.92294">
        <ele>258.7</ele>
        <time>2026-03-09T10:03:16Z</time>
      </trkpt>
      <trkpt lat="49.03302" lon="7.92282">
        <ele>258.9</ele>
        <time>2026-03-09T10:03:21Z</time>
      </trkpt>
      <trkpt lat="49.03303" lon="7.92272">
        <ele>259</ele>
        <time>2026-03-09T10:03:26Z</time>
      </trkpt>
      <trkpt lat="49.03304" lon="7.9226">
        <ele>259.2</ele>
        <time>2026-03-09T10:03:31Z</time>
      </trkpt>
      <trkpt lat="49.03302" lon="7.92249">
        <ele>259.5</ele>
        <time>2026-03-09T10:03:36Z</time>
      </trkpt>
      <trkpt lat="49.03299" lon="7.92238">
        <ele>259.7</ele>
        <time>2026-03-09T10:03:41Z</time>
      </trkpt>
      <trkpt lat="49.03294" lon="7.9223">
        <ele>260</ele>
        <time>2026-03-09T10:03:46Z</time>
      </trkpt>
      <trkpt lat="49.03289" lon="7.92224">
        <ele>260.3</ele>
        <time>2026-03-09T10:03:51Z</time>
      </trkpt>
      <trkpt lat="49.03283" lon="7.92219">
        <ele>260.6</ele>
        <time>2026-03-09T10:03:56Z</time>
      </trkpt>
      <trkpt lat="49.03276" lon="7.92215">
        <ele>261</ele>
        <time>2026-03-09T10:04:01Z</time>
      </trkpt>
      <trkpt lat="49.0327" lon="7.92209">
        <ele>261.4</ele>
        <time>2026-03-09T10:04:06Z</time>
      </trkpt>
      <trkpt lat="49.03265" lon="7.92204">
        <ele>261.7</ele>
        <time>2026-03-09T10:04:11Z</time>
      </trkpt>
      <trkpt lat="49.03257" lon="7.92196">
        <ele>262.3</ele>
        <time>2026-03-09T10:04:16Z</time>
      </trkpt>
      <trkpt lat="49.0325" lon="7.92189">
        <ele>262.7</ele>
        <time>2026-03-09T10:04:21Z</time>
      </trkpt>
      <trkpt lat="49.03244" lon="7.92184">
        <ele>262.9</ele>
        <time>2026-03-09T10:04:26Z</time>
      </trkpt>
      <trkpt lat="49.03238" lon="7.92177">
        <ele>263.1</ele>
        <time>2026-03-09T10:04:31Z</time>
      </trkpt>
      <trkpt lat="49.03232" lon="7.92171">
        <ele>263.4</ele>
        <time>2026-03-09T10:04:36Z</time>
      </trkpt>
      <trkpt lat="49.03226" lon="7.92163">
        <ele>263.6</ele>
        <time>2026-03-09T10:04:41Z</time>
      </trkpt>
      <trkpt lat="49.03224" lon="7.92153">
        <ele>263.7</ele>
        <time>2026-03-09T10:04:46Z</time>
      </trkpt>
      <trkpt lat="49.03221" lon="7.92144">
        <ele>263.8</ele>
        <time>2026-03-09T10:04:51Z</time>
      </trkpt>
      <trkpt lat="49.0322" lon="7.92136">
        <ele>263.9</ele>
        <time>2026-03-09T10:04:56Z</time>
      </trkpt>
      <trkpt lat="49.03216" lon="7.92128">
        <ele>264</ele>
        <time>2026-03-09T10:05:01Z</time>
      </trkpt>
      <trkpt lat="49.03213" lon="7.92121">
        <ele>264.1</ele>
        <time>2026-03-09T10:05:06Z</time>
      </trkpt>
      <trkpt lat="49.03209" lon="7.92112">
        <ele>264.3</ele>
        <time>2026-03-09T10:05:11Z</time>
      </trkpt>
      <trkpt lat="49.03204" lon="7.92104">
        <ele>264.5</ele>
        <time>2026-03-09T10:05:16Z</time>
      </trkpt>
      <trkpt lat="49.03199" lon="7.92093">
        <ele>264.8</ele>
        <time>2026-03-09T10:05:21Z</time>
      </trkpt>
      <trkpt lat="49.03195" lon="7.92083">
        <ele>265</ele>
        <time>2026-03-09T10:05:26Z</time>
      </trkpt>
      <trkpt lat="49.03192" lon="7.92077">
        <ele>265.2</ele>
        <time>2026-03-09T10:05:31Z</time>
      </trkpt>
      <trkpt lat="49.03187" lon="7.92067">
        <ele>265.5</ele>
        <time>2026-03-09T10:05:36Z</time>
      </trkpt>
      <trkpt lat="49.03185" lon="7.92057">
        <ele>265.8</ele>
        <time>2026-03-09T10:05:41Z</time>
      </trkpt>
      <trkpt lat="49.03182" lon="7.92049">
        <ele>266</ele>
        <time>2026-03-09T10:05:46Z</time>
      </trkpt>
      <trkpt lat="49.03181" lon="7.9204">
        <ele>266.3</ele>
        <time>2026-03-09T10:05:51Z</time>
      </trkpt>
      <trkpt lat="49.03177" lon="7.92029">
        <ele>266.7</ele>
        <time>2026-03-09T10:05:56Z</time>
      </trkpt>
      <trkpt lat="49.03176" lon="7.92016">
        <ele>267</ele>
        <time>2026-03-09T10:06:01Z</time>
      </trkpt>
      <trkpt lat="49.03176" lon="7.92007">
        <ele>267.2</ele>
        <time>2026-03-09T10:06:06Z</time>
      </trkpt>
      <trkpt lat="49.03174" lon="7.91994">
        <ele>267.8</ele>
        <time>2026-03-09T10:06:11Z</time>
      </trkpt>
      <trkpt lat="49.0317" lon="7.91987">
        <ele>268.4</ele>
        <time>2026-03-09T10:06:16Z</time>
      </trkpt>
      <trkpt lat="49.0317" lon="7.91979">
        <ele>268.8</ele>
        <time>2026-03-09T10:06:21Z</time>
      </trkpt>
      <trkpt lat="49.03167" lon="7.91966">
        <ele>269.6</ele>
        <time>2026-03-09T10:06:26Z</time>
      </trkpt>
      <trkpt lat="49.03163" lon="7.91961">
        <ele>269.7</ele>
        <time>2026-03-09T10:06:31Z</time>
      </trkpt>
      <trkpt lat="49.03159" lon="7.9196">
        <ele>269.5</ele>
        <time>2026-03-09T10:06:36Z</time>
      </trkpt>
      <trkpt lat="49.03153" lon="7.91952">
        <ele>269.5</ele>
        <time>2026-03-09T10:06:41Z</time>
      </trkpt>
      <trkpt lat="49.03151" lon="7.9194">
        <ele>269.9</ele>
        <time>2026-03-09T10:06:46Z</time>
      </trkpt>
      <trkpt lat="49.0315" lon="7.91939">
        <ele>269.9</ele>
        <time>2026-03-09T10:06:51Z</time>
      </trkpt>
      <trkpt lat="49.03149" lon="7.91939">
        <ele>269.9</ele>
        <time>2026-03-09T10:06:56Z</time>
      </trkpt>
      <trkpt lat="49.03146" lon="7.91933">
        <ele>270</ele>
        <time>2026-03-09T10:07:01Z</time>
      </trkpt>
      <trkpt lat="49.03145" lon="7.91923">
        <ele>270.4</ele>
        <time>2026-03-09T10:07:06Z</time>
      </trkpt>
      <trkpt lat="49.03145" lon="7.91915">
        <ele>270.7</ele>
        <time>2026-03-09T10:07:11Z</time>
      </trkpt>
      <trkpt lat="49.03145" lon="7.91904">
        <ele>271</ele>
        <time>2026-03-09T10:07:16Z</time>
      </trkpt>
      <trkpt lat="49.03144" lon="7.91895">
        <ele>271.2</ele>
        <time>2026-03-09T10:07:21Z</time>
      </trkpt>
      <trkpt lat="49.03144" lon="7.9189">
        <ele>271.4</ele>
        <time>2026-03-09T10:07:26Z</time>
      </trkpt>
      <trkpt lat="49.03143" lon="7.9189">
        <ele>271.3</ele>
        <time>2026-03-09T10:07:31Z</time>
      </trkpt>
      <trkpt lat="49.03143" lon="7.9189">
        <ele>271.3</ele>
        <time>2026-03-09T10:07:36Z</time>
      </trkpt>
      <trkpt lat="49.03143" lon="7.9189">
        <ele>271.3</ele>
        <time>2026-03-09T10:07:41Z</time>
      </trkpt>
      <trkpt lat="49.03143" lon="7.9189">
        <ele>271.3</ele>
        <time>2026-03-09T10:07:46Z</time>
      </trkpt>
      <trkpt lat="49.03143" lon="7.9189">
        <ele>271.3</ele>
        <time>2026-03-09T10:07:51Z</time>
      </trkpt>
      <trkpt lat="49.03143" lon="7.9189">
        <ele>271.3</ele>
        <time>2026-03-09T10:07:56Z</time>
      </trkpt>
      <trkpt lat="49.03143" lon="7.9189">
        <ele>271.3</ele>
        <time>2026-03-09T10:08:01Z</time>
      </trkpt>
      <trkpt lat="49.03143" lon="7.9189">
        <ele>271.3</ele>
        <time>2026-03-09T10:08:06Z</time>
      </trkpt>
      <trkpt lat="49.03143" lon="7.9189">
        <ele>271.3</ele>
        <time>2026-03-09T10:08:11Z</time>
      </trkpt>
      <trkpt lat="49.03143" lon="7.9189">
        <ele>271.3</ele>
        <time>2026-03-09T10:08:16Z</time>
      </trkpt>
      <trkpt lat="49.03143" lon="7.9189">
        <ele>271.3</ele>
        <time>2026-03-09T10:08:21Z</time>
      </trkpt>
      <trkpt lat="49.03141" lon="7.91888">
        <ele>271.3</ele>
        <time>2026-03-09T10:08:26Z</time>
      </trkpt>
      <trkpt lat="49.03141" lon="7.91878">
        <ele>271.5</ele>
        <time>2026-03-09T10:08:31Z</time>
      </trkpt>
      <trkpt lat="49.03139" lon="7.91866">
        <ele>271.8</ele>
        <time>2026-03-09T10:08:36Z</time>
      </trkpt>
      <trkpt lat="49.03139" lon="7.91857">
        <ele>272</ele>
        <time>2026-03-09T10:08:41Z</time>
      </trkpt>
      <trkpt lat="49.03137" lon="7.91847">
        <ele>272.2</ele>
        <time>2026-03-09T10:08:46Z</time>
      </trkpt>
      <trkpt lat="49.03134" lon="7.91838">
        <ele>272.3</ele>
        <time>2026-03-09T10:08:51Z</time>
      </trkpt>
      <trkpt lat="49.03129" lon="7.91828">
        <ele>272.2</ele>
        <time>2026-03-09T10:08:56Z</time>
      </trkpt>
      <trkpt lat="49.03124" lon="7.91822">
        <ele>272.1</ele>
        <time>2026-03-09T10:09:01Z</time>
      </trkpt>
      <trkpt lat="49.03119" lon="7.91816">
        <ele>271.9</ele>
        <time>2026-03-09T10:09:06Z</time>
      </trkpt>
      <trkpt lat="49.03116" lon="7.9181">
        <ele>271.9</ele>
        <time>2026-03-09T10:09:11Z</time>
      </trkpt>
      <trkpt lat="49.03111" lon="7.91803">
        <ele>271.8</ele>
        <time>2026-03-09T10:09:16Z</time>
      </trkpt>
      <trkpt lat="49.03107" lon="7.91796">
        <ele>271.8</ele>
        <time>2026-03-09T10:09:21Z</time>
      </trkpt>
      <trkpt lat="49.03101" lon="7.91788">
        <ele>271.7</ele>
        <time>2026-03-09T10:09:26Z</time>
      </trkpt>
      <trkpt lat="49.03096" lon="7.9178">
        <ele>271.7</ele>
        <time>2026-03-09T10:09:31Z</time>
      </trkpt>
      <trkpt lat="49.0309" lon="7.91772">
        <ele>271.7</ele>
        <time>2026-03-09T10:09:36Z</time>
      </trkpt>
      <trkpt lat="49.03086" lon="7.91767">
        <ele>271.7</ele>
        <time>2026-03-09T10:09:41Z</time>
      </trkpt>
      <trkpt lat="49.03082" lon="7.91761">
        <ele>271.7</ele>
        <time>2026-03-09T10:09:46Z</time>
      </trkpt>
      <trkpt lat="49.03079" lon="7.91756">
        <ele>271.6</ele>
        <time>2026-03-09T10:09:51Z</time>
      </trkpt>
      <trkpt lat="49.03071" lon="7.91746">
        <ele>271.4</ele>
        <time>2026-03-09T10:09:56Z</time>
      </trkpt>
      <trkpt lat="49.03066" lon="7.91741">
        <ele>271.3</ele>
        <time>2026-03-09T10:10:01Z</time>
      </trkpt>
      <trkpt lat="49.0306" lon="7.91739">
        <ele>271.1</ele>
        <time>2026-03-09T10:10:06Z</time>
      </trkpt>
      <trkpt lat="49.03054" lon="7.91739">
        <ele>270.7</ele>
        <time>2026-03-09T10:10:11Z</time>
      </trkpt>
      <trkpt lat="49.03049" lon="7.91737">
        <ele>270.4</ele>
        <time>2026-03-09T10:10:16Z</time>
      </trkpt>
      <trkpt lat="49.03048" lon="7.9173">
        <ele>270.6</ele>
        <time>2026-03-09T10:10:21Z</time>
      </trkpt>
      <trkpt lat="49.03046" lon="7.91721">
        <ele>270.8</ele>
        <time>2026-03-09T10:10:26Z</time>
      </trkpt>
      <trkpt lat="49.03046" lon="7.9172">
        <ele>270.9</ele>
        <time>2026-03-09T10:10:31Z</time>
      </trkpt>
      <trkpt lat="49.03046" lon="7.91718">
        <ele>271</ele>
        <time>2026-03-09T10:10:36Z</time>
      </trkpt>
      <trkpt lat="49.03046" lon="7.91718">
        <ele>271</ele>
        <time>2026-03-09T10:10:41Z</time>
      </trkpt>
      <trkpt lat="49.03046" lon="7.91718">
        <ele>271</ele>
        <time>2026-03-09T10:10:46Z</time>
      </trkpt>
      <trkpt lat="49.03046" lon="7.91718">
        <ele>271</ele>
        <time>2026-03-09T10:10:51Z</time>
      </trkpt>
      <trkpt lat="49.03046" lon="7.91718">
        <ele>271</ele>
        <time>2026-03-09T10:10:56Z</time>
      </trkpt>
      <trkpt lat="49.03046" lon="7.91718">
        <ele>271</ele>
        <time>2026-03-09T10:11:01Z</time>
      </trkpt>
      <trkpt lat="49.03041" lon="7.91703">
        <ele>271.1</ele>
        <time>2026-03-09T10:11:06Z</time>
      </trkpt>
      <trkpt lat="49.03038" lon="7.91697">
        <ele>271.1</ele>
        <time>2026-03-09T10:11:11Z</time>
      </trkpt>
      <trkpt lat="49.03035" lon="7.91689">
        <ele>271.2</ele>
        <time>2026-03-09T10:11:16Z</time>
      </trkpt>
      <trkpt lat="49.03034" lon="7.91683">
        <ele>271.3</ele>
        <time>2026-03-09T10:11:21Z</time>
      </trkpt>
      <trkpt lat="49.03033" lon="7.91676">
        <ele>271.5</ele>
        <time>2026-03-09T10:11:26Z</time>
      </trkpt>
      <trkpt lat="49.0303" lon="7.91667">
        <ele>271.5</ele>
        <time>2026-03-09T10:11:31Z</time>
      </trkpt>
      <trkpt lat="49.03028" lon="7.91659">
        <ele>271.5</ele>
        <time>2026-03-09T10:11:36Z</time>
      </trkpt>
      <trkpt lat="49.03025" lon="7.9165">
        <ele>271.4</ele>
        <time>2026-03-09T10:11:41Z</time>
      </trkpt>
      <trkpt lat="49.03022" lon="7.91644">
        <ele>271.3</ele>
        <time>2026-03-09T10:11:46Z</time>
      </trkpt>
      <trkpt lat="49.03019" lon="7.91636">
        <ele>271.2</ele>
        <time>2026-03-09T10:11:51Z</time>
      </trkpt>
      <trkpt lat="49.03013" lon="7.91623">
        <ele>271.1</ele>
        <time>2026-03-09T10:11:56Z</time>
      </trkpt>
      <trkpt lat="49.03009" lon="7.9161">
        <ele>271</ele>
        <time>2026-03-09T10:12:01Z</time>
      </trkpt>
      <trkpt lat="49.03004" lon="7.916">
        <ele>270.9</ele>
        <time>2026-03-09T10:12:06Z</time>
      </trkpt>
      <trkpt lat="49.03002" lon="7.91591">
        <ele>271</ele>
        <time>2026-03-09T10:12:11Z</time>
      </trkpt>
      <trkpt lat="49.02998" lon="7.91581">
        <ele>270.9</ele>
        <time>2026-03-09T10:12:16Z</time>
      </trkpt>
      <trkpt lat="49.02994" lon="7.9157">
        <ele>271</ele>
        <time>2026-03-09T10:12:21Z</time>
      </trkpt>
      <trkpt lat="49.02989" lon="7.91559">
        <ele>271</ele>
        <time>2026-03-09T10:12:26Z</time>
      </trkpt>
      <trkpt lat="49.02985" lon="7.91551">
        <ele>270.9</ele>
        <time>2026-03-09T10:12:31Z</time>
      </trkpt>
      <trkpt lat="49.0298" lon="7.91543">
        <ele>270.7</ele>
        <time>2026-03-09T10:12:36Z</time>
      </trkpt>
      <trkpt lat="49.02975" lon="7.91534">
        <ele>270.4</ele>
        <time>2026-03-09T10:12:41Z</time>
      </trkpt>
      <trkpt lat="49.02974" lon="7.91532">
        <ele>270.4</ele>
        <time>2026-03-09T10:12:46Z</time>
      </trkpt>
      <trkpt lat="49.02972" lon="7.91532">
        <ele>270.1</ele>
        <time>2026-03-09T10:12:51Z</time>
      </trkpt>
      <trkpt lat="49.02968" lon="7.91535">
        <ele>269.4</ele>
        <time>2026-03-09T10:12:56Z</time>
      </trkpt>
      <trkpt lat="49.02965" lon="7.91534">
        <ele>269</ele>
        <time>2026-03-09T10:13:01Z</time>
      </trkpt>
      <trkpt lat="49.02967" lon="7.91531">
        <ele>269.4</ele>
        <time>2026-03-09T10:13:06Z</time>
      </trkpt>
      <trkpt lat="49.0297" lon="7.9152">
        <ele>270.4</ele>
        <time>2026-03-09T10:13:11Z</time>
      </trkpt>
      <trkpt lat="49.02969" lon="7.91507">
        <ele>270.8</ele>
        <time>2026-03-09T10:13:16Z</time>
      </trkpt>
      <trkpt lat="49.02966" lon="7.91497">
        <ele>270.8</ele>
        <time>2026-03-09T10:13:21Z</time>
      </trkpt>
      <trkpt lat="49.02963" lon="7.91485">
        <ele>270.7</ele>
        <time>2026-03-09T10:13:26Z</time>
      </trkpt>
      <trkpt lat="49.0296" lon="7.91477">
        <ele>270.6</ele>
        <time>2026-03-09T10:13:31Z</time>
      </trkpt>
      <trkpt lat="49.02958" lon="7.9147">
        <ele>270.5</ele>
        <time>2026-03-09T10:13:36Z</time>
      </trkpt>
      <trkpt lat="49.02956" lon="7.91462">
        <ele>270.5</ele>
        <time>2026-03-09T10:13:41Z</time>
      </trkpt>
      <trkpt lat="49.02954" lon="7.91452">
        <ele>270.6</ele>
        <time>2026-03-09T10:13:46Z</time>
      </trkpt>
      <trkpt lat="49.02953" lon="7.91441">
        <ele>270.9</ele>
        <time>2026-03-09T10:13:51Z</time>
      </trkpt>
      <trkpt lat="49.02953" lon="7.91431">
        <ele>271.3</ele>
        <time>2026-03-09T10:13:56Z</time>
      </trkpt>
      <trkpt lat="49.02951" lon="7.91419">
        <ele>271.4</ele>
        <time>2026-03-09T10:14:01Z</time>
      </trkpt>
      <trkpt lat="49.0295" lon="7.91409">
        <ele>271.7</ele>
        <time>2026-03-09T10:14:06Z</time>
      </trkpt>
      <trkpt lat="49.02949" lon="7.91397">
        <ele>272.2</ele>
        <time>2026-03-09T10:14:11Z</time>
      </trkpt>
      <trkpt lat="49.02949" lon="7.91388">
        <ele>272.6</ele>
        <time>2026-03-09T10:14:16Z</time>
      </trkpt>
      <trkpt lat="49.02947" lon="7.91378">
        <ele>272.8</ele>
        <time>2026-03-09T10:14:21Z</time>
      </trkpt>
      <trkpt lat="49.02945" lon="7.91368">
        <ele>273.1</ele>
        <time>2026-03-09T10:14:26Z</time>
      </trkpt>
      <trkpt lat="49.02944" lon="7.91359">
        <ele>273.4</ele>
        <time>2026-03-09T10:14:31Z</time>
      </trkpt>
      <trkpt lat="49.02944" lon="7.91349">
        <ele>273.9</ele>
        <time>2026-03-09T10:14:36Z</time>
      </trkpt>
      <trkpt lat="49.02942" lon="7.91338">
        <ele>274.2</ele>
        <time>2026-03-09T10:14:41Z</time>
      </trkpt>
      <trkpt lat="49.02938" lon="7.91323">
        <ele>274.8</ele>
        <time>2026-03-09T10:14:46Z</time>
      </trkpt>
      <trkpt lat="49.02936" lon="7.91311">
        <ele>275.4</ele>
        <time>2026-03-09T10:14:51Z</time>
      </trkpt>
      <trkpt lat="49.02934" lon="7.91299">
        <ele>276.1</ele>
        <time>2026-03-09T10:14:56Z</time>
      </trkpt>
      <trkpt lat="49.02931" lon="7.91286">
        <ele>276.9</ele>
        <time>2026-03-09T10:15:01Z</time>
      </trkpt>
      <trkpt lat="49.0293" lon="7.91277">
        <ele>277.5</ele>
        <time>2026-03-09T10:15:06Z</time>
      </trkpt>
      <trkpt lat="49.02927" lon="7.91269">
        <ele>277.9</ele>
        <time>2026-03-09T10:15:11Z</time>
      </trkpt>
      <trkpt lat="49.02922" lon="7.9126">
        <ele>278.4</ele>
        <time>2026-03-09T10:15:16Z</time>
      </trkpt>
      <trkpt lat="49.02918" lon="7.91253">
        <ele>278.8</ele>
        <time>2026-03-09T10:15:21Z</time>
      </trkpt>
      <trkpt lat="49.02914" lon="7.91247">
        <ele>278.9</ele>
        <time>2026-03-09T10:15:26Z</time>
      </trkpt>
      <trkpt lat="49.02909" lon="7.91241">
        <ele>278.6</ele>
        <time>2026-03-09T10:15:31Z</time>
      </trkpt>
      <trkpt lat="49.02908" lon="7.91239">
        <ele>278.6</ele>
        <time>2026-03-09T10:15:36Z</time>
      </trkpt>
      <trkpt lat="49.02902" lon="7.91232">
        <ele>278.4</ele>
        <time>2026-03-09T10:15:41Z</time>
      </trkpt>
      <trkpt lat="49.02899" lon="7.91225">
        <ele>278.5</ele>
        <time>2026-03-09T10:15:46Z</time>
      </trkpt>
      <trkpt lat="49.02893" lon="7.9122">
        <ele>278</ele>
        <time>2026-03-09T10:15:51Z</time>
      </trkpt>
      <trkpt lat="49.02888" lon="7.91216">
        <ele>277.7</ele>
        <time>2026-03-09T10:15:56Z</time>
      </trkpt>
      <trkpt lat="49.02885" lon="7.91209">
        <ele>277.8</ele>
        <time>2026-03-09T10:16:01Z</time>
      </trkpt>
      <trkpt lat="49.02882" lon="7.91199">
        <ele>278.1</ele>
        <time>2026-03-09T10:16:06Z</time>
      </trkpt>
      <trkpt lat="49.02879" lon="7.91189">
        <ele>278.4</ele>
        <time>2026-03-09T10:16:11Z</time>
      </trkpt>
      <trkpt lat="49.02875" lon="7.91176">
        <ele>278.8</ele>
        <time>2026-03-09T10:16:16Z</time>
      </trkpt>
      <trkpt lat="49.02873" lon="7.91168">
        <ele>279.1</ele>
        <time>2026-03-09T10:16:21Z</time>
      </trkpt>
      <trkpt lat="49.02868" lon="7.91157">
        <ele>279.1</ele>
        <time>2026-03-09T10:16:26Z</time>
      </trkpt>
      <trkpt lat="49.02863" lon="7.91153">
        <ele>278.7</ele>
        <time>2026-03-09T10:16:31Z</time>
      </trkpt>
      <trkpt lat="49.02859" lon="7.91145">
        <ele>278.6</ele>
        <time>2026-03-09T10:16:36Z</time>
      </trkpt>
      <trkpt lat="49.02855" lon="7.91138">
        <ele>278.5</ele>
        <time>2026-03-09T10:16:41Z</time>
      </trkpt>
      <trkpt lat="49.02852" lon="7.91129">
        <ele>278.6</ele>
        <time>2026-03-09T10:16:46Z</time>
      </trkpt>
      <trkpt lat="49.02849" lon="7.9112">
        <ele>278.8</ele>
        <time>2026-03-09T10:16:51Z</time>
      </trkpt>
      <trkpt lat="49.02844" lon="7.91109">
        <ele>278.8</ele>
        <time>2026-03-09T10:16:56Z</time>
      </trkpt>
      <trkpt lat="49.02842" lon="7.91102">
        <ele>278.9</ele>
        <time>2026-03-09T10:17:01Z</time>
      </trkpt>
      <trkpt lat="49.02835" lon="7.91095">
        <ele>278.5</ele>
        <time>2026-03-09T10:17:06Z</time>
      </trkpt>
      <trkpt lat="49.0283" lon="7.91094">
        <ele>277.8</ele>
        <time>2026-03-09T10:17:11Z</time>
      </trkpt>
      <trkpt lat="49.02827" lon="7.91094">
        <ele>277.4</ele>
        <time>2026-03-09T10:17:16Z</time>
      </trkpt>
      <trkpt lat="49.02824" lon="7.91093">
        <ele>277</ele>
        <time>2026-03-09T10:17:21Z</time>
      </trkpt>
      <trkpt lat="49.02821" lon="7.91094">
        <ele>276.4</ele>
        <time>2026-03-09T10:17:26Z</time>
      </trkpt>
      <trkpt lat="49.02816" lon="7.91094">
        <ele>275.6</ele>
        <time>2026-03-09T10:17:31Z</time>
      </trkpt>
      <trkpt lat="49.0281" lon="7.91092">
        <ele>274.8</ele>
        <time>2026-03-09T10:17:36Z</time>
      </trkpt>
      <trkpt lat="49.02805" lon="7.91089">
        <ele>274.2</ele>
        <time>2026-03-09T10:17:41Z</time>
      </trkpt>
      <trkpt lat="49.028" lon="7.91086">
        <ele>273.6</ele>
        <time>2026-03-09T10:17:46Z</time>
      </trkpt>
      <trkpt lat="49.02794" lon="7.91083">
        <ele>272.9</ele>
        <time>2026-03-09T10:17:51Z</time>
      </trkpt>
      <trkpt lat="49.02788" lon="7.91077">
        <ele>272.3</ele>
        <time>2026-03-09T10:17:56Z</time>
      </trkpt>
      <trkpt lat="49.02782" lon="7.91073">
        <ele>271.6</ele>
        <time>2026-03-09T10:18:01Z</time>
      </trkpt>
      <trkpt lat="49.02776" lon="7.91067">
        <ele>271</ele>
        <time>2026-03-09T10:18:06Z</time>
      </trkpt>
      <trkpt lat="49.02771" lon="7.91062">
        <ele>270.5</ele>
        <time>2026-03-09T10:18:11Z</time>
      </trkpt>
      <trkpt lat="49.02765" lon="7.91055">
        <ele>270</ele>
        <time>2026-03-09T10:18:16Z</time>
      </trkpt>
      <trkpt lat="49.02759" lon="7.91049">
        <ele>269.4</ele>
        <time>2026-03-09T10:18:21Z</time>
      </trkpt>
      <trkpt lat="49.02753" lon="7.91044">
        <ele>268.8</ele>
        <time>2026-03-09T10:18:26Z</time>
      </trkpt>
      <trkpt lat="49.02747" lon="7.91039">
        <ele>268.2</ele>
        <time>2026-03-09T10:18:31Z</time>
      </trkpt>
      <trkpt lat="49.02742" lon="7.91035">
        <ele>267.6</ele>
        <time>2026-03-09T10:18:36Z</time>
      </trkpt>
      <trkpt lat="49.02736" lon="7.9103">
        <ele>266.8</ele>
        <time>2026-03-09T10:18:41Z</time>
      </trkpt>
      <trkpt lat="49.0273" lon="7.91025">
        <ele>266.1</ele>
        <time>2026-03-09T10:18:46Z</time>
      </trkpt>
      <trkpt lat="49.02724" lon="7.91019">
        <ele>265.5</ele>
        <time>2026-03-09T10:18:51Z</time>
      </trkpt>
      <trkpt lat="49.02718" lon="7.91013">
        <ele>264.8</ele>
        <time>2026-03-09T10:18:56Z</time>
      </trkpt>
      <trkpt lat="49.02713" lon="7.91007">
        <ele>264.4</ele>
        <time>2026-03-09T10:19:01Z</time>
      </trkpt>
      <trkpt lat="49.0271" lon="7.91">
        <ele>264.3</ele>
        <time>2026-03-09T10:19:06Z</time>
      </trkpt>
      <trkpt lat="49.02706" lon="7.9099">
        <ele>264.1</ele>
        <time>2026-03-09T10:19:11Z</time>
      </trkpt>
      <trkpt lat="49.02704" lon="7.90982">
        <ele>264.1</ele>
        <time>2026-03-09T10:19:16Z</time>
      </trkpt>
      <trkpt lat="49.02701" lon="7.90973">
        <ele>264.1</ele>
        <time>2026-03-09T10:19:21Z</time>
      </trkpt>
      <trkpt lat="49.02698" lon="7.90966">
        <ele>263.9</ele>
        <time>2026-03-09T10:19:26Z</time>
      </trkpt>
      <trkpt lat="49.02697" lon="7.90957">
        <ele>264.2</ele>
        <time>2026-03-09T10:19:31Z</time>
      </trkpt>
      <trkpt lat="49.02696" lon="7.90949">
        <ele>264.4</ele>
        <time>2026-03-09T10:19:36Z</time>
      </trkpt>
      <trkpt lat="49.02694" lon="7.90935">
        <ele>264.7</ele>
        <time>2026-03-09T10:19:41Z</time>
      </trkpt>
      <trkpt lat="49.02691" lon="7.90923">
        <ele>264.8</ele>
        <time>2026-03-09T10:19:46Z</time>
      </trkpt>
      <trkpt lat="49.02691" lon="7.90913">
        <ele>265.2</ele>
        <time>2026-03-09T10:19:51Z</time>
      </trkpt>
      <trkpt lat="49.0269" lon="7.90903">
        <ele>265.5</ele>
        <time>2026-03-09T10:19:56Z</time>
      </trkpt>
      <trkpt lat="49.02692" lon="7.90896">
        <ele>266.1</ele>
        <time>2026-03-09T10:20:01Z</time>
      </trkpt>
      <trkpt lat="49.02692" lon="7.90888">
        <ele>266.4</ele>
        <time>2026-03-09T10:20:06Z</time>
      </trkpt>
      <trkpt lat="49.0269" lon="7.90881">
        <ele>266.3</ele>
        <time>2026-03-09T10:20:11Z</time>
      </trkpt>
      <trkpt lat="49.0269" lon="7.90875">
        <ele>266.6</ele>
        <time>2026-03-09T10:20:16Z</time>
      </trkpt>
      <trkpt lat="49.02691" lon="7.90865">
        <ele>267.1</ele>
        <time>2026-03-09T10:20:21Z</time>
      </trkpt>
      <trkpt lat="49.02692" lon="7.90857">
        <ele>267.6</ele>
        <time>2026-03-09T10:20:26Z</time>
      </trkpt>
      <trkpt lat="49.02693" lon="7.90848">
        <ele>268.2</ele>
        <time>2026-03-09T10:20:31Z</time>
      </trkpt>
      <trkpt lat="49.02694" lon="7.90838">
        <ele>268.7</ele>
        <time>2026-03-09T10:20:36Z</time>
      </trkpt>
      <trkpt lat="49.02695" lon="7.90828">
        <ele>269.3</ele>
        <time>2026-03-09T10:20:41Z</time>
      </trkpt>
      <trkpt lat="49.02695" lon="7.9082">
        <ele>269.5</ele>
        <time>2026-03-09T10:20:46Z</time>
      </trkpt>
      <trkpt lat="49.02695" lon="7.90813">
        <ele>269.7</ele>
        <time>2026-03-09T10:20:51Z</time>
      </trkpt>
      <trkpt lat="49.02695" lon="7.90805">
        <ele>270</ele>
        <time>2026-03-09T10:20:56Z</time>
      </trkpt>
      <trkpt lat="49.02696" lon="7.90799">
        <ele>270.4</ele>
        <time>2026-03-09T10:21:01Z</time>
      </trkpt>
      <trkpt lat="49.02695" lon="7.90788">
        <ele>270.5</ele>
        <time>2026-03-09T10:21:06Z</time>
      </trkpt>
      <trkpt lat="49.02694" lon="7.90777">
        <ele>270.7</ele>
        <time>2026-03-09T10:21:11Z</time>
      </trkpt>
      <trkpt lat="49.02694" lon="7.90766">
        <ele>271.1</ele>
        <time>2026-03-09T10:21:16Z</time>
      </trkpt>
      <trkpt lat="49.02696" lon="7.90756">
        <ele>271.7</ele>
        <time>2026-03-09T10:21:21Z</time>
      </trkpt>
      <trkpt lat="49.02698" lon="7.90745">
        <ele>272.4</ele>
        <time>2026-03-09T10:21:26Z</time>
      </trkpt>
      <trkpt lat="49.02699" lon="7.90739">
        <ele>272.8</ele>
        <time>2026-03-09T10:21:31Z</time>
      </trkpt>
      <trkpt lat="49.02703" lon="7.90731">
        <ele>273.8</ele>
        <time>2026-03-09T10:21:36Z</time>
      </trkpt>
      <trkpt lat="49.02704" lon="7.90721">
        <ele>274.3</ele>
        <time>2026-03-09T10:21:41Z</time>
      </trkpt>
      <trkpt lat="49.02705" lon="7.90712">
        <ele>274.8</ele>
        <time>2026-03-09T10:21:46Z</time>
      </trkpt>
      <trkpt lat="49.02708" lon="7.90703">
        <ele>275.6</ele>
        <time>2026-03-09T10:21:51Z</time>
      </trkpt>
      <trkpt lat="49.0271" lon="7.90695">
        <ele>276.3</ele>
        <time>2026-03-09T10:21:56Z</time>
      </trkpt>
      <trkpt lat="49.02711" lon="7.90688">
        <ele>276.7</ele>
        <time>2026-03-09T10:22:01Z</time>
      </trkpt>
      <trkpt lat="49.02714" lon="7.90679">
        <ele>277.5</ele>
        <time>2026-03-09T10:22:06Z</time>
      </trkpt>
      <trkpt lat="49.02716" lon="7.90671">
        <ele>278.1</ele>
        <time>2026-03-09T10:22:11Z</time>
      </trkpt>
      <trkpt lat="49.02718" lon="7.90664">
        <ele>278.7</ele>
        <time>2026-03-09T10:22:16Z</time>
      </trkpt>
      <trkpt lat="49.0272" lon="7.90657">
        <ele>279.1</ele>
        <time>2026-03-09T10:22:21Z</time>
      </trkpt>
      <trkpt lat="49.02723" lon="7.90651">
        <ele>279.7</ele>
        <time>2026-03-09T10:22:26Z</time>
      </trkpt>
      <trkpt lat="49.02725" lon="7.90645">
        <ele>280.2</ele>
        <time>2026-03-09T10:22:31Z</time>
      </trkpt>
      <trkpt lat="49.02725" lon="7.90639">
        <ele>280.3</ele>
        <time>2026-03-09T10:22:36Z</time>
      </trkpt>
      <trkpt lat="49.02728" lon="7.90636">
        <ele>280.8</ele>
        <time>2026-03-09T10:22:41Z</time>
      </trkpt>
      <trkpt lat="49.02731" lon="7.90632">
        <ele>281.5</ele>
        <time>2026-03-09T10:22:46Z</time>
      </trkpt>
      <trkpt lat="49.02732" lon="7.90627">
        <ele>281.7</ele>
        <time>2026-03-09T10:22:51Z</time>
      </trkpt>
      <trkpt lat="49.02734" lon="7.90621">
        <ele>282.2</ele>
        <time>2026-03-09T10:22:56Z</time>
      </trkpt>
      <trkpt lat="49.02737" lon="7.90616">
        <ele>282.8</ele>
        <time>2026-03-09T10:23:01Z</time>
      </trkpt>
      <trkpt lat="49.0274" lon="7.90611">
        <ele>283.5</ele>
        <time>2026-03-09T10:23:06Z</time>
      </trkpt>
      <trkpt lat="49.02743" lon="7.90606">
        <ele>284.2</ele>
        <time>2026-03-09T10:23:11Z</time>
      </trkpt>
      <trkpt lat="49.02747" lon="7.90601">
        <ele>285</ele>
        <time>2026-03-09T10:23:16Z</time>
      </trkpt>
      <trkpt lat="49.0275" lon="7.90596">
        <ele>285.7</ele>
        <time>2026-03-09T10:23:21Z</time>
      </trkpt>
      <trkpt lat="49.02753" lon="7.90591">
        <ele>286.3</ele>
        <time>2026-03-09T10:23:26Z</time>
      </trkpt>
      <trkpt lat="49.02756" lon="7.90585">
        <ele>287</ele>
        <time>2026-03-09T10:23:31Z</time>
      </trkpt>
      <trkpt lat="49.02756" lon="7.90582">
        <ele>287.1</ele>
        <time>2026-03-09T10:23:36Z</time>
      </trkpt>
      <trkpt lat="49.02758" lon="7.90579">
        <ele>287.5</ele>
        <time>2026-03-09T10:23:41Z</time>
      </trkpt>
      <trkpt lat="49.02762" lon="7.90574">
        <ele>288.4</ele>
        <time>2026-03-09T10:23:46Z</time>
      </trkpt>
      <trkpt lat="49.02765" lon="7.9057">
        <ele>289</ele>
        <time>2026-03-09T10:23:51Z</time>
      </trkpt>
      <trkpt lat="49.02769" lon="7.90564">
        <ele>289.9</ele>
        <time>2026-03-09T10:23:56Z</time>
      </trkpt>
      <trkpt lat="49.02771" lon="7.90559">
        <ele>290.4</ele>
        <time>2026-03-09T10:24:01Z</time>
      </trkpt>
      <trkpt lat="49.02774" lon="7.90554">
        <ele>291</ele>
        <time>2026-03-09T10:24:06Z</time>
      </trkpt>
      <trkpt lat="49.02775" lon="7.90551">
        <ele>291.3</ele>
        <time>2026-03-09T10:24:11Z</time>
      </trkpt>
      <trkpt lat="49.02776" lon="7.90549">
        <ele>291.5</ele>
        <time>2026-03-09T10:24:16Z</time>
      </trkpt>
      <trkpt lat="49.02776" lon="7.90549">
        <ele>291.5</ele>
        <time>2026-03-09T10:24:21Z</time>
      </trkpt>
      <trkpt lat="49.02776" lon="7.90549">
        <ele>291.5</ele>
        <time>2026-03-09T10:24:26Z</time>
      </trkpt>
      <trkpt lat="49.02776" lon="7.90549">
        <ele>291.5</ele>
        <time>2026-03-09T10:24:31Z</time>
      </trkpt>
      <trkpt lat="49.02776" lon="7.90549">
        <ele>291.5</ele>
        <time>2026-03-09T10:24:36Z</time>
      </trkpt>
      <trkpt lat="49.02776" lon="7.90549">
        <ele>291.5</ele>
        <time>2026-03-09T10:24:41Z</time>
      </trkpt>
      <trkpt lat="49.02776" lon="7.90549">
        <ele>291.5</ele>
        <time>2026-03-09T10:24:46Z</time>
      </trkpt>
      <trkpt lat="49.02776" lon="7.90549">
        <ele>291.5</ele>
        <time>2026-03-09T10:24:51Z</time>
      </trkpt>
      <trkpt lat="49.02776" lon="7.90549">
        <ele>291.5</ele>
        <time>2026-03-09T10:24:56Z</time>
      </trkpt>
      <trkpt lat="49.02776" lon="7.90549">
        <ele>291.5</ele>
        <time>2026-03-09T10:25:01Z</time>
      </trkpt>
      <trkpt lat="49.02776" lon="7.90549">
        <ele>291.5</ele>
        <time>2026-03-09T10:25:06Z</time>
      </trkpt>
      <trkpt lat="49.02776" lon="7.90549">
        <ele>291.5</ele>
        <time>2026-03-09T10:25:11Z</time>
      </trkpt>
      <trkpt lat="49.02776" lon="7.90549">
        <ele>291.5</ele>
        <time>2026-03-09T10:25:16Z</time>
      </trkpt>
      <trkpt lat="49.02776" lon="7.90549">
        <ele>291.5</ele>
        <time>2026-03-09T10:25:21Z</time>
      </trkpt>
      <trkpt lat="49.02776" lon="7.90549">
        <ele>291.5</ele>
        <time>2026-03-09T10:25:26Z</time>
      </trkpt>
      <trkpt lat="49.02776" lon="7.90549">
        <ele>291.5</ele>
        <time>2026-03-09T10:25:31Z</time>
      </trkpt>
      <trkpt lat="49.02776" lon="7.90549">
        <ele>291.5</ele>
        <time>2026-03-09T10:25:36Z</time>
      </trkpt>
      <trkpt lat="49.02776" lon="7.90549">
        <ele>291.5</ele>
        <time>2026-03-09T10:25:41Z</time>
      </trkpt>
      <trkpt lat="49.02774" lon="7.90538">
        <ele>291.4</ele>
        <time>2026-03-09T10:25:46Z</time>
      </trkpt>
      <trkpt lat="49.02779" lon="7.90535">
        <ele>292.4</ele>
        <time>2026-03-09T10:25:51Z</time>
      </trkpt>
      <trkpt lat="49.02783" lon="7.90531">
        <ele>293.2</ele>
        <time>2026-03-09T10:25:56Z</time>
      </trkpt>
      <trkpt lat="49.02786" lon="7.90527">
        <ele>293.8</ele>
        <time>2026-03-09T10:26:01Z</time>
      </trkpt>
      <trkpt lat="49.02789" lon="7.90523">
        <ele>294.5</ele>
        <time>2026-03-09T10:26:06Z</time>
      </trkpt>
      <trkpt lat="49.02792" lon="7.90517">
        <ele>295.2</ele>
        <time>2026-03-09T10:26:11Z</time>
      </trkpt>
      <trkpt lat="49.02796" lon="7.90512">
        <ele>296</ele>
        <time>2026-03-09T10:26:16Z</time>
      </trkpt>
      <trkpt lat="49.028" lon="7.90507">
        <ele>296.8</ele>
        <time>2026-03-09T10:26:21Z</time>
      </trkpt>
      <trkpt lat="49.02805" lon="7.90504">
        <ele>297.8</ele>
        <time>2026-03-09T10:26:26Z</time>
      </trkpt>
      <trkpt lat="49.0281" lon="7.90501">
        <ele>298.8</ele>
        <time>2026-03-09T10:26:31Z</time>
      </trkpt>
      <trkpt lat="49.02815" lon="7.90496">
        <ele>299.9</ele>
        <time>2026-03-09T10:26:36Z</time>
      </trkpt>
      <trkpt lat="49.02821" lon="7.90493">
        <ele>301.1</ele>
        <time>2026-03-09T10:26:41Z</time>
      </trkpt>
      <trkpt lat="49.02828" lon="7.90486">
        <ele>302.6</ele>
        <time>2026-03-09T10:26:46Z</time>
      </trkpt>
      <trkpt lat="49.02833" lon="7.90481">
        <ele>303.6</ele>
        <time>2026-03-09T10:26:51Z</time>
      </trkpt>
      <trkpt lat="49.02836" lon="7.90481">
        <ele>303.9</ele>
        <time>2026-03-09T10:26:56Z</time>
      </trkpt>
      <trkpt lat="49.02838" lon="7.9048">
        <ele>304.1</ele>
        <time>2026-03-09T10:27:01Z</time>
      </trkpt>
      <trkpt lat="49.02839" lon="7.90475">
        <ele>304.4</ele>
        <time>2026-03-09T10:27:06Z</time>
      </trkpt>
      <trkpt lat="49.02839" lon="7.90467">
        <ele>304.6</ele>
        <time>2026-03-09T10:27:11Z</time>
      </trkpt>
      <trkpt lat="49.0284" lon="7.90459">
        <ele>305</ele>
        <time>2026-03-09T10:27:16Z</time>
      </trkpt>
      <trkpt lat="49.02841" lon="7.90448">
        <ele>305.5</ele>
        <time>2026-03-09T10:27:21Z</time>
      </trkpt>
      <trkpt lat="49.02843" lon="7.90439">
        <ele>305.9</ele>
        <time>2026-03-09T10:27:26Z</time>
      </trkpt>
      <trkpt lat="49.02842" lon="7.90428">
        <ele>306.2</ele>
        <time>2026-03-09T10:27:31Z</time>
      </trkpt>
      <trkpt lat="49.02841" lon="7.90417">
        <ele>306.5</ele>
        <time>2026-03-09T10:27:36Z</time>
      </trkpt>
      <trkpt lat="49.02841" lon="7.90409">
        <ele>307.6</ele>
        <time>2026-03-09T10:27:41Z</time>
      </trkpt>
      <trkpt lat="49.02842" lon="7.90399">
        <ele>309.1</ele>
        <time>2026-03-09T10:27:46Z</time>
      </trkpt>
      <trkpt lat="49.02843" lon="7.90388">
        <ele>310.7</ele>
        <time>2026-03-09T10:27:51Z</time>
      </trkpt>
      <trkpt lat="49.02844" lon="7.90376">
        <ele>312.4</ele>
        <time>2026-03-09T10:27:56Z</time>
      </trkpt>
      <trkpt lat="49.02847" lon="7.90368">
        <ele>313.6</ele>
        <time>2026-03-09T10:28:01Z</time>
      </trkpt>
      <trkpt lat="49.02851" lon="7.90362">
        <ele>314.6</ele>
        <time>2026-03-09T10:28:06Z</time>
      </trkpt>
      <trkpt lat="49.02853" lon="7.90356">
        <ele>315.5</ele>
        <time>2026-03-09T10:28:11Z</time>
      </trkpt>
      <trkpt lat="49.02855" lon="7.90349">
        <ele>316.5</ele>
        <time>2026-03-09T10:28:16Z</time>
      </trkpt>
      <trkpt lat="49.02857" lon="7.90343">
        <ele>317.3</ele>
        <time>2026-03-09T10:28:21Z</time>
      </trkpt>
      <trkpt lat="49.02858" lon="7.90339">
        <ele>317.9</ele>
        <time>2026-03-09T10:28:26Z</time>
      </trkpt>
      <trkpt lat="49.02858" lon="7.90332">
        <ele>318.8</ele>
        <time>2026-03-09T10:28:31Z</time>
      </trkpt>
      <trkpt lat="49.02857" lon="7.90325">
        <ele>319.7</ele>
        <time>2026-03-09T10:28:36Z</time>
      </trkpt>
      <trkpt lat="49.02856" lon="7.90318">
        <ele>320.6</ele>
        <time>2026-03-09T10:28:41Z</time>
      </trkpt>
      <trkpt lat="49.02854" lon="7.90307">
        <ele>322</ele>
        <time>2026-03-09T10:28:46Z</time>
      </trkpt>
      <trkpt lat="49.02852" lon="7.90296">
        <ele>323.3</ele>
        <time>2026-03-09T10:28:51Z</time>
      </trkpt>
      <trkpt lat="49.02851" lon="7.90287">
        <ele>324.5</ele>
        <time>2026-03-09T10:28:56Z</time>
      </trkpt>
      <trkpt lat="49.0285" lon="7.90277">
        <ele>325.7</ele>
        <time>2026-03-09T10:29:01Z</time>
      </trkpt>
      <trkpt lat="49.02848" lon="7.90269">
        <ele>326.6</ele>
        <time>2026-03-09T10:29:06Z</time>
      </trkpt>
      <trkpt lat="49.02848" lon="7.9026">
        <ele>327.8</ele>
        <time>2026-03-09T10:29:11Z</time>
      </trkpt>
      <trkpt lat="49.02847" lon="7.90254">
        <ele>328.5</ele>
        <time>2026-03-09T10:29:16Z</time>
      </trkpt>
      <trkpt lat="49.02848" lon="7.90248">
        <ele>329.3</ele>
        <time>2026-03-09T10:29:21Z</time>
      </trkpt>
      <trkpt lat="49.02849" lon="7.90241">
        <ele>330.1</ele>
        <time>2026-03-09T10:29:26Z</time>
      </trkpt>
      <trkpt lat="49.02851" lon="7.90233">
        <ele>331.2</ele>
        <time>2026-03-09T10:29:31Z</time>
      </trkpt>
      <trkpt lat="49.02851" lon="7.90225">
        <ele>332.1</ele>
        <time>2026-03-09T10:29:36Z</time>
      </trkpt>
      <trkpt lat="49.02849" lon="7.90218">
        <ele>332.6</ele>
        <time>2026-03-09T10:29:41Z</time>
      </trkpt>
      <trkpt lat="49.02846" lon="7.90213">
        <ele>332.9</ele>
        <time>2026-03-09T10:29:46Z</time>
      </trkpt>
      <trkpt lat="49.02843" lon="7.9021">
        <ele>332.9</ele>
        <time>2026-03-09T10:29:51Z</time>
      </trkpt>
      <trkpt lat="49.02839" lon="7.90206">
        <ele>332.8</ele>
        <time>2026-03-09T10:29:56Z</time>
      </trkpt>
      <trkpt lat="49.02837" lon="7.90203">
        <ele>332.9</ele>
        <time>2026-03-09T10:30:01Z</time>
      </trkpt>
      <trkpt lat="49.02835" lon="7.90204">
        <ele>332.6</ele>
        <time>2026-03-09T10:30:06Z</time>
      </trkpt>
      <trkpt lat="49.02835" lon="7.90204">
        <ele>332.6</ele>
        <time>2026-03-09T10:30:11Z</time>
      </trkpt>
      <trkpt lat="49.02829" lon="7.90199">
        <ele>332.1</ele>
        <time>2026-03-09T10:30:16Z</time>
      </trkpt>
      <trkpt lat="49.02824" lon="7.90201">
        <ele>330.9</ele>
        <time>2026-03-09T10:30:21Z</time>
      </trkpt>
      <trkpt lat="49.02819" lon="7.902">
        <ele>330.1</ele>
        <time>2026-03-09T10:30:26Z</time>
      </trkpt>
      <trkpt lat="49.02813" lon="7.90203">
        <ele>328.6</ele>
        <time>2026-03-09T10:30:31Z</time>
      </trkpt>
      <trkpt lat="49.0281" lon="7.902">
        <ele>328.4</ele>
        <time>2026-03-09T10:30:36Z</time>
      </trkpt>
      <trkpt lat="49.02807" lon="7.90196">
        <ele>328.2</ele>
        <time>2026-03-09T10:30:41Z</time>
      </trkpt>
      <trkpt lat="49.02805" lon="7.90189">
        <ele>328.6</ele>
        <time>2026-03-09T10:30:46Z</time>
      </trkpt>
      <trkpt lat="49.02802" lon="7.90182">
        <ele>328.7</ele>
        <time>2026-03-09T10:30:51Z</time>
      </trkpt>
      <trkpt lat="49.028" lon="7.90175">
        <ele>329.1</ele>
        <time>2026-03-09T10:30:56Z</time>
      </trkpt>
      <trkpt lat="49.02797" lon="7.90169">
        <ele>329.2</ele>
        <time>2026-03-09T10:31:01Z</time>
      </trkpt>
      <trkpt lat="49.02794" lon="7.90163">
        <ele>329.3</ele>
        <time>2026-03-09T10:31:06Z</time>
      </trkpt>
      <trkpt lat="49.02789" lon="7.90158">
        <ele>329</ele>
        <time>2026-03-09T10:31:11Z</time>
      </trkpt>
      <trkpt lat="49.02786" lon="7.90153">
        <ele>329</ele>
        <time>2026-03-09T10:31:16Z</time>
      </trkpt>
      <trkpt lat="49.02784" lon="7.90146">
        <ele>329.4</ele>
        <time>2026-03-09T10:31:21Z</time>
      </trkpt>
      <trkpt lat="49.02781" lon="7.9014">
        <ele>329.5</ele>
        <time>2026-03-09T10:31:26Z</time>
      </trkpt>
      <trkpt lat="49.02779" lon="7.90133">
        <ele>330</ele>
        <time>2026-03-09T10:31:31Z</time>
      </trkpt>
      <trkpt lat="49.02777" lon="7.90126">
        <ele>330.4</ele>
        <time>2026-03-09T10:31:36Z</time>
      </trkpt>
      <trkpt lat="49.02774" lon="7.90119">
        <ele>330.7</ele>
        <time>2026-03-09T10:31:41Z</time>
      </trkpt>
      <trkpt lat="49.02773" lon="7.90111">
        <ele>331.5</ele>
        <time>2026-03-09T10:31:46Z</time>
      </trkpt>
      <trkpt lat="49.02774" lon="7.90104">
        <ele>332.4</ele>
        <time>2026-03-09T10:31:51Z</time>
      </trkpt>
      <trkpt lat="49.02777" lon="7.90101">
        <ele>333.2</ele>
        <time>2026-03-09T10:31:56Z</time>
      </trkpt>
      <trkpt lat="49.02781" lon="7.90099">
        <ele>334.1</ele>
        <time>2026-03-09T10:32:01Z</time>
      </trkpt>
      <trkpt lat="49.02787" lon="7.90098">
        <ele>335.2</ele>
        <time>2026-03-09T10:32:06Z</time>
      </trkpt>
      <trkpt lat="49.02793" lon="7.90098">
        <ele>336.1</ele>
        <time>2026-03-09T10:32:11Z</time>
      </trkpt>
      <trkpt lat="49.02797" lon="7.90099">
        <ele>336.7</ele>
        <time>2026-03-09T10:32:16Z</time>
      </trkpt>
      <trkpt lat="49.02803" lon="7.901">
        <ele>337.5</ele>
        <time>2026-03-09T10:32:21Z</time>
      </trkpt>
      <trkpt lat="49.02808" lon="7.90097">
        <ele>338.6</ele>
        <time>2026-03-09T10:32:26Z</time>
      </trkpt>
      <trkpt lat="49.02813" lon="7.90094">
        <ele>339.7</ele>
        <time>2026-03-09T10:32:31Z</time>
      </trkpt>
      <trkpt lat="49.02817" lon="7.9009">
        <ele>340.8</ele>
        <time>2026-03-09T10:32:36Z</time>
      </trkpt>
      <trkpt lat="49.0282" lon="7.90085">
        <ele>341.8</ele>
        <time>2026-03-09T10:32:41Z</time>
      </trkpt>
      <trkpt lat="49.02825" lon="7.90081">
        <ele>342.8</ele>
        <time>2026-03-09T10:32:46Z</time>
      </trkpt>
      <trkpt lat="49.02829" lon="7.9008">
        <ele>343.5</ele>
        <time>2026-03-09T10:32:51Z</time>
      </trkpt>
      <trkpt lat="49.02833" lon="7.90075">
        <ele>344.4</ele>
        <time>2026-03-09T10:32:56Z</time>
      </trkpt>
      <trkpt lat="49.02837" lon="7.9007">
        <ele>345.4</ele>
        <time>2026-03-09T10:33:01Z</time>
      </trkpt>
      <trkpt lat="49.02842" lon="7.90065">
        <ele>346.5</ele>
        <time>2026-03-09T10:33:06Z</time>
      </trkpt>
      <trkpt lat="49.02844" lon="7.90061">
        <ele>347</ele>
        <time>2026-03-09T10:33:11Z</time>
      </trkpt>
      <trkpt lat="49.02847" lon="7.90055">
        <ele>347.9</ele>
        <time>2026-03-09T10:33:16Z</time>
      </trkpt>
      <trkpt lat="49.02847" lon="7.90046">
        <ele>348.4</ele>
        <time>2026-03-09T10:33:21Z</time>
      </trkpt>
      <trkpt lat="49.02844" lon="7.90039">
        <ele>348.4</ele>
        <time>2026-03-09T10:33:26Z</time>
      </trkpt>
      <trkpt lat="49.02841" lon="7.90031">
        <ele>348.4</ele>
        <time>2026-03-09T10:33:31Z</time>
      </trkpt>
      <trkpt lat="49.0284" lon="7.90025">
        <ele>348.6</ele>
        <time>2026-03-09T10:33:36Z</time>
      </trkpt>
      <trkpt lat="49.0284" lon="7.90019">
        <ele>349</ele>
        <time>2026-03-09T10:33:41Z</time>
      </trkpt>
      <trkpt lat="49.0284" lon="7.90014">
        <ele>349.3</ele>
        <time>2026-03-09T10:33:46Z</time>
      </trkpt>
      <trkpt lat="49.02843" lon="7.90008">
        <ele>350.1</ele>
        <time>2026-03-09T10:33:51Z</time>
      </trkpt>
      <trkpt lat="49.02847" lon="7.90003">
        <ele>351.1</ele>
        <time>2026-03-09T10:33:56Z</time>
      </trkpt>
      <trkpt lat="49.02851" lon="7.89998">
        <ele>352</ele>
        <time>2026-03-09T10:34:01Z</time>
      </trkpt>
      <trkpt lat="49.02856" lon="7.89993">
        <ele>352.9</ele>
        <time>2026-03-09T10:34:06Z</time>
      </trkpt>
      <trkpt lat="49.02859" lon="7.89989">
        <ele>353.5</ele>
        <time>2026-03-09T10:34:11Z</time>
      </trkpt>
      <trkpt lat="49.02862" lon="7.8999">
        <ele>354</ele>
        <time>2026-03-09T10:34:16Z</time>
      </trkpt>
      <trkpt lat="49.02864" lon="7.89988">
        <ele>354.3</ele>
        <time>2026-03-09T10:34:21Z</time>
      </trkpt>
      <trkpt lat="49.02867" lon="7.89986">
        <ele>354.9</ele>
        <time>2026-03-09T10:34:26Z</time>
      </trkpt>
      <trkpt lat="49.02867" lon="7.8998">
        <ele>355</ele>
        <time>2026-03-09T10:34:31Z</time>
      </trkpt>
      <trkpt lat="49.02863" lon="7.89974">
        <ele>354.4</ele>
        <time>2026-03-09T10:34:36Z</time>
      </trkpt>
      <trkpt lat="49.02863" lon="7.89968">
        <ele>354.5</ele>
        <time>2026-03-09T10:34:41Z</time>
      </trkpt>
      <trkpt lat="49.02864" lon="7.89963">
        <ele>354.8</ele>
        <time>2026-03-09T10:34:46Z</time>
      </trkpt>
      <trkpt lat="49.02867" lon="7.8996">
        <ele>355.3</ele>
        <time>2026-03-09T10:34:51Z</time>
      </trkpt>
      <trkpt lat="49.02871" lon="7.89957">
        <ele>356.1</ele>
        <time>2026-03-09T10:34:56Z</time>
      </trkpt>
      <trkpt lat="49.02874" lon="7.89953">
        <ele>356.7</ele>
        <time>2026-03-09T10:35:01Z</time>
      </trkpt>
      <trkpt lat="49.02878" lon="7.89951">
        <ele>357.4</ele>
        <time>2026-03-09T10:35:06Z</time>
      </trkpt>
      <trkpt lat="49.02882" lon="7.89949">
        <ele>358.1</ele>
        <time>2026-03-09T10:35:11Z</time>
      </trkpt>
      <trkpt lat="49.02886" lon="7.89947">
        <ele>358.9</ele>
        <time>2026-03-09T10:35:16Z</time>
      </trkpt>
      <trkpt lat="49.02887" lon="7.89947">
        <ele>359.1</ele>
        <time>2026-03-09T10:35:21Z</time>
      </trkpt>
      <trkpt lat="49.02887" lon="7.89947">
        <ele>359.1</ele>
        <time>2026-03-09T10:35:26Z</time>
      </trkpt>
      <trkpt lat="49.02887" lon="7.89947">
        <ele>359.1</ele>
        <time>2026-03-09T10:35:31Z</time>
      </trkpt>
      <trkpt lat="49.02887" lon="7.89947">
        <ele>359.1</ele>
        <time>2026-03-09T10:35:36Z</time>
      </trkpt>
      <trkpt lat="49.02887" lon="7.89947">
        <ele>359.1</ele>
        <time>2026-03-09T10:35:41Z</time>
      </trkpt>
      <trkpt lat="49.02887" lon="7.89947">
        <ele>359.1</ele>
        <time>2026-03-09T10:35:46Z</time>
      </trkpt>
      <trkpt lat="49.02887" lon="7.89947">
        <ele>359.1</ele>
        <time>2026-03-09T10:35:51Z</time>
      </trkpt>
      <trkpt lat="49.02887" lon="7.89947">
        <ele>359.1</ele>
        <time>2026-03-09T10:35:56Z</time>
      </trkpt>
      <trkpt lat="49.02883" lon="7.89934">
        <ele>358.6</ele>
        <time>2026-03-09T10:36:01Z</time>
      </trkpt>
      <trkpt lat="49.02884" lon="7.89928">
        <ele>358.9</ele>
        <time>2026-03-09T10:36:06Z</time>
      </trkpt>
      <trkpt lat="49.02886" lon="7.8992">
        <ele>359.4</ele>
        <time>2026-03-09T10:36:11Z</time>
      </trkpt>
      <trkpt lat="49.02886" lon="7.89911">
        <ele>359.5</ele>
        <time>2026-03-09T10:36:16Z</time>
      </trkpt>
      <trkpt lat="49.02883" lon="7.89901">
        <ele>359.1</ele>
        <time>2026-03-09T10:36:21Z</time>
      </trkpt>
      <trkpt lat="49.0288" lon="7.89897">
        <ele>358.6</ele>
        <time>2026-03-09T10:36:26Z</time>
      </trkpt>
      <trkpt lat="49.02875" lon="7.89894">
        <ele>357.8</ele>
        <time>2026-03-09T10:36:31Z</time>
      </trkpt>
      <trkpt lat="49.02873" lon="7.89884">
        <ele>357.5</ele>
        <time>2026-03-09T10:36:36Z</time>
      </trkpt>
      <trkpt lat="49.02873" lon="7.89876">
        <ele>357.6</ele>
        <time>2026-03-09T10:36:41Z</time>
      </trkpt>
      <trkpt lat="49.02873" lon="7.89867">
        <ele>357.7</ele>
        <time>2026-03-09T10:36:46Z</time>
      </trkpt>
      <trkpt lat="49.02876" lon="7.89861">
        <ele>358.3</ele>
        <time>2026-03-09T10:36:51Z</time>
      </trkpt>
      <trkpt lat="49.02882" lon="7.89859">
        <ele>359.5</ele>
        <time>2026-03-09T10:36:56Z</time>
      </trkpt>
      <trkpt lat="49.02888" lon="7.89856">
        <ele>360.6</ele>
        <time>2026-03-09T10:37:01Z</time>
      </trkpt>
      <trkpt lat="49.02894" lon="7.89853">
        <ele>361.7</ele>
        <time>2026-03-09T10:37:06Z</time>
      </trkpt>
      <trkpt lat="49.02899" lon="7.89852">
        <ele>362.6</ele>
        <time>2026-03-09T10:37:11Z</time>
      </trkpt>
      <trkpt lat="49.02901" lon="7.89851">
        <ele>363</ele>
        <time>2026-03-09T10:37:16Z</time>
      </trkpt>
      <trkpt lat="49.029" lon="7.8985">
        <ele>362.8</ele>
        <time>2026-03-09T10:37:21Z</time>
      </trkpt>
      <trkpt lat="49.02895" lon="7.89848">
        <ele>361.9</ele>
        <time>2026-03-09T10:37:26Z</time>
      </trkpt>
      <trkpt lat="49.02891" lon="7.89847">
        <ele>361.2</ele>
        <time>2026-03-09T10:37:31Z</time>
      </trkpt>
      <trkpt lat="49.02888" lon="7.89839">
        <ele>360.8</ele>
        <time>2026-03-09T10:37:36Z</time>
      </trkpt>
      <trkpt lat="49.02885" lon="7.89828">
        <ele>360.4</ele>
        <time>2026-03-09T10:37:41Z</time>
      </trkpt>
      <trkpt lat="49.02883" lon="7.8982">
        <ele>360.3</ele>
        <time>2026-03-09T10:37:46Z</time>
      </trkpt>
      <trkpt lat="49.02885" lon="7.89813">
        <ele>360.8</ele>
        <time>2026-03-09T10:37:51Z</time>
      </trkpt>
      <trkpt lat="49.02887" lon="7.89807">
        <ele>361.3</ele>
        <time>2026-03-09T10:37:56Z</time>
      </trkpt>
      <trkpt lat="49.02889" lon="7.898">
        <ele>361.8</ele>
        <time>2026-03-09T10:38:01Z</time>
      </trkpt>
      <trkpt lat="49.02891" lon="7.89793">
        <ele>362.3</ele>
        <time>2026-03-09T10:38:06Z</time>
      </trkpt>
      <trkpt lat="49.02892" lon="7.89786">
        <ele>362.7</ele>
        <time>2026-03-09T10:38:11Z</time>
      </trkpt>
      <trkpt lat="49.02891" lon="7.89778">
        <ele>362.7</ele>
        <time>2026-03-09T10:38:16Z</time>
      </trkpt>
      <trkpt lat="49.02891" lon="7.89773">
        <ele>362.8</ele>
        <time>2026-03-09T10:38:21Z</time>
      </trkpt>
      <trkpt lat="49.02894" lon="7.89768">
        <ele>363.5</ele>
        <time>2026-03-09T10:38:26Z</time>
      </trkpt>
      <trkpt lat="49.02895" lon="7.8976">
        <ele>363.9</ele>
        <time>2026-03-09T10:38:31Z</time>
      </trkpt>
      <trkpt lat="49.02898" lon="7.89756">
        <ele>364.5</ele>
        <time>2026-03-09T10:38:36Z</time>
      </trkpt>
      <trkpt lat="49.02899" lon="7.89758">
        <ele>364.6</ele>
        <time>2026-03-09T10:38:41Z</time>
      </trkpt>
      <trkpt lat="49.02899" lon="7.89758">
        <ele>364.6</ele>
        <time>2026-03-09T10:38:46Z</time>
      </trkpt>
      <trkpt lat="49.02899" lon="7.89758">
        <ele>364.6</ele>
        <time>2026-03-09T10:38:51Z</time>
      </trkpt>
      <trkpt lat="49.02899" lon="7.89758">
        <ele>364.6</ele>
        <time>2026-03-09T10:38:56Z</time>
      </trkpt>
      <trkpt lat="49.02899" lon="7.89758">
        <ele>364.6</ele>
        <time>2026-03-09T10:39:01Z</time>
      </trkpt>
      <trkpt lat="49.02894" lon="7.89749">
        <ele>363.9</ele>
        <time>2026-03-09T10:39:06Z</time>
      </trkpt>
      <trkpt lat="49.02894" lon="7.89743">
        <ele>364.1</ele>
        <time>2026-03-09T10:39:11Z</time>
      </trkpt>
      <trkpt lat="49.02895" lon="7.89741">
        <ele>364.3</ele>
        <time>2026-03-09T10:39:16Z</time>
      </trkpt>
      <trkpt lat="49.02895" lon="7.89736">
        <ele>364.4</ele>
        <time>2026-03-09T10:39:21Z</time>
      </trkpt>
      <trkpt lat="49.02896" lon="7.89733">
        <ele>364.7</ele>
        <time>2026-03-09T10:39:26Z</time>
      </trkpt>
      <trkpt lat="49.02896" lon="7.89727">
        <ele>364.8</ele>
        <time>2026-03-09T10:39:31Z</time>
      </trkpt>
      <trkpt lat="49.02898" lon="7.89721">
        <ele>365.4</ele>
        <time>2026-03-09T10:39:36Z</time>
      </trkpt>
      <trkpt lat="49.029" lon="7.89716">
        <ele>365.9</ele>
        <time>2026-03-09T10:39:41Z</time>
      </trkpt>
      <trkpt lat="49.02901" lon="7.8971">
        <ele>366.3</ele>
        <time>2026-03-09T10:39:46Z</time>
      </trkpt>
      <trkpt lat="49.02903" lon="7.89705">
        <ele>366.8</ele>
        <time>2026-03-09T10:39:51Z</time>
      </trkpt>
      <trkpt lat="49.02905" lon="7.89699">
        <ele>367.4</ele>
        <time>2026-03-09T10:39:56Z</time>
      </trkpt>
      <trkpt lat="49.02907" lon="7.89693">
        <ele>368</ele>
        <time>2026-03-09T10:40:01Z</time>
      </trkpt>
      <trkpt lat="49.0291" lon="7.89688">
        <ele>368.8</ele>
        <time>2026-03-09T10:40:06Z</time>
      </trkpt>
      <trkpt lat="49.02912" lon="7.89684">
        <ele>369.4</ele>
        <time>2026-03-09T10:40:11Z</time>
      </trkpt>
      <trkpt lat="49.02915" lon="7.89679">
        <ele>370.2</ele>
        <time>2026-03-09T10:40:16Z</time>
      </trkpt>
      <trkpt lat="49.02916" lon="7.89675">
        <ele>370.6</ele>
        <time>2026-03-09T10:40:21Z</time>
      </trkpt>
      <trkpt lat="49.02918" lon="7.89671">
        <ele>371.1</ele>
        <time>2026-03-09T10:40:26Z</time>
      </trkpt>
      <trkpt lat="49.02919" lon="7.89666">
        <ele>371.5</ele>
        <time>2026-03-09T10:40:31Z</time>
      </trkpt>
      <trkpt lat="49.0292" lon="7.8966">
        <ele>372</ele>
        <time>2026-03-09T10:40:36Z</time>
      </trkpt>
      <trkpt lat="49.0292" lon="7.89655">
        <ele>372.2</ele>
        <time>2026-03-09T10:40:41Z</time>
      </trkpt>
      <trkpt lat="49.02921" lon="7.89651">
        <ele>372.6</ele>
        <time>2026-03-09T10:40:46Z</time>
      </trkpt>
      <trkpt lat="49.02922" lon="7.89647">
        <ele>373</ele>
        <time>2026-03-09T10:40:51Z</time>
      </trkpt>
      <trkpt lat="49.02924" lon="7.89643">
        <ele>373.6</ele>
        <time>2026-03-09T10:40:56Z</time>
      </trkpt>
      <trkpt lat="49.02926" lon="7.89637">
        <ele>374.3</ele>
        <time>2026-03-09T10:41:01Z</time>
      </trkpt>
      <trkpt lat="49.02927" lon="7.89631">
        <ele>374.9</ele>
        <time>2026-03-09T10:41:06Z</time>
      </trkpt>
      <trkpt lat="49.02928" lon="7.89625">
        <ele>375.4</ele>
        <time>2026-03-09T10:41:11Z</time>
      </trkpt>
      <trkpt lat="49.02929" lon="7.89618">
        <ele>376</ele>
        <time>2026-03-09T10:41:16Z</time>
      </trkpt>
      <trkpt lat="49.02931" lon="7.8961">
        <ele>376.8</ele>
        <time>2026-03-09T10:41:21Z</time>
      </trkpt>
      <trkpt lat="49.02932" lon="7.89605">
        <ele>377.3</ele>
        <time>2026-03-09T10:41:26Z</time>
      </trkpt>
      <trkpt lat="49.02933" lon="7.89599">
        <ele>377.9</ele>
        <time>2026-03-09T10:41:31Z</time>
      </trkpt>
      <trkpt lat="49.02933" lon="7.89593">
        <ele>378.2</ele>
        <time>2026-03-09T10:41:36Z</time>
      </trkpt>
      <trkpt lat="49.02934" lon="7.89588">
        <ele>378.7</ele>
        <time>2026-03-09T10:41:41Z</time>
      </trkpt>
      <trkpt lat="49.02935" lon="7.89582">
        <ele>379.2</ele>
        <time>2026-03-09T10:41:46Z</time>
      </trkpt>
      <trkpt lat="49.02936" lon="7.89575">
        <ele>379.8</ele>
        <time>2026-03-09T10:41:51Z</time>
      </trkpt>
      <trkpt lat="49.02937" lon="7.89567">
        <ele>380.5</ele>
        <time>2026-03-09T10:41:56Z</time>
      </trkpt>
      <trkpt lat="49.02937" lon="7.89561">
        <ele>380.8</ele>
        <time>2026-03-09T10:42:01Z</time>
      </trkpt>
      <trkpt lat="49.02939" lon="7.89554">
        <ele>381.6</ele>
        <time>2026-03-09T10:42:06Z</time>
      </trkpt>
      <trkpt lat="49.02941" lon="7.89548">
        <ele>382.4</ele>
        <time>2026-03-09T10:42:11Z</time>
      </trkpt>
      <trkpt lat="49.02943" lon="7.89541">
        <ele>383.2</ele>
        <time>2026-03-09T10:42:16Z</time>
      </trkpt>
      <trkpt lat="49.02945" lon="7.89534">
        <ele>384</ele>
        <time>2026-03-09T10:42:21Z</time>
      </trkpt>
      <trkpt lat="49.02946" lon="7.89525">
        <ele>384.7</ele>
        <time>2026-03-09T10:42:26Z</time>
      </trkpt>
      <trkpt lat="49.02947" lon="7.89517">
        <ele>385.4</ele>
        <time>2026-03-09T10:42:31Z</time>
      </trkpt>
      <trkpt lat="49.02948" lon="7.89511">
        <ele>385.9</ele>
        <time>2026-03-09T10:42:36Z</time>
      </trkpt>
      <trkpt lat="49.02948" lon="7.89503">
        <ele>386.4</ele>
        <time>2026-03-09T10:42:41Z</time>
      </trkpt>
      <trkpt lat="49.02948" lon="7.89494">
        <ele>386.6</ele>
        <time>2026-03-09T10:42:46Z</time>
      </trkpt>
      <trkpt lat="49.02948" lon="7.89487">
        <ele>386.6</ele>
        <time>2026-03-09T10:42:51Z</time>
      </trkpt>
      <trkpt lat="49.02948" lon="7.8948">
        <ele>386.7</ele>
        <time>2026-03-09T10:42:56Z</time>
      </trkpt>
      <trkpt lat="49.02949" lon="7.89473">
        <ele>387</ele>
        <time>2026-03-09T10:43:01Z</time>
      </trkpt>
      <trkpt lat="49.02948" lon="7.89466">
        <ele>386.8</ele>
        <time>2026-03-09T10:43:06Z</time>
      </trkpt>
      <trkpt lat="49.02946" lon="7.89458">
        <ele>386.4</ele>
        <time>2026-03-09T10:43:11Z</time>
      </trkpt>
      <trkpt lat="49.02946" lon="7.89449">
        <ele>386.5</ele>
        <time>2026-03-09T10:43:16Z</time>
      </trkpt>
      <trkpt lat="49.02945" lon="7.89438">
        <ele>386.3</ele>
        <time>2026-03-09T10:43:21Z</time>
      </trkpt>
      <trkpt lat="49.02944" lon="7.89428">
        <ele>386.1</ele>
        <time>2026-03-09T10:43:26Z</time>
      </trkpt>
      <trkpt lat="49.02943" lon="7.89419">
        <ele>385.9</ele>
        <time>2026-03-09T10:43:31Z</time>
      </trkpt>
      <trkpt lat="49.02943" lon="7.89411">
        <ele>386.2</ele>
        <time>2026-03-09T10:43:36Z</time>
      </trkpt>
      <trkpt lat="49.02943" lon="7.89402">
        <ele>386.5</ele>
        <time>2026-03-09T10:43:41Z</time>
      </trkpt>
      <trkpt lat="49.02945" lon="7.89393">
        <ele>387.3</ele>
        <time>2026-03-09T10:43:46Z</time>
      </trkpt>
      <trkpt lat="49.02945" lon="7.89381">
        <ele>387.8</ele>
        <time>2026-03-09T10:43:51Z</time>
      </trkpt>
      <trkpt lat="49.02945" lon="7.89371">
        <ele>388.1</ele>
        <time>2026-03-09T10:43:56Z</time>
      </trkpt>
      <trkpt lat="49.02945" lon="7.89362">
        <ele>388.4</ele>
        <time>2026-03-09T10:44:01Z</time>
      </trkpt>
      <trkpt lat="49.02943" lon="7.89354">
        <ele>388.2</ele>
        <time>2026-03-09T10:44:06Z</time>
      </trkpt>
      <trkpt lat="49.02943" lon="7.89347">
        <ele>388.5</ele>
        <time>2026-03-09T10:44:11Z</time>
      </trkpt>
      <trkpt lat="49.02941" lon="7.89338">
        <ele>388.3</ele>
        <time>2026-03-09T10:44:16Z</time>
      </trkpt>
      <trkpt lat="49.02939" lon="7.89327">
        <ele>388.6</ele>
        <time>2026-03-09T10:44:21Z</time>
      </trkpt>
      <trkpt lat="49.02936" lon="7.89317">
        <ele>388.9</ele>
        <time>2026-03-09T10:44:26Z</time>
      </trkpt>
      <trkpt lat="49.02936" lon="7.89309">
        <ele>389.7</ele>
        <time>2026-03-09T10:44:31Z</time>
      </trkpt>
      <trkpt lat="49.02936" lon="7.89301">
        <ele>390.6</ele>
        <time>2026-03-09T10:44:36Z</time>
      </trkpt>
      <trkpt lat="49.02933" lon="7.89293">
        <ele>390.6</ele>
        <time>2026-03-09T10:44:41Z</time>
      </trkpt>
      <trkpt lat="49.02931" lon="7.89284">
        <ele>390.9</ele>
        <time>2026-03-09T10:44:46Z</time>
      </trkpt>
      <trkpt lat="49.02929" lon="7.89277">
        <ele>391.1</ele>
        <time>2026-03-09T10:44:51Z</time>
      </trkpt>
      <trkpt lat="49.02927" lon="7.89273">
        <ele>390.9</ele>
        <time>2026-03-09T10:44:56Z</time>
      </trkpt>
      <trkpt lat="49.02928" lon="7.89269">
        <ele>391.6</ele>
        <time>2026-03-09T10:45:01Z</time>
      </trkpt>
      <trkpt lat="49.02928" lon="7.89265">
        <ele>392</ele>
        <time>2026-03-09T10:45:06Z</time>
      </trkpt>
      <trkpt lat="49.02928" lon="7.89265">
        <ele>392</ele>
        <time>2026-03-09T10:45:11Z</time>
      </trkpt>
      <trkpt lat="49.02928" lon="7.89265">
        <ele>392</ele>
        <time>2026-03-09T10:45:16Z</time>
      </trkpt>
      <trkpt lat="49.02928" lon="7.89265">
        <ele>392</ele>
        <time>2026-03-09T10:45:21Z</time>
      </trkpt>
      <trkpt lat="49.02928" lon="7.89265">
        <ele>392</ele>
        <time>2026-03-09T10:45:26Z</time>
      </trkpt>
      <trkpt lat="49.02924" lon="7.89251">
        <ele>392.2</ele>
        <time>2026-03-09T10:45:31Z</time>
      </trkpt>
      <trkpt lat="49.02922" lon="7.89243">
        <ele>392.9</ele>
        <time>2026-03-09T10:45:36Z</time>
      </trkpt>
      <trkpt lat="49.0292" lon="7.89238">
        <ele>393.2</ele>
        <time>2026-03-09T10:45:41Z</time>
      </trkpt>
      <trkpt lat="49.02919" lon="7.89233">
        <ele>393.8</ele>
        <time>2026-03-09T10:45:46Z</time>
      </trkpt>
      <trkpt lat="49.02918" lon="7.89228">
        <ele>394.4</ele>
        <time>2026-03-09T10:45:51Z</time>
      </trkpt>
      <trkpt lat="49.02917" lon="7.89222">
        <ele>395.1</ele>
        <time>2026-03-09T10:45:56Z</time>
      </trkpt>
      <trkpt lat="49.02917" lon="7.89217">
        <ele>396</ele>
        <time>2026-03-09T10:46:01Z</time>
      </trkpt>
      <trkpt lat="49.02914" lon="7.8921">
        <ele>397</ele>
        <time>2026-03-09T10:46:06Z</time>
      </trkpt>
      <trkpt lat="49.02911" lon="7.89203">
        <ele>398.1</ele>
        <time>2026-03-09T10:46:11Z</time>
      </trkpt>
      <trkpt lat="49.0291" lon="7.89196">
        <ele>399.3</ele>
        <time>2026-03-09T10:46:16Z</time>
      </trkpt>
      <trkpt lat="49.02908" lon="7.8919">
        <ele>400.3</ele>
        <time>2026-03-09T10:46:21Z</time>
      </trkpt>
      <trkpt lat="49.02907" lon="7.89184">
        <ele>401.3</ele>
        <time>2026-03-09T10:46:26Z</time>
      </trkpt>
      <trkpt lat="49.02906" lon="7.89178">
        <ele>402.3</ele>
        <time>2026-03-09T10:46:31Z</time>
      </trkpt>
      <trkpt lat="49.02904" lon="7.89172">
        <ele>403.3</ele>
        <time>2026-03-09T10:46:36Z</time>
      </trkpt>
      <trkpt lat="49.02903" lon="7.89167">
        <ele>404.1</ele>
        <time>2026-03-09T10:46:41Z</time>
      </trkpt>
      <trkpt lat="49.02902" lon="7.89162">
        <ele>405.1</ele>
        <time>2026-03-09T10:46:46Z</time>
      </trkpt>
      <trkpt lat="49.02901" lon="7.89159">
        <ele>405.7</ele>
        <time>2026-03-09T10:46:51Z</time>
      </trkpt>
      <trkpt lat="49.02901" lon="7.89157">
        <ele>406.2</ele>
        <time>2026-03-09T10:46:56Z</time>
      </trkpt>
      <trkpt lat="49.02901" lon="7.89157">
        <ele>406.2</ele>
        <time>2026-03-09T10:47:01Z</time>
      </trkpt>
      <trkpt lat="49.02908" lon="7.89162">
        <ele>405.5</ele>
        <time>2026-03-09T10:47:06Z</time>
      </trkpt>
      <trkpt lat="49.02912" lon="7.89165">
        <ele>405.1</ele>
        <time>2026-03-09T10:47:11Z</time>
      </trkpt>
      <trkpt lat="49.02916" lon="7.89167">
        <ele>404.9</ele>
        <time>2026-03-09T10:47:16Z</time>
      </trkpt>
      <trkpt lat="49.0292" lon="7.89169">
        <ele>405.6</ele>
        <time>2026-03-09T10:47:21Z</time>
      </trkpt>
      <trkpt lat="49.02923" lon="7.89173">
        <ele>405.8</ele>
        <time>2026-03-09T10:47:26Z</time>
      </trkpt>
      <trkpt lat="49.02928" lon="7.89178">
        <ele>406.5</ele>
        <time>2026-03-09T10:47:31Z</time>
      </trkpt>
      <trkpt lat="49.02933" lon="7.89182">
        <ele>407.3</ele>
        <time>2026-03-09T10:47:36Z</time>
      </trkpt>
      <trkpt lat="49.02937" lon="7.89183">
        <ele>408.4</ele>
        <time>2026-03-09T10:47:41Z</time>
      </trkpt>
      <trkpt lat="49.02942" lon="7.89184">
        <ele>409.8</ele>
        <time>2026-03-09T10:47:46Z</time>
      </trkpt>
      <trkpt lat="49.02947" lon="7.89185">
        <ele>411.2</ele>
        <time>2026-03-09T10:47:51Z</time>
      </trkpt>
      <trkpt lat="49.02951" lon="7.89187">
        <ele>412.1</ele>
        <time>2026-03-09T10:47:56Z</time>
      </trkpt>
      <trkpt lat="49.02954" lon="7.89187">
        <ele>413</ele>
        <time>2026-03-09T10:48:01Z</time>
      </trkpt>
      <trkpt lat="49.02957" lon="7.89183">
        <ele>414.6</ele>
        <time>2026-03-09T10:48:06Z</time>
      </trkpt>
      <trkpt lat="49.02957" lon="7.89177">
        <ele>415.7</ele>
        <time>2026-03-09T10:48:11Z</time>
      </trkpt>
      <trkpt lat="49.02954" lon="7.89171">
        <ele>415.9</ele>
        <time>2026-03-09T10:48:16Z</time>
      </trkpt>
      <trkpt lat="49.02951" lon="7.89167">
        <ele>415.7</ele>
        <time>2026-03-09T10:48:21Z</time>
      </trkpt>
      <trkpt lat="49.02949" lon="7.89164">
        <ele>415.7</ele>
        <time>2026-03-09T10:48:26Z</time>
      </trkpt>
      <trkpt lat="49.02947" lon="7.89158">
        <ele>416.4</ele>
        <time>2026-03-09T10:48:31Z</time>
      </trkpt>
      <trkpt lat="49.02943" lon="7.89153">
        <ele>416.2</ele>
        <time>2026-03-09T10:48:36Z</time>
      </trkpt>
      <trkpt lat="49.0294" lon="7.89148">
        <ele>416.4</ele>
        <time>2026-03-09T10:48:41Z</time>
      </trkpt>
      <trkpt lat="49.02937" lon="7.89143">
        <ele>416.6</ele>
        <time>2026-03-09T10:48:46Z</time>
      </trkpt>
      <trkpt lat="49.02933" lon="7.89136">
        <ele>416.9</ele>
        <time>2026-03-09T10:48:51Z</time>
      </trkpt>
      <trkpt lat="49.02931" lon="7.89132">
        <ele>417.2</ele>
        <time>2026-03-09T10:48:56Z</time>
      </trkpt>
      <trkpt lat="49.0293" lon="7.89126">
        <ele>418.3</ele>
        <time>2026-03-09T10:49:01Z</time>
      </trkpt>
      <trkpt lat="49.02928" lon="7.8912">
        <ele>419</ele>
        <time>2026-03-09T10:49:06Z</time>
      </trkpt>
      <trkpt lat="49.02926" lon="7.89115">
        <ele>419.6</ele>
        <time>2026-03-09T10:49:11Z</time>
      </trkpt>
      <trkpt lat="49.02924" lon="7.89109">
        <ele>420.3</ele>
        <time>2026-03-09T10:49:16Z</time>
      </trkpt>
      <trkpt lat="49.02923" lon="7.89102">
        <ele>421.6</ele>
        <time>2026-03-09T10:49:21Z</time>
      </trkpt>
      <trkpt lat="49.02922" lon="7.89096">
        <ele>422.7</ele>
        <time>2026-03-09T10:49:26Z</time>
      </trkpt>
      <trkpt lat="49.02921" lon="7.8909">
        <ele>423.7</ele>
        <time>2026-03-09T10:49:31Z</time>
      </trkpt>
      <trkpt lat="49.0292" lon="7.89088">
        <ele>423.9</ele>
        <time>2026-03-09T10:49:36Z</time>
      </trkpt>
      <trkpt lat="49.02919" lon="7.89084">
        <ele>424.5</ele>
        <time>2026-03-09T10:49:41Z</time>
      </trkpt>
      <trkpt lat="49.02919" lon="7.89084">
        <ele>424.5</ele>
        <time>2026-03-09T10:49:46Z</time>
      </trkpt>
      <trkpt lat="49.02919" lon="7.89084">
        <ele>424.5</ele>
        <time>2026-03-09T10:49:51Z</time>
      </trkpt>
      <trkpt lat="49.02915" lon="7.8907">
        <ele>427.3</ele>
        <time>2026-03-09T10:49:56Z</time>
      </trkpt>
      <trkpt lat="49.02914" lon="7.89067">
        <ele>428</ele>
        <time>2026-03-09T10:50:01Z</time>
      </trkpt>
      <trkpt lat="49.02912" lon="7.89062">
        <ele>429.1</ele>
        <time>2026-03-09T10:50:06Z</time>
      </trkpt>
      <trkpt lat="49.0291" lon="7.89058">
        <ele>430</ele>
        <time>2026-03-09T10:50:11Z</time>
      </trkpt>
      <trkpt lat="49.02909" lon="7.89053">
        <ele>431.2</ele>
        <time>2026-03-09T10:50:16Z</time>
      </trkpt>
      <trkpt lat="49.02909" lon="7.89048">
        <ele>432.5</ele>
        <time>2026-03-09T10:50:21Z</time>
      </trkpt>
      <trkpt lat="49.02908" lon="7.89046">
        <ele>433</ele>
        <time>2026-03-09T10:50:26Z</time>
      </trkpt>
      <trkpt lat="49.02905" lon="7.8904">
        <ele>434.3</ele>
        <time>2026-03-09T10:50:31Z</time>
      </trkpt>
      <trkpt lat="49.02902" lon="7.89037">
        <ele>434.7</ele>
        <time>2026-03-09T10:50:36Z</time>
      </trkpt>
      <trkpt lat="49.02899" lon="7.89031">
        <ele>436</ele>
        <time>2026-03-09T10:50:41Z</time>
      </trkpt>
      <trkpt lat="49.02896" lon="7.89027">
        <ele>436.8</ele>
        <time>2026-03-09T10:50:46Z</time>
      </trkpt>
      <trkpt lat="49.02894" lon="7.89022">
        <ele>437.9</ele>
        <time>2026-03-09T10:50:51Z</time>
      </trkpt>
      <trkpt lat="49.02894" lon="7.89022">
        <ele>437.9</ele>
        <time>2026-03-09T10:50:56Z</time>
      </trkpt>
      <trkpt lat="49.02894" lon="7.89022">
        <ele>437.9</ele>
        <time>2026-03-09T10:51:01Z</time>
      </trkpt>
      <trkpt lat="49.02894" lon="7.89022">
        <ele>437.9</ele>
        <time>2026-03-09T10:51:06Z</time>
      </trkpt>
      <trkpt lat="49.02894" lon="7.89022">
        <ele>437.9</ele>
        <time>2026-03-09T10:51:11Z</time>
      </trkpt>
      <trkpt lat="49.02891" lon="7.89013">
        <ele>440.1</ele>
        <time>2026-03-09T10:51:16Z</time>
      </trkpt>
      <trkpt lat="49.0289" lon="7.89004">
        <ele>442.4</ele>
        <time>2026-03-09T10:51:21Z</time>
      </trkpt>
      <trkpt lat="49.02888" lon="7.88996">
        <ele>444.3</ele>
        <time>2026-03-09T10:51:26Z</time>
      </trkpt>
      <trkpt lat="49.02885" lon="7.88991">
        <ele>445.4</ele>
        <time>2026-03-09T10:51:31Z</time>
      </trkpt>
      <trkpt lat="49.02883" lon="7.88986">
        <ele>446.5</ele>
        <time>2026-03-09T10:51:36Z</time>
      </trkpt>
      <trkpt lat="49.02882" lon="7.88983">
        <ele>447.2</ele>
        <time>2026-03-09T10:51:41Z</time>
      </trkpt>
      <trkpt lat="49.02879" lon="7.88977">
        <ele>448.5</ele>
        <time>2026-03-09T10:51:46Z</time>
      </trkpt>
      <trkpt lat="49.02878" lon="7.88974">
        <ele>449.2</ele>
        <time>2026-03-09T10:51:51Z</time>
      </trkpt>
      <trkpt lat="49.02878" lon="7.88969">
        <ele>450.5</ele>
        <time>2026-03-09T10:51:56Z</time>
      </trkpt>
      <trkpt lat="49.02879" lon="7.88965">
        <ele>451.7</ele>
        <time>2026-03-09T10:52:01Z</time>
      </trkpt>
      <trkpt lat="49.02879" lon="7.88962">
        <ele>452.5</ele>
        <time>2026-03-09T10:52:06Z</time>
      </trkpt>
      <trkpt lat="49.02877" lon="7.88958">
        <ele>453.3</ele>
        <time>2026-03-09T10:52:11Z</time>
      </trkpt>
      <trkpt lat="49.02877" lon="7.88958">
        <ele>453.3</ele>
        <time>2026-03-09T10:52:16Z</time>
      </trkpt>
      <trkpt lat="49.02883" lon="7.88961">
        <ele>453.2</ele>
        <time>2026-03-09T10:52:21Z</time>
      </trkpt>
      <trkpt lat="49.02886" lon="7.88963">
        <ele>452.9</ele>
        <time>2026-03-09T10:52:26Z</time>
      </trkpt>
      <trkpt lat="49.02893" lon="7.88969">
        <ele>452.1</ele>
        <time>2026-03-09T10:52:31Z</time>
      </trkpt>
      <trkpt lat="49.02898" lon="7.88971">
        <ele>452.1</ele>
        <time>2026-03-09T10:52:36Z</time>
      </trkpt>
      <trkpt lat="49.02901" lon="7.88973">
        <ele>451.8</ele>
        <time>2026-03-09T10:52:41Z</time>
      </trkpt>
      <trkpt lat="49.02904" lon="7.88975">
        <ele>451.6</ele>
        <time>2026-03-09T10:52:46Z</time>
      </trkpt>
      <trkpt lat="49.02906" lon="7.88978">
        <ele>451</ele>
        <time>2026-03-09T10:52:51Z</time>
      </trkpt>
      <trkpt lat="49.0291" lon="7.8898">
        <ele>450.8</ele>
        <time>2026-03-09T10:52:56Z</time>
      </trkpt>
      <trkpt lat="49.02914" lon="7.88982">
        <ele>450.7</ele>
        <time>2026-03-09T10:53:01Z</time>
      </trkpt>
      <trkpt lat="49.02917" lon="7.88986">
        <ele>449.9</ele>
        <time>2026-03-09T10:53:06Z</time>
      </trkpt>
      <trkpt lat="49.02921" lon="7.88992">
        <ele>449.3</ele>
        <time>2026-03-09T10:53:11Z</time>
      </trkpt>
      <trkpt lat="49.02924" lon="7.88997">
        <ele>448.7</ele>
        <time>2026-03-09T10:53:16Z</time>
      </trkpt>
      <trkpt lat="49.02927" lon="7.88999">
        <ele>449</ele>
        <time>2026-03-09T10:53:21Z</time>
      </trkpt>
      <trkpt lat="49.02931" lon="7.88999">
        <ele>450</ele>
        <time>2026-03-09T10:53:26Z</time>
      </trkpt>
      <trkpt lat="49.02935" lon="7.89">
        <ele>450.8</ele>
        <time>2026-03-09T10:53:31Z</time>
      </trkpt>
      <trkpt lat="49.02939" lon="7.89">
        <ele>451.9</ele>
        <time>2026-03-09T10:53:36Z</time>
      </trkpt>
      <trkpt lat="49.02943" lon="7.89003">
        <ele>452.2</ele>
        <time>2026-03-09T10:53:41Z</time>
      </trkpt>
      <trkpt lat="49.02946" lon="7.89006">
        <ele>452.2</ele>
        <time>2026-03-09T10:53:46Z</time>
      </trkpt>
      <trkpt lat="49.02949" lon="7.89009">
        <ele>452.2</ele>
        <time>2026-03-09T10:53:51Z</time>
      </trkpt>
      <trkpt lat="49.02953" lon="7.89012">
        <ele>452.5</ele>
        <time>2026-03-09T10:53:56Z</time>
      </trkpt>
      <trkpt lat="49.02956" lon="7.89015">
        <ele>452.6</ele>
        <time>2026-03-09T10:54:01Z</time>
      </trkpt>
      <trkpt lat="49.0296" lon="7.89019">
        <ele>452.7</ele>
        <time>2026-03-09T10:54:06Z</time>
      </trkpt>
      <trkpt lat="49.02965" lon="7.89023">
        <ele>453</ele>
        <time>2026-03-09T10:54:11Z</time>
      </trkpt>
      <trkpt lat="49.0297" lon="7.89021">
        <ele>454.9</ele>
        <time>2026-03-09T10:54:16Z</time>
      </trkpt>
      <trkpt lat="49.02975" lon="7.89016">
        <ele>457.4</ele>
        <time>2026-03-09T10:54:21Z</time>
      </trkpt>
      <trkpt lat="49.02974" lon="7.89012">
        <ele>458.2</ele>
        <time>2026-03-09T10:54:26Z</time>
      </trkpt>
      <trkpt lat="49.0297" lon="7.89008">
        <ele>458.1</ele>
        <time>2026-03-09T10:54:31Z</time>
      </trkpt>
      <trkpt lat="49.02968" lon="7.89002">
        <ele>459.1</ele>
        <time>2026-03-09T10:54:36Z</time>
      </trkpt>
      <trkpt lat="49.02964" lon="7.88997">
        <ele>459.2</ele>
        <time>2026-03-09T10:54:41Z</time>
      </trkpt>
      <trkpt lat="49.0296" lon="7.88992">
        <ele>459.3</ele>
        <time>2026-03-09T10:54:46Z</time>
      </trkpt>
      <trkpt lat="49.02957" lon="7.88988">
        <ele>459.5</ele>
        <time>2026-03-09T10:54:51Z</time>
      </trkpt>
      <trkpt lat="49.02956" lon="7.88983">
        <ele>460.5</ele>
        <time>2026-03-09T10:54:56Z</time>
      </trkpt>
      <trkpt lat="49.02955" lon="7.88979">
        <ele>461.2</ele>
        <time>2026-03-09T10:55:01Z</time>
      </trkpt>
      <trkpt lat="49.02953" lon="7.88974">
        <ele>462</ele>
        <time>2026-03-09T10:55:06Z</time>
      </trkpt>
      <trkpt lat="49.0295" lon="7.88968">
        <ele>462.7</ele>
        <time>2026-03-09T10:55:11Z</time>
      </trkpt>
      <trkpt lat="49.02947" lon="7.88961">
        <ele>463.7</ele>
        <time>2026-03-09T10:55:16Z</time>
      </trkpt>
      <trkpt lat="49.02944" lon="7.88953">
        <ele>465.1</ele>
        <time>2026-03-09T10:55:21Z</time>
      </trkpt>
      <trkpt lat="49.02943" lon="7.88947">
        <ele>466.4</ele>
        <time>2026-03-09T10:55:26Z</time>
      </trkpt>
      <trkpt lat="49.02942" lon="7.88944">
        <ele>466.9</ele>
        <time>2026-03-09T10:55:31Z</time>
      </trkpt>
      <trkpt lat="49.02942" lon="7.88944">
        <ele>466.9</ele>
        <time>2026-03-09T10:55:36Z</time>
      </trkpt>
      <trkpt lat="49.02942" lon="7.88944">
        <ele>466.9</ele>
        <time>2026-03-09T10:55:41Z</time>
      </trkpt>
      <trkpt lat="49.02942" lon="7.88944">
        <ele>466.9</ele>
        <time>2026-03-09T10:55:46Z</time>
      </trkpt>
      <trkpt lat="49.02942" lon="7.88944">
        <ele>466.9</ele>
        <time>2026-03-09T10:55:51Z</time>
      </trkpt>
      <trkpt lat="49.02942" lon="7.88944">
        <ele>466.9</ele>
        <time>2026-03-09T10:55:56Z</time>
      </trkpt>
      <trkpt lat="49.02942" lon="7.88944">
        <ele>466.9</ele>
        <time>2026-03-09T10:56:01Z</time>
      </trkpt>
      <trkpt lat="49.02942" lon="7.88944">
        <ele>466.9</ele>
        <time>2026-03-09T10:56:06Z</time>
      </trkpt>
      <trkpt lat="49.02942" lon="7.88944">
        <ele>466.9</ele>
        <time>2026-03-09T10:56:11Z</time>
      </trkpt>
      <trkpt lat="49.02942" lon="7.88944">
        <ele>466.9</ele>
        <time>2026-03-09T10:56:16Z</time>
      </trkpt>
      <trkpt lat="49.02942" lon="7.88944">
        <ele>466.9</ele>
        <time>2026-03-09T10:56:21Z</time>
      </trkpt>
      <trkpt lat="49.02938" lon="7.8894">
        <ele>467.1</ele>
        <time>2026-03-09T10:56:26Z</time>
      </trkpt>
      <trkpt lat="49.02934" lon="7.8893">
        <ele>468.8</ele>
        <time>2026-03-09T10:56:31Z</time>
      </trkpt>
      <trkpt lat="49.02933" lon="7.88921">
        <ele>471</ele>
        <time>2026-03-09T10:56:36Z</time>
      </trkpt>
      <trkpt lat="49.02931" lon="7.88913">
        <ele>472.6</ele>
        <time>2026-03-09T10:56:41Z</time>
      </trkpt>
      <trkpt lat="49.02929" lon="7.88908">
        <ele>473.3</ele>
        <time>2026-03-09T10:56:46Z</time>
      </trkpt>
      <trkpt lat="49.02928" lon="7.88903">
        <ele>474.3</ele>
        <time>2026-03-09T10:56:51Z</time>
      </trkpt>
      <trkpt lat="49.02927" lon="7.88898">
        <ele>475.3</ele>
        <time>2026-03-09T10:56:56Z</time>
      </trkpt>
      <trkpt lat="49.02924" lon="7.8889">
        <ele>476.7</ele>
        <time>2026-03-09T10:57:01Z</time>
      </trkpt>
      <trkpt lat="49.0292" lon="7.88884">
        <ele>477.7</ele>
        <time>2026-03-09T10:57:06Z</time>
      </trkpt>
      <trkpt lat="49.02919" lon="7.88879">
        <ele>478.8</ele>
        <time>2026-03-09T10:57:11Z</time>
      </trkpt>
      <trkpt lat="49.02919" lon="7.88876">
        <ele>479.5</ele>
        <time>2026-03-09T10:57:16Z</time>
      </trkpt>
      <trkpt lat="49.02918" lon="7.8887">
        <ele>480.9</ele>
        <time>2026-03-09T10:57:21Z</time>
      </trkpt>
      <trkpt lat="49.02916" lon="7.88861">
        <ele>483</ele>
        <time>2026-03-09T10:57:26Z</time>
      </trkpt>
      <trkpt lat="49.02914" lon="7.88854">
        <ele>484.5</ele>
        <time>2026-03-09T10:57:31Z</time>
      </trkpt>
      <trkpt lat="49.02911" lon="7.88846">
        <ele>486.2</ele>
        <time>2026-03-09T10:57:36Z</time>
      </trkpt>
      <trkpt lat="49.02906" lon="7.88837">
        <ele>488</ele>
        <time>2026-03-09T10:57:41Z</time>
      </trkpt>
      <trkpt lat="49.02904" lon="7.88828">
        <ele>489.6</ele>
        <time>2026-03-09T10:57:46Z</time>
      </trkpt>
      <trkpt lat="49.02904" lon="7.88821">
        <ele>490.8</ele>
        <time>2026-03-09T10:57:51Z</time>
      </trkpt>
      <trkpt lat="49.02905" lon="7.88815">
        <ele>491.8</ele>
        <time>2026-03-09T10:57:56Z</time>
      </trkpt>
      <trkpt lat="49.02905" lon="7.88811">
        <ele>492.5</ele>
        <time>2026-03-09T10:58:01Z</time>
      </trkpt>
      <trkpt lat="49.02905" lon="7.88804">
        <ele>493.6</ele>
        <time>2026-03-09T10:58:06Z</time>
      </trkpt>
      <trkpt lat="49.02904" lon="7.88794">
        <ele>495.2</ele>
        <time>2026-03-09T10:58:11Z</time>
      </trkpt>
      <trkpt lat="49.02904" lon="7.88786">
        <ele>496.5</ele>
        <time>2026-03-09T10:58:16Z</time>
      </trkpt>
      <trkpt lat="49.02902" lon="7.88776">
        <ele>498.1</ele>
        <time>2026-03-09T10:58:21Z</time>
      </trkpt>
      <trkpt lat="49.02901" lon="7.88767">
        <ele>499.5</ele>
        <time>2026-03-09T10:58:26Z</time>
      </trkpt>
      <trkpt lat="49.02901" lon="7.8876">
        <ele>500.7</ele>
        <time>2026-03-09T10:58:31Z</time>
      </trkpt>
      <trkpt lat="49.02901" lon="7.88756">
        <ele>501.4</ele>
        <time>2026-03-09T10:58:36Z</time>
      </trkpt>
      <trkpt lat="49.02898" lon="7.88749">
        <ele>502.5</ele>
        <time>2026-03-09T10:58:41Z</time>
      </trkpt>
      <trkpt lat="49.02893" lon="7.88745">
        <ele>502.8</ele>
        <time>2026-03-09T10:58:46Z</time>
      </trkpt>
      <trkpt lat="49.02886" lon="7.88738">
        <ele>503.4</ele>
        <time>2026-03-09T10:58:51Z</time>
      </trkpt>
      <trkpt lat="49.0288" lon="7.88731">
        <ele>503.9</ele>
        <time>2026-03-09T10:58:56Z</time>
      </trkpt>
      <trkpt lat="49.02875" lon="7.88725">
        <ele>504.3</ele>
        <time>2026-03-09T10:59:01Z</time>
      </trkpt>
      <trkpt lat="49.0287" lon="7.8872">
        <ele>504.8</ele>
        <time>2026-03-09T10:59:06Z</time>
      </trkpt>
      <trkpt lat="49.02867" lon="7.88716">
        <ele>505.1</ele>
        <time>2026-03-09T10:59:11Z</time>
      </trkpt>
      <trkpt lat="49.02862" lon="7.8871">
        <ele>505.5</ele>
        <time>2026-03-09T10:59:16Z</time>
      </trkpt>
      <trkpt lat="49.02858" lon="7.88704">
        <ele>506</ele>
        <time>2026-03-09T10:59:21Z</time>
      </trkpt>
      <trkpt lat="49.02855" lon="7.88697">
        <ele>506.5</ele>
        <time>2026-03-09T10:59:26Z</time>
      </trkpt>
      <trkpt lat="49.02849" lon="7.8869">
        <ele>507.1</ele>
        <time>2026-03-09T10:59:31Z</time>
      </trkpt>
      <trkpt lat="49.02844" lon="7.88686">
        <ele>507.5</ele>
        <time>2026-03-09T10:59:36Z</time>
      </trkpt>
      <trkpt lat="49.02837" lon="7.88678">
        <ele>508.2</ele>
        <time>2026-03-09T10:59:41Z</time>
      </trkpt>
      <trkpt lat="49.02833" lon="7.88671">
        <ele>508.7</ele>
        <time>2026-03-09T10:59:46Z</time>
      </trkpt>
      <trkpt lat="49.02829" lon="7.88666">
        <ele>508.2</ele>
        <time>2026-03-09T10:59:51Z</time>
      </trkpt>
      <trkpt lat="49.02825" lon="7.88662">
        <ele>507.5</ele>
        <time>2026-03-09T10:59:56Z</time>
      </trkpt>
      <trkpt lat="49.0282" lon="7.88657">
        <ele>506.6</ele>
        <time>2026-03-09T11:00:01Z</time>
      </trkpt>
      <trkpt lat="49.02816" lon="7.88653">
        <ele>505.9</ele>
        <time>2026-03-09T11:00:06Z</time>
      </trkpt>
      <trkpt lat="49.02812" lon="7.88647">
        <ele>505.2</ele>
        <time>2026-03-09T11:00:11Z</time>
      </trkpt>
      <trkpt lat="49.02808" lon="7.8864">
        <ele>504.5</ele>
        <time>2026-03-09T11:00:16Z</time>
      </trkpt>
      <trkpt lat="49.02803" lon="7.88637">
        <ele>503.5</ele>
        <time>2026-03-09T11:00:21Z</time>
      </trkpt>
      <trkpt lat="49.02799" lon="7.88635">
        <ele>502.7</ele>
        <time>2026-03-09T11:00:26Z</time>
      </trkpt>
      <trkpt lat="49.02796" lon="7.88632">
        <ele>502.1</ele>
        <time>2026-03-09T11:00:31Z</time>
      </trkpt>
      <trkpt lat="49.02795" lon="7.8863">
        <ele>501.9</ele>
        <time>2026-03-09T11:00:36Z</time>
      </trkpt>
      <trkpt lat="49.02792" lon="7.88627">
        <ele>501.3</ele>
        <time>2026-03-09T11:00:41Z</time>
      </trkpt>
      <trkpt lat="49.02789" lon="7.88622">
        <ele>500.7</ele>
        <time>2026-03-09T11:00:46Z</time>
      </trkpt>
      <trkpt lat="49.02786" lon="7.88616">
        <ele>500.1</ele>
        <time>2026-03-09T11:00:51Z</time>
      </trkpt>
      <trkpt lat="49.02787" lon="7.88607">
        <ele>500.3</ele>
        <time>2026-03-09T11:00:56Z</time>
      </trkpt>
      <trkpt lat="49.02787" lon="7.88599">
        <ele>500.4</ele>
        <time>2026-03-09T11:01:01Z</time>
      </trkpt>
      <trkpt lat="49.02786" lon="7.88592">
        <ele>500.2</ele>
        <time>2026-03-09T11:01:06Z</time>
      </trkpt>
      <trkpt lat="49.02785" lon="7.88583">
        <ele>500</ele>
        <time>2026-03-09T11:01:11Z</time>
      </trkpt>
      <trkpt lat="49.02782" lon="7.88576">
        <ele>499</ele>
        <time>2026-03-09T11:01:16Z</time>
      </trkpt>
      <trkpt lat="49.02778" lon="7.8857">
        <ele>497.9</ele>
        <time>2026-03-09T11:01:21Z</time>
      </trkpt>
      <trkpt lat="49.02775" lon="7.88567">
        <ele>497.1</ele>
        <time>2026-03-09T11:01:26Z</time>
      </trkpt>
      <trkpt lat="49.02773" lon="7.88566">
        <ele>496.6</ele>
        <time>2026-03-09T11:01:31Z</time>
      </trkpt>
      <trkpt lat="49.02773" lon="7.88566">
        <ele>496.6</ele>
        <time>2026-03-09T11:01:36Z</time>
      </trkpt>
      <trkpt lat="49.02766" lon="7.88568">
        <ele>495</ele>
        <time>2026-03-09T11:01:41Z</time>
      </trkpt>
      <trkpt lat="49.02761" lon="7.88575">
        <ele>494.1</ele>
        <time>2026-03-09T11:01:46Z</time>
      </trkpt>
      <trkpt lat="49.02758" lon="7.88587">
        <ele>493.9</ele>
        <time>2026-03-09T11:01:51Z</time>
      </trkpt>
      <trkpt lat="49.02757" lon="7.886">
        <ele>493.7</ele>
        <time>2026-03-09T11:01:56Z</time>
      </trkpt>
      <trkpt lat="49.02756" lon="7.8861">
        <ele>493.6</ele>
        <time>2026-03-09T11:02:01Z</time>
      </trkpt>
      <trkpt lat="49.02754" lon="7.88617">
        <ele>493.3</ele>
        <time>2026-03-09T11:02:06Z</time>
      </trkpt>
      <trkpt lat="49.0275" lon="7.88626">
        <ele>492.5</ele>
        <time>2026-03-09T11:02:11Z</time>
      </trkpt>
      <trkpt lat="49.02746" lon="7.88636">
        <ele>491.5</ele>
        <time>2026-03-09T11:02:16Z</time>
      </trkpt>
      <trkpt lat="49.02743" lon="7.88647">
        <ele>490.8</ele>
        <time>2026-03-09T11:02:21Z</time>
      </trkpt>
      <trkpt lat="49.02744" lon="7.88656">
        <ele>491.2</ele>
        <time>2026-03-09T11:02:26Z</time>
      </trkpt>
      <trkpt lat="49.02744" lon="7.88664">
        <ele>491.3</ele>
        <time>2026-03-09T11:02:31Z</time>
      </trkpt>
      <trkpt lat="49.02741" lon="7.8867">
        <ele>490.2</ele>
        <time>2026-03-09T11:02:36Z</time>
      </trkpt>
      <trkpt lat="49.02738" lon="7.88676">
        <ele>488.8</ele>
        <time>2026-03-09T11:02:41Z</time>
      </trkpt>
      <trkpt lat="49.02739" lon="7.88682">
        <ele>488.6</ele>
        <time>2026-03-09T11:02:46Z</time>
      </trkpt>
      <trkpt lat="49.02737" lon="7.88691">
        <ele>487.2</ele>
        <time>2026-03-09T11:02:51Z</time>
      </trkpt>
      <trkpt lat="49.02733" lon="7.887">
        <ele>485.2</ele>
        <time>2026-03-09T11:02:56Z</time>
      </trkpt>
      <trkpt lat="49.02727" lon="7.88705">
        <ele>482.9</ele>
        <time>2026-03-09T11:03:01Z</time>
      </trkpt>
      <trkpt lat="49.02721" lon="7.88707">
        <ele>480.9</ele>
        <time>2026-03-09T11:03:06Z</time>
      </trkpt>
      <trkpt lat="49.02713" lon="7.88706">
        <ele>478.6</ele>
        <time>2026-03-09T11:03:11Z</time>
      </trkpt>
      <trkpt lat="49.02703" lon="7.88711">
        <ele>475.1</ele>
        <time>2026-03-09T11:03:16Z</time>
      </trkpt>
      <trkpt lat="49.02697" lon="7.88718">
        <ele>472.5</ele>
        <time>2026-03-09T11:03:21Z</time>
      </trkpt>
      <trkpt lat="49.02695" lon="7.88726">
        <ele>471</ele>
        <time>2026-03-09T11:03:26Z</time>
      </trkpt>
      <trkpt lat="49.02695" lon="7.88736">
        <ele>469.8</ele>
        <time>2026-03-09T11:03:31Z</time>
      </trkpt>
      <trkpt lat="49.02693" lon="7.88745">
        <ele>468.1</ele>
        <time>2026-03-09T11:03:36Z</time>
      </trkpt>
      <trkpt lat="49.02694" lon="7.88753">
        <ele>467.1</ele>
        <time>2026-03-09T11:03:41Z</time>
      </trkpt>
      <trkpt lat="49.02695" lon="7.8876">
        <ele>465.8</ele>
        <time>2026-03-09T11:03:46Z</time>
      </trkpt>
      <trkpt lat="49.02691" lon="7.88766">
        <ele>463.1</ele>
        <time>2026-03-09T11:03:51Z</time>
      </trkpt>
      <trkpt lat="49.02685" lon="7.88764">
        <ele>461.6</ele>
        <time>2026-03-09T11:03:56Z</time>
      </trkpt>
      <trkpt lat="49.02679" lon="7.88762">
        <ele>460.1</ele>
        <time>2026-03-09T11:04:01Z</time>
      </trkpt>
      <trkpt lat="49.02673" lon="7.88758">
        <ele>459.1</ele>
        <time>2026-03-09T11:04:06Z</time>
      </trkpt>
      <trkpt lat="49.02668" lon="7.88752">
        <ele>459</ele>
        <time>2026-03-09T11:04:11Z</time>
      </trkpt>
      <trkpt lat="49.02664" lon="7.88744">
        <ele>458.9</ele>
        <time>2026-03-09T11:04:16Z</time>
      </trkpt>
      <trkpt lat="49.0266" lon="7.8874">
        <ele>458.2</ele>
        <time>2026-03-09T11:04:21Z</time>
      </trkpt>
      <trkpt lat="49.02655" lon="7.88735">
        <ele>457.3</ele>
        <time>2026-03-09T11:04:26Z</time>
      </trkpt>
      <trkpt lat="49.0265" lon="7.8873">
        <ele>456.4</ele>
        <time>2026-03-09T11:04:31Z</time>
      </trkpt>
      <trkpt lat="49.02646" lon="7.88727">
        <ele>455.5</ele>
        <time>2026-03-09T11:04:36Z</time>
      </trkpt>
      <trkpt lat="49.0264" lon="7.88724">
        <ele>454.1</ele>
        <time>2026-03-09T11:04:41Z</time>
      </trkpt>
      <trkpt lat="49.02635" lon="7.88723">
        <ele>452.7</ele>
        <time>2026-03-09T11:04:46Z</time>
      </trkpt>
      <trkpt lat="49.02629" lon="7.88722">
        <ele>450.9</ele>
        <time>2026-03-09T11:04:51Z</time>
      </trkpt>
      <trkpt lat="49.02625" lon="7.88716">
        <ele>450.6</ele>
        <time>2026-03-09T11:04:56Z</time>
      </trkpt>
      <trkpt lat="49.02623" lon="7.8871">
        <ele>450.9</ele>
        <time>2026-03-09T11:05:01Z</time>
      </trkpt>
      <trkpt lat="49.02621" lon="7.88703">
        <ele>451.3</ele>
        <time>2026-03-09T11:05:06Z</time>
      </trkpt>
      <trkpt lat="49.02617" lon="7.88694">
        <ele>451.5</ele>
        <time>2026-03-09T11:05:11Z</time>
      </trkpt>
      <trkpt lat="49.02612" lon="7.88685">
        <ele>451.4</ele>
        <time>2026-03-09T11:05:16Z</time>
      </trkpt>
      <trkpt lat="49.02609" lon="7.88677">
        <ele>451.8</ele>
        <time>2026-03-09T11:05:21Z</time>
      </trkpt>
      <trkpt lat="49.02605" lon="7.88668">
        <ele>452</ele>
        <time>2026-03-09T11:05:26Z</time>
      </trkpt>
      <trkpt lat="49.02602" lon="7.8866">
        <ele>451.3</ele>
        <time>2026-03-09T11:05:31Z</time>
      </trkpt>
      <trkpt lat="49.02599" lon="7.88651">
        <ele>450.4</ele>
        <time>2026-03-09T11:05:36Z</time>
      </trkpt>
      <trkpt lat="49.02595" lon="7.8864">
        <ele>449.2</ele>
        <time>2026-03-09T11:05:41Z</time>
      </trkpt>
      <trkpt lat="49.02594" lon="7.88627">
        <ele>448.8</ele>
        <time>2026-03-09T11:05:46Z</time>
      </trkpt>
      <trkpt lat="49.02594" lon="7.88615">
        <ele>448.8</ele>
        <time>2026-03-09T11:05:51Z</time>
      </trkpt>
      <trkpt lat="49.02595" lon="7.88605">
        <ele>448.9</ele>
        <time>2026-03-09T11:05:56Z</time>
      </trkpt>
      <trkpt lat="49.02596" lon="7.88596">
        <ele>449.1</ele>
        <time>2026-03-09T11:06:01Z</time>
      </trkpt>
      <trkpt lat="49.02597" lon="7.88585">
        <ele>449.3</ele>
        <time>2026-03-09T11:06:06Z</time>
      </trkpt>
      <trkpt lat="49.02598" lon="7.88575">
        <ele>448.6</ele>
        <time>2026-03-09T11:06:11Z</time>
      </trkpt>
      <trkpt lat="49.026" lon="7.88567">
        <ele>448.1</ele>
        <time>2026-03-09T11:06:16Z</time>
      </trkpt>
      <trkpt lat="49.02599" lon="7.88559">
        <ele>447</ele>
        <time>2026-03-09T11:06:21Z</time>
      </trkpt>
      <trkpt lat="49.02593" lon="7.88556">
        <ele>445.3</ele>
        <time>2026-03-09T11:06:26Z</time>
      </trkpt>
      <trkpt lat="49.02584" lon="7.88559">
        <ele>443.5</ele>
        <time>2026-03-09T11:06:31Z</time>
      </trkpt>
      <trkpt lat="49.02576" lon="7.88557">
        <ele>443</ele>
        <time>2026-03-09T11:06:36Z</time>
      </trkpt>
      <trkpt lat="49.02568" lon="7.88556">
        <ele>442.7</ele>
        <time>2026-03-09T11:06:41Z</time>
      </trkpt>
      <trkpt lat="49.02563" lon="7.88556">
        <ele>442.6</ele>
        <time>2026-03-09T11:06:46Z</time>
      </trkpt>
      <trkpt lat="49.02557" lon="7.88554">
        <ele>442.4</ele>
        <time>2026-03-09T11:06:51Z</time>
      </trkpt>
      <trkpt lat="49.02554" lon="7.88553">
        <ele>442.2</ele>
        <time>2026-03-09T11:06:56Z</time>
      </trkpt>
      <trkpt lat="49.02551" lon="7.88548">
        <ele>441.9</ele>
        <time>2026-03-09T11:07:01Z</time>
      </trkpt>
      <trkpt lat="49.02548" lon="7.88546">
        <ele>441.7</ele>
        <time>2026-03-09T11:07:06Z</time>
      </trkpt>
      <trkpt lat="49.02543" lon="7.88544">
        <ele>441.6</ele>
        <time>2026-03-09T11:07:11Z</time>
      </trkpt>
      <trkpt lat="49.02538" lon="7.88546">
        <ele>441.7</ele>
        <time>2026-03-09T11:07:16Z</time>
      </trkpt>
      <trkpt lat="49.02533" lon="7.88549">
        <ele>441.8</ele>
        <time>2026-03-09T11:07:21Z</time>
      </trkpt>
      <trkpt lat="49.0253" lon="7.8855">
        <ele>441.8</ele>
        <time>2026-03-09T11:07:26Z</time>
      </trkpt>
      <trkpt lat="49.02528" lon="7.8855">
        <ele>441.7</ele>
        <time>2026-03-09T11:07:31Z</time>
      </trkpt>
      <trkpt lat="49.02528" lon="7.8855">
        <ele>441.7</ele>
        <time>2026-03-09T11:07:36Z</time>
      </trkpt>
      <trkpt lat="49.02528" lon="7.8855">
        <ele>441.7</ele>
        <time>2026-03-09T11:07:41Z</time>
      </trkpt>
      <trkpt lat="49.02528" lon="7.8855">
        <ele>441.7</ele>
        <time>2026-03-09T11:07:46Z</time>
      </trkpt>
      <trkpt lat="49.02524" lon="7.88533">
        <ele>441.3</ele>
        <time>2026-03-09T11:07:51Z</time>
      </trkpt>
      <trkpt lat="49.02518" lon="7.88535">
        <ele>441.4</ele>
        <time>2026-03-09T11:07:56Z</time>
      </trkpt>
      <trkpt lat="49.02512" lon="7.88538">
        <ele>441.5</ele>
        <time>2026-03-09T11:08:01Z</time>
      </trkpt>
      <trkpt lat="49.02505" lon="7.88537">
        <ele>441.5</ele>
        <time>2026-03-09T11:08:06Z</time>
      </trkpt>
      <trkpt lat="49.025" lon="7.88536">
        <ele>441.6</ele>
        <time>2026-03-09T11:08:11Z</time>
      </trkpt>
      <trkpt lat="49.02498" lon="7.88532">
        <ele>442</ele>
        <time>2026-03-09T11:08:16Z</time>
      </trkpt>
      <trkpt lat="49.02495" lon="7.88535">
        <ele>442.6</ele>
        <time>2026-03-09T11:08:21Z</time>
      </trkpt>
      <trkpt lat="49.0249" lon="7.88539">
        <ele>443.4</ele>
        <time>2026-03-09T11:08:26Z</time>
      </trkpt>
      <trkpt lat="49.02486" lon="7.88546">
        <ele>444</ele>
        <time>2026-03-09T11:08:31Z</time>
      </trkpt>
      <trkpt lat="49.02485" lon="7.88554">
        <ele>443.8</ele>
        <time>2026-03-09T11:08:36Z</time>
      </trkpt>
      <trkpt lat="49.02481" lon="7.88557">
        <ele>444.4</ele>
        <time>2026-03-09T11:08:41Z</time>
      </trkpt>
      <trkpt lat="49.02482" lon="7.88553">
        <ele>444.4</ele>
        <time>2026-03-09T11:08:46Z</time>
      </trkpt>
      <trkpt lat="49.02487" lon="7.88543">
        <ele>443.9</ele>
        <time>2026-03-09T11:08:51Z</time>
      </trkpt>
      <trkpt lat="49.02493" lon="7.88536">
        <ele>442.9</ele>
        <time>2026-03-09T11:08:56Z</time>
      </trkpt>
      <trkpt lat="49.02498" lon="7.88533">
        <ele>442</ele>
        <time>2026-03-09T11:09:01Z</time>
      </trkpt>
      <trkpt lat="49.02501" lon="7.8853">
        <ele>441.6</ele>
        <time>2026-03-09T11:09:06Z</time>
      </trkpt>
      <trkpt lat="49.02505" lon="7.88526">
        <ele>441.6</ele>
        <time>2026-03-09T11:09:11Z</time>
      </trkpt>
      <trkpt lat="49.02506" lon="7.88522">
        <ele>441.6</ele>
        <time>2026-03-09T11:09:16Z</time>
      </trkpt>
      <trkpt lat="49.02506" lon="7.88521">
        <ele>441.6</ele>
        <time>2026-03-09T11:09:21Z</time>
      </trkpt>
      <trkpt lat="49.02498" lon="7.88516">
        <ele>442.3</ele>
        <time>2026-03-09T11:09:26Z</time>
      </trkpt>
      <trkpt lat="49.02493" lon="7.88514">
        <ele>443.4</ele>
        <time>2026-03-09T11:09:31Z</time>
      </trkpt>
      <trkpt lat="49.02492" lon="7.88508">
        <ele>443.8</ele>
        <time>2026-03-09T11:09:36Z</time>
      </trkpt>
      <trkpt lat="49.02494" lon="7.885">
        <ele>443.5</ele>
        <time>2026-03-09T11:09:41Z</time>
      </trkpt>
      <trkpt lat="49.02498" lon="7.88495">
        <ele>441.9</ele>
        <time>2026-03-09T11:09:46Z</time>
      </trkpt>
      <trkpt lat="49.02505" lon="7.88493">
        <ele>440.8</ele>
        <time>2026-03-09T11:09:51Z</time>
      </trkpt>
      <trkpt lat="49.02509" lon="7.88488">
        <ele>439.8</ele>
        <time>2026-03-09T11:09:56Z</time>
      </trkpt>
      <trkpt lat="49.02503" lon="7.88484">
        <ele>439.7</ele>
        <time>2026-03-09T11:10:01Z</time>
      </trkpt>
      <trkpt lat="49.02493" lon="7.88483">
        <ele>441.6</ele>
        <time>2026-03-09T11:10:06Z</time>
      </trkpt>
      <trkpt lat="49.02485" lon="7.88483">
        <ele>443.8</ele>
        <time>2026-03-09T11:10:11Z</time>
      </trkpt>
      <trkpt lat="49.02477" lon="7.88484">
        <ele>446.1</ele>
        <time>2026-03-09T11:10:16Z</time>
      </trkpt>
      <trkpt lat="49.02471" lon="7.8848">
        <ele>447.3</ele>
        <time>2026-03-09T11:10:21Z</time>
      </trkpt>
      <trkpt lat="49.02468" lon="7.88478">
        <ele>447.9</ele>
        <time>2026-03-09T11:10:26Z</time>
      </trkpt>
      <trkpt lat="49.02468" lon="7.88478">
        <ele>447.9</ele>
        <time>2026-03-09T11:10:31Z</time>
      </trkpt>
      <trkpt lat="49.02468" lon="7.88478">
        <ele>447.9</ele>
        <time>2026-03-09T11:10:36Z</time>
      </trkpt>
      <trkpt lat="49.02468" lon="7.88478">
        <ele>447.9</ele>
        <time>2026-03-09T11:10:41Z</time>
      </trkpt>
      <trkpt lat="49.02468" lon="7.88478">
        <ele>447.9</ele>
        <time>2026-03-09T11:10:46Z</time>
      </trkpt>
      <trkpt lat="49.02468" lon="7.88478">
        <ele>447.9</ele>
        <time>2026-03-09T11:10:51Z</time>
      </trkpt>
      <trkpt lat="49.02468" lon="7.88478">
        <ele>447.9</ele>
        <time>2026-03-09T11:10:56Z</time>
      </trkpt>
      <trkpt lat="49.02468" lon="7.88478">
        <ele>447.9</ele>
        <time>2026-03-09T11:11:01Z</time>
      </trkpt>
      <trkpt lat="49.02468" lon="7.88478">
        <ele>447.9</ele>
        <time>2026-03-09T11:11:06Z</time>
      </trkpt>
      <trkpt lat="49.02468" lon="7.88478">
        <ele>447.9</ele>
        <time>2026-03-09T11:11:11Z</time>
      </trkpt>
      <trkpt lat="49.02468" lon="7.88478">
        <ele>447.9</ele>
        <time>2026-03-09T11:11:16Z</time>
      </trkpt>
      <trkpt lat="49.02468" lon="7.88478">
        <ele>447.9</ele>
        <time>2026-03-09T11:11:21Z</time>
      </trkpt>
      <trkpt lat="49.02468" lon="7.88478">
        <ele>447.9</ele>
        <time>2026-03-09T11:11:26Z</time>
      </trkpt>
      <trkpt lat="49.02468" lon="7.88478">
        <ele>447.9</ele>
        <time>2026-03-09T11:11:31Z</time>
      </trkpt>
      <trkpt lat="49.02468" lon="7.88478">
        <ele>447.9</ele>
        <time>2026-03-09T11:11:36Z</time>
      </trkpt>
      <trkpt lat="49.02466" lon="7.88471">
        <ele>447.7</ele>
        <time>2026-03-09T11:11:41Z</time>
      </trkpt>
      <trkpt lat="49.0246" lon="7.88469">
        <ele>449.2</ele>
        <time>2026-03-09T11:11:46Z</time>
      </trkpt>
      <trkpt lat="49.02456" lon="7.88467">
        <ele>450.2</ele>
        <time>2026-03-09T11:11:51Z</time>
      </trkpt>
      <trkpt lat="49.02453" lon="7.88466">
        <ele>451</ele>
        <time>2026-03-09T11:11:56Z</time>
      </trkpt>
      <trkpt lat="49.02454" lon="7.8846">
        <ele>450.2</ele>
        <time>2026-03-09T11:12:01Z</time>
      </trkpt>
      <trkpt lat="49.02452" lon="7.88453">
        <ele>450.2</ele>
        <time>2026-03-09T11:12:06Z</time>
      </trkpt>
      <trkpt lat="49.02451" lon="7.88445">
        <ele>449.8</ele>
        <time>2026-03-09T11:12:11Z</time>
      </trkpt>
      <trkpt lat="49.02448" lon="7.88436">
        <ele>450</ele>
        <time>2026-03-09T11:12:16Z</time>
      </trkpt>
      <trkpt lat="49.02444" lon="7.88425">
        <ele>450.4</ele>
        <time>2026-03-09T11:12:21Z</time>
      </trkpt>
      <trkpt lat="49.02442" lon="7.88414">
        <ele>450.1</ele>
        <time>2026-03-09T11:12:26Z</time>
      </trkpt>
      <trkpt lat="49.02438" lon="7.88401">
        <ele>449.5</ele>
        <time>2026-03-09T11:12:31Z</time>
      </trkpt>
      <trkpt lat="49.02434" lon="7.88391">
        <ele>449.4</ele>
        <time>2026-03-09T11:12:36Z</time>
      </trkpt>
      <trkpt lat="49.02428" lon="7.88383">
        <ele>450.2</ele>
        <time>2026-03-09T11:12:41Z</time>
      </trkpt>
      <trkpt lat="49.02426" lon="7.88372">
        <ele>449.3</ele>
        <time>2026-03-09T11:12:46Z</time>
      </trkpt>
      <trkpt lat="49.02421" lon="7.88361">
        <ele>449.5</ele>
        <time>2026-03-09T11:12:51Z</time>
      </trkpt>
      <trkpt lat="49.02418" lon="7.88355">
        <ele>449.6</ele>
        <time>2026-03-09T11:12:56Z</time>
      </trkpt>
      <trkpt lat="49.02417" lon="7.88349">
        <ele>449.1</ele>
        <time>2026-03-09T11:13:01Z</time>
      </trkpt>
      <trkpt lat="49.02417" lon="7.88344">
        <ele>448.4</ele>
        <time>2026-03-09T11:13:06Z</time>
      </trkpt>
      <trkpt lat="49.02416" lon="7.88336">
        <ele>447.6</ele>
        <time>2026-03-09T11:13:11Z</time>
      </trkpt>
      <trkpt lat="49.02412" lon="7.88329">
        <ele>447.8</ele>
        <time>2026-03-09T11:13:16Z</time>
      </trkpt>
      <trkpt lat="49.02409" lon="7.8832">
        <ele>447.3</ele>
        <time>2026-03-09T11:13:21Z</time>
      </trkpt>
      <trkpt lat="49.02406" lon="7.88307">
        <ele>446.1</ele>
        <time>2026-03-09T11:13:26Z</time>
      </trkpt>
      <trkpt lat="49.02399" lon="7.88294">
        <ele>446.2</ele>
        <time>2026-03-09T11:13:31Z</time>
      </trkpt>
      <trkpt lat="49.02397" lon="7.88283">
        <ele>445.1</ele>
        <time>2026-03-09T11:13:36Z</time>
      </trkpt>
      <trkpt lat="49.02394" lon="7.88272">
        <ele>444.2</ele>
        <time>2026-03-09T11:13:41Z</time>
      </trkpt>
      <trkpt lat="49.02389" lon="7.88259">
        <ele>443.8</ele>
        <time>2026-03-09T11:13:46Z</time>
      </trkpt>
      <trkpt lat="49.02388" lon="7.88249">
        <ele>442.5</ele>
        <time>2026-03-09T11:13:51Z</time>
      </trkpt>
      <trkpt lat="49.02387" lon="7.88238">
        <ele>441.6</ele>
        <time>2026-03-09T11:13:56Z</time>
      </trkpt>
      <trkpt lat="49.02385" lon="7.88228">
        <ele>441.1</ele>
        <time>2026-03-09T11:14:01Z</time>
      </trkpt>
      <trkpt lat="49.02382" lon="7.8821">
        <ele>440</ele>
        <time>2026-03-09T11:14:06Z</time>
      </trkpt>
      <trkpt lat="49.0238" lon="7.88197">
        <ele>439.2</ele>
        <time>2026-03-09T11:14:11Z</time>
      </trkpt>
      <trkpt lat="49.02378" lon="7.88185">
        <ele>438.6</ele>
        <time>2026-03-09T11:14:16Z</time>
      </trkpt>
      <trkpt lat="49.02376" lon="7.88175">
        <ele>438.1</ele>
        <time>2026-03-09T11:14:21Z</time>
      </trkpt>
      <trkpt lat="49.02375" lon="7.88165">
        <ele>437.4</ele>
        <time>2026-03-09T11:14:26Z</time>
      </trkpt>
      <trkpt lat="49.02372" lon="7.88152">
        <ele>437.5</ele>
        <time>2026-03-09T11:14:31Z</time>
      </trkpt>
      <trkpt lat="49.02371" lon="7.88142">
        <ele>437.1</ele>
        <time>2026-03-09T11:14:36Z</time>
      </trkpt>
      <trkpt lat="49.02368" lon="7.88131">
        <ele>437.4</ele>
        <time>2026-03-09T11:14:41Z</time>
      </trkpt>
      <trkpt lat="49.02365" lon="7.88118">
        <ele>437.5</ele>
        <time>2026-03-09T11:14:46Z</time>
      </trkpt>
      <trkpt lat="49.02365" lon="7.88109">
        <ele>436.8</ele>
        <time>2026-03-09T11:14:51Z</time>
      </trkpt>
      <trkpt lat="49.02365" lon="7.88097">
        <ele>436</ele>
        <time>2026-03-09T11:14:56Z</time>
      </trkpt>
      <trkpt lat="49.02364" lon="7.88087">
        <ele>435.6</ele>
        <time>2026-03-09T11:15:01Z</time>
      </trkpt>
      <trkpt lat="49.02364" lon="7.88077">
        <ele>435</ele>
        <time>2026-03-09T11:15:06Z</time>
      </trkpt>
      <trkpt lat="49.02365" lon="7.88066">
        <ele>434.2</ele>
        <time>2026-03-09T11:15:11Z</time>
      </trkpt>
      <trkpt lat="49.02363" lon="7.8805">
        <ele>434.1</ele>
        <time>2026-03-09T11:15:16Z</time>
      </trkpt>
      <trkpt lat="49.02362" lon="7.88036">
        <ele>433.8</ele>
        <time>2026-03-09T11:15:21Z</time>
      </trkpt>
      <trkpt lat="49.02361" lon="7.88023">
        <ele>433.5</ele>
        <time>2026-03-09T11:15:26Z</time>
      </trkpt>
      <trkpt lat="49.0236" lon="7.88013">
        <ele>433.3</ele>
        <time>2026-03-09T11:15:31Z</time>
      </trkpt>
      <trkpt lat="49.02357" lon="7.88002">
        <ele>433.7</ele>
        <time>2026-03-09T11:15:36Z</time>
      </trkpt>
      <trkpt lat="49.02356" lon="7.87991">
        <ele>433.5</ele>
        <time>2026-03-09T11:15:41Z</time>
      </trkpt>
      <trkpt lat="49.02355" lon="7.8798">
        <ele>433.4</ele>
        <time>2026-03-09T11:15:46Z</time>
      </trkpt>
      <trkpt lat="49.02355" lon="7.87967">
        <ele>432.8</ele>
        <time>2026-03-09T11:15:51Z</time>
      </trkpt>
      <trkpt lat="49.02357" lon="7.87957">
        <ele>431.8</ele>
        <time>2026-03-09T11:15:56Z</time>
      </trkpt>
      <trkpt lat="49.02357" lon="7.87946">
        <ele>431.3</ele>
        <time>2026-03-09T11:16:01Z</time>
      </trkpt>
      <trkpt lat="49.0236" lon="7.87934">
        <ele>430</ele>
        <time>2026-03-09T11:16:06Z</time>
      </trkpt>
      <trkpt lat="49.02359" lon="7.87923">
        <ele>429.8</ele>
        <time>2026-03-09T11:16:11Z</time>
      </trkpt>
      <trkpt lat="49.02359" lon="7.87912">
        <ele>429</ele>
        <time>2026-03-09T11:16:16Z</time>
      </trkpt>
      <trkpt lat="49.02357" lon="7.87899">
        <ele>427.9</ele>
        <time>2026-03-09T11:16:21Z</time>
      </trkpt>
      <trkpt lat="49.02355" lon="7.87888">
        <ele>427.1</ele>
        <time>2026-03-09T11:16:26Z</time>
      </trkpt>
      <trkpt lat="49.02356" lon="7.87879">
        <ele>425.8</ele>
        <time>2026-03-09T11:16:31Z</time>
      </trkpt>
      <trkpt lat="49.02361" lon="7.87864">
        <ele>422.9</ele>
        <time>2026-03-09T11:16:36Z</time>
      </trkpt>
      <trkpt lat="49.02362" lon="7.87854">
        <ele>421.5</ele>
        <time>2026-03-09T11:16:41Z</time>
      </trkpt>
      <trkpt lat="49.02363" lon="7.87842">
        <ele>419.9</ele>
        <time>2026-03-09T11:16:46Z</time>
      </trkpt>
      <trkpt lat="49.02361" lon="7.8783">
        <ele>418.8</ele>
        <time>2026-03-09T11:16:51Z</time>
      </trkpt>
      <trkpt lat="49.0236" lon="7.87819">
        <ele>417.3</ele>
        <time>2026-03-09T11:16:56Z</time>
      </trkpt>
      <trkpt lat="49.02359" lon="7.87806">
        <ele>415.5</ele>
        <time>2026-03-09T11:17:01Z</time>
      </trkpt>
      <trkpt lat="49.02358" lon="7.87796">
        <ele>414</ele>
        <time>2026-03-09T11:17:06Z</time>
      </trkpt>
      <trkpt lat="49.02356" lon="7.87789">
        <ele>413.3</ele>
        <time>2026-03-09T11:17:11Z</time>
      </trkpt>
      <trkpt lat="49.02353" lon="7.8778">
        <ele>412.3</ele>
        <time>2026-03-09T11:17:16Z</time>
      </trkpt>
      <trkpt lat="49.02353" lon="7.87773">
        <ele>411.2</ele>
        <time>2026-03-09T11:17:21Z</time>
      </trkpt>
      <trkpt lat="49.02349" lon="7.8776">
        <ele>409.6</ele>
        <time>2026-03-09T11:17:26Z</time>
      </trkpt>
      <trkpt lat="49.02345" lon="7.87746">
        <ele>408</ele>
        <time>2026-03-09T11:17:31Z</time>
      </trkpt>
      <trkpt lat="49.02341" lon="7.87731">
        <ele>406.7</ele>
        <time>2026-03-09T11:17:36Z</time>
      </trkpt>
      <trkpt lat="49.02336" lon="7.8772">
        <ele>406</ele>
        <time>2026-03-09T11:17:41Z</time>
      </trkpt>
      <trkpt lat="49.02333" lon="7.87712">
        <ele>405.5</ele>
        <time>2026-03-09T11:17:46Z</time>
      </trkpt>
      <trkpt lat="49.02331" lon="7.87703">
        <ele>404.9</ele>
        <time>2026-03-09T11:17:51Z</time>
      </trkpt>
      <trkpt lat="49.02328" lon="7.87694">
        <ele>404.6</ele>
        <time>2026-03-09T11:17:56Z</time>
      </trkpt>
      <trkpt lat="49.02324" lon="7.87684">
        <ele>404.4</ele>
        <time>2026-03-09T11:18:01Z</time>
      </trkpt>
      <trkpt lat="49.02322" lon="7.87676">
        <ele>403.9</ele>
        <time>2026-03-09T11:18:06Z</time>
      </trkpt>
      <trkpt lat="49.02319" lon="7.87668">
        <ele>403.8</ele>
        <time>2026-03-09T11:18:11Z</time>
      </trkpt>
      <trkpt lat="49.02315" lon="7.87661">
        <ele>404.2</ele>
        <time>2026-03-09T11:18:16Z</time>
      </trkpt>
      <trkpt lat="49.02311" lon="7.87652">
        <ele>404.4</ele>
        <time>2026-03-09T11:18:21Z</time>
      </trkpt>
      <trkpt lat="49.02307" lon="7.87645">
        <ele>404.9</ele>
        <time>2026-03-09T11:18:26Z</time>
      </trkpt>
      <trkpt lat="49.02304" lon="7.8764">
        <ele>405.3</ele>
        <time>2026-03-09T11:18:31Z</time>
      </trkpt>
      <trkpt lat="49.02302" lon="7.87635">
        <ele>405.4</ele>
        <time>2026-03-09T11:18:36Z</time>
      </trkpt>
      <trkpt lat="49.02301" lon="7.87634">
        <ele>405.6</ele>
        <time>2026-03-09T11:18:41Z</time>
      </trkpt>
      <trkpt lat="49.02296" lon="7.87627">
        <ele>406.3</ele>
        <time>2026-03-09T11:18:46Z</time>
      </trkpt>
      <trkpt lat="49.02291" lon="7.87623">
        <ele>407.3</ele>
        <time>2026-03-09T11:18:51Z</time>
      </trkpt>
      <trkpt lat="49.02284" lon="7.87617">
        <ele>408.6</ele>
        <time>2026-03-09T11:18:56Z</time>
      </trkpt>
      <trkpt lat="49.02277" lon="7.87611">
        <ele>410</ele>
        <time>2026-03-09T11:19:01Z</time>
      </trkpt>
      <trkpt lat="49.02273" lon="7.87606">
        <ele>410.6</ele>
        <time>2026-03-09T11:19:06Z</time>
      </trkpt>
      <trkpt lat="49.02268" lon="7.87601">
        <ele>411.6</ele>
        <time>2026-03-09T11:19:11Z</time>
      </trkpt>
      <trkpt lat="49.02261" lon="7.87597">
        <ele>413.1</ele>
        <time>2026-03-09T11:19:16Z</time>
      </trkpt>
      <trkpt lat="49.02256" lon="7.87591">
        <ele>414</ele>
        <time>2026-03-09T11:19:21Z</time>
      </trkpt>
      <trkpt lat="49.02252" lon="7.87582">
        <ele>414.4</ele>
        <time>2026-03-09T11:19:26Z</time>
      </trkpt>
      <trkpt lat="49.02248" lon="7.87572">
        <ele>415</ele>
        <time>2026-03-09T11:19:31Z</time>
      </trkpt>
      <trkpt lat="49.02246" lon="7.87561">
        <ele>415.1</ele>
        <time>2026-03-09T11:19:36Z</time>
      </trkpt>
      <trkpt lat="49.02247" lon="7.8755">
        <ele>414.2</ele>
        <time>2026-03-09T11:19:41Z</time>
      </trkpt>
      <trkpt lat="49.02246" lon="7.8754">
        <ele>414</ele>
        <time>2026-03-09T11:19:46Z</time>
      </trkpt>
      <trkpt lat="49.02248" lon="7.8753">
        <ele>413</ele>
        <time>2026-03-09T11:19:51Z</time>
      </trkpt>
      <trkpt lat="49.0225" lon="7.87521">
        <ele>412</ele>
        <time>2026-03-09T11:19:56Z</time>
      </trkpt>
      <trkpt lat="49.0225" lon="7.8751">
        <ele>411.5</ele>
        <time>2026-03-09T11:20:01Z</time>
      </trkpt>
      <trkpt lat="49.02249" lon="7.875">
        <ele>411.3</ele>
        <time>2026-03-09T11:20:06Z</time>
      </trkpt>
      <trkpt lat="49.02248" lon="7.87489">
        <ele>410.7</ele>
        <time>2026-03-09T11:20:11Z</time>
      </trkpt>
      <trkpt lat="49.02247" lon="7.87478">
        <ele>410.2</ele>
        <time>2026-03-09T11:20:16Z</time>
      </trkpt>
      <trkpt lat="49.02244" lon="7.87467">
        <ele>410.2</ele>
        <time>2026-03-09T11:20:21Z</time>
      </trkpt>
      <trkpt lat="49.0224" lon="7.87456">
        <ele>410.4</ele>
        <time>2026-03-09T11:20:26Z</time>
      </trkpt>
      <trkpt lat="49.02236" lon="7.87444">
        <ele>410.6</ele>
        <time>2026-03-09T11:20:31Z</time>
      </trkpt>
      <trkpt lat="49.02234" lon="7.87432">
        <ele>410.3</ele>
        <time>2026-03-09T11:20:36Z</time>
      </trkpt>
      <trkpt lat="49.02236" lon="7.87423">
        <ele>409.1</ele>
        <time>2026-03-09T11:20:41Z</time>
      </trkpt>
      <trkpt lat="49.02235" lon="7.87413">
        <ele>409</ele>
        <time>2026-03-09T11:20:46Z</time>
      </trkpt>
      <trkpt lat="49.02234" lon="7.87403">
        <ele>409.4</ele>
        <time>2026-03-09T11:20:51Z</time>
      </trkpt>
      <trkpt lat="49.02233" lon="7.87392">
        <ele>409.8</ele>
        <time>2026-03-09T11:20:56Z</time>
      </trkpt>
      <trkpt lat="49.02233" lon="7.87382">
        <ele>410</ele>
        <time>2026-03-09T11:21:01Z</time>
      </trkpt>
      <trkpt lat="49.02235" lon="7.87374">
        <ele>409.6</ele>
        <time>2026-03-09T11:21:06Z</time>
      </trkpt>
      <trkpt lat="49.02234" lon="7.87371">
        <ele>409.9</ele>
        <time>2026-03-09T11:21:11Z</time>
      </trkpt>
      <trkpt lat="49.02234" lon="7.87371">
        <ele>409.9</ele>
        <time>2026-03-09T11:21:16Z</time>
      </trkpt>
      <trkpt lat="49.02234" lon="7.87371">
        <ele>409.9</ele>
        <time>2026-03-09T11:21:21Z</time>
      </trkpt>
      <trkpt lat="49.02234" lon="7.87371">
        <ele>409.9</ele>
        <time>2026-03-09T11:21:26Z</time>
      </trkpt>
      <trkpt lat="49.02234" lon="7.87371">
        <ele>409.9</ele>
        <time>2026-03-09T11:21:31Z</time>
      </trkpt>
      <trkpt lat="49.02234" lon="7.87371">
        <ele>409.9</ele>
        <time>2026-03-09T11:21:36Z</time>
      </trkpt>
      <trkpt lat="49.02234" lon="7.87371">
        <ele>409.9</ele>
        <time>2026-03-09T11:21:41Z</time>
      </trkpt>
      <trkpt lat="49.02234" lon="7.87371">
        <ele>409.9</ele>
        <time>2026-03-09T11:21:46Z</time>
      </trkpt>
      <trkpt lat="49.02234" lon="7.87371">
        <ele>409.9</ele>
        <time>2026-03-09T11:21:51Z</time>
      </trkpt>
      <trkpt lat="49.02234" lon="7.87365">
        <ele>410</ele>
        <time>2026-03-09T11:21:56Z</time>
      </trkpt>
      <trkpt lat="49.02235" lon="7.87358">
        <ele>409.8</ele>
        <time>2026-03-09T11:22:01Z</time>
      </trkpt>
      <trkpt lat="49.02237" lon="7.8735">
        <ele>409.4</ele>
        <time>2026-03-09T11:22:06Z</time>
      </trkpt>
      <trkpt lat="49.02239" lon="7.87339">
        <ele>409</ele>
        <time>2026-03-09T11:22:11Z</time>
      </trkpt>
      <trkpt lat="49.0224" lon="7.87336">
        <ele>408.7</ele>
        <time>2026-03-09T11:22:16Z</time>
      </trkpt>
      <trkpt lat="49.02241" lon="7.87333">
        <ele>408.5</ele>
        <time>2026-03-09T11:22:21Z</time>
      </trkpt>
      <trkpt lat="49.02241" lon="7.87333">
        <ele>408.5</ele>
        <time>2026-03-09T11:22:26Z</time>
      </trkpt>
      <trkpt lat="49.02239" lon="7.87327">
        <ele>409.8</ele>
        <time>2026-03-09T11:22:31Z</time>
      </trkpt>
      <trkpt lat="49.02243" lon="7.87321">
        <ele>409.3</ele>
        <time>2026-03-09T11:22:36Z</time>
      </trkpt>
      <trkpt lat="49.02248" lon="7.8731">
        <ele>409.1</ele>
        <time>2026-03-09T11:22:41Z</time>
      </trkpt>
      <trkpt lat="49.02251" lon="7.87302">
        <ele>409</ele>
        <time>2026-03-09T11:22:46Z</time>
      </trkpt>
      <trkpt lat="49.02254" lon="7.87293">
        <ele>408.7</ele>
        <time>2026-03-09T11:22:51Z</time>
      </trkpt>
      <trkpt lat="49.02259" lon="7.87283">
        <ele>407.6</ele>
        <time>2026-03-09T11:22:56Z</time>
      </trkpt>
      <trkpt lat="49.02264" lon="7.87274">
        <ele>406.4</ele>
        <time>2026-03-09T11:23:01Z</time>
      </trkpt>
      <trkpt lat="49.02267" lon="7.87264">
        <ele>406.2</ele>
        <time>2026-03-09T11:23:06Z</time>
      </trkpt>
      <trkpt lat="49.02272" lon="7.87255">
        <ele>405</ele>
        <time>2026-03-09T11:23:11Z</time>
      </trkpt>
      <trkpt lat="49.02276" lon="7.87244">
        <ele>404.5</ele>
        <time>2026-03-09T11:23:16Z</time>
      </trkpt>
      <trkpt lat="49.02279" lon="7.87235">
        <ele>404.3</ele>
        <time>2026-03-09T11:23:21Z</time>
      </trkpt>
      <trkpt lat="49.02283" lon="7.87225">
        <ele>403.8</ele>
        <time>2026-03-09T11:23:26Z</time>
      </trkpt>
      <trkpt lat="49.02284" lon="7.87213">
        <ele>404.7</ele>
        <time>2026-03-09T11:23:31Z</time>
      </trkpt>
      <trkpt lat="49.02286" lon="7.87202">
        <ele>405.1</ele>
        <time>2026-03-09T11:23:36Z</time>
      </trkpt>
      <trkpt lat="49.02288" lon="7.8719">
        <ele>405.6</ele>
        <time>2026-03-09T11:23:41Z</time>
      </trkpt>
      <trkpt lat="49.02291" lon="7.8718">
        <ele>405.3</ele>
        <time>2026-03-09T11:23:46Z</time>
      </trkpt>
      <trkpt lat="49.02293" lon="7.87165">
        <ele>405.8</ele>
        <time>2026-03-09T11:23:51Z</time>
      </trkpt>
      <trkpt lat="49.02294" lon="7.87154">
        <ele>405.1</ele>
        <time>2026-03-09T11:23:56Z</time>
      </trkpt>
      <trkpt lat="49.02296" lon="7.87145">
        <ele>404</ele>
        <time>2026-03-09T11:24:01Z</time>
      </trkpt>
      <trkpt lat="49.02296" lon="7.87134">
        <ele>403.8</ele>
        <time>2026-03-09T11:24:06Z</time>
      </trkpt>
      <trkpt lat="49.02296" lon="7.87122">
        <ele>403.6</ele>
        <time>2026-03-09T11:24:11Z</time>
      </trkpt>
      <trkpt lat="49.02297" lon="7.87108">
        <ele>403</ele>
        <time>2026-03-09T11:24:16Z</time>
      </trkpt>
      <trkpt lat="49.02299" lon="7.87097">
        <ele>401.9</ele>
        <time>2026-03-09T11:24:21Z</time>
      </trkpt>
      <trkpt lat="49.02301" lon="7.87086">
        <ele>400.8</ele>
        <time>2026-03-09T11:24:26Z</time>
      </trkpt>
      <trkpt lat="49.02301" lon="7.87078">
        <ele>400.1</ele>
        <time>2026-03-09T11:24:31Z</time>
      </trkpt>
      <trkpt lat="49.023" lon="7.87066">
        <ele>399</ele>
        <time>2026-03-09T11:24:36Z</time>
      </trkpt>
      <trkpt lat="49.02297" lon="7.87055">
        <ele>398.9</ele>
        <time>2026-03-09T11:24:41Z</time>
      </trkpt>
      <trkpt lat="49.02293" lon="7.8704">
        <ele>398.5</ele>
        <time>2026-03-09T11:24:46Z</time>
      </trkpt>
      <trkpt lat="49.02291" lon="7.87025">
        <ele>397.2</ele>
        <time>2026-03-09T11:24:51Z</time>
      </trkpt>
      <trkpt lat="49.02289" lon="7.87013">
        <ele>396.2</ele>
        <time>2026-03-09T11:24:56Z</time>
      </trkpt>
      <trkpt lat="49.02287" lon="7.87">
        <ele>395</ele>
        <time>2026-03-09T11:25:01Z</time>
      </trkpt>
      <trkpt lat="49.02286" lon="7.8699">
        <ele>393.6</ele>
        <time>2026-03-09T11:25:06Z</time>
      </trkpt>
      <trkpt lat="49.02282" lon="7.86982">
        <ele>393.4</ele>
        <time>2026-03-09T11:25:11Z</time>
      </trkpt>
      <trkpt lat="49.02277" lon="7.86971">
        <ele>392.7</ele>
        <time>2026-03-09T11:25:16Z</time>
      </trkpt>
      <trkpt lat="49.02272" lon="7.86958">
        <ele>391.4</ele>
        <time>2026-03-09T11:25:21Z</time>
      </trkpt>
      <trkpt lat="49.02267" lon="7.86948">
        <ele>390.4</ele>
        <time>2026-03-09T11:25:26Z</time>
      </trkpt>
      <trkpt lat="49.02264" lon="7.86942">
        <ele>389.7</ele>
        <time>2026-03-09T11:25:31Z</time>
      </trkpt>
      <trkpt lat="49.02259" lon="7.86932">
        <ele>388.4</ele>
        <time>2026-03-09T11:25:36Z</time>
      </trkpt>
      <trkpt lat="49.02255" lon="7.86925">
        <ele>387.3</ele>
        <time>2026-03-09T11:25:41Z</time>
      </trkpt>
      <trkpt lat="49.0225" lon="7.86916">
        <ele>385.9</ele>
        <time>2026-03-09T11:25:46Z</time>
      </trkpt>
      <trkpt lat="49.02245" lon="7.86909">
        <ele>385.2</ele>
        <time>2026-03-09T11:25:51Z</time>
      </trkpt>
      <trkpt lat="49.0224" lon="7.86901">
        <ele>384.3</ele>
        <time>2026-03-09T11:25:56Z</time>
      </trkpt>
      <trkpt lat="49.02234" lon="7.86892">
        <ele>383.3</ele>
        <time>2026-03-09T11:26:01Z</time>
      </trkpt>
      <trkpt lat="49.0223" lon="7.86885">
        <ele>382.3</ele>
        <time>2026-03-09T11:26:06Z</time>
      </trkpt>
      <trkpt lat="49.02223" lon="7.86879">
        <ele>381.9</ele>
        <time>2026-03-09T11:26:11Z</time>
      </trkpt>
      <trkpt lat="49.02217" lon="7.86874">
        <ele>381.5</ele>
        <time>2026-03-09T11:26:16Z</time>
      </trkpt>
      <trkpt lat="49.02213" lon="7.86868">
        <ele>380.7</ele>
        <time>2026-03-09T11:26:21Z</time>
      </trkpt>
      <trkpt lat="49.02211" lon="7.86865">
        <ele>380.2</ele>
        <time>2026-03-09T11:26:26Z</time>
      </trkpt>
      <trkpt lat="49.02208" lon="7.8686">
        <ele>379.5</ele>
        <time>2026-03-09T11:26:31Z</time>
      </trkpt>
      <trkpt lat="49.02206" lon="7.86859">
        <ele>379.4</ele>
        <time>2026-03-09T11:26:36Z</time>
      </trkpt>
      <trkpt lat="49.02206" lon="7.86859">
        <ele>379.4</ele>
        <time>2026-03-09T11:26:41Z</time>
      </trkpt>
      <trkpt lat="49.02206" lon="7.86859">
        <ele>379.4</ele>
        <time>2026-03-09T11:26:46Z</time>
      </trkpt>
      <trkpt lat="49.02206" lon="7.86859">
        <ele>379.4</ele>
        <time>2026-03-09T11:26:51Z</time>
      </trkpt>
      <trkpt lat="49.02206" lon="7.86859">
        <ele>379.4</ele>
        <time>2026-03-09T11:26:56Z</time>
      </trkpt>
      <trkpt lat="49.02206" lon="7.86859">
        <ele>379.4</ele>
        <time>2026-03-09T11:27:01Z</time>
      </trkpt>
      <trkpt lat="49.02201" lon="7.8686">
        <ele>380.2</ele>
        <time>2026-03-09T11:27:06Z</time>
      </trkpt>
      <trkpt lat="49.02197" lon="7.86855">
        <ele>379.4</ele>
        <time>2026-03-09T11:27:11Z</time>
      </trkpt>
      <trkpt lat="49.02191" lon="7.86852">
        <ele>379.3</ele>
        <time>2026-03-09T11:27:16Z</time>
      </trkpt>
      <trkpt lat="49.02183" lon="7.86849">
        <ele>379.4</ele>
        <time>2026-03-09T11:27:21Z</time>
      </trkpt>
      <trkpt lat="49.02176" lon="7.86845">
        <ele>379.1</ele>
        <time>2026-03-09T11:27:26Z</time>
      </trkpt>
      <trkpt lat="49.02174" lon="7.86841">
        <ele>378.3</ele>
        <time>2026-03-09T11:27:31Z</time>
      </trkpt>
      <trkpt lat="49.02171" lon="7.86839">
        <ele>378</ele>
        <time>2026-03-09T11:27:36Z</time>
      </trkpt>
      <trkpt lat="49.02171" lon="7.86839">
        <ele>378</ele>
        <time>2026-03-09T11:27:41Z</time>
      </trkpt>
      <trkpt lat="49.02171" lon="7.86839">
        <ele>378</ele>
        <time>2026-03-09T11:27:46Z</time>
      </trkpt>
      <trkpt lat="49.02168" lon="7.86836">
        <ele>377.6</ele>
        <time>2026-03-09T11:27:51Z</time>
      </trkpt>
      <trkpt lat="49.02162" lon="7.8683">
        <ele>377.5</ele>
        <time>2026-03-09T11:27:56Z</time>
      </trkpt>
      <trkpt lat="49.02157" lon="7.86822">
        <ele>377.2</ele>
        <time>2026-03-09T11:28:01Z</time>
      </trkpt>
      <trkpt lat="49.02155" lon="7.8682">
        <ele>377.3</ele>
        <time>2026-03-09T11:28:06Z</time>
      </trkpt>
      <trkpt lat="49.02151" lon="7.86816">
        <ele>377.7</ele>
        <time>2026-03-09T11:28:11Z</time>
      </trkpt>
      <trkpt lat="49.02144" lon="7.86814">
        <ele>379.2</ele>
        <time>2026-03-09T11:28:16Z</time>
      </trkpt>
      <trkpt lat="49.02138" lon="7.86812">
        <ele>380.5</ele>
        <time>2026-03-09T11:28:21Z</time>
      </trkpt>
      <trkpt lat="49.02134" lon="7.86811">
        <ele>381.4</ele>
        <time>2026-03-09T11:28:26Z</time>
      </trkpt>
      <trkpt lat="49.02128" lon="7.86811">
        <ele>383.1</ele>
        <time>2026-03-09T11:28:31Z</time>
      </trkpt>
      <trkpt lat="49.02121" lon="7.86806">
        <ele>384.4</ele>
        <time>2026-03-09T11:28:36Z</time>
      </trkpt>
      <trkpt lat="49.02114" lon="7.86804">
        <ele>386.1</ele>
        <time>2026-03-09T11:28:41Z</time>
      </trkpt>
      <trkpt lat="49.02109" lon="7.86801">
        <ele>387.2</ele>
        <time>2026-03-09T11:28:46Z</time>
      </trkpt>
      <trkpt lat="49.021" lon="7.86796">
        <ele>389.3</ele>
        <time>2026-03-09T11:28:51Z</time>
      </trkpt>
      <trkpt lat="49.02094" lon="7.8679">
        <ele>390.6</ele>
        <time>2026-03-09T11:28:56Z</time>
      </trkpt>
      <trkpt lat="49.02088" lon="7.86781">
        <ele>391.7</ele>
        <time>2026-03-09T11:29:01Z</time>
      </trkpt>
      <trkpt lat="49.02084" lon="7.86775">
        <ele>392.6</ele>
        <time>2026-03-09T11:29:06Z</time>
      </trkpt>
      <trkpt lat="49.02083" lon="7.86768">
        <ele>392.4</ele>
        <time>2026-03-09T11:29:11Z</time>
      </trkpt>
      <trkpt lat="49.02082" lon="7.86759">
        <ele>392.2</ele>
        <time>2026-03-09T11:29:16Z</time>
      </trkpt>
      <trkpt lat="49.0208" lon="7.86747">
        <ele>392.5</ele>
        <time>2026-03-09T11:29:21Z</time>
      </trkpt>
      <trkpt lat="49.0208" lon="7.86738">
        <ele>392.7</ele>
        <time>2026-03-09T11:29:26Z</time>
      </trkpt>
      <trkpt lat="49.02081" lon="7.86733">
        <ele>392.3</ele>
        <time>2026-03-09T11:29:31Z</time>
      </trkpt>
      <trkpt lat="49.02083" lon="7.86727">
        <ele>391.4</ele>
        <time>2026-03-09T11:29:36Z</time>
      </trkpt>
      <trkpt lat="49.02086" lon="7.8672">
        <ele>390.4</ele>
        <time>2026-03-09T11:29:41Z</time>
      </trkpt>
      <trkpt lat="49.02088" lon="7.86712">
        <ele>389.7</ele>
        <time>2026-03-09T11:29:46Z</time>
      </trkpt>
      <trkpt lat="49.0209" lon="7.86702">
        <ele>389.1</ele>
        <time>2026-03-09T11:29:51Z</time>
      </trkpt>
      <trkpt lat="49.02092" lon="7.86692">
        <ele>388.5</ele>
        <time>2026-03-09T11:29:56Z</time>
      </trkpt>
      <trkpt lat="49.02095" lon="7.86682">
        <ele>387.6</ele>
        <time>2026-03-09T11:30:01Z</time>
      </trkpt>
      <trkpt lat="49.02099" lon="7.86673">
        <ele>386.3</ele>
        <time>2026-03-09T11:30:06Z</time>
      </trkpt>
      <trkpt lat="49.02102" lon="7.86666">
        <ele>385.4</ele>
        <time>2026-03-09T11:30:11Z</time>
      </trkpt>
      <trkpt lat="49.02104" lon="7.86658">
        <ele>385.7</ele>
        <time>2026-03-09T11:30:16Z</time>
      </trkpt>
      <trkpt lat="49.02104" lon="7.86648">
        <ele>387</ele>
        <time>2026-03-09T11:30:21Z</time>
      </trkpt>
      <trkpt lat="49.02107" lon="7.86639">
        <ele>387.1</ele>
        <time>2026-03-09T11:30:26Z</time>
      </trkpt>
      <trkpt lat="49.02111" lon="7.86631">
        <ele>386.6</ele>
        <time>2026-03-09T11:30:31Z</time>
      </trkpt>
      <trkpt lat="49.02114" lon="7.86623">
        <ele>386.5</ele>
        <time>2026-03-09T11:30:36Z</time>
      </trkpt>
      <trkpt lat="49.02117" lon="7.86612">
        <ele>386.7</ele>
        <time>2026-03-09T11:30:41Z</time>
      </trkpt>
      <trkpt lat="49.02123" lon="7.86603">
        <ele>385.4</ele>
        <time>2026-03-09T11:30:46Z</time>
      </trkpt>
      <trkpt lat="49.02126" lon="7.86594">
        <ele>385.3</ele>
        <time>2026-03-09T11:30:51Z</time>
      </trkpt>
      <trkpt lat="49.0213" lon="7.86585">
        <ele>384.8</ele>
        <time>2026-03-09T11:30:56Z</time>
      </trkpt>
      <trkpt lat="49.02134" lon="7.86574">
        <ele>384</ele>
        <time>2026-03-09T11:31:01Z</time>
      </trkpt>
      <trkpt lat="49.02138" lon="7.86564">
        <ele>383.1</ele>
        <time>2026-03-09T11:31:06Z</time>
      </trkpt>
      <trkpt lat="49.02141" lon="7.86554">
        <ele>382.6</ele>
        <time>2026-03-09T11:31:11Z</time>
      </trkpt>
      <trkpt lat="49.02146" lon="7.86544">
        <ele>381.3</ele>
        <time>2026-03-09T11:31:16Z</time>
      </trkpt>
      <trkpt lat="49.0215" lon="7.86536">
        <ele>380.2</ele>
        <time>2026-03-09T11:31:21Z</time>
      </trkpt>
      <trkpt lat="49.02153" lon="7.86526">
        <ele>379.7</ele>
        <time>2026-03-09T11:31:26Z</time>
      </trkpt>
      <trkpt lat="49.0216" lon="7.86516">
        <ele>377.6</ele>
        <time>2026-03-09T11:31:31Z</time>
      </trkpt>
      <trkpt lat="49.02164" lon="7.86506">
        <ele>376.7</ele>
        <time>2026-03-09T11:31:36Z</time>
      </trkpt>
      <trkpt lat="49.02168" lon="7.86497">
        <ele>375.9</ele>
        <time>2026-03-09T11:31:41Z</time>
      </trkpt>
      <trkpt lat="49.02171" lon="7.86488">
        <ele>375.7</ele>
        <time>2026-03-09T11:31:46Z</time>
      </trkpt>
      <trkpt lat="49.02174" lon="7.86479">
        <ele>375.5</ele>
        <time>2026-03-09T11:31:51Z</time>
      </trkpt>
      <trkpt lat="49.02175" lon="7.86469">
        <ele>375.6</ele>
        <time>2026-03-09T11:31:56Z</time>
      </trkpt>
      <trkpt lat="49.02174" lon="7.86459">
        <ele>376</ele>
        <time>2026-03-09T11:32:01Z</time>
      </trkpt>
      <trkpt lat="49.02174" lon="7.86449">
        <ele>376.2</ele>
        <time>2026-03-09T11:32:06Z</time>
      </trkpt>
      <trkpt lat="49.02174" lon="7.8644">
        <ele>376.4</ele>
        <time>2026-03-09T11:32:11Z</time>
      </trkpt>
      <trkpt lat="49.02174" lon="7.86431">
        <ele>376.7</ele>
        <time>2026-03-09T11:32:16Z</time>
      </trkpt>
      <trkpt lat="49.02175" lon="7.8642">
        <ele>376.8</ele>
        <time>2026-03-09T11:32:21Z</time>
      </trkpt>
      <trkpt lat="49.02175" lon="7.86407">
        <ele>376.1</ele>
        <time>2026-03-09T11:32:26Z</time>
      </trkpt>
      <trkpt lat="49.02177" lon="7.86391">
        <ele>374.7</ele>
        <time>2026-03-09T11:32:31Z</time>
      </trkpt>
      <trkpt lat="49.02182" lon="7.86381">
        <ele>373.4</ele>
        <time>2026-03-09T11:32:36Z</time>
      </trkpt>
      <trkpt lat="49.02183" lon="7.86372">
        <ele>372.6</ele>
        <time>2026-03-09T11:32:41Z</time>
      </trkpt>
      <trkpt lat="49.02184" lon="7.86362">
        <ele>371.8</ele>
        <time>2026-03-09T11:32:46Z</time>
      </trkpt>
      <trkpt lat="49.02182" lon="7.86353">
        <ele>371.3</ele>
        <time>2026-03-09T11:32:51Z</time>
      </trkpt>
      <trkpt lat="49.0218" lon="7.86345">
        <ele>370.9</ele>
        <time>2026-03-09T11:32:56Z</time>
      </trkpt>
      <trkpt lat="49.02175" lon="7.86337">
        <ele>370.7</ele>
        <time>2026-03-09T11:33:01Z</time>
      </trkpt>
      <trkpt lat="49.02171" lon="7.86329">
        <ele>370.3</ele>
        <time>2026-03-09T11:33:06Z</time>
      </trkpt>
      <trkpt lat="49.02167" lon="7.86321">
        <ele>369.9</ele>
        <time>2026-03-09T11:33:11Z</time>
      </trkpt>
      <trkpt lat="49.02164" lon="7.86314">
        <ele>369.9</ele>
        <time>2026-03-09T11:33:16Z</time>
      </trkpt>
      <trkpt lat="49.02161" lon="7.86307">
        <ele>369.8</ele>
        <time>2026-03-09T11:33:21Z</time>
      </trkpt>
      <trkpt lat="49.02159" lon="7.86299">
        <ele>369.4</ele>
        <time>2026-03-09T11:33:26Z</time>
      </trkpt>
      <trkpt lat="49.02158" lon="7.86289">
        <ele>368.7</ele>
        <time>2026-03-09T11:33:31Z</time>
      </trkpt>
      <trkpt lat="49.02153" lon="7.86278">
        <ele>368.3</ele>
        <time>2026-03-09T11:33:36Z</time>
      </trkpt>
      <trkpt lat="49.02149" lon="7.86265">
        <ele>367.5</ele>
        <time>2026-03-09T11:33:41Z</time>
      </trkpt>
      <trkpt lat="49.02145" lon="7.86255">
        <ele>366.9</ele>
        <time>2026-03-09T11:33:46Z</time>
      </trkpt>
      <trkpt lat="49.02141" lon="7.86247">
        <ele>366.4</ele>
        <time>2026-03-09T11:33:51Z</time>
      </trkpt>
      <trkpt lat="49.02137" lon="7.8624">
        <ele>365.9</ele>
        <time>2026-03-09T11:33:56Z</time>
      </trkpt>
      <trkpt lat="49.02132" lon="7.86234">
        <ele>365.7</ele>
        <time>2026-03-09T11:34:01Z</time>
      </trkpt>
      <trkpt lat="49.02127" lon="7.86225">
        <ele>365</ele>
        <time>2026-03-09T11:34:06Z</time>
      </trkpt>
      <trkpt lat="49.02122" lon="7.86214">
        <ele>364</ele>
        <time>2026-03-09T11:34:11Z</time>
      </trkpt>
      <trkpt lat="49.02119" lon="7.86205">
        <ele>363.1</ele>
        <time>2026-03-09T11:34:16Z</time>
      </trkpt>
      <trkpt lat="49.02115" lon="7.86196">
        <ele>362.3</ele>
        <time>2026-03-09T11:34:21Z</time>
      </trkpt>
      <trkpt lat="49.02109" lon="7.86186">
        <ele>361.5</ele>
        <time>2026-03-09T11:34:26Z</time>
      </trkpt>
      <trkpt lat="49.02104" lon="7.86177">
        <ele>360.7</ele>
        <time>2026-03-09T11:34:31Z</time>
      </trkpt>
      <trkpt lat="49.021" lon="7.86168">
        <ele>359.8</ele>
        <time>2026-03-09T11:34:36Z</time>
      </trkpt>
      <trkpt lat="49.02096" lon="7.86159">
        <ele>359.1</ele>
        <time>2026-03-09T11:34:41Z</time>
      </trkpt>
      <trkpt lat="49.02093" lon="7.8615">
        <ele>358.5</ele>
        <time>2026-03-09T11:34:46Z</time>
      </trkpt>
      <trkpt lat="49.02089" lon="7.86141">
        <ele>357.8</ele>
        <time>2026-03-09T11:34:51Z</time>
      </trkpt>
      <trkpt lat="49.02088" lon="7.8613">
        <ele>356.7</ele>
        <time>2026-03-09T11:34:56Z</time>
      </trkpt>
      <trkpt lat="49.02084" lon="7.86121">
        <ele>356</ele>
        <time>2026-03-09T11:35:01Z</time>
      </trkpt>
      <trkpt lat="49.0208" lon="7.86113">
        <ele>355.9</ele>
        <time>2026-03-09T11:35:06Z</time>
      </trkpt>
      <trkpt lat="49.02079" lon="7.86105">
        <ele>355.3</ele>
        <time>2026-03-09T11:35:11Z</time>
      </trkpt>
      <trkpt lat="49.02076" lon="7.86094">
        <ele>354.6</ele>
        <time>2026-03-09T11:35:16Z</time>
      </trkpt>
      <trkpt lat="49.02074" lon="7.86088">
        <ele>354.3</ele>
        <time>2026-03-09T11:35:21Z</time>
      </trkpt>
      <trkpt lat="49.02073" lon="7.86081">
        <ele>353.8</ele>
        <time>2026-03-09T11:35:26Z</time>
      </trkpt>
      <trkpt lat="49.02069" lon="7.86068">
        <ele>353.5</ele>
        <time>2026-03-09T11:35:31Z</time>
      </trkpt>
      <trkpt lat="49.02064" lon="7.86055">
        <ele>353.3</ele>
        <time>2026-03-09T11:35:36Z</time>
      </trkpt>
      <trkpt lat="49.02059" lon="7.86045">
        <ele>353.2</ele>
        <time>2026-03-09T11:35:41Z</time>
      </trkpt>
      <trkpt lat="49.02055" lon="7.86041">
        <ele>353.5</ele>
        <time>2026-03-09T11:35:46Z</time>
      </trkpt>
      <trkpt lat="49.02052" lon="7.86032">
        <ele>353.2</ele>
        <time>2026-03-09T11:35:51Z</time>
      </trkpt>
      <trkpt lat="49.02049" lon="7.86024">
        <ele>352.9</ele>
        <time>2026-03-09T11:35:56Z</time>
      </trkpt>
      <trkpt lat="49.02045" lon="7.86011">
        <ele>352.2</ele>
        <time>2026-03-09T11:36:01Z</time>
      </trkpt>
      <trkpt lat="49.0204" lon="7.85998">
        <ele>351.7</ele>
        <time>2026-03-09T11:36:06Z</time>
      </trkpt>
      <trkpt lat="49.02037" lon="7.85986">
        <ele>351.6</ele>
        <time>2026-03-09T11:36:11Z</time>
      </trkpt>
      <trkpt lat="49.02033" lon="7.85977">
        <ele>351.8</ele>
        <time>2026-03-09T11:36:16Z</time>
      </trkpt>
      <trkpt lat="49.02029" lon="7.85969">
        <ele>351.8</ele>
        <time>2026-03-09T11:36:21Z</time>
      </trkpt>
      <trkpt lat="49.02024" lon="7.85962">
        <ele>352</ele>
        <time>2026-03-09T11:36:26Z</time>
      </trkpt>
      <trkpt lat="49.0202" lon="7.85953">
        <ele>351.9</ele>
        <time>2026-03-09T11:36:31Z</time>
      </trkpt>
      <trkpt lat="49.02017" lon="7.85943">
        <ele>351.6</ele>
        <time>2026-03-09T11:36:36Z</time>
      </trkpt>
      <trkpt lat="49.02013" lon="7.85934">
        <ele>351.4</ele>
        <time>2026-03-09T11:36:41Z</time>
      </trkpt>
      <trkpt lat="49.02007" lon="7.85923">
        <ele>351.1</ele>
        <time>2026-03-09T11:36:46Z</time>
      </trkpt>
      <trkpt lat="49.02003" lon="7.85913">
        <ele>350.9</ele>
        <time>2026-03-09T11:36:51Z</time>
      </trkpt>
      <trkpt lat="49.01999" lon="7.85906">
        <ele>351.1</ele>
        <time>2026-03-09T11:36:56Z</time>
      </trkpt>
      <trkpt lat="49.01995" lon="7.85899">
        <ele>351.3</ele>
        <time>2026-03-09T11:37:01Z</time>
      </trkpt>
      <trkpt lat="49.01993" lon="7.85892">
        <ele>351.4</ele>
        <time>2026-03-09T11:37:06Z</time>
      </trkpt>
      <trkpt lat="49.01992" lon="7.85882">
        <ele>351.4</ele>
        <time>2026-03-09T11:37:11Z</time>
      </trkpt>
      <trkpt lat="49.01991" lon="7.85875">
        <ele>351.4</ele>
        <time>2026-03-09T11:37:16Z</time>
      </trkpt>
      <trkpt lat="49.01987" lon="7.85868">
        <ele>351.6</ele>
        <time>2026-03-09T11:37:21Z</time>
      </trkpt>
      <trkpt lat="49.01985" lon="7.85861">
        <ele>351.6</ele>
        <time>2026-03-09T11:37:26Z</time>
      </trkpt>
      <trkpt lat="49.01983" lon="7.85854">
        <ele>351.6</ele>
        <time>2026-03-09T11:37:31Z</time>
      </trkpt>
      <trkpt lat="49.01981" lon="7.85848">
        <ele>351.6</ele>
        <time>2026-03-09T11:37:36Z</time>
      </trkpt>
      <trkpt lat="49.01981" lon="7.85846">
        <ele>351.6</ele>
        <time>2026-03-09T11:37:41Z</time>
      </trkpt>
      <trkpt lat="49.01981" lon="7.85846">
        <ele>351.6</ele>
        <time>2026-03-09T11:37:46Z</time>
      </trkpt>
      <trkpt lat="49.01985" lon="7.85836">
        <ele>351.4</ele>
        <time>2026-03-09T11:37:51Z</time>
      </trkpt>
      <trkpt lat="49.01988" lon="7.85831">
        <ele>351.3</ele>
        <time>2026-03-09T11:37:56Z</time>
      </trkpt>
      <trkpt lat="49.01992" lon="7.85828">
        <ele>351.3</ele>
        <time>2026-03-09T11:38:01Z</time>
      </trkpt>
      <trkpt lat="49.01992" lon="7.85823">
        <ele>351.4</ele>
        <time>2026-03-09T11:38:06Z</time>
      </trkpt>
      <trkpt lat="49.01991" lon="7.85813">
        <ele>351.7</ele>
        <time>2026-03-09T11:38:11Z</time>
      </trkpt>
      <trkpt lat="49.01994" lon="7.85807">
        <ele>351.8</ele>
        <time>2026-03-09T11:38:16Z</time>
      </trkpt>
      <trkpt lat="49.01997" lon="7.85801">
        <ele>351.8</ele>
        <time>2026-03-09T11:38:21Z</time>
      </trkpt>
      <trkpt lat="49.01998" lon="7.85797">
        <ele>351.9</ele>
        <time>2026-03-09T11:38:26Z</time>
      </trkpt>
      <trkpt lat="49.01997" lon="7.85792">
        <ele>352</ele>
        <time>2026-03-09T11:38:31Z</time>
      </trkpt>
      <trkpt lat="49.01996" lon="7.85787">
        <ele>352.2</ele>
        <time>2026-03-09T11:38:36Z</time>
      </trkpt>
      <trkpt lat="49.01996" lon="7.85785">
        <ele>352.2</ele>
        <time>2026-03-09T11:38:41Z</time>
      </trkpt>
      <trkpt lat="49.01996" lon="7.85785">
        <ele>352.2</ele>
        <time>2026-03-09T11:38:46Z</time>
      </trkpt>
      <trkpt lat="49.01996" lon="7.85785">
        <ele>352.2</ele>
        <time>2026-03-09T11:38:51Z</time>
      </trkpt>
      <trkpt lat="49.02" lon="7.85774">
        <ele>352.4</ele>
        <time>2026-03-09T11:38:56Z</time>
      </trkpt>
      <trkpt lat="49.02" lon="7.85769">
        <ele>352.5</ele>
        <time>2026-03-09T11:39:01Z</time>
      </trkpt>
      <trkpt lat="49.02" lon="7.85762">
        <ele>352.7</ele>
        <time>2026-03-09T11:39:06Z</time>
      </trkpt>
      <trkpt lat="49.02" lon="7.85755">
        <ele>352.9</ele>
        <time>2026-03-09T11:39:11Z</time>
      </trkpt>
      <trkpt lat="49.02" lon="7.85747">
        <ele>353</ele>
        <time>2026-03-09T11:39:16Z</time>
      </trkpt>
      <trkpt lat="49.02002" lon="7.85741">
        <ele>353.1</ele>
        <time>2026-03-09T11:39:21Z</time>
      </trkpt>
      <trkpt lat="49.02002" lon="7.85735">
        <ele>353.2</ele>
        <time>2026-03-09T11:39:26Z</time>
      </trkpt>
      <trkpt lat="49.02002" lon="7.85735">
        <ele>353.2</ele>
        <time>2026-03-09T11:39:31Z</time>
      </trkpt>
      <trkpt lat="49.02002" lon="7.85735">
        <ele>353.2</ele>
        <time>2026-03-09T11:39:36Z</time>
      </trkpt>
      <trkpt lat="49.02004" lon="7.8573">
        <ele>353.3</ele>
        <time>2026-03-09T11:39:41Z</time>
      </trkpt>
      <trkpt lat="49.02005" lon="7.85721">
        <ele>353.4</ele>
        <time>2026-03-09T11:39:46Z</time>
      </trkpt>
      <trkpt lat="49.02004" lon="7.85715">
        <ele>353.5</ele>
        <time>2026-03-09T11:39:51Z</time>
      </trkpt>
      <trkpt lat="49.02004" lon="7.85709">
        <ele>353.5</ele>
        <time>2026-03-09T11:39:56Z</time>
      </trkpt>
      <trkpt lat="49.02005" lon="7.85704">
        <ele>353.6</ele>
        <time>2026-03-09T11:40:01Z</time>
      </trkpt>
      <trkpt lat="49.02005" lon="7.85698">
        <ele>353.7</ele>
        <time>2026-03-09T11:40:06Z</time>
      </trkpt>
      <trkpt lat="49.02003" lon="7.85693">
        <ele>353.7</ele>
        <time>2026-03-09T11:40:11Z</time>
      </trkpt>
      <trkpt lat="49.02002" lon="7.85689">
        <ele>353.8</ele>
        <time>2026-03-09T11:40:16Z</time>
      </trkpt>
      <trkpt lat="49.02001" lon="7.85684">
        <ele>353.8</ele>
        <time>2026-03-09T11:40:21Z</time>
      </trkpt>
      <trkpt lat="49.02001" lon="7.85678">
        <ele>353.9</ele>
        <time>2026-03-09T11:40:26Z</time>
      </trkpt>
      <trkpt lat="49.02001" lon="7.85674">
        <ele>353.9</ele>
        <time>2026-03-09T11:40:31Z</time>
      </trkpt>
      <trkpt lat="49.02001" lon="7.8567">
        <ele>354</ele>
        <time>2026-03-09T11:40:36Z</time>
      </trkpt>
      <trkpt lat="49.02" lon="7.85666">
        <ele>354</ele>
        <time>2026-03-09T11:40:41Z</time>
      </trkpt>
      <trkpt lat="49.01998" lon="7.85661">
        <ele>354.3</ele>
        <time>2026-03-09T11:40:46Z</time>
      </trkpt>
      <trkpt lat="49.01997" lon="7.85658">
        <ele>354.5</ele>
        <time>2026-03-09T11:40:51Z</time>
      </trkpt>
      <trkpt lat="49.01996" lon="7.85656">
        <ele>354.6</ele>
        <time>2026-03-09T11:40:56Z</time>
      </trkpt>
      <trkpt lat="49.01994" lon="7.85648">
        <ele>355</ele>
        <time>2026-03-09T11:41:01Z</time>
      </trkpt>
      <trkpt lat="49.01993" lon="7.85638">
        <ele>355.4</ele>
        <time>2026-03-09T11:41:06Z</time>
      </trkpt>
      <trkpt lat="49.01993" lon="7.85629">
        <ele>355.7</ele>
        <time>2026-03-09T11:41:11Z</time>
      </trkpt>
      <trkpt lat="49.01994" lon="7.85629">
        <ele>355.7</ele>
        <time>2026-03-09T11:41:16Z</time>
      </trkpt>
      <trkpt lat="49.01994" lon="7.85627">
        <ele>355.8</ele>
        <time>2026-03-09T11:41:21Z</time>
      </trkpt>
      <trkpt lat="49.01994" lon="7.85621">
        <ele>356</ele>
        <time>2026-03-09T11:41:26Z</time>
      </trkpt>
      <trkpt lat="49.01992" lon="7.8561">
        <ele>356.5</ele>
        <time>2026-03-09T11:41:31Z</time>
      </trkpt>
      <trkpt lat="49.01989" lon="7.85598">
        <ele>357</ele>
        <time>2026-03-09T11:41:36Z</time>
      </trkpt>
      <trkpt lat="49.01986" lon="7.85588">
        <ele>357.5</ele>
        <time>2026-03-09T11:41:41Z</time>
      </trkpt>
      <trkpt lat="49.01983" lon="7.85579">
        <ele>357.9</ele>
        <time>2026-03-09T11:41:46Z</time>
      </trkpt>
      <trkpt lat="49.01979" lon="7.85567">
        <ele>358.3</ele>
        <time>2026-03-09T11:41:51Z</time>
      </trkpt>
      <trkpt lat="49.01975" lon="7.85559">
        <ele>358.6</ele>
        <time>2026-03-09T11:41:56Z</time>
      </trkpt>
      <trkpt lat="49.01973" lon="7.8555">
        <ele>358.8</ele>
        <time>2026-03-09T11:42:01Z</time>
      </trkpt>
      <trkpt lat="49.01972" lon="7.85542">
        <ele>359</ele>
        <time>2026-03-09T11:42:06Z</time>
      </trkpt>
      <trkpt lat="49.01971" lon="7.85534">
        <ele>359.2</ele>
        <time>2026-03-09T11:42:11Z</time>
      </trkpt>
      <trkpt lat="49.01969" lon="7.85527">
        <ele>359.4</ele>
        <time>2026-03-09T11:42:16Z</time>
      </trkpt>
      <trkpt lat="49.01969" lon="7.85521">
        <ele>359.5</ele>
        <time>2026-03-09T11:42:21Z</time>
      </trkpt>
      <trkpt lat="49.01968" lon="7.85521">
        <ele>359.6</ele>
        <time>2026-03-09T11:42:26Z</time>
      </trkpt>
      <trkpt lat="49.01964" lon="7.85514">
        <ele>359.9</ele>
        <time>2026-03-09T11:42:31Z</time>
      </trkpt>
      <trkpt lat="49.01961" lon="7.85508">
        <ele>360.2</ele>
        <time>2026-03-09T11:42:36Z</time>
      </trkpt>
      <trkpt lat="49.01958" lon="7.855">
        <ele>360.5</ele>
        <time>2026-03-09T11:42:41Z</time>
      </trkpt>
      <trkpt lat="49.01957" lon="7.85492">
        <ele>360.3</ele>
        <time>2026-03-09T11:42:46Z</time>
      </trkpt>
      <trkpt lat="49.01955" lon="7.85483">
        <ele>360.2</ele>
        <time>2026-03-09T11:42:51Z</time>
      </trkpt>
      <trkpt lat="49.01952" lon="7.85472">
        <ele>360</ele>
        <time>2026-03-09T11:42:56Z</time>
      </trkpt>
      <trkpt lat="49.01948" lon="7.85463">
        <ele>359.8</ele>
        <time>2026-03-09T11:43:01Z</time>
      </trkpt>
      <trkpt lat="49.01945" lon="7.85454">
        <ele>359.7</ele>
        <time>2026-03-09T11:43:06Z</time>
      </trkpt>
      <trkpt lat="49.01942" lon="7.85442">
        <ele>359.3</ele>
        <time>2026-03-09T11:43:11Z</time>
      </trkpt>
      <trkpt lat="49.01939" lon="7.85433">
        <ele>359.1</ele>
        <time>2026-03-09T11:43:16Z</time>
      </trkpt>
      <trkpt lat="49.01936" lon="7.85421">
        <ele>358.7</ele>
        <time>2026-03-09T11:43:21Z</time>
      </trkpt>
      <trkpt lat="49.01933" lon="7.85411">
        <ele>358.5</ele>
        <time>2026-03-09T11:43:26Z</time>
      </trkpt>
      <trkpt lat="49.0193" lon="7.85405">
        <ele>358.4</ele>
        <time>2026-03-09T11:43:31Z</time>
      </trkpt>
      <trkpt lat="49.01923" lon="7.85403">
        <ele>358.5</ele>
        <time>2026-03-09T11:43:36Z</time>
      </trkpt>
      <trkpt lat="49.01917" lon="7.85397">
        <ele>358.5</ele>
        <time>2026-03-09T11:43:41Z</time>
      </trkpt>
      <trkpt lat="49.01915" lon="7.85389">
        <ele>358.4</ele>
        <time>2026-03-09T11:43:46Z</time>
      </trkpt>
      <trkpt lat="49.01912" lon="7.85379">
        <ele>358.3</ele>
        <time>2026-03-09T11:43:51Z</time>
      </trkpt>
      <trkpt lat="49.01909" lon="7.8537">
        <ele>358.2</ele>
        <time>2026-03-09T11:43:56Z</time>
      </trkpt>
      <trkpt lat="49.01906" lon="7.85361">
        <ele>358.1</ele>
        <time>2026-03-09T11:44:01Z</time>
      </trkpt>
      <trkpt lat="49.01903" lon="7.85352">
        <ele>358</ele>
        <time>2026-03-09T11:44:06Z</time>
      </trkpt>
      <trkpt lat="49.01902" lon="7.85339">
        <ele>357.7</ele>
        <time>2026-03-09T11:44:11Z</time>
      </trkpt>
      <trkpt lat="49.01898" lon="7.85327">
        <ele>357.6</ele>
        <time>2026-03-09T11:44:16Z</time>
      </trkpt>
      <trkpt lat="49.01896" lon="7.85316">
        <ele>357.6</ele>
        <time>2026-03-09T11:44:21Z</time>
      </trkpt>
      <trkpt lat="49.01894" lon="7.85308">
        <ele>357.7</ele>
        <time>2026-03-09T11:44:26Z</time>
      </trkpt>
      <trkpt lat="49.01893" lon="7.85299">
        <ele>357.6</ele>
        <time>2026-03-09T11:44:31Z</time>
      </trkpt>
      <trkpt lat="49.01892" lon="7.85288">
        <ele>357.6</ele>
        <time>2026-03-09T11:44:36Z</time>
      </trkpt>
      <trkpt lat="49.01889" lon="7.85277">
        <ele>357.5</ele>
        <time>2026-03-09T11:44:41Z</time>
      </trkpt>
      <trkpt lat="49.01887" lon="7.85267">
        <ele>357.5</ele>
        <time>2026-03-09T11:44:46Z</time>
      </trkpt>
      <trkpt lat="49.01885" lon="7.85257">
        <ele>357.4</ele>
        <time>2026-03-09T11:44:51Z</time>
      </trkpt>
      <trkpt lat="49.01883" lon="7.85248">
        <ele>357.4</ele>
        <time>2026-03-09T11:44:56Z</time>
      </trkpt>
      <trkpt lat="49.0188" lon="7.8524">
        <ele>357.5</ele>
        <time>2026-03-09T11:45:01Z</time>
      </trkpt>
      <trkpt lat="49.01877" lon="7.85232">
        <ele>357.5</ele>
        <time>2026-03-09T11:45:06Z</time>
      </trkpt>
      <trkpt lat="49.01875" lon="7.85223">
        <ele>357.5</ele>
        <time>2026-03-09T11:45:11Z</time>
      </trkpt>
      <trkpt lat="49.01871" lon="7.85212">
        <ele>357.5</ele>
        <time>2026-03-09T11:45:16Z</time>
      </trkpt>
      <trkpt lat="49.01866" lon="7.85197">
        <ele>357.3</ele>
        <time>2026-03-09T11:45:21Z</time>
      </trkpt>
      <trkpt lat="49.01862" lon="7.85185">
        <ele>357.2</ele>
        <time>2026-03-09T11:45:26Z</time>
      </trkpt>
      <trkpt lat="49.01859" lon="7.85175">
        <ele>357</ele>
        <time>2026-03-09T11:45:31Z</time>
      </trkpt>
      <trkpt lat="49.01857" lon="7.85164">
        <ele>356.7</ele>
        <time>2026-03-09T11:45:36Z</time>
      </trkpt>
      <trkpt lat="49.01853" lon="7.85151">
        <ele>356</ele>
        <time>2026-03-09T11:45:41Z</time>
      </trkpt>
      <trkpt lat="49.01851" lon="7.85143">
        <ele>355.6</ele>
        <time>2026-03-09T11:45:46Z</time>
      </trkpt>
      <trkpt lat="49.0185" lon="7.85137">
        <ele>355.3</ele>
        <time>2026-03-09T11:45:51Z</time>
      </trkpt>
      <trkpt lat="49.01849" lon="7.85133">
        <ele>355.1</ele>
        <time>2026-03-09T11:45:56Z</time>
      </trkpt>
      <trkpt lat="49.01849" lon="7.85129">
        <ele>354.9</ele>
        <time>2026-03-09T11:46:01Z</time>
      </trkpt>
      <trkpt lat="49.01846" lon="7.85121">
        <ele>354.4</ele>
        <time>2026-03-09T11:46:06Z</time>
      </trkpt>
      <trkpt lat="49.01842" lon="7.85112">
        <ele>353.8</ele>
        <time>2026-03-09T11:46:11Z</time>
      </trkpt>
      <trkpt lat="49.01838" lon="7.85102">
        <ele>353.2</ele>
        <time>2026-03-09T11:46:16Z</time>
      </trkpt>
      <trkpt lat="49.01837" lon="7.85097">
        <ele>352.9</ele>
        <time>2026-03-09T11:46:21Z</time>
      </trkpt>
      <trkpt lat="49.0183" lon="7.85087">
        <ele>352.1</ele>
        <time>2026-03-09T11:46:26Z</time>
      </trkpt>
      <trkpt lat="49.01825" lon="7.8508">
        <ele>351.6</ele>
        <time>2026-03-09T11:46:31Z</time>
      </trkpt>
      <trkpt lat="49.0182" lon="7.85072">
        <ele>351.1</ele>
        <time>2026-03-09T11:46:36Z</time>
      </trkpt>
      <trkpt lat="49.01814" lon="7.85062">
        <ele>350.4</ele>
        <time>2026-03-09T11:46:41Z</time>
      </trkpt>
      <trkpt lat="49.0181" lon="7.85055">
        <ele>349.9</ele>
        <time>2026-03-09T11:46:46Z</time>
      </trkpt>
      <trkpt lat="49.01808" lon="7.85046">
        <ele>349.3</ele>
        <time>2026-03-09T11:46:51Z</time>
      </trkpt>
      <trkpt lat="49.01805" lon="7.85037">
        <ele>348.7</ele>
        <time>2026-03-09T11:46:56Z</time>
      </trkpt>
      <trkpt lat="49.01801" lon="7.85025">
        <ele>347.9</ele>
        <time>2026-03-09T11:47:01Z</time>
      </trkpt>
      <trkpt lat="49.01796" lon="7.85009">
        <ele>346.7</ele>
        <time>2026-03-09T11:47:06Z</time>
      </trkpt>
      <trkpt lat="49.01794" lon="7.85">
        <ele>346.1</ele>
        <time>2026-03-09T11:47:11Z</time>
      </trkpt>
      <trkpt lat="49.01789" lon="7.84992">
        <ele>345.8</ele>
        <time>2026-03-09T11:47:16Z</time>
      </trkpt>
      <trkpt lat="49.01784" lon="7.84981">
        <ele>345.5</ele>
        <time>2026-03-09T11:47:21Z</time>
      </trkpt>
      <trkpt lat="49.01779" lon="7.84979">
        <ele>345.3</ele>
        <time>2026-03-09T11:47:26Z</time>
      </trkpt>
      <trkpt lat="49.01775" lon="7.84973">
        <ele>345.1</ele>
        <time>2026-03-09T11:47:31Z</time>
      </trkpt>
      <trkpt lat="49.0178" lon="7.8497">
        <ele>345.3</ele>
        <time>2026-03-09T11:47:36Z</time>
      </trkpt>
      <trkpt lat="49.01786" lon="7.84965">
        <ele>345.5</ele>
        <time>2026-03-09T11:47:41Z</time>
      </trkpt>
      <trkpt lat="49.01789" lon="7.8496">
        <ele>345.6</ele>
        <time>2026-03-09T11:47:46Z</time>
      </trkpt>
      <trkpt lat="49.01791" lon="7.84955">
        <ele>345.7</ele>
        <time>2026-03-09T11:47:51Z</time>
      </trkpt>
      <trkpt lat="49.01792" lon="7.84955">
        <ele>345.7</ele>
        <time>2026-03-09T11:47:56Z</time>
      </trkpt>
      <trkpt lat="49.01793" lon="7.84954">
        <ele>345.8</ele>
        <time>2026-03-09T11:48:01Z</time>
      </trkpt>
      <trkpt lat="49.01793" lon="7.84954">
        <ele>345.8</ele>
        <time>2026-03-09T11:48:06Z</time>
      </trkpt>
      <trkpt lat="49.01793" lon="7.84954">
        <ele>345.8</ele>
        <time>2026-03-09T11:48:11Z</time>
      </trkpt>
      <trkpt lat="49.01793" lon="7.84954">
        <ele>345.8</ele>
        <time>2026-03-09T11:48:16Z</time>
      </trkpt>
      <trkpt lat="49.01793" lon="7.84954">
        <ele>345.8</ele>
        <time>2026-03-09T11:48:21Z</time>
      </trkpt>
      <trkpt lat="49.01793" lon="7.84954">
        <ele>345.8</ele>
        <time>2026-03-09T11:48:26Z</time>
      </trkpt>
      <trkpt lat="49.01793" lon="7.84954">
        <ele>345.8</ele>
        <time>2026-03-09T11:48:31Z</time>
      </trkpt>
      <trkpt lat="49.01793" lon="7.84954">
        <ele>345.8</ele>
        <time>2026-03-09T11:48:36Z</time>
      </trkpt>
      <trkpt lat="49.01793" lon="7.84954">
        <ele>345.8</ele>
        <time>2026-03-09T11:48:41Z</time>
      </trkpt>
      <trkpt lat="49.01793" lon="7.84954">
        <ele>345.8</ele>
        <time>2026-03-09T11:48:46Z</time>
      </trkpt>
      <trkpt lat="49.01793" lon="7.84954">
        <ele>345.8</ele>
        <time>2026-03-09T11:48:51Z</time>
      </trkpt>
      <trkpt lat="49.01793" lon="7.84954">
        <ele>345.8</ele>
        <time>2026-03-09T11:48:56Z</time>
      </trkpt>
      <trkpt lat="49.01793" lon="7.84954">
        <ele>345.8</ele>
        <time>2026-03-09T11:49:01Z</time>
      </trkpt>
      <trkpt lat="49.01793" lon="7.84954">
        <ele>345.8</ele>
        <time>2026-03-09T11:49:06Z</time>
      </trkpt>
      <trkpt lat="49.01793" lon="7.84954">
        <ele>345.8</ele>
        <time>2026-03-09T11:49:11Z</time>
      </trkpt>
      <trkpt lat="49.01793" lon="7.84954">
        <ele>345.8</ele>
        <time>2026-03-09T11:49:16Z</time>
      </trkpt>
      <trkpt lat="49.01793" lon="7.84954">
        <ele>345.8</ele>
        <time>2026-03-09T11:49:21Z</time>
      </trkpt>
      <trkpt lat="49.01793" lon="7.84954">
        <ele>345.8</ele>
        <time>2026-03-09T11:49:26Z</time>
      </trkpt>
      <trkpt lat="49.01793" lon="7.84954">
        <ele>345.8</ele>
        <time>2026-03-09T11:49:31Z</time>
      </trkpt>
      <trkpt lat="49.01793" lon="7.84954">
        <ele>345.8</ele>
        <time>2026-03-09T11:49:36Z</time>
      </trkpt>
      <trkpt lat="49.01793" lon="7.84954">
        <ele>345.8</ele>
        <time>2026-03-09T11:49:41Z</time>
      </trkpt>
      <trkpt lat="49.01798" lon="7.84955">
        <ele>346</ele>
        <time>2026-03-09T11:49:46Z</time>
      </trkpt>
      <trkpt lat="49.01804" lon="7.84954">
        <ele>346.2</ele>
        <time>2026-03-09T11:49:51Z</time>
      </trkpt>
      <trkpt lat="49.01809" lon="7.84953">
        <ele>346.4</ele>
        <time>2026-03-09T11:49:56Z</time>
      </trkpt>
      <trkpt lat="49.01812" lon="7.84953">
        <ele>346.6</ele>
        <time>2026-03-09T11:50:01Z</time>
      </trkpt>
      <trkpt lat="49.01817" lon="7.84951">
        <ele>346.7</ele>
        <time>2026-03-09T11:50:06Z</time>
      </trkpt>
      <trkpt lat="49.01821" lon="7.84951">
        <ele>346.9</ele>
        <time>2026-03-09T11:50:11Z</time>
      </trkpt>
      <trkpt lat="49.01827" lon="7.84949">
        <ele>347.1</ele>
        <time>2026-03-09T11:50:16Z</time>
      </trkpt>
      <trkpt lat="49.01832" lon="7.84947">
        <ele>347.3</ele>
        <time>2026-03-09T11:50:21Z</time>
      </trkpt>
      <trkpt lat="49.01836" lon="7.84943">
        <ele>347.6</ele>
        <time>2026-03-09T11:50:26Z</time>
      </trkpt>
      <trkpt lat="49.01843" lon="7.8494">
        <ele>348.2</ele>
        <time>2026-03-09T11:50:31Z</time>
      </trkpt>
      <trkpt lat="49.0185" lon="7.84935">
        <ele>348.8</ele>
        <time>2026-03-09T11:50:36Z</time>
      </trkpt>
      <trkpt lat="49.01856" lon="7.84932">
        <ele>349.3</ele>
        <time>2026-03-09T11:50:41Z</time>
      </trkpt>
      <trkpt lat="49.01861" lon="7.84929">
        <ele>349.8</ele>
        <time>2026-03-09T11:50:46Z</time>
      </trkpt>
      <trkpt lat="49.01866" lon="7.84925">
        <ele>350.2</ele>
        <time>2026-03-09T11:50:51Z</time>
      </trkpt>
      <trkpt lat="49.01871" lon="7.8492">
        <ele>350.6</ele>
        <time>2026-03-09T11:50:56Z</time>
      </trkpt>
      <trkpt lat="49.01876" lon="7.84917">
        <ele>351.1</ele>
        <time>2026-03-09T11:51:01Z</time>
      </trkpt>
      <trkpt lat="49.01882" lon="7.84913">
        <ele>351.5</ele>
        <time>2026-03-09T11:51:06Z</time>
      </trkpt>
      <trkpt lat="49.01886" lon="7.8491">
        <ele>351.8</ele>
        <time>2026-03-09T11:51:11Z</time>
      </trkpt>
      <trkpt lat="49.01886" lon="7.84908">
        <ele>351.7</ele>
        <time>2026-03-09T11:51:16Z</time>
      </trkpt>
      <trkpt lat="49.01892" lon="7.84903">
        <ele>352</ele>
        <time>2026-03-09T11:51:21Z</time>
      </trkpt>
      <trkpt lat="49.01898" lon="7.84898">
        <ele>352.4</ele>
        <time>2026-03-09T11:51:26Z</time>
      </trkpt>
      <trkpt lat="49.01903" lon="7.84896">
        <ele>352.9</ele>
        <time>2026-03-09T11:51:31Z</time>
      </trkpt>
      <trkpt lat="49.01904" lon="7.84895">
        <ele>352.9</ele>
        <time>2026-03-09T11:51:36Z</time>
      </trkpt>
      <trkpt lat="49.01904" lon="7.84893">
        <ele>352.8</ele>
        <time>2026-03-09T11:51:41Z</time>
      </trkpt>
      <trkpt lat="49.01904" lon="7.84893">
        <ele>352.8</ele>
        <time>2026-03-09T11:51:46Z</time>
      </trkpt>
      <trkpt lat="49.01904" lon="7.84893">
        <ele>352.8</ele>
        <time>2026-03-09T11:51:51Z</time>
      </trkpt>
      <trkpt lat="49.01904" lon="7.84893">
        <ele>352.8</ele>
        <time>2026-03-09T11:51:56Z</time>
      </trkpt>
      <trkpt lat="49.01909" lon="7.84884">
        <ele>353</ele>
        <time>2026-03-09T11:52:01Z</time>
      </trkpt>
      <trkpt lat="49.01915" lon="7.8488">
        <ele>353.5</ele>
        <time>2026-03-09T11:52:06Z</time>
      </trkpt>
      <trkpt lat="49.01916" lon="7.84879">
        <ele>353.6</ele>
        <time>2026-03-09T11:52:11Z</time>
      </trkpt>
      <trkpt lat="49.0192" lon="7.84874">
        <ele>353.7</ele>
        <time>2026-03-09T11:52:16Z</time>
      </trkpt>
      <trkpt lat="49.01925" lon="7.84869">
        <ele>354</ele>
        <time>2026-03-09T11:52:21Z</time>
      </trkpt>
      <trkpt lat="49.0193" lon="7.84867">
        <ele>354.4</ele>
        <time>2026-03-09T11:52:26Z</time>
      </trkpt>
      <trkpt lat="49.01935" lon="7.84864">
        <ele>354.7</ele>
        <time>2026-03-09T11:52:31Z</time>
      </trkpt>
      <trkpt lat="49.01938" lon="7.84861">
        <ele>354.9</ele>
        <time>2026-03-09T11:52:36Z</time>
      </trkpt>
      <trkpt lat="49.0194" lon="7.84859">
        <ele>355</ele>
        <time>2026-03-09T11:52:41Z</time>
      </trkpt>
      <trkpt lat="49.0194" lon="7.84856">
        <ele>354.9</ele>
        <time>2026-03-09T11:52:46Z</time>
      </trkpt>
      <trkpt lat="49.0194" lon="7.84856">
        <ele>354.9</ele>
        <time>2026-03-09T11:52:51Z</time>
      </trkpt>
      <trkpt lat="49.0194" lon="7.84856">
        <ele>354.9</ele>
        <time>2026-03-09T11:52:56Z</time>
      </trkpt>
      <trkpt lat="49.0194" lon="7.84856">
        <ele>354.9</ele>
        <time>2026-03-09T11:53:01Z</time>
      </trkpt>
      <trkpt lat="49.0194" lon="7.84856">
        <ele>354.9</ele>
        <time>2026-03-09T11:53:06Z</time>
      </trkpt>
      <trkpt lat="49.0194" lon="7.84856">
        <ele>354.9</ele>
        <time>2026-03-09T11:53:11Z</time>
      </trkpt>
      <trkpt lat="49.0194" lon="7.84856">
        <ele>354.9</ele>
        <time>2026-03-09T11:53:16Z</time>
      </trkpt>
      <trkpt lat="49.0194" lon="7.84856">
        <ele>354.9</ele>
        <time>2026-03-09T11:53:21Z</time>
      </trkpt>
      <trkpt lat="49.0194" lon="7.84856">
        <ele>354.9</ele>
        <time>2026-03-09T11:53:26Z</time>
      </trkpt>
      <trkpt lat="49.0194" lon="7.84856">
        <ele>354.9</ele>
        <time>2026-03-09T11:53:31Z</time>
      </trkpt>
      <trkpt lat="49.0194" lon="7.84856">
        <ele>354.9</ele>
        <time>2026-03-09T11:53:36Z</time>
      </trkpt>
      <trkpt lat="49.0194" lon="7.84856">
        <ele>354.9</ele>
        <time>2026-03-09T11:53:41Z</time>
      </trkpt>
      <trkpt lat="49.0194" lon="7.84856">
        <ele>354.9</ele>
        <time>2026-03-09T11:53:46Z</time>
      </trkpt>
      <trkpt lat="49.0194" lon="7.84856">
        <ele>354.9</ele>
        <time>2026-03-09T11:53:51Z</time>
      </trkpt>
      <trkpt lat="49.0194" lon="7.84856">
        <ele>354.9</ele>
        <time>2026-03-09T11:53:56Z</time>
      </trkpt>
      <trkpt lat="49.0194" lon="7.84856">
        <ele>354.9</ele>
        <time>2026-03-09T11:54:01Z</time>
      </trkpt>
      <trkpt lat="49.01945" lon="7.84854">
        <ele>355.3</ele>
        <time>2026-03-09T11:54:06Z</time>
      </trkpt>
      <trkpt lat="49.01949" lon="7.8485">
        <ele>355.5</ele>
        <time>2026-03-09T11:54:11Z</time>
      </trkpt>
      <trkpt lat="49.01953" lon="7.84842">
        <ele>355.7</ele>
        <time>2026-03-09T11:54:16Z</time>
      </trkpt>
      <trkpt lat="49.01957" lon="7.84832">
        <ele>355.8</ele>
        <time>2026-03-09T11:54:21Z</time>
      </trkpt>
      <trkpt lat="49.01961" lon="7.84823">
        <ele>355.8</ele>
        <time>2026-03-09T11:54:26Z</time>
      </trkpt>
      <trkpt lat="49.01963" lon="7.84814">
        <ele>355.5</ele>
        <time>2026-03-09T11:54:31Z</time>
      </trkpt>
      <trkpt lat="49.01967" lon="7.84806">
        <ele>355.5</ele>
        <time>2026-03-09T11:54:36Z</time>
      </trkpt>
      <trkpt lat="49.01971" lon="7.84797">
        <ele>355.5</ele>
        <time>2026-03-09T11:54:41Z</time>
      </trkpt>
      <trkpt lat="49.01975" lon="7.84788">
        <ele>355.4</ele>
        <time>2026-03-09T11:54:46Z</time>
      </trkpt>
      <trkpt lat="49.01981" lon="7.84778">
        <ele>355.5</ele>
        <time>2026-03-09T11:54:51Z</time>
      </trkpt>
      <trkpt lat="49.01986" lon="7.84767">
        <ele>355.5</ele>
        <time>2026-03-09T11:54:56Z</time>
      </trkpt>
      <trkpt lat="49.01991" lon="7.84763">
        <ele>355.8</ele>
        <time>2026-03-09T11:55:01Z</time>
      </trkpt>
      <trkpt lat="49.01996" lon="7.84758">
        <ele>356</ele>
        <time>2026-03-09T11:55:06Z</time>
      </trkpt>
      <trkpt lat="49.02001" lon="7.84751">
        <ele>356.1</ele>
        <time>2026-03-09T11:55:11Z</time>
      </trkpt>
      <trkpt lat="49.02008" lon="7.84743">
        <ele>355.8</ele>
        <time>2026-03-09T11:55:16Z</time>
      </trkpt>
      <trkpt lat="49.02014" lon="7.84738">
        <ele>355.6</ele>
        <time>2026-03-09T11:55:21Z</time>
      </trkpt>
      <trkpt lat="49.0202" lon="7.84735">
        <ele>355.6</ele>
        <time>2026-03-09T11:55:26Z</time>
      </trkpt>
      <trkpt lat="49.02028" lon="7.8473">
        <ele>355.4</ele>
        <time>2026-03-09T11:55:31Z</time>
      </trkpt>
      <trkpt lat="49.02034" lon="7.84724">
        <ele>355</ele>
        <time>2026-03-09T11:55:36Z</time>
      </trkpt>
      <trkpt lat="49.0204" lon="7.84718">
        <ele>354.6</ele>
        <time>2026-03-09T11:55:41Z</time>
      </trkpt>
      <trkpt lat="49.02045" lon="7.84712">
        <ele>354.1</ele>
        <time>2026-03-09T11:55:46Z</time>
      </trkpt>
      <trkpt lat="49.02051" lon="7.84705">
        <ele>353.4</ele>
        <time>2026-03-09T11:55:51Z</time>
      </trkpt>
      <trkpt lat="49.02057" lon="7.84699">
        <ele>352.8</ele>
        <time>2026-03-09T11:55:56Z</time>
      </trkpt>
      <trkpt lat="49.02063" lon="7.84691">
        <ele>352</ele>
        <time>2026-03-09T11:56:01Z</time>
      </trkpt>
      <trkpt lat="49.02066" lon="7.84684">
        <ele>351.1</ele>
        <time>2026-03-09T11:56:06Z</time>
      </trkpt>
      <trkpt lat="49.02072" lon="7.84674">
        <ele>349.9</ele>
        <time>2026-03-09T11:56:11Z</time>
      </trkpt>
      <trkpt lat="49.02076" lon="7.84664">
        <ele>348.8</ele>
        <time>2026-03-09T11:56:16Z</time>
      </trkpt>
      <trkpt lat="49.02082" lon="7.84655">
        <ele>348.4</ele>
        <time>2026-03-09T11:56:21Z</time>
      </trkpt>
      <trkpt lat="49.02087" lon="7.8465">
        <ele>348.6</ele>
        <time>2026-03-09T11:56:26Z</time>
      </trkpt>
      <trkpt lat="49.02091" lon="7.84643">
        <ele>348.6</ele>
        <time>2026-03-09T11:56:31Z</time>
      </trkpt>
      <trkpt lat="49.02097" lon="7.84635">
        <ele>348.7</ele>
        <time>2026-03-09T11:56:36Z</time>
      </trkpt>
      <trkpt lat="49.02101" lon="7.84627">
        <ele>348.6</ele>
        <time>2026-03-09T11:56:41Z</time>
      </trkpt>
      <trkpt lat="49.02108" lon="7.84618">
        <ele>348.6</ele>
        <time>2026-03-09T11:56:46Z</time>
      </trkpt>
      <trkpt lat="49.02113" lon="7.84611">
        <ele>348.6</ele>
        <time>2026-03-09T11:56:51Z</time>
      </trkpt>
      <trkpt lat="49.0212" lon="7.84602">
        <ele>348.5</ele>
        <time>2026-03-09T11:56:56Z</time>
      </trkpt>
      <trkpt lat="49.02128" lon="7.84594">
        <ele>348.5</ele>
        <time>2026-03-09T11:57:01Z</time>
      </trkpt>
      <trkpt lat="49.02133" lon="7.84587">
        <ele>348.3</ele>
        <time>2026-03-09T11:57:06Z</time>
      </trkpt>
      <trkpt lat="49.02137" lon="7.8458">
        <ele>348.2</ele>
        <time>2026-03-09T11:57:11Z</time>
      </trkpt>
      <trkpt lat="49.02142" lon="7.84575">
        <ele>348.4</ele>
        <time>2026-03-09T11:57:16Z</time>
      </trkpt>
      <trkpt lat="49.02148" lon="7.84569">
        <ele>348.6</ele>
        <time>2026-03-09T11:57:21Z</time>
      </trkpt>
      <trkpt lat="49.02154" lon="7.84562">
        <ele>348.7</ele>
        <time>2026-03-09T11:57:26Z</time>
      </trkpt>
      <trkpt lat="49.02157" lon="7.84556">
        <ele>348.7</ele>
        <time>2026-03-09T11:57:31Z</time>
      </trkpt>
      <trkpt lat="49.02161" lon="7.8455">
        <ele>348.6</ele>
        <time>2026-03-09T11:57:36Z</time>
      </trkpt>
      <trkpt lat="49.02164" lon="7.84543">
        <ele>348.5</ele>
        <time>2026-03-09T11:57:41Z</time>
      </trkpt>
      <trkpt lat="49.0217" lon="7.84535">
        <ele>348.6</ele>
        <time>2026-03-09T11:57:46Z</time>
      </trkpt>
      <trkpt lat="49.02177" lon="7.84525">
        <ele>349.1</ele>
        <time>2026-03-09T11:57:51Z</time>
      </trkpt>
      <trkpt lat="49.0218" lon="7.84518">
        <ele>349.2</ele>
        <time>2026-03-09T11:57:56Z</time>
      </trkpt>
      <trkpt lat="49.02185" lon="7.8451">
        <ele>349.6</ele>
        <time>2026-03-09T11:58:01Z</time>
      </trkpt>
      <trkpt lat="49.0219" lon="7.84503">
        <ele>350.1</ele>
        <time>2026-03-09T11:58:06Z</time>
      </trkpt>
      <trkpt lat="49.02193" lon="7.84497">
        <ele>350.6</ele>
        <time>2026-03-09T11:58:11Z</time>
      </trkpt>
      <trkpt lat="49.02197" lon="7.84491">
        <ele>351.3</ele>
        <time>2026-03-09T11:58:16Z</time>
      </trkpt>
      <trkpt lat="49.02205" lon="7.84484">
        <ele>352.6</ele>
        <time>2026-03-09T11:58:21Z</time>
      </trkpt>
      <trkpt lat="49.02211" lon="7.84476">
        <ele>353.5</ele>
        <time>2026-03-09T11:58:26Z</time>
      </trkpt>
      <trkpt lat="49.02216" lon="7.84476">
        <ele>354.2</ele>
        <time>2026-03-09T11:58:31Z</time>
      </trkpt>
      <trkpt lat="49.02221" lon="7.84474">
        <ele>354.8</ele>
        <time>2026-03-09T11:58:36Z</time>
      </trkpt>
      <trkpt lat="49.02226" lon="7.84467">
        <ele>355.6</ele>
        <time>2026-03-09T11:58:41Z</time>
      </trkpt>
      <trkpt lat="49.0223" lon="7.84458">
        <ele>356.2</ele>
        <time>2026-03-09T11:58:46Z</time>
      </trkpt>
      <trkpt lat="49.02234" lon="7.84449">
        <ele>356.9</ele>
        <time>2026-03-09T11:58:51Z</time>
      </trkpt>
      <trkpt lat="49.02238" lon="7.84443">
        <ele>357.4</ele>
        <time>2026-03-09T11:58:56Z</time>
      </trkpt>
      <trkpt lat="49.02241" lon="7.84437">
        <ele>357.8</ele>
        <time>2026-03-09T11:59:01Z</time>
      </trkpt>
      <trkpt lat="49.02243" lon="7.84429">
        <ele>358.1</ele>
        <time>2026-03-09T11:59:06Z</time>
      </trkpt>
      <trkpt lat="49.02246" lon="7.84423">
        <ele>358.5</ele>
        <time>2026-03-09T11:59:11Z</time>
      </trkpt>
      <trkpt lat="49.02249" lon="7.84416">
        <ele>358.9</ele>
        <time>2026-03-09T11:59:16Z</time>
      </trkpt>
      <trkpt lat="49.02253" lon="7.8441">
        <ele>359.9</ele>
        <time>2026-03-09T11:59:21Z</time>
      </trkpt>
      <trkpt lat="49.02257" lon="7.84403">
        <ele>360.9</ele>
        <time>2026-03-09T11:59:26Z</time>
      </trkpt>
      <trkpt lat="49.02261" lon="7.84398">
        <ele>361.8</ele>
        <time>2026-03-09T11:59:31Z</time>
      </trkpt>
      <trkpt lat="49.02263" lon="7.8439">
        <ele>362.6</ele>
        <time>2026-03-09T11:59:36Z</time>
      </trkpt>
      <trkpt lat="49.02266" lon="7.84381">
        <ele>363.5</ele>
        <time>2026-03-09T11:59:41Z</time>
      </trkpt>
      <trkpt lat="49.0227" lon="7.84374">
        <ele>364.4</ele>
        <time>2026-03-09T11:59:46Z</time>
      </trkpt>
      <trkpt lat="49.02275" lon="7.84366">
        <ele>365.5</ele>
        <time>2026-03-09T11:59:51Z</time>
      </trkpt>
      <trkpt lat="49.02277" lon="7.84358">
        <ele>366.1</ele>
        <time>2026-03-09T11:59:56Z</time>
      </trkpt>
      <trkpt lat="49.02282" lon="7.84353">
        <ele>367</ele>
        <time>2026-03-09T12:00:01Z</time>
      </trkpt>
      <trkpt lat="49.02287" lon="7.84346">
        <ele>367.9</ele>
        <time>2026-03-09T12:00:06Z</time>
      </trkpt>
      <trkpt lat="49.02291" lon="7.84335">
        <ele>368.9</ele>
        <time>2026-03-09T12:00:11Z</time>
      </trkpt>
      <trkpt lat="49.02293" lon="7.8433">
        <ele>369.3</ele>
        <time>2026-03-09T12:00:16Z</time>
      </trkpt>
      <trkpt lat="49.02297" lon="7.84323">
        <ele>370.1</ele>
        <time>2026-03-09T12:00:21Z</time>
      </trkpt>
      <trkpt lat="49.02303" lon="7.84314">
        <ele>371.1</ele>
        <time>2026-03-09T12:00:26Z</time>
      </trkpt>
      <trkpt lat="49.02307" lon="7.84306">
        <ele>371.8</ele>
        <time>2026-03-09T12:00:31Z</time>
      </trkpt>
      <trkpt lat="49.02312" lon="7.84298">
        <ele>372.6</ele>
        <time>2026-03-09T12:00:36Z</time>
      </trkpt>
      <trkpt lat="49.02315" lon="7.8429">
        <ele>373.2</ele>
        <time>2026-03-09T12:00:41Z</time>
      </trkpt>
      <trkpt lat="49.02319" lon="7.84282">
        <ele>373.8</ele>
        <time>2026-03-09T12:00:46Z</time>
      </trkpt>
      <trkpt lat="49.02323" lon="7.84275">
        <ele>374.4</ele>
        <time>2026-03-09T12:00:51Z</time>
      </trkpt>
      <trkpt lat="49.02325" lon="7.8427">
        <ele>374.7</ele>
        <time>2026-03-09T12:00:56Z</time>
      </trkpt>
      <trkpt lat="49.02329" lon="7.84263">
        <ele>375.3</ele>
        <time>2026-03-09T12:01:01Z</time>
      </trkpt>
      <trkpt lat="49.02333" lon="7.84253">
        <ele>375.9</ele>
        <time>2026-03-09T12:01:06Z</time>
      </trkpt>
      <trkpt lat="49.02338" lon="7.84246">
        <ele>375.8</ele>
        <time>2026-03-09T12:01:11Z</time>
      </trkpt>
      <trkpt lat="49.02345" lon="7.84238">
        <ele>375.5</ele>
        <time>2026-03-09T12:01:16Z</time>
      </trkpt>
      <trkpt lat="49.02348" lon="7.84231">
        <ele>375.5</ele>
        <time>2026-03-09T12:01:21Z</time>
      </trkpt>
      <trkpt lat="49.02349" lon="7.84226">
        <ele>375.6</ele>
        <time>2026-03-09T12:01:26Z</time>
      </trkpt>
      <trkpt lat="49.02349" lon="7.84222">
        <ele>375.8</ele>
        <time>2026-03-09T12:01:31Z</time>
      </trkpt>
      <trkpt lat="49.0235" lon="7.84221">
        <ele>375.7</ele>
        <time>2026-03-09T12:01:36Z</time>
      </trkpt>
      <trkpt lat="49.0235" lon="7.84221">
        <ele>375.7</ele>
        <time>2026-03-09T12:01:41Z</time>
      </trkpt>
      <trkpt lat="49.02358" lon="7.8421">
        <ele>375.5</ele>
        <time>2026-03-09T12:01:46Z</time>
      </trkpt>
      <trkpt lat="49.02362" lon="7.84207">
        <ele>375.3</ele>
        <time>2026-03-09T12:01:51Z</time>
      </trkpt>
      <trkpt lat="49.02366" lon="7.84204">
        <ele>375.1</ele>
        <time>2026-03-09T12:01:56Z</time>
      </trkpt>
      <trkpt lat="49.02367" lon="7.84202">
        <ele>375.1</ele>
        <time>2026-03-09T12:02:01Z</time>
      </trkpt>
      <trkpt lat="49.02368" lon="7.84201">
        <ele>375.1</ele>
        <time>2026-03-09T12:02:06Z</time>
      </trkpt>
      <trkpt lat="49.02374" lon="7.84195">
        <ele>374.9</ele>
        <time>2026-03-09T12:02:11Z</time>
      </trkpt>
      <trkpt lat="49.02377" lon="7.84188">
        <ele>375</ele>
        <time>2026-03-09T12:02:16Z</time>
      </trkpt>
      <trkpt lat="49.02382" lon="7.8418">
        <ele>374.9</ele>
        <time>2026-03-09T12:02:21Z</time>
      </trkpt>
      <trkpt lat="49.02387" lon="7.84172">
        <ele>374.9</ele>
        <time>2026-03-09T12:02:26Z</time>
      </trkpt>
      <trkpt lat="49.0239" lon="7.84165">
        <ele>375.1</ele>
        <time>2026-03-09T12:02:31Z</time>
      </trkpt>
      <trkpt lat="49.02394" lon="7.84158">
        <ele>375.4</ele>
        <time>2026-03-09T12:02:36Z</time>
      </trkpt>
      <trkpt lat="49.02398" lon="7.84147">
        <ele>376.2</ele>
        <time>2026-03-09T12:02:41Z</time>
      </trkpt>
      <trkpt lat="49.02402" lon="7.84138">
        <ele>376.8</ele>
        <time>2026-03-09T12:02:46Z</time>
      </trkpt>
      <trkpt lat="49.02407" lon="7.84129">
        <ele>377.4</ele>
        <time>2026-03-09T12:02:51Z</time>
      </trkpt>
      <trkpt lat="49.02411" lon="7.84121">
        <ele>378.1</ele>
        <time>2026-03-09T12:02:56Z</time>
      </trkpt>
      <trkpt lat="49.02415" lon="7.84113">
        <ele>378.8</ele>
        <time>2026-03-09T12:03:01Z</time>
      </trkpt>
      <trkpt lat="49.0242" lon="7.841">
        <ele>379.3</ele>
        <time>2026-03-09T12:03:06Z</time>
      </trkpt>
      <trkpt lat="49.02425" lon="7.84088">
        <ele>379.1</ele>
        <time>2026-03-09T12:03:11Z</time>
      </trkpt>
      <trkpt lat="49.02429" lon="7.84077">
        <ele>378.8</ele>
        <time>2026-03-09T12:03:16Z</time>
      </trkpt>
      <trkpt lat="49.02431" lon="7.84068">
        <ele>378.6</ele>
        <time>2026-03-09T12:03:21Z</time>
      </trkpt>
      <trkpt lat="49.02433" lon="7.84061">
        <ele>378.4</ele>
        <time>2026-03-09T12:03:26Z</time>
      </trkpt>
      <trkpt lat="49.02438" lon="7.84056">
        <ele>377.3</ele>
        <time>2026-03-09T12:03:31Z</time>
      </trkpt>
      <trkpt lat="49.02442" lon="7.84049">
        <ele>376.5</ele>
        <time>2026-03-09T12:03:36Z</time>
      </trkpt>
      <trkpt lat="49.02446" lon="7.8404">
        <ele>375.8</ele>
        <time>2026-03-09T12:03:41Z</time>
      </trkpt>
      <trkpt lat="49.02449" lon="7.84033">
        <ele>375.3</ele>
        <time>2026-03-09T12:03:46Z</time>
      </trkpt>
      <trkpt lat="49.02452" lon="7.84025">
        <ele>374.9</ele>
        <time>2026-03-09T12:03:51Z</time>
      </trkpt>
      <trkpt lat="49.02458" lon="7.84018">
        <ele>373.6</ele>
        <time>2026-03-09T12:03:56Z</time>
      </trkpt>
      <trkpt lat="49.02463" lon="7.84011">
        <ele>372.6</ele>
        <time>2026-03-09T12:04:01Z</time>
      </trkpt>
      <trkpt lat="49.02466" lon="7.84003">
        <ele>372.2</ele>
        <time>2026-03-09T12:04:06Z</time>
      </trkpt>
      <trkpt lat="49.02469" lon="7.83995">
        <ele>371.9</ele>
        <time>2026-03-09T12:04:11Z</time>
      </trkpt>
      <trkpt lat="49.02473" lon="7.83988">
        <ele>371.4</ele>
        <time>2026-03-09T12:04:16Z</time>
      </trkpt>
      <trkpt lat="49.02476" lon="7.83983">
        <ele>371</ele>
        <time>2026-03-09T12:04:21Z</time>
      </trkpt>
      <trkpt lat="49.02481" lon="7.83988">
        <ele>369.2</ele>
        <time>2026-03-09T12:04:26Z</time>
      </trkpt>
      <trkpt lat="49.02479" lon="7.83994">
        <ele>369.3</ele>
        <time>2026-03-09T12:04:31Z</time>
      </trkpt>
      <trkpt lat="49.0248" lon="7.83993">
        <ele>369.1</ele>
        <time>2026-03-09T12:04:36Z</time>
      </trkpt>
      <trkpt lat="49.02481" lon="7.83991">
        <ele>369</ele>
        <time>2026-03-09T12:04:41Z</time>
      </trkpt>
      <trkpt lat="49.02481" lon="7.83991">
        <ele>369</ele>
        <time>2026-03-09T12:04:46Z</time>
      </trkpt>
      <trkpt lat="49.0249" lon="7.8398">
        <ele>367.5</ele>
        <time>2026-03-09T12:04:51Z</time>
      </trkpt>
      <trkpt lat="49.02491" lon="7.83979">
        <ele>367.4</ele>
        <time>2026-03-09T12:04:56Z</time>
      </trkpt>
      <trkpt lat="49.02493" lon="7.83978">
        <ele>366.9</ele>
        <time>2026-03-09T12:05:01Z</time>
      </trkpt>
      <trkpt lat="49.02493" lon="7.83978">
        <ele>366.9</ele>
        <time>2026-03-09T12:05:06Z</time>
      </trkpt>
      <trkpt lat="49.02505" lon="7.83975">
        <ele>364.8</ele>
        <time>2026-03-09T12:05:11Z</time>
      </trkpt>
      <trkpt lat="49.02512" lon="7.8397">
        <ele>364.4</ele>
        <time>2026-03-09T12:05:16Z</time>
      </trkpt>
      <trkpt lat="49.02516" lon="7.83958">
        <ele>365</ele>
        <time>2026-03-09T12:05:21Z</time>
      </trkpt>
      <trkpt lat="49.0252" lon="7.83947">
        <ele>365.5</ele>
        <time>2026-03-09T12:05:26Z</time>
      </trkpt>
      <trkpt lat="49.02524" lon="7.83939">
        <ele>365.6</ele>
        <time>2026-03-09T12:05:31Z</time>
      </trkpt>
      <trkpt lat="49.02529" lon="7.83934">
        <ele>365.4</ele>
        <time>2026-03-09T12:05:36Z</time>
      </trkpt>
      <trkpt lat="49.02533" lon="7.83927">
        <ele>365.4</ele>
        <time>2026-03-09T12:05:41Z</time>
      </trkpt>
      <trkpt lat="49.02535" lon="7.83917">
        <ele>365.9</ele>
        <time>2026-03-09T12:05:46Z</time>
      </trkpt>
      <trkpt lat="49.02538" lon="7.83909">
        <ele>366</ele>
        <time>2026-03-09T12:05:51Z</time>
      </trkpt>
      <trkpt lat="49.02546" lon="7.8391">
        <ele>364.8</ele>
        <time>2026-03-09T12:05:56Z</time>
      </trkpt>
      <trkpt lat="49.0255" lon="7.83907">
        <ele>364.4</ele>
        <time>2026-03-09T12:06:01Z</time>
      </trkpt>
      <trkpt lat="49.02554" lon="7.839">
        <ele>364.2</ele>
        <time>2026-03-09T12:06:06Z</time>
      </trkpt>
      <trkpt lat="49.02557" lon="7.83892">
        <ele>364.2</ele>
        <time>2026-03-09T12:06:11Z</time>
      </trkpt>
      <trkpt lat="49.0256" lon="7.83882">
        <ele>364.3</ele>
        <time>2026-03-09T12:06:16Z</time>
      </trkpt>
      <trkpt lat="49.02562" lon="7.83872">
        <ele>364.5</ele>
        <time>2026-03-09T12:06:21Z</time>
      </trkpt>
      <trkpt lat="49.02565" lon="7.83862">
        <ele>364.6</ele>
        <time>2026-03-09T12:06:26Z</time>
      </trkpt>
      <trkpt lat="49.02571" lon="7.83852">
        <ele>364.1</ele>
        <time>2026-03-09T12:06:31Z</time>
      </trkpt>
      <trkpt lat="49.02577" lon="7.83845">
        <ele>363.5</ele>
        <time>2026-03-09T12:06:36Z</time>
      </trkpt>
      <trkpt lat="49.02582" lon="7.83836">
        <ele>363.1</ele>
        <time>2026-03-09T12:06:41Z</time>
      </trkpt>
      <trkpt lat="49.02587" lon="7.83827">
        <ele>361.9</ele>
        <time>2026-03-09T12:06:46Z</time>
      </trkpt>
      <trkpt lat="49.0259" lon="7.83817">
        <ele>360.9</ele>
        <time>2026-03-09T12:06:51Z</time>
      </trkpt>
      <trkpt lat="49.02591" lon="7.83806">
        <ele>360.3</ele>
        <time>2026-03-09T12:06:56Z</time>
      </trkpt>
      <trkpt lat="49.02592" lon="7.83796">
        <ele>359.7</ele>
        <time>2026-03-09T12:07:01Z</time>
      </trkpt>
      <trkpt lat="49.02594" lon="7.83784">
        <ele>358.8</ele>
        <time>2026-03-09T12:07:06Z</time>
      </trkpt>
      <trkpt lat="49.02598" lon="7.83772">
        <ele>357.4</ele>
        <time>2026-03-09T12:07:11Z</time>
      </trkpt>
      <trkpt lat="49.02599" lon="7.83761">
        <ele>356.8</ele>
        <time>2026-03-09T12:07:16Z</time>
      </trkpt>
      <trkpt lat="49.02602" lon="7.8375">
        <ele>355.7</ele>
        <time>2026-03-09T12:07:21Z</time>
      </trkpt>
      <trkpt lat="49.02603" lon="7.83743">
        <ele>355.2</ele>
        <time>2026-03-09T12:07:26Z</time>
      </trkpt>
      <trkpt lat="49.02604" lon="7.83734">
        <ele>354.6</ele>
        <time>2026-03-09T12:07:31Z</time>
      </trkpt>
      <trkpt lat="49.02606" lon="7.83723">
        <ele>353.7</ele>
        <time>2026-03-09T12:07:36Z</time>
      </trkpt>
      <trkpt lat="49.02609" lon="7.83711">
        <ele>352.5</ele>
        <time>2026-03-09T12:07:41Z</time>
      </trkpt>
      <trkpt lat="49.02609" lon="7.83698">
        <ele>351.9</ele>
        <time>2026-03-09T12:07:46Z</time>
      </trkpt>
      <trkpt lat="49.02611" lon="7.83687">
        <ele>350.9</ele>
        <time>2026-03-09T12:07:51Z</time>
      </trkpt>
      <trkpt lat="49.0261" lon="7.83683">
        <ele>351</ele>
        <time>2026-03-09T12:07:56Z</time>
      </trkpt>
      <trkpt lat="49.0261" lon="7.83682">
        <ele>350.9</ele>
        <time>2026-03-09T12:08:01Z</time>
      </trkpt>
      <trkpt lat="49.0261" lon="7.83681">
        <ele>350.9</ele>
        <time>2026-03-09T12:08:06Z</time>
      </trkpt>
      <trkpt lat="49.02614" lon="7.83665">
        <ele>349.1</ele>
        <time>2026-03-09T12:08:11Z</time>
      </trkpt>
      <trkpt lat="49.02616" lon="7.8365">
        <ele>347.5</ele>
        <time>2026-03-09T12:08:16Z</time>
      </trkpt>
      <trkpt lat="49.02618" lon="7.83639">
        <ele>346.2</ele>
        <time>2026-03-09T12:08:21Z</time>
      </trkpt>
      <trkpt lat="49.0262" lon="7.83631">
        <ele>345.1</ele>
        <time>2026-03-09T12:08:26Z</time>
      </trkpt>
      <trkpt lat="49.02624" lon="7.83621">
        <ele>343.5</ele>
        <time>2026-03-09T12:08:31Z</time>
      </trkpt>
      <trkpt lat="49.02625" lon="7.83611">
        <ele>342.5</ele>
        <time>2026-03-09T12:08:36Z</time>
      </trkpt>
      <trkpt lat="49.02626" lon="7.83599">
        <ele>341.4</ele>
        <time>2026-03-09T12:08:41Z</time>
      </trkpt>
      <trkpt lat="49.02628" lon="7.83589">
        <ele>340.2</ele>
        <time>2026-03-09T12:08:46Z</time>
      </trkpt>
      <trkpt lat="49.0263" lon="7.83579">
        <ele>339.1</ele>
        <time>2026-03-09T12:08:51Z</time>
      </trkpt>
      <trkpt lat="49.02631" lon="7.83567">
        <ele>338</ele>
        <time>2026-03-09T12:08:56Z</time>
      </trkpt>
      <trkpt lat="49.0263" lon="7.83554">
        <ele>337.3</ele>
        <time>2026-03-09T12:09:01Z</time>
      </trkpt>
      <trkpt lat="49.0263" lon="7.8354">
        <ele>336.3</ele>
        <time>2026-03-09T12:09:06Z</time>
      </trkpt>
      <trkpt lat="49.02631" lon="7.83527">
        <ele>335.2</ele>
        <time>2026-03-09T12:09:11Z</time>
      </trkpt>
      <trkpt lat="49.02631" lon="7.83516">
        <ele>334.4</ele>
        <time>2026-03-09T12:09:16Z</time>
      </trkpt>
      <trkpt lat="49.02632" lon="7.83507">
        <ele>333.6</ele>
        <time>2026-03-09T12:09:21Z</time>
      </trkpt>
      <trkpt lat="49.02633" lon="7.83496">
        <ele>332.6</ele>
        <time>2026-03-09T12:09:26Z</time>
      </trkpt>
      <trkpt lat="49.02634" lon="7.83485">
        <ele>331.5</ele>
        <time>2026-03-09T12:09:31Z</time>
      </trkpt>
      <trkpt lat="49.02635" lon="7.83476">
        <ele>330.6</ele>
        <time>2026-03-09T12:09:36Z</time>
      </trkpt>
      <trkpt lat="49.02636" lon="7.83468">
        <ele>329.7</ele>
        <time>2026-03-09T12:09:41Z</time>
      </trkpt>
      <trkpt lat="49.02635" lon="7.83458">
        <ele>329.1</ele>
        <time>2026-03-09T12:09:46Z</time>
      </trkpt>
      <trkpt lat="49.02635" lon="7.83447">
        <ele>328.2</ele>
        <time>2026-03-09T12:09:51Z</time>
      </trkpt>
      <trkpt lat="49.02636" lon="7.83436">
        <ele>327.2</ele>
        <time>2026-03-09T12:09:56Z</time>
      </trkpt>
      <trkpt lat="49.02636" lon="7.83423">
        <ele>326.1</ele>
        <time>2026-03-09T12:10:01Z</time>
      </trkpt>
      <trkpt lat="49.02635" lon="7.83411">
        <ele>325.4</ele>
        <time>2026-03-09T12:10:06Z</time>
      </trkpt>
      <trkpt lat="49.02634" lon="7.83399">
        <ele>324.6</ele>
        <time>2026-03-09T12:10:11Z</time>
      </trkpt>
      <trkpt lat="49.02634" lon="7.83388">
        <ele>323.7</ele>
        <time>2026-03-09T12:10:16Z</time>
      </trkpt>
      <trkpt lat="49.02633" lon="7.83378">
        <ele>323.1</ele>
        <time>2026-03-09T12:10:21Z</time>
      </trkpt>
      <trkpt lat="49.02634" lon="7.83365">
        <ele>321.8</ele>
        <time>2026-03-09T12:10:26Z</time>
      </trkpt>
      <trkpt lat="49.02631" lon="7.83355">
        <ele>321.7</ele>
        <time>2026-03-09T12:10:31Z</time>
      </trkpt>
      <trkpt lat="49.0263" lon="7.83347">
        <ele>321.3</ele>
        <time>2026-03-09T12:10:36Z</time>
      </trkpt>
      <trkpt lat="49.02629" lon="7.83339">
        <ele>320.9</ele>
        <time>2026-03-09T12:10:41Z</time>
      </trkpt>
      <trkpt lat="49.02628" lon="7.8333">
        <ele>320.4</ele>
        <time>2026-03-09T12:10:46Z</time>
      </trkpt>
      <trkpt lat="49.02629" lon="7.83321">
        <ele>319.1</ele>
        <time>2026-03-09T12:10:51Z</time>
      </trkpt>
      <trkpt lat="49.0263" lon="7.83313">
        <ele>317.9</ele>
        <time>2026-03-09T12:10:56Z</time>
      </trkpt>
      <trkpt lat="49.02629" lon="7.83301">
        <ele>316.8</ele>
        <time>2026-03-09T12:11:01Z</time>
      </trkpt>
      <trkpt lat="49.02629" lon="7.83293">
        <ele>315.9</ele>
        <time>2026-03-09T12:11:06Z</time>
      </trkpt>
      <trkpt lat="49.02629" lon="7.83285">
        <ele>315</ele>
        <time>2026-03-09T12:11:11Z</time>
      </trkpt>
      <trkpt lat="49.0263" lon="7.83277">
        <ele>313.8</ele>
        <time>2026-03-09T12:11:16Z</time>
      </trkpt>
      <trkpt lat="49.0263" lon="7.83277">
        <ele>313.8</ele>
        <time>2026-03-09T12:11:21Z</time>
      </trkpt>
      <trkpt lat="49.0263" lon="7.83277">
        <ele>313.8</ele>
        <time>2026-03-09T12:11:26Z</time>
      </trkpt>
      <trkpt lat="49.0263" lon="7.83277">
        <ele>313.8</ele>
        <time>2026-03-09T12:11:31Z</time>
      </trkpt>
      <trkpt lat="49.02628" lon="7.83261">
        <ele>312.5</ele>
        <time>2026-03-09T12:11:36Z</time>
      </trkpt>
      <trkpt lat="49.02625" lon="7.83254">
        <ele>312.5</ele>
        <time>2026-03-09T12:11:41Z</time>
      </trkpt>
      <trkpt lat="49.02624" lon="7.83247">
        <ele>312</ele>
        <time>2026-03-09T12:11:46Z</time>
      </trkpt>
      <trkpt lat="49.02622" lon="7.83238">
        <ele>311.9</ele>
        <time>2026-03-09T12:11:51Z</time>
      </trkpt>
      <trkpt lat="49.02623" lon="7.8323">
        <ele>311.1</ele>
        <time>2026-03-09T12:11:56Z</time>
      </trkpt>
      <trkpt lat="49.02623" lon="7.8322">
        <ele>310.4</ele>
        <time>2026-03-09T12:12:01Z</time>
      </trkpt>
      <trkpt lat="49.02625" lon="7.83212">
        <ele>309.3</ele>
        <time>2026-03-09T12:12:06Z</time>
      </trkpt>
      <trkpt lat="49.02625" lon="7.83204">
        <ele>308.7</ele>
        <time>2026-03-09T12:12:11Z</time>
      </trkpt>
      <trkpt lat="49.02626" lon="7.83207">
        <ele>308.6</ele>
        <time>2026-03-09T12:12:16Z</time>
      </trkpt>
      <trkpt lat="49.02625" lon="7.83208">
        <ele>309</ele>
        <time>2026-03-09T12:12:21Z</time>
      </trkpt>
      <trkpt lat="49.02625" lon="7.83208">
        <ele>309</ele>
        <time>2026-03-09T12:12:26Z</time>
      </trkpt>
      <trkpt lat="49.02625" lon="7.83208">
        <ele>309</ele>
        <time>2026-03-09T12:12:31Z</time>
      </trkpt>
      <trkpt lat="49.02622" lon="7.83207">
        <ele>309.7</ele>
        <time>2026-03-09T12:12:36Z</time>
      </trkpt>
      <trkpt lat="49.02622" lon="7.832">
        <ele>309.2</ele>
        <time>2026-03-09T12:12:41Z</time>
      </trkpt>
      <trkpt lat="49.02624" lon="7.83186">
        <ele>307.7</ele>
        <time>2026-03-09T12:12:46Z</time>
      </trkpt>
      <trkpt lat="49.02624" lon="7.83182">
        <ele>307.4</ele>
        <time>2026-03-09T12:12:51Z</time>
      </trkpt>
      <trkpt lat="49.02623" lon="7.83171">
        <ele>306.8</ele>
        <time>2026-03-09T12:12:56Z</time>
      </trkpt>
      <trkpt lat="49.02622" lon="7.83159">
        <ele>306.4</ele>
        <time>2026-03-09T12:13:01Z</time>
      </trkpt>
      <trkpt lat="49.02622" lon="7.83151">
        <ele>305.9</ele>
        <time>2026-03-09T12:13:06Z</time>
      </trkpt>
      <trkpt lat="49.02622" lon="7.83144">
        <ele>305.5</ele>
        <time>2026-03-09T12:13:11Z</time>
      </trkpt>
      <trkpt lat="49.02623" lon="7.83136">
        <ele>304.8</ele>
        <time>2026-03-09T12:13:16Z</time>
      </trkpt>
      <trkpt lat="49.02623" lon="7.83129">
        <ele>304.5</ele>
        <time>2026-03-09T12:13:21Z</time>
      </trkpt>
      <trkpt lat="49.0262" lon="7.83121">
        <ele>304.8</ele>
        <time>2026-03-09T12:13:26Z</time>
      </trkpt>
      <trkpt lat="49.02618" lon="7.83114">
        <ele>304.8</ele>
        <time>2026-03-09T12:13:31Z</time>
      </trkpt>
      <trkpt lat="49.02616" lon="7.83105">
        <ele>304.8</ele>
        <time>2026-03-09T12:13:36Z</time>
      </trkpt>
      <trkpt lat="49.02617" lon="7.83097">
        <ele>304.1</ele>
        <time>2026-03-09T12:13:41Z</time>
      </trkpt>
      <trkpt lat="49.02618" lon="7.83092">
        <ele>303.6</ele>
        <time>2026-03-09T12:13:46Z</time>
      </trkpt>
      <trkpt lat="49.02619" lon="7.83085">
        <ele>303</ele>
        <time>2026-03-09T12:13:51Z</time>
      </trkpt>
      <trkpt lat="49.02621" lon="7.83078">
        <ele>302.1</ele>
        <time>2026-03-09T12:13:56Z</time>
      </trkpt>
      <trkpt lat="49.02625" lon="7.83073">
        <ele>300.9</ele>
        <time>2026-03-09T12:14:01Z</time>
      </trkpt>
      <trkpt lat="49.0263" lon="7.83069">
        <ele>299.6</ele>
        <time>2026-03-09T12:14:06Z</time>
      </trkpt>
      <trkpt lat="49.02634" lon="7.83068">
        <ele>298.6</ele>
        <time>2026-03-09T12:14:11Z</time>
      </trkpt>
      <trkpt lat="49.02638" lon="7.83066">
        <ele>297.6</ele>
        <time>2026-03-09T12:14:16Z</time>
      </trkpt>
      <trkpt lat="49.02641" lon="7.83062">
        <ele>296.7</ele>
        <time>2026-03-09T12:14:21Z</time>
      </trkpt>
      <trkpt lat="49.02641" lon="7.83058">
        <ele>296.5</ele>
        <time>2026-03-09T12:14:26Z</time>
      </trkpt>
      <trkpt lat="49.02645" lon="7.83056">
        <ele>295.5</ele>
        <time>2026-03-09T12:14:31Z</time>
      </trkpt>
      <trkpt lat="49.02652" lon="7.83057">
        <ele>294</ele>
        <time>2026-03-09T12:14:36Z</time>
      </trkpt>
      <trkpt lat="49.02659" lon="7.8306">
        <ele>292.6</ele>
        <time>2026-03-09T12:14:41Z</time>
      </trkpt>
      <trkpt lat="49.02665" lon="7.8306">
        <ele>291.3</ele>
        <time>2026-03-09T12:14:46Z</time>
      </trkpt>
      <trkpt lat="49.02673" lon="7.83057">
        <ele>291</ele>
        <time>2026-03-09T12:14:51Z</time>
      </trkpt>
      <trkpt lat="49.02679" lon="7.83054">
        <ele>291.1</ele>
        <time>2026-03-09T12:14:56Z</time>
      </trkpt>
      <trkpt lat="49.02684" lon="7.83049">
        <ele>291.1</ele>
        <time>2026-03-09T12:15:01Z</time>
      </trkpt>
      <trkpt lat="49.02689" lon="7.83045">
        <ele>291.2</ele>
        <time>2026-03-09T12:15:06Z</time>
      </trkpt>
      <trkpt lat="49.02691" lon="7.83041">
        <ele>291.1</ele>
        <time>2026-03-09T12:15:11Z</time>
      </trkpt>
      <trkpt lat="49.02696" lon="7.83033">
        <ele>291.1</ele>
        <time>2026-03-09T12:15:16Z</time>
      </trkpt>
      <trkpt lat="49.02701" lon="7.83023">
        <ele>291.1</ele>
        <time>2026-03-09T12:15:21Z</time>
      </trkpt>
      <trkpt lat="49.02704" lon="7.83014">
        <ele>291.1</ele>
        <time>2026-03-09T12:15:26Z</time>
      </trkpt>
      <trkpt lat="49.0271" lon="7.83004">
        <ele>291.2</ele>
        <time>2026-03-09T12:15:31Z</time>
      </trkpt>
      <trkpt lat="49.02712" lon="7.82994">
        <ele>290.5</ele>
        <time>2026-03-09T12:15:36Z</time>
      </trkpt>
      <trkpt lat="49.02713" lon="7.82981">
        <ele>288.9</ele>
        <time>2026-03-09T12:15:41Z</time>
      </trkpt>
      <trkpt lat="49.02714" lon="7.82972">
        <ele>287.8</ele>
        <time>2026-03-09T12:15:46Z</time>
      </trkpt>
      <trkpt lat="49.02715" lon="7.82963">
        <ele>286.7</ele>
        <time>2026-03-09T12:15:51Z</time>
      </trkpt>
      <trkpt lat="49.02717" lon="7.82953">
        <ele>285.5</ele>
        <time>2026-03-09T12:15:56Z</time>
      </trkpt>
      <trkpt lat="49.0272" lon="7.82941">
        <ele>284.1</ele>
        <time>2026-03-09T12:16:01Z</time>
      </trkpt>
      <trkpt lat="49.0272" lon="7.82934">
        <ele>283.2</ele>
        <time>2026-03-09T12:16:06Z</time>
      </trkpt>
      <trkpt lat="49.02721" lon="7.8293">
        <ele>282.7</ele>
        <time>2026-03-09T12:16:11Z</time>
      </trkpt>
      <trkpt lat="49.02721" lon="7.82929">
        <ele>282.6</ele>
        <time>2026-03-09T12:16:16Z</time>
      </trkpt>
      <trkpt lat="49.02722" lon="7.82921">
        <ele>281.6</ele>
        <time>2026-03-09T12:16:21Z</time>
      </trkpt>
      <trkpt lat="49.02725" lon="7.82911">
        <ele>280.2</ele>
        <time>2026-03-09T12:16:26Z</time>
      </trkpt>
      <trkpt lat="49.02725" lon="7.82903">
        <ele>278.8</ele>
        <time>2026-03-09T12:16:31Z</time>
      </trkpt>
      <trkpt lat="49.02725" lon="7.82901">
        <ele>278.5</ele>
        <time>2026-03-09T12:16:36Z</time>
      </trkpt>
      <trkpt lat="49.02725" lon="7.82897">
        <ele>277.8</ele>
        <time>2026-03-09T12:16:41Z</time>
      </trkpt>
      <trkpt lat="49.02725" lon="7.82889">
        <ele>276.5</ele>
        <time>2026-03-09T12:16:46Z</time>
      </trkpt>
      <trkpt lat="49.02727" lon="7.82879">
        <ele>274.9</ele>
        <time>2026-03-09T12:16:51Z</time>
      </trkpt>
      <trkpt lat="49.02728" lon="7.82871">
        <ele>273.6</ele>
        <time>2026-03-09T12:16:56Z</time>
      </trkpt>
      <trkpt lat="49.02729" lon="7.82862">
        <ele>272.1</ele>
        <time>2026-03-09T12:17:01Z</time>
      </trkpt>
      <trkpt lat="49.0273" lon="7.82852">
        <ele>270.4</ele>
        <time>2026-03-09T12:17:06Z</time>
      </trkpt>
      <trkpt lat="49.02731" lon="7.82845">
        <ele>269.2</ele>
        <time>2026-03-09T12:17:11Z</time>
      </trkpt>
      <trkpt lat="49.02733" lon="7.82837">
        <ele>267.8</ele>
        <time>2026-03-09T12:17:16Z</time>
      </trkpt>
      <trkpt lat="49.02735" lon="7.82827">
        <ele>266.6</ele>
        <time>2026-03-09T12:17:21Z</time>
      </trkpt>
      <trkpt lat="49.02737" lon="7.82819">
        <ele>265.9</ele>
        <time>2026-03-09T12:17:26Z</time>
      </trkpt>
      <trkpt lat="49.02738" lon="7.8281">
        <ele>265.1</ele>
        <time>2026-03-09T12:17:31Z</time>
      </trkpt>
      <trkpt lat="49.0274" lon="7.82803">
        <ele>264.4</ele>
        <time>2026-03-09T12:17:36Z</time>
      </trkpt>
      <trkpt lat="49.02743" lon="7.82793">
        <ele>263.4</ele>
        <time>2026-03-09T12:17:41Z</time>
      </trkpt>
      <trkpt lat="49.02746" lon="7.82781">
        <ele>262.1</ele>
        <time>2026-03-09T12:17:46Z</time>
      </trkpt>
      <trkpt lat="49.02746" lon="7.8277">
        <ele>261.1</ele>
        <time>2026-03-09T12:17:51Z</time>
      </trkpt>
      <trkpt lat="49.02747" lon="7.82761">
        <ele>260.2</ele>
        <time>2026-03-09T12:17:56Z</time>
      </trkpt>
      <trkpt lat="49.02749" lon="7.8275">
        <ele>259.1</ele>
        <time>2026-03-09T12:18:01Z</time>
      </trkpt>
      <trkpt lat="49.02749" lon="7.82744">
        <ele>258.9</ele>
        <time>2026-03-09T12:18:06Z</time>
      </trkpt>
      <trkpt lat="49.0275" lon="7.82743">
        <ele>258.8</ele>
        <time>2026-03-09T12:18:11Z</time>
      </trkpt>
      <trkpt lat="49.02751" lon="7.82739">
        <ele>258.8</ele>
        <time>2026-03-09T12:18:16Z</time>
      </trkpt>
      <trkpt lat="49.02752" lon="7.82732">
        <ele>258.7</ele>
        <time>2026-03-09T12:18:21Z</time>
      </trkpt>
      <trkpt lat="49.02753" lon="7.82723">
        <ele>258.6</ele>
        <time>2026-03-09T12:18:26Z</time>
      </trkpt>
      <trkpt lat="49.02755" lon="7.82712">
        <ele>258.5</ele>
        <time>2026-03-09T12:18:31Z</time>
      </trkpt>
      <trkpt lat="49.02758" lon="7.82703">
        <ele>258.4</ele>
        <time>2026-03-09T12:18:36Z</time>
      </trkpt>
      <trkpt lat="49.0276" lon="7.82696">
        <ele>258.4</ele>
        <time>2026-03-09T12:18:41Z</time>
      </trkpt>
      <trkpt lat="49.02762" lon="7.82688">
        <ele>258.3</ele>
        <time>2026-03-09T12:18:46Z</time>
      </trkpt>
      <trkpt lat="49.02764" lon="7.82675">
        <ele>258.1</ele>
        <time>2026-03-09T12:18:51Z</time>
      </trkpt>
      <trkpt lat="49.02768" lon="7.82666">
        <ele>258.1</ele>
        <time>2026-03-09T12:18:56Z</time>
      </trkpt>
      <trkpt lat="49.02772" lon="7.82657">
        <ele>258</ele>
        <time>2026-03-09T12:19:01Z</time>
      </trkpt>
      <trkpt lat="49.02775" lon="7.8265">
        <ele>257.9</ele>
        <time>2026-03-09T12:19:06Z</time>
      </trkpt>
      <trkpt lat="49.02776" lon="7.82643">
        <ele>257.7</ele>
        <time>2026-03-09T12:19:11Z</time>
      </trkpt>
      <trkpt lat="49.02777" lon="7.82636">
        <ele>257.5</ele>
        <time>2026-03-09T12:19:16Z</time>
      </trkpt>
      <trkpt lat="49.02779" lon="7.82628">
        <ele>257.3</ele>
        <time>2026-03-09T12:19:21Z</time>
      </trkpt>
      <trkpt lat="49.02782" lon="7.82618">
        <ele>257.1</ele>
        <time>2026-03-09T12:19:26Z</time>
      </trkpt>
      <trkpt lat="49.02785" lon="7.82611">
        <ele>256.9</ele>
        <time>2026-03-09T12:19:31Z</time>
      </trkpt>
      <trkpt lat="49.02789" lon="7.82602">
        <ele>256.7</ele>
        <time>2026-03-09T12:19:36Z</time>
      </trkpt>
      <trkpt lat="49.02792" lon="7.82589">
        <ele>256.2</ele>
        <time>2026-03-09T12:19:41Z</time>
      </trkpt>
      <trkpt lat="49.02795" lon="7.82579">
        <ele>256</ele>
        <time>2026-03-09T12:19:46Z</time>
      </trkpt>
      <trkpt lat="49.02797" lon="7.8257">
        <ele>256</ele>
        <time>2026-03-09T12:19:51Z</time>
      </trkpt>
      <trkpt lat="49.02797" lon="7.82562">
        <ele>255.9</ele>
        <time>2026-03-09T12:19:56Z</time>
      </trkpt>
      <trkpt lat="49.02792" lon="7.82556">
        <ele>255.7</ele>
        <time>2026-03-09T12:20:01Z</time>
      </trkpt>
      <trkpt lat="49.02791" lon="7.82552">
        <ele>255.6</ele>
        <time>2026-03-09T12:20:06Z</time>
      </trkpt>
      <trkpt lat="49.0279" lon="7.82546">
        <ele>255.5</ele>
        <time>2026-03-09T12:20:11Z</time>
      </trkpt>
      <trkpt lat="49.02791" lon="7.82543">
        <ele>255.5</ele>
        <time>2026-03-09T12:20:16Z</time>
      </trkpt>
      <trkpt lat="49.02798" lon="7.82542">
        <ele>255.7</ele>
        <time>2026-03-09T12:20:21Z</time>
      </trkpt>
      <trkpt lat="49.02804" lon="7.82547">
        <ele>255.9</ele>
        <time>2026-03-09T12:20:26Z</time>
      </trkpt>
      <trkpt lat="49.02809" lon="7.82554">
        <ele>256.1</ele>
        <time>2026-03-09T12:20:31Z</time>
      </trkpt>
      <trkpt lat="49.02812" lon="7.82562">
        <ele>256.2</ele>
        <time>2026-03-09T12:20:36Z</time>
      </trkpt>
      <trkpt lat="49.02816" lon="7.82569">
        <ele>256.4</ele>
        <time>2026-03-09T12:20:41Z</time>
      </trkpt>
      <trkpt lat="49.0282" lon="7.82575">
        <ele>256.6</ele>
        <time>2026-03-09T12:20:46Z</time>
      </trkpt>
      <trkpt lat="49.02824" lon="7.82581">
        <ele>256.7</ele>
        <time>2026-03-09T12:20:51Z</time>
      </trkpt>
      <trkpt lat="49.0283" lon="7.82584">
        <ele>257</ele>
        <time>2026-03-09T12:20:56Z</time>
      </trkpt>
      <trkpt lat="49.02834" lon="7.8259">
        <ele>257.4</ele>
        <time>2026-03-09T12:21:01Z</time>
      </trkpt>
      <trkpt lat="49.02838" lon="7.82596">
        <ele>257.8</ele>
        <time>2026-03-09T12:21:06Z</time>
      </trkpt>
      <trkpt lat="49.02844" lon="7.82597">
        <ele>257.9</ele>
        <time>2026-03-09T12:21:11Z</time>
      </trkpt>
      <trkpt lat="49.02852" lon="7.82596">
        <ele>257.8</ele>
        <time>2026-03-09T12:21:16Z</time>
      </trkpt>
      <trkpt lat="49.02861" lon="7.82593">
        <ele>257.7</ele>
        <time>2026-03-09T12:21:21Z</time>
      </trkpt>
      <trkpt lat="49.02868" lon="7.82589">
        <ele>257.4</ele>
        <time>2026-03-09T12:21:26Z</time>
      </trkpt>
      <trkpt lat="49.02877" lon="7.82587">
        <ele>257.3</ele>
        <time>2026-03-09T12:21:31Z</time>
      </trkpt>
      <trkpt lat="49.02884" lon="7.82585">
        <ele>257.1</ele>
        <time>2026-03-09T12:21:36Z</time>
      </trkpt>
      <trkpt lat="49.02891" lon="7.82583">
        <ele>257</ele>
        <time>2026-03-09T12:21:41Z</time>
      </trkpt>
      <trkpt lat="49.02896" lon="7.8258">
        <ele>257.1</ele>
        <time>2026-03-09T12:21:46Z</time>
      </trkpt>
      <trkpt lat="49.029" lon="7.82581">
        <ele>257.1</ele>
        <time>2026-03-09T12:21:51Z</time>
      </trkpt>
      <trkpt lat="49.02904" lon="7.82577">
        <ele>257.2</ele>
        <time>2026-03-09T12:21:56Z</time>
      </trkpt>
      <trkpt lat="49.02909" lon="7.82575">
        <ele>257.3</ele>
        <time>2026-03-09T12:22:01Z</time>
      </trkpt>
      <trkpt lat="49.02915" lon="7.82572">
        <ele>257.4</ele>
        <time>2026-03-09T12:22:06Z</time>
      </trkpt>
      <trkpt lat="49.02919" lon="7.82568">
        <ele>257.7</ele>
        <time>2026-03-09T12:22:11Z</time>
      </trkpt>
      <trkpt lat="49.02924" lon="7.82568">
        <ele>258</ele>
        <time>2026-03-09T12:22:16Z</time>
      </trkpt>
      <trkpt lat="49.02928" lon="7.82562">
        <ele>258.4</ele>
        <time>2026-03-09T12:22:21Z</time>
      </trkpt>
      <trkpt lat="49.02934" lon="7.82559">
        <ele>258.8</ele>
        <time>2026-03-09T12:22:26Z</time>
      </trkpt>
      <trkpt lat="49.0294" lon="7.82552">
        <ele>259.3</ele>
        <time>2026-03-09T12:22:31Z</time>
      </trkpt>
      <trkpt lat="49.02946" lon="7.82548">
        <ele>259.6</ele>
        <time>2026-03-09T12:22:36Z</time>
      </trkpt>
      <trkpt lat="49.02951" lon="7.82545">
        <ele>259.9</ele>
        <time>2026-03-09T12:22:41Z</time>
      </trkpt>
      <trkpt lat="49.02955" lon="7.82541">
        <ele>260.1</ele>
        <time>2026-03-09T12:22:46Z</time>
      </trkpt>
      <trkpt lat="49.02961" lon="7.82538">
        <ele>260.4</ele>
        <time>2026-03-09T12:22:51Z</time>
      </trkpt>
      <trkpt lat="49.02967" lon="7.82532">
        <ele>260.6</ele>
        <time>2026-03-09T12:22:56Z</time>
      </trkpt>
      <trkpt lat="49.0297" lon="7.82525">
        <ele>260.7</ele>
        <time>2026-03-09T12:23:01Z</time>
      </trkpt>
      <trkpt lat="49.02975" lon="7.82519">
        <ele>260.8</ele>
        <time>2026-03-09T12:23:06Z</time>
      </trkpt>
      <trkpt lat="49.02978" lon="7.82514">
        <ele>260.9</ele>
        <time>2026-03-09T12:23:11Z</time>
      </trkpt>
      <trkpt lat="49.02982" lon="7.82508">
        <ele>260.9</ele>
        <time>2026-03-09T12:23:16Z</time>
      </trkpt>
      <trkpt lat="49.02987" lon="7.82504">
        <ele>260.9</ele>
        <time>2026-03-09T12:23:21Z</time>
      </trkpt>
      <trkpt lat="49.02992" lon="7.82499">
        <ele>261</ele>
        <time>2026-03-09T12:23:26Z</time>
      </trkpt>
      <trkpt lat="49.02998" lon="7.82492">
        <ele>261.6</ele>
        <time>2026-03-09T12:23:31Z</time>
      </trkpt>
      <trkpt lat="49.03003" lon="7.82484">
        <ele>262.6</ele>
        <time>2026-03-09T12:23:36Z</time>
      </trkpt>
      <trkpt lat="49.03008" lon="7.82476">
        <ele>263.6</ele>
        <time>2026-03-09T12:23:41Z</time>
      </trkpt>
      <trkpt lat="49.03014" lon="7.82468">
        <ele>264.6</ele>
        <time>2026-03-09T12:23:46Z</time>
      </trkpt>
      <trkpt lat="49.03016" lon="7.82461">
        <ele>265.1</ele>
        <time>2026-03-09T12:23:51Z</time>
      </trkpt>
      <trkpt lat="49.03021" lon="7.82453">
        <ele>265.8</ele>
        <time>2026-03-09T12:23:56Z</time>
      </trkpt>
      <trkpt lat="49.03024" lon="7.82448">
        <ele>266.1</ele>
        <time>2026-03-09T12:24:01Z</time>
      </trkpt>
      <trkpt lat="49.03027" lon="7.82441">
        <ele>266.4</ele>
        <time>2026-03-09T12:24:06Z</time>
      </trkpt>
      <trkpt lat="49.0303" lon="7.82434">
        <ele>266.7</ele>
        <time>2026-03-09T12:24:11Z</time>
      </trkpt>
      <trkpt lat="49.03035" lon="7.82428">
        <ele>266.9</ele>
        <time>2026-03-09T12:24:16Z</time>
      </trkpt>
      <trkpt lat="49.03038" lon="7.82418">
        <ele>267.1</ele>
        <time>2026-03-09T12:24:21Z</time>
      </trkpt>
      <trkpt lat="49.03045" lon="7.8241">
        <ele>267.1</ele>
        <time>2026-03-09T12:24:26Z</time>
      </trkpt>
      <trkpt lat="49.03047" lon="7.82403">
        <ele>267.1</ele>
        <time>2026-03-09T12:24:31Z</time>
      </trkpt>
      <trkpt lat="49.03053" lon="7.82394">
        <ele>266.9</ele>
        <time>2026-03-09T12:24:36Z</time>
      </trkpt>
      <trkpt lat="49.03058" lon="7.82387">
        <ele>266.6</ele>
        <time>2026-03-09T12:24:41Z</time>
      </trkpt>
      <trkpt lat="49.03062" lon="7.82378">
        <ele>266.2</ele>
        <time>2026-03-09T12:24:46Z</time>
      </trkpt>
      <trkpt lat="49.03064" lon="7.82372">
        <ele>265.9</ele>
        <time>2026-03-09T12:24:51Z</time>
      </trkpt>
      <trkpt lat="49.03065" lon="7.82371">
        <ele>265.8</ele>
        <time>2026-03-09T12:24:56Z</time>
      </trkpt>
      <trkpt lat="49.03067" lon="7.82366">
        <ele>265.5</ele>
        <time>2026-03-09T12:25:01Z</time>
      </trkpt>
      <trkpt lat="49.03069" lon="7.82361">
        <ele>265.2</ele>
        <time>2026-03-09T12:25:06Z</time>
      </trkpt>
      <trkpt lat="49.03072" lon="7.82356">
        <ele>264.6</ele>
        <time>2026-03-09T12:25:11Z</time>
      </trkpt>
      <trkpt lat="49.03075" lon="7.82351">
        <ele>264.1</ele>
        <time>2026-03-09T12:25:16Z</time>
      </trkpt>
      <trkpt lat="49.03075" lon="7.82349">
        <ele>264</ele>
        <time>2026-03-09T12:25:21Z</time>
      </trkpt>
      <trkpt lat="49.03075" lon="7.8235">
        <ele>264</ele>
        <time>2026-03-09T12:25:26Z</time>
      </trkpt>
      <trkpt lat="49.03078" lon="7.82344">
        <ele>263.4</ele>
        <time>2026-03-09T12:25:31Z</time>
      </trkpt>
      <trkpt lat="49.03083" lon="7.82332">
        <ele>262.2</ele>
        <time>2026-03-09T12:25:36Z</time>
      </trkpt>
      <trkpt lat="49.03089" lon="7.82323">
        <ele>263.7</ele>
        <time>2026-03-09T12:25:41Z</time>
      </trkpt>
      <trkpt lat="49.03097" lon="7.82315">
        <ele>265</ele>
        <time>2026-03-09T12:25:46Z</time>
      </trkpt>
      <trkpt lat="49.03105" lon="7.82311">
        <ele>265.6</ele>
        <time>2026-03-09T12:25:51Z</time>
      </trkpt>
      <trkpt lat="49.03112" lon="7.82307">
        <ele>266</ele>
        <time>2026-03-09T12:25:56Z</time>
      </trkpt>
      <trkpt lat="49.03118" lon="7.82305">
        <ele>266.2</ele>
        <time>2026-03-09T12:26:01Z</time>
      </trkpt>
      <trkpt lat="49.03125" lon="7.82301">
        <ele>266.5</ele>
        <time>2026-03-09T12:26:06Z</time>
      </trkpt>
      <trkpt lat="49.03132" lon="7.82298">
        <ele>266.5</ele>
        <time>2026-03-09T12:26:11Z</time>
      </trkpt>
      <trkpt lat="49.03138" lon="7.82297">
        <ele>266.5</ele>
        <time>2026-03-09T12:26:16Z</time>
      </trkpt>
      <trkpt lat="49.03144" lon="7.82297">
        <ele>266.5</ele>
        <time>2026-03-09T12:26:21Z</time>
      </trkpt>
      <trkpt lat="49.0315" lon="7.82297">
        <ele>266.5</ele>
        <time>2026-03-09T12:26:26Z</time>
      </trkpt>
      <trkpt lat="49.03156" lon="7.82298">
        <ele>266.5</ele>
        <time>2026-03-09T12:26:31Z</time>
      </trkpt>
      <trkpt lat="49.03161" lon="7.82301">
        <ele>266.6</ele>
        <time>2026-03-09T12:26:36Z</time>
      </trkpt>
      <trkpt lat="49.03165" lon="7.82303">
        <ele>266.8</ele>
        <time>2026-03-09T12:26:41Z</time>
      </trkpt>
      <trkpt lat="49.03173" lon="7.82305">
        <ele>267.1</ele>
        <time>2026-03-09T12:26:46Z</time>
      </trkpt>
      <trkpt lat="49.03181" lon="7.82305">
        <ele>267.4</ele>
        <time>2026-03-09T12:26:51Z</time>
      </trkpt>
      <trkpt lat="49.03188" lon="7.82308">
        <ele>267.8</ele>
        <time>2026-03-09T12:26:56Z</time>
      </trkpt>
      <trkpt lat="49.03193" lon="7.82311">
        <ele>268.2</ele>
        <time>2026-03-09T12:27:01Z</time>
      </trkpt>
      <trkpt lat="49.03198" lon="7.82316">
        <ele>268.7</ele>
        <time>2026-03-09T12:27:06Z</time>
      </trkpt>
      <trkpt lat="49.03205" lon="7.82322">
        <ele>269.4</ele>
        <time>2026-03-09T12:27:11Z</time>
      </trkpt>
      <trkpt lat="49.03212" lon="7.82324">
        <ele>269.8</ele>
        <time>2026-03-09T12:27:16Z</time>
      </trkpt>
      <trkpt lat="49.03215" lon="7.82325">
        <ele>270</ele>
        <time>2026-03-09T12:27:21Z</time>
      </trkpt>
      <trkpt lat="49.0322" lon="7.82328">
        <ele>270.5</ele>
        <time>2026-03-09T12:27:26Z</time>
      </trkpt>
      <trkpt lat="49.03226" lon="7.82329">
        <ele>270.7</ele>
        <time>2026-03-09T12:27:31Z</time>
      </trkpt>
      <trkpt lat="49.03234" lon="7.82327">
        <ele>270.8</ele>
        <time>2026-03-09T12:27:36Z</time>
      </trkpt>
      <trkpt lat="49.03241" lon="7.82326">
        <ele>271</ele>
        <time>2026-03-09T12:27:41Z</time>
      </trkpt>
      <trkpt lat="49.03247" lon="7.82322">
        <ele>270.8</ele>
        <time>2026-03-09T12:27:46Z</time>
      </trkpt>
      <trkpt lat="49.03254" lon="7.82318">
        <ele>270.3</ele>
        <time>2026-03-09T12:27:51Z</time>
      </trkpt>
      <trkpt lat="49.03263" lon="7.8231">
        <ele>269.2</ele>
        <time>2026-03-09T12:27:56Z</time>
      </trkpt>
      <trkpt lat="49.03271" lon="7.82303">
        <ele>268.3</ele>
        <time>2026-03-09T12:28:01Z</time>
      </trkpt>
      <trkpt lat="49.03275" lon="7.82298">
        <ele>267.7</ele>
        <time>2026-03-09T12:28:06Z</time>
      </trkpt>
      <trkpt lat="49.03278" lon="7.82297">
        <ele>267.6</ele>
        <time>2026-03-09T12:28:11Z</time>
      </trkpt>
      <trkpt lat="49.0328" lon="7.82299">
        <ele>267.6</ele>
        <time>2026-03-09T12:28:16Z</time>
      </trkpt>
      <trkpt lat="49.0328" lon="7.82299">
        <ele>267.6</ele>
        <time>2026-03-09T12:28:21Z</time>
      </trkpt>
      <trkpt lat="49.0328" lon="7.82299">
        <ele>267.6</ele>
        <time>2026-03-09T12:28:26Z</time>
      </trkpt>
      <trkpt lat="49.0328" lon="7.82299">
        <ele>267.6</ele>
        <time>2026-03-09T12:28:31Z</time>
      </trkpt>
      <trkpt lat="49.03285" lon="7.82289">
        <ele>266.8</ele>
        <time>2026-03-09T12:28:36Z</time>
      </trkpt>
      <trkpt lat="49.03289" lon="7.82285">
        <ele>266.4</ele>
        <time>2026-03-09T12:28:41Z</time>
      </trkpt>
      <trkpt lat="49.03295" lon="7.82278">
        <ele>265.8</ele>
        <time>2026-03-09T12:28:46Z</time>
      </trkpt>
      <trkpt lat="49.03301" lon="7.82275">
        <ele>265.5</ele>
        <time>2026-03-09T12:28:51Z</time>
      </trkpt>
      <trkpt lat="49.03306" lon="7.82271">
        <ele>265.2</ele>
        <time>2026-03-09T12:28:56Z</time>
      </trkpt>
      <trkpt lat="49.03311" lon="7.82268">
        <ele>264.9</ele>
        <time>2026-03-09T12:29:01Z</time>
      </trkpt>
      <trkpt lat="49.03318" lon="7.82266">
        <ele>264.8</ele>
        <time>2026-03-09T12:29:06Z</time>
      </trkpt>
      <trkpt lat="49.03324" lon="7.82262">
        <ele>264.5</ele>
        <time>2026-03-09T12:29:11Z</time>
      </trkpt>
      <trkpt lat="49.0333" lon="7.82258">
        <ele>264.3</ele>
        <time>2026-03-09T12:29:16Z</time>
      </trkpt>
      <trkpt lat="49.03337" lon="7.82254">
        <ele>264.2</ele>
        <time>2026-03-09T12:29:21Z</time>
      </trkpt>
      <trkpt lat="49.03343" lon="7.8225">
        <ele>264.1</ele>
        <time>2026-03-09T12:29:26Z</time>
      </trkpt>
      <trkpt lat="49.03347" lon="7.82246">
        <ele>264.2</ele>
        <time>2026-03-09T12:29:31Z</time>
      </trkpt>
      <trkpt lat="49.03351" lon="7.8224">
        <ele>264.4</ele>
        <time>2026-03-09T12:29:36Z</time>
      </trkpt>
      <trkpt lat="49.03354" lon="7.82236">
        <ele>264.6</ele>
        <time>2026-03-09T12:29:41Z</time>
      </trkpt>
      <trkpt lat="49.03357" lon="7.82233">
        <ele>264.7</ele>
        <time>2026-03-09T12:29:46Z</time>
      </trkpt>
      <trkpt lat="49.03359" lon="7.82231">
        <ele>264.8</ele>
        <time>2026-03-09T12:29:51Z</time>
      </trkpt>
      <trkpt lat="49.03365" lon="7.82224">
        <ele>265.2</ele>
        <time>2026-03-09T12:29:56Z</time>
      </trkpt>
      <trkpt lat="49.03372" lon="7.82215">
        <ele>265.7</ele>
        <time>2026-03-09T12:30:01Z</time>
      </trkpt>
      <trkpt lat="49.03375" lon="7.82208">
        <ele>266</ele>
        <time>2026-03-09T12:30:06Z</time>
      </trkpt>
      <trkpt lat="49.03378" lon="7.82203">
        <ele>266.3</ele>
        <time>2026-03-09T12:30:11Z</time>
      </trkpt>
      <trkpt lat="49.03381" lon="7.82201">
        <ele>266.5</ele>
        <time>2026-03-09T12:30:16Z</time>
      </trkpt>
      <trkpt lat="49.03386" lon="7.82198">
        <ele>266.8</ele>
        <time>2026-03-09T12:30:21Z</time>
      </trkpt>
      <trkpt lat="49.0339" lon="7.82196">
        <ele>267.1</ele>
        <time>2026-03-09T12:30:26Z</time>
      </trkpt>
      <trkpt lat="49.034" lon="7.8219">
        <ele>267.8</ele>
        <time>2026-03-09T12:30:31Z</time>
      </trkpt>
      <trkpt lat="49.03409" lon="7.82182">
        <ele>268.7</ele>
        <time>2026-03-09T12:30:36Z</time>
      </trkpt>
      <trkpt lat="49.03414" lon="7.82178">
        <ele>269.2</ele>
        <time>2026-03-09T12:30:41Z</time>
      </trkpt>
      <trkpt lat="49.03419" lon="7.82173">
        <ele>269.7</ele>
        <time>2026-03-09T12:30:46Z</time>
      </trkpt>
      <trkpt lat="49.03426" lon="7.82168">
        <ele>270</ele>
        <time>2026-03-09T12:30:51Z</time>
      </trkpt>
      <trkpt lat="49.0343" lon="7.82164">
        <ele>270.4</ele>
        <time>2026-03-09T12:30:56Z</time>
      </trkpt>
      <trkpt lat="49.03435" lon="7.82157">
        <ele>271.1</ele>
        <time>2026-03-09T12:31:01Z</time>
      </trkpt>
      <trkpt lat="49.03438" lon="7.82147">
        <ele>272</ele>
        <time>2026-03-09T12:31:06Z</time>
      </trkpt>
      <trkpt lat="49.03442" lon="7.82139">
        <ele>272.7</ele>
        <time>2026-03-09T12:31:11Z</time>
      </trkpt>
      <trkpt lat="49.03446" lon="7.82131">
        <ele>273.3</ele>
        <time>2026-03-09T12:31:16Z</time>
      </trkpt>
      <trkpt lat="49.03453" lon="7.82125">
        <ele>273.6</ele>
        <time>2026-03-09T12:31:21Z</time>
      </trkpt>
      <trkpt lat="49.0346" lon="7.82121">
        <ele>273.7</ele>
        <time>2026-03-09T12:31:26Z</time>
      </trkpt>
      <trkpt lat="49.03464" lon="7.82116">
        <ele>274</ele>
        <time>2026-03-09T12:31:31Z</time>
      </trkpt>
      <trkpt lat="49.03467" lon="7.82109">
        <ele>274.3</ele>
        <time>2026-03-09T12:31:36Z</time>
      </trkpt>
      <trkpt lat="49.0347" lon="7.821">
        <ele>274.8</ele>
        <time>2026-03-09T12:31:41Z</time>
      </trkpt>
      <trkpt lat="49.03472" lon="7.82088">
        <ele>275.4</ele>
        <time>2026-03-09T12:31:46Z</time>
      </trkpt>
      <trkpt lat="49.03474" lon="7.82078">
        <ele>276.1</ele>
        <time>2026-03-09T12:31:51Z</time>
      </trkpt>
      <trkpt lat="49.03476" lon="7.82065">
        <ele>277.4</ele>
        <time>2026-03-09T12:31:56Z</time>
      </trkpt>
      <trkpt lat="49.0348" lon="7.82056">
        <ele>278</ele>
        <time>2026-03-09T12:32:01Z</time>
      </trkpt>
      <trkpt lat="49.03483" lon="7.82047">
        <ele>278.6</ele>
        <time>2026-03-09T12:32:06Z</time>
      </trkpt>
      <trkpt lat="49.03486" lon="7.8204">
        <ele>279</ele>
        <time>2026-03-09T12:32:11Z</time>
      </trkpt>
      <trkpt lat="49.03489" lon="7.8203">
        <ele>279.6</ele>
        <time>2026-03-09T12:32:16Z</time>
      </trkpt>
      <trkpt lat="49.03488" lon="7.82022">
        <ele>280.5</ele>
        <time>2026-03-09T12:32:21Z</time>
      </trkpt>
      <trkpt lat="49.03484" lon="7.82021">
        <ele>281.1</ele>
        <time>2026-03-09T12:32:26Z</time>
      </trkpt>
      <trkpt lat="49.03488" lon="7.82016">
        <ele>281.1</ele>
        <time>2026-03-09T12:32:31Z</time>
      </trkpt>
      <trkpt lat="49.03493" lon="7.82012">
        <ele>280.8</ele>
        <time>2026-03-09T12:32:36Z</time>
      </trkpt>
      <trkpt lat="49.03497" lon="7.82003">
        <ele>281.1</ele>
        <time>2026-03-09T12:32:41Z</time>
      </trkpt>
      <trkpt lat="49.03498" lon="7.81994">
        <ele>282.3</ele>
        <time>2026-03-09T12:32:46Z</time>
      </trkpt>
      <trkpt lat="49.03499" lon="7.81985">
        <ele>283.7</ele>
        <time>2026-03-09T12:32:51Z</time>
      </trkpt>
      <trkpt lat="49.03499" lon="7.8198">
        <ele>284.5</ele>
        <time>2026-03-09T12:32:56Z</time>
      </trkpt>
      <trkpt lat="49.03503" lon="7.81972">
        <ele>285.7</ele>
        <time>2026-03-09T12:33:01Z</time>
      </trkpt>
      <trkpt lat="49.03509" lon="7.8196">
        <ele>287.4</ele>
        <time>2026-03-09T12:33:06Z</time>
      </trkpt>
      <trkpt lat="49.03514" lon="7.81949">
        <ele>288.7</ele>
        <time>2026-03-09T12:33:11Z</time>
      </trkpt>
      <trkpt lat="49.03516" lon="7.81942">
        <ele>289.5</ele>
        <time>2026-03-09T12:33:16Z</time>
      </trkpt>
      <trkpt lat="49.03518" lon="7.81934">
        <ele>290.3</ele>
        <time>2026-03-09T12:33:21Z</time>
      </trkpt>
      <trkpt lat="49.03522" lon="7.81921">
        <ele>291.4</ele>
        <time>2026-03-09T12:33:26Z</time>
      </trkpt>
      <trkpt lat="49.03526" lon="7.81913">
        <ele>292.1</ele>
        <time>2026-03-09T12:33:31Z</time>
      </trkpt>
      <trkpt lat="49.0353" lon="7.81905">
        <ele>293.3</ele>
        <time>2026-03-09T12:33:36Z</time>
      </trkpt>
      <trkpt lat="49.03534" lon="7.81898">
        <ele>294.1</ele>
        <time>2026-03-09T12:33:41Z</time>
      </trkpt>
      <trkpt lat="49.03537" lon="7.81888">
        <ele>295.5</ele>
        <time>2026-03-09T12:33:46Z</time>
      </trkpt>
      <trkpt lat="49.03539" lon="7.81882">
        <ele>296.3</ele>
        <time>2026-03-09T12:33:51Z</time>
      </trkpt>
      <trkpt lat="49.03541" lon="7.81878">
        <ele>296.6</ele>
        <time>2026-03-09T12:33:56Z</time>
      </trkpt>
      <trkpt lat="49.03545" lon="7.81872">
        <ele>296.7</ele>
        <time>2026-03-09T12:34:01Z</time>
      </trkpt>
      <trkpt lat="49.03552" lon="7.81866">
        <ele>295.9</ele>
        <time>2026-03-09T12:34:06Z</time>
      </trkpt>
      <trkpt lat="49.03555" lon="7.81859">
        <ele>296.2</ele>
        <time>2026-03-09T12:34:11Z</time>
      </trkpt>
      <trkpt lat="49.0356" lon="7.81851">
        <ele>295.8</ele>
        <time>2026-03-09T12:34:16Z</time>
      </trkpt>
      <trkpt lat="49.03564" lon="7.8184">
        <ele>296.1</ele>
        <time>2026-03-09T12:34:21Z</time>
      </trkpt>
      <trkpt lat="49.03569" lon="7.81834">
        <ele>295.1</ele>
        <time>2026-03-09T12:34:26Z</time>
      </trkpt>
      <trkpt lat="49.03574" lon="7.8183">
        <ele>294.3</ele>
        <time>2026-03-09T12:34:31Z</time>
      </trkpt>
      <trkpt lat="49.03578" lon="7.81824">
        <ele>294.4</ele>
        <time>2026-03-09T12:34:36Z</time>
      </trkpt>
      <trkpt lat="49.03581" lon="7.81817">
        <ele>295.2</ele>
        <time>2026-03-09T12:34:41Z</time>
      </trkpt>
      <trkpt lat="49.03587" lon="7.81808">
        <ele>296.5</ele>
        <time>2026-03-09T12:34:46Z</time>
      </trkpt>
      <trkpt lat="49.03592" lon="7.81801">
        <ele>297.9</ele>
        <time>2026-03-09T12:34:51Z</time>
      </trkpt>
      <trkpt lat="49.03597" lon="7.81797">
        <ele>298.4</ele>
        <time>2026-03-09T12:34:56Z</time>
      </trkpt>
      <trkpt lat="49.03599" lon="7.81794">
        <ele>298.8</ele>
        <time>2026-03-09T12:35:01Z</time>
      </trkpt>
      <trkpt lat="49.03603" lon="7.81788">
        <ele>299.6</ele>
        <time>2026-03-09T12:35:06Z</time>
      </trkpt>
      <trkpt lat="49.03608" lon="7.81779">
        <ele>300.5</ele>
        <time>2026-03-09T12:35:11Z</time>
      </trkpt>
      <trkpt lat="49.03613" lon="7.81773">
        <ele>300.7</ele>
        <time>2026-03-09T12:35:16Z</time>
      </trkpt>
      <trkpt lat="49.03617" lon="7.81764">
        <ele>301.2</ele>
        <time>2026-03-09T12:35:21Z</time>
      </trkpt>
      <trkpt lat="49.03623" lon="7.81758">
        <ele>300.6</ele>
        <time>2026-03-09T12:35:26Z</time>
      </trkpt>
      <trkpt lat="49.03629" lon="7.8175">
        <ele>299.9</ele>
        <time>2026-03-09T12:35:31Z</time>
      </trkpt>
      <trkpt lat="49.03636" lon="7.81742">
        <ele>300.5</ele>
        <time>2026-03-09T12:35:36Z</time>
      </trkpt>
      <trkpt lat="49.03642" lon="7.81734">
        <ele>301.3</ele>
        <time>2026-03-09T12:35:41Z</time>
      </trkpt>
      <trkpt lat="49.03647" lon="7.81728">
        <ele>301.8</ele>
        <time>2026-03-09T12:35:46Z</time>
      </trkpt>
      <trkpt lat="49.03655" lon="7.81725">
        <ele>300.4</ele>
        <time>2026-03-09T12:35:51Z</time>
      </trkpt>
      <trkpt lat="49.03661" lon="7.81722">
        <ele>299.7</ele>
        <time>2026-03-09T12:35:56Z</time>
      </trkpt>
      <trkpt lat="49.03667" lon="7.81717">
        <ele>299.5</ele>
        <time>2026-03-09T12:36:01Z</time>
      </trkpt>
      <trkpt lat="49.03674" lon="7.81714">
        <ele>300</ele>
        <time>2026-03-09T12:36:06Z</time>
      </trkpt>
      <trkpt lat="49.03678" lon="7.81711">
        <ele>300.5</ele>
        <time>2026-03-09T12:36:11Z</time>
      </trkpt>
      <trkpt lat="49.03681" lon="7.81707">
        <ele>301.2</ele>
        <time>2026-03-09T12:36:16Z</time>
      </trkpt>
      <trkpt lat="49.03685" lon="7.81704">
        <ele>301.5</ele>
        <time>2026-03-09T12:36:21Z</time>
      </trkpt>
      <trkpt lat="49.03685" lon="7.81703">
        <ele>301.7</ele>
        <time>2026-03-09T12:36:26Z</time>
      </trkpt>
      <trkpt lat="49.03685" lon="7.81703">
        <ele>301.7</ele>
        <time>2026-03-09T12:36:31Z</time>
      </trkpt>
      <trkpt lat="49.0369" lon="7.81694">
        <ele>303</ele>
        <time>2026-03-09T12:36:36Z</time>
      </trkpt>
      <trkpt lat="49.03696" lon="7.81694">
        <ele>302.2</ele>
        <time>2026-03-09T12:36:41Z</time>
      </trkpt>
      <trkpt lat="49.03703" lon="7.81694">
        <ele>301.3</ele>
        <time>2026-03-09T12:36:46Z</time>
      </trkpt>
      <trkpt lat="49.03709" lon="7.81691">
        <ele>300.8</ele>
        <time>2026-03-09T12:36:51Z</time>
      </trkpt>
      <trkpt lat="49.03714" lon="7.81689">
        <ele>300.3</ele>
        <time>2026-03-09T12:36:56Z</time>
      </trkpt>
      <trkpt lat="49.0372" lon="7.81686">
        <ele>299.6</ele>
        <time>2026-03-09T12:37:01Z</time>
      </trkpt>
      <trkpt lat="49.03723" lon="7.81685">
        <ele>299.2</ele>
        <time>2026-03-09T12:37:06Z</time>
      </trkpt>
      <trkpt lat="49.03726" lon="7.81681">
        <ele>298.9</ele>
        <time>2026-03-09T12:37:11Z</time>
      </trkpt>
      <trkpt lat="49.0373" lon="7.81678">
        <ele>298.3</ele>
        <time>2026-03-09T12:37:16Z</time>
      </trkpt>
      <trkpt lat="49.03732" lon="7.81674">
        <ele>298.1</ele>
        <time>2026-03-09T12:37:21Z</time>
      </trkpt>
      <trkpt lat="49.03736" lon="7.81671">
        <ele>297.3</ele>
        <time>2026-03-09T12:37:26Z</time>
      </trkpt>
      <trkpt lat="49.03743" lon="7.81667">
        <ele>295.7</ele>
        <time>2026-03-09T12:37:31Z</time>
      </trkpt>
      <trkpt lat="49.03749" lon="7.81665">
        <ele>294.7</ele>
        <time>2026-03-09T12:37:36Z</time>
      </trkpt>
      <trkpt lat="49.03755" lon="7.81663">
        <ele>295.4</ele>
        <time>2026-03-09T12:37:41Z</time>
      </trkpt>
      <trkpt lat="49.0376" lon="7.81662">
        <ele>295.9</ele>
        <time>2026-03-09T12:37:46Z</time>
      </trkpt>
      <trkpt lat="49.03766" lon="7.81661">
        <ele>296.5</ele>
        <time>2026-03-09T12:37:51Z</time>
      </trkpt>
      <trkpt lat="49.0377" lon="7.81659">
        <ele>297.1</ele>
        <time>2026-03-09T12:37:56Z</time>
      </trkpt>
      <trkpt lat="49.03779" lon="7.81653">
        <ele>298.9</ele>
        <time>2026-03-09T12:38:01Z</time>
      </trkpt>
      <trkpt lat="49.03785" lon="7.81649">
        <ele>300</ele>
        <time>2026-03-09T12:38:06Z</time>
      </trkpt>
      <trkpt lat="49.03787" lon="7.81649">
        <ele>300</ele>
        <time>2026-03-09T12:38:11Z</time>
      </trkpt>
      <trkpt lat="49.03787" lon="7.81649">
        <ele>300</ele>
        <time>2026-03-09T12:38:16Z</time>
      </trkpt>
      <trkpt lat="49.03799" lon="7.81647">
        <ele>300.6</ele>
        <time>2026-03-09T12:38:21Z</time>
      </trkpt>
      <trkpt lat="49.03804" lon="7.81649">
        <ele>300.3</ele>
        <time>2026-03-09T12:38:26Z</time>
      </trkpt>
      <trkpt lat="49.03813" lon="7.81653">
        <ele>299.9</ele>
        <time>2026-03-09T12:38:31Z</time>
      </trkpt>
      <trkpt lat="49.03821" lon="7.81654">
        <ele>300</ele>
        <time>2026-03-09T12:38:36Z</time>
      </trkpt>
      <trkpt lat="49.03827" lon="7.81656">
        <ele>299.9</ele>
        <time>2026-03-09T12:38:41Z</time>
      </trkpt>
      <trkpt lat="49.03833" lon="7.81658">
        <ele>299.9</ele>
        <time>2026-03-09T12:38:46Z</time>
      </trkpt>
      <trkpt lat="49.0384" lon="7.81661">
        <ele>299.8</ele>
        <time>2026-03-09T12:38:51Z</time>
      </trkpt>
      <trkpt lat="49.03847" lon="7.81668">
        <ele>299.8</ele>
        <time>2026-03-09T12:38:56Z</time>
      </trkpt>
      <trkpt lat="49.03857" lon="7.81673">
        <ele>301.3</ele>
        <time>2026-03-09T12:39:01Z</time>
      </trkpt>
      <trkpt lat="49.03866" lon="7.81677">
        <ele>302.6</ele>
        <time>2026-03-09T12:39:06Z</time>
      </trkpt>
      <trkpt lat="49.03873" lon="7.81679">
        <ele>303.4</ele>
        <time>2026-03-09T12:39:11Z</time>
      </trkpt>
      <trkpt lat="49.03879" lon="7.81684">
        <ele>304.8</ele>
        <time>2026-03-09T12:39:16Z</time>
      </trkpt>
      <trkpt lat="49.03887" lon="7.81685">
        <ele>305.4</ele>
        <time>2026-03-09T12:39:21Z</time>
      </trkpt>
      <trkpt lat="49.03893" lon="7.81683">
        <ele>305.2</ele>
        <time>2026-03-09T12:39:26Z</time>
      </trkpt>
      <trkpt lat="49.039" lon="7.81678">
        <ele>304.2</ele>
        <time>2026-03-09T12:39:31Z</time>
      </trkpt>
      <trkpt lat="49.03903" lon="7.81675">
        <ele>303.6</ele>
        <time>2026-03-09T12:39:36Z</time>
      </trkpt>
      <trkpt lat="49.03908" lon="7.81669">
        <ele>302.3</ele>
        <time>2026-03-09T12:39:41Z</time>
      </trkpt>
      <trkpt lat="49.03913" lon="7.81663">
        <ele>302.1</ele>
        <time>2026-03-09T12:39:46Z</time>
      </trkpt>
      <trkpt lat="49.03918" lon="7.81654">
        <ele>302.5</ele>
        <time>2026-03-09T12:39:51Z</time>
      </trkpt>
      <trkpt lat="49.03922" lon="7.81643">
        <ele>302.6</ele>
        <time>2026-03-09T12:39:56Z</time>
      </trkpt>
      <trkpt lat="49.03926" lon="7.81631">
        <ele>302.7</ele>
        <time>2026-03-09T12:40:01Z</time>
      </trkpt>
      <trkpt lat="49.03929" lon="7.81624">
        <ele>302.6</ele>
        <time>2026-03-09T12:40:06Z</time>
      </trkpt>
      <trkpt lat="49.03932" lon="7.81624">
        <ele>302.3</ele>
        <time>2026-03-09T12:40:11Z</time>
      </trkpt>
      <trkpt lat="49.03932" lon="7.81625">
        <ele>302.3</ele>
        <time>2026-03-09T12:40:16Z</time>
      </trkpt>
      <trkpt lat="49.03932" lon="7.81625">
        <ele>302.3</ele>
        <time>2026-03-09T12:40:21Z</time>
      </trkpt>
      <trkpt lat="49.03932" lon="7.81625">
        <ele>302.3</ele>
        <time>2026-03-09T12:40:26Z</time>
      </trkpt>
      <trkpt lat="49.03932" lon="7.81625">
        <ele>302.3</ele>
        <time>2026-03-09T12:40:31Z</time>
      </trkpt>
      <trkpt lat="49.03935" lon="7.81622">
        <ele>302</ele>
        <time>2026-03-09T12:40:36Z</time>
      </trkpt>
      <trkpt lat="49.03941" lon="7.81614">
        <ele>301.6</ele>
        <time>2026-03-09T12:40:41Z</time>
      </trkpt>
      <trkpt lat="49.03945" lon="7.81609">
        <ele>301.2</ele>
        <time>2026-03-09T12:40:46Z</time>
      </trkpt>
      <trkpt lat="49.0395" lon="7.81601">
        <ele>300.8</ele>
        <time>2026-03-09T12:40:51Z</time>
      </trkpt>
      <trkpt lat="49.03956" lon="7.816">
        <ele>300</ele>
        <time>2026-03-09T12:40:56Z</time>
      </trkpt>
      <trkpt lat="49.03961" lon="7.81597">
        <ele>299.4</ele>
        <time>2026-03-09T12:41:01Z</time>
      </trkpt>
      <trkpt lat="49.03963" lon="7.81593">
        <ele>299.2</ele>
        <time>2026-03-09T12:41:06Z</time>
      </trkpt>
      <trkpt lat="49.03964" lon="7.8159">
        <ele>299.1</ele>
        <time>2026-03-09T12:41:11Z</time>
      </trkpt>
      <trkpt lat="49.03967" lon="7.81583">
        <ele>298.9</ele>
        <time>2026-03-09T12:41:16Z</time>
      </trkpt>
      <trkpt lat="49.03969" lon="7.81578">
        <ele>300.2</ele>
        <time>2026-03-09T12:41:21Z</time>
      </trkpt>
      <trkpt lat="49.03972" lon="7.81573">
        <ele>301.3</ele>
        <time>2026-03-09T12:41:26Z</time>
      </trkpt>
      <trkpt lat="49.03974" lon="7.81572">
        <ele>301.3</ele>
        <time>2026-03-09T12:41:31Z</time>
      </trkpt>
      <trkpt lat="49.03976" lon="7.81567">
        <ele>302.6</ele>
        <time>2026-03-09T12:41:36Z</time>
      </trkpt>
      <trkpt lat="49.03978" lon="7.81561">
        <ele>304.2</ele>
        <time>2026-03-09T12:41:41Z</time>
      </trkpt>
      <trkpt lat="49.03983" lon="7.81553">
        <ele>305.8</ele>
        <time>2026-03-09T12:41:46Z</time>
      </trkpt>
      <trkpt lat="49.03985" lon="7.8155">
        <ele>306.3</ele>
        <time>2026-03-09T12:41:51Z</time>
      </trkpt>
      <trkpt lat="49.03988" lon="7.81547">
        <ele>306.7</ele>
        <time>2026-03-09T12:41:56Z</time>
      </trkpt>
      <trkpt lat="49.03996" lon="7.8154">
        <ele>307.3</ele>
        <time>2026-03-09T12:42:01Z</time>
      </trkpt>
      <trkpt lat="49.04001" lon="7.81532">
        <ele>308.6</ele>
        <time>2026-03-09T12:42:06Z</time>
      </trkpt>
      <trkpt lat="49.04008" lon="7.81526">
        <ele>308.9</ele>
        <time>2026-03-09T12:42:11Z</time>
      </trkpt>
      <trkpt lat="49.04013" lon="7.81521">
        <ele>309.1</ele>
        <time>2026-03-09T12:42:16Z</time>
      </trkpt>
      <trkpt lat="49.04017" lon="7.81517">
        <ele>309.1</ele>
        <time>2026-03-09T12:42:21Z</time>
      </trkpt>
      <trkpt lat="49.04022" lon="7.81517">
        <ele>308</ele>
        <time>2026-03-09T12:42:26Z</time>
      </trkpt>
      <trkpt lat="49.04025" lon="7.81511">
        <ele>308.4</ele>
        <time>2026-03-09T12:42:31Z</time>
      </trkpt>
      <trkpt lat="49.04033" lon="7.81497">
        <ele>308.9</ele>
        <time>2026-03-09T12:42:36Z</time>
      </trkpt>
      <trkpt lat="49.04037" lon="7.81491">
        <ele>309.2</ele>
        <time>2026-03-09T12:42:41Z</time>
      </trkpt>
      <trkpt lat="49.04043" lon="7.81484">
        <ele>309</ele>
        <time>2026-03-09T12:42:46Z</time>
      </trkpt>
      <trkpt lat="49.04048" lon="7.81478">
        <ele>308.8</ele>
        <time>2026-03-09T12:42:51Z</time>
      </trkpt>
      <trkpt lat="49.04054" lon="7.81472">
        <ele>308.2</ele>
        <time>2026-03-09T12:42:56Z</time>
      </trkpt>
      <trkpt lat="49.04061" lon="7.81467">
        <ele>307</ele>
        <time>2026-03-09T12:43:01Z</time>
      </trkpt>
      <trkpt lat="49.04063" lon="7.81461">
        <ele>307.6</ele>
        <time>2026-03-09T12:43:06Z</time>
      </trkpt>
      <trkpt lat="49.04068" lon="7.81454">
        <ele>307.3</ele>
        <time>2026-03-09T12:43:11Z</time>
      </trkpt>
      <trkpt lat="49.04072" lon="7.81448">
        <ele>307.1</ele>
        <time>2026-03-09T12:43:16Z</time>
      </trkpt>
      <trkpt lat="49.04073" lon="7.81447">
        <ele>307</ele>
        <time>2026-03-09T12:43:21Z</time>
      </trkpt>
      <trkpt lat="49.04081" lon="7.81439">
        <ele>305.6</ele>
        <time>2026-03-09T12:43:26Z</time>
      </trkpt>
      <trkpt lat="49.04086" lon="7.81436">
        <ele>304.9</ele>
        <time>2026-03-09T12:43:31Z</time>
      </trkpt>
      <trkpt lat="49.04093" lon="7.81432">
        <ele>304.6</ele>
        <time>2026-03-09T12:43:36Z</time>
      </trkpt>
      <trkpt lat="49.04097" lon="7.81428">
        <ele>304.5</ele>
        <time>2026-03-09T12:43:41Z</time>
      </trkpt>
      <trkpt lat="49.04103" lon="7.81421">
        <ele>304.3</ele>
        <time>2026-03-09T12:43:46Z</time>
      </trkpt>
      <trkpt lat="49.04114" lon="7.81411">
        <ele>303.3</ele>
        <time>2026-03-09T12:43:51Z</time>
      </trkpt>
      <trkpt lat="49.04122" lon="7.81405">
        <ele>302.5</ele>
        <time>2026-03-09T12:43:56Z</time>
      </trkpt>
      <trkpt lat="49.04127" lon="7.814">
        <ele>302</ele>
        <time>2026-03-09T12:44:01Z</time>
      </trkpt>
      <trkpt lat="49.04131" lon="7.81395">
        <ele>301.7</ele>
        <time>2026-03-09T12:44:06Z</time>
      </trkpt>
      <trkpt lat="49.04137" lon="7.81393">
        <ele>300.5</ele>
        <time>2026-03-09T12:44:11Z</time>
      </trkpt>
      <trkpt lat="49.04142" lon="7.81389">
        <ele>299.7</ele>
        <time>2026-03-09T12:44:16Z</time>
      </trkpt>
      <trkpt lat="49.04147" lon="7.81386">
        <ele>298.8</ele>
        <time>2026-03-09T12:44:21Z</time>
      </trkpt>
      <trkpt lat="49.04154" lon="7.81384">
        <ele>297.1</ele>
        <time>2026-03-09T12:44:26Z</time>
      </trkpt>
      <trkpt lat="49.0416" lon="7.81383">
        <ele>295.6</ele>
        <time>2026-03-09T12:44:31Z</time>
      </trkpt>
      <trkpt lat="49.04166" lon="7.81381">
        <ele>294.2</ele>
        <time>2026-03-09T12:44:36Z</time>
      </trkpt>
      <trkpt lat="49.04173" lon="7.81379">
        <ele>294.6</ele>
        <time>2026-03-09T12:44:41Z</time>
      </trkpt>
      <trkpt lat="49.04176" lon="7.81378">
        <ele>294.9</ele>
        <time>2026-03-09T12:44:46Z</time>
      </trkpt>
      <trkpt lat="49.04183" lon="7.81378">
        <ele>295.5</ele>
        <time>2026-03-09T12:44:51Z</time>
      </trkpt>
      <trkpt lat="49.0419" lon="7.81376">
        <ele>296.1</ele>
        <time>2026-03-09T12:44:56Z</time>
      </trkpt>
      <trkpt lat="49.04198" lon="7.81374">
        <ele>296.8</ele>
        <time>2026-03-09T12:45:01Z</time>
      </trkpt>
      <trkpt lat="49.04204" lon="7.81374">
        <ele>297.3</ele>
        <time>2026-03-09T12:45:06Z</time>
      </trkpt>
      <trkpt lat="49.04212" lon="7.81372">
        <ele>297.9</ele>
        <time>2026-03-09T12:45:11Z</time>
      </trkpt>
      <trkpt lat="49.04217" lon="7.81375">
        <ele>298.1</ele>
        <time>2026-03-09T12:45:16Z</time>
      </trkpt>
      <trkpt lat="49.04225" lon="7.81376">
        <ele>298.6</ele>
        <time>2026-03-09T12:45:21Z</time>
      </trkpt>
      <trkpt lat="49.04229" lon="7.8138">
        <ele>298.7</ele>
        <time>2026-03-09T12:45:26Z</time>
      </trkpt>
      <trkpt lat="49.04231" lon="7.81384">
        <ele>298.7</ele>
        <time>2026-03-09T12:45:31Z</time>
      </trkpt>
      <trkpt lat="49.04243" lon="7.81387">
        <ele>299.5</ele>
        <time>2026-03-09T12:45:36Z</time>
      </trkpt>
      <trkpt lat="49.04257" lon="7.81386">
        <ele>300.3</ele>
        <time>2026-03-09T12:45:41Z</time>
      </trkpt>
      <trkpt lat="49.04264" lon="7.81387">
        <ele>300.5</ele>
        <time>2026-03-09T12:45:46Z</time>
      </trkpt>
      <trkpt lat="49.0427" lon="7.81389">
        <ele>300.6</ele>
        <time>2026-03-09T12:45:51Z</time>
      </trkpt>
      <trkpt lat="49.04276" lon="7.81389">
        <ele>300.7</ele>
        <time>2026-03-09T12:45:56Z</time>
      </trkpt>
      <trkpt lat="49.04281" lon="7.81388">
        <ele>300.9</ele>
        <time>2026-03-09T12:46:01Z</time>
      </trkpt>
      <trkpt lat="49.04287" lon="7.81387">
        <ele>301.1</ele>
        <time>2026-03-09T12:46:06Z</time>
      </trkpt>
      <trkpt lat="49.04293" lon="7.81386">
        <ele>301.4</ele>
        <time>2026-03-09T12:46:11Z</time>
      </trkpt>
      <trkpt lat="49.043" lon="7.81384">
        <ele>301.7</ele>
        <time>2026-03-09T12:46:16Z</time>
      </trkpt>
      <trkpt lat="49.04308" lon="7.81383">
        <ele>302</ele>
        <time>2026-03-09T12:46:21Z</time>
      </trkpt>
      <trkpt lat="49.04316" lon="7.81384">
        <ele>302.2</ele>
        <time>2026-03-09T12:46:26Z</time>
      </trkpt>
      <trkpt lat="49.04323" lon="7.81385">
        <ele>302.3</ele>
        <time>2026-03-09T12:46:31Z</time>
      </trkpt>
      <trkpt lat="49.04331" lon="7.81387">
        <ele>302.4</ele>
        <time>2026-03-09T12:46:36Z</time>
      </trkpt>
      <trkpt lat="49.04335" lon="7.81381">
        <ele>302.9</ele>
        <time>2026-03-09T12:46:41Z</time>
      </trkpt>
      <trkpt lat="49.04338" lon="7.81372">
        <ele>303.6</ele>
        <time>2026-03-09T12:46:46Z</time>
      </trkpt>
      <trkpt lat="49.04336" lon="7.81361">
        <ele>304.6</ele>
        <time>2026-03-09T12:46:51Z</time>
      </trkpt>
      <trkpt lat="49.04331" lon="7.81357">
        <ele>304.9</ele>
        <time>2026-03-09T12:46:56Z</time>
      </trkpt>
      <trkpt lat="49.04325" lon="7.81357">
        <ele>304.6</ele>
        <time>2026-03-09T12:47:01Z</time>
      </trkpt>
      <trkpt lat="49.04318" lon="7.8136">
        <ele>304.1</ele>
        <time>2026-03-09T12:47:06Z</time>
      </trkpt>
      <trkpt lat="49.04311" lon="7.8136">
        <ele>303.8</ele>
        <time>2026-03-09T12:47:11Z</time>
      </trkpt>
      <trkpt lat="49.04306" lon="7.81358">
        <ele>303.7</ele>
        <time>2026-03-09T12:47:16Z</time>
      </trkpt>
      <trkpt lat="49.04307" lon="7.81361">
        <ele>303.5</ele>
        <time>2026-03-09T12:47:21Z</time>
      </trkpt>
      <trkpt lat="49.04315" lon="7.81362">
        <ele>303.8</ele>
        <time>2026-03-09T12:47:26Z</time>
      </trkpt>
      <trkpt lat="49.04323" lon="7.81359">
        <ele>304.4</ele>
        <time>2026-03-09T12:47:31Z</time>
      </trkpt>
      <trkpt lat="49.04331" lon="7.81353">
        <ele>305.2</ele>
        <time>2026-03-09T12:47:36Z</time>
      </trkpt>
      <trkpt lat="49.04338" lon="7.81349">
        <ele>305.5</ele>
        <time>2026-03-09T12:47:41Z</time>
      </trkpt>
      <trkpt lat="49.04345" lon="7.81344">
        <ele>305.6</ele>
        <time>2026-03-09T12:47:46Z</time>
      </trkpt>
      <trkpt lat="49.04347" lon="7.81342">
        <ele>305.7</ele>
        <time>2026-03-09T12:47:51Z</time>
      </trkpt>
      <trkpt lat="49.04353" lon="7.81338">
        <ele>305.7</ele>
        <time>2026-03-09T12:47:56Z</time>
      </trkpt>
      <trkpt lat="49.04363" lon="7.81334">
        <ele>305.5</ele>
        <time>2026-03-09T12:48:01Z</time>
      </trkpt>
      <trkpt lat="49.04371" lon="7.81335">
        <ele>305.1</ele>
        <time>2026-03-09T12:48:06Z</time>
      </trkpt>
      <trkpt lat="49.04378" lon="7.81332">
        <ele>305.3</ele>
        <time>2026-03-09T12:48:11Z</time>
      </trkpt>
      <trkpt lat="49.04384" lon="7.81328">
        <ele>306.4</ele>
        <time>2026-03-09T12:48:16Z</time>
      </trkpt>
      <trkpt lat="49.0439" lon="7.81324">
        <ele>307.6</ele>
        <time>2026-03-09T12:48:21Z</time>
      </trkpt>
      <trkpt lat="49.04397" lon="7.81324">
        <ele>307.3</ele>
        <time>2026-03-09T12:48:26Z</time>
      </trkpt>
      <trkpt lat="49.04402" lon="7.81323">
        <ele>307.5</ele>
        <time>2026-03-09T12:48:31Z</time>
      </trkpt>
      <trkpt lat="49.04408" lon="7.81322">
        <ele>307.7</ele>
        <time>2026-03-09T12:48:36Z</time>
      </trkpt>
      <trkpt lat="49.04414" lon="7.81324">
        <ele>306.7</ele>
        <time>2026-03-09T12:48:41Z</time>
      </trkpt>
      <trkpt lat="49.04418" lon="7.81326">
        <ele>305.9</ele>
        <time>2026-03-09T12:48:46Z</time>
      </trkpt>
      <trkpt lat="49.04426" lon="7.81322">
        <ele>307.6</ele>
        <time>2026-03-09T12:48:51Z</time>
      </trkpt>
      <trkpt lat="49.04432" lon="7.8132">
        <ele>308.5</ele>
        <time>2026-03-09T12:48:56Z</time>
      </trkpt>
      <trkpt lat="49.04437" lon="7.81318">
        <ele>309.5</ele>
        <time>2026-03-09T12:49:01Z</time>
      </trkpt>
      <trkpt lat="49.04441" lon="7.81318">
        <ele>309.6</ele>
        <time>2026-03-09T12:49:06Z</time>
      </trkpt>
      <trkpt lat="49.04444" lon="7.81317">
        <ele>310.1</ele>
        <time>2026-03-09T12:49:11Z</time>
      </trkpt>
      <trkpt lat="49.04455" lon="7.8132">
        <ele>309.2</ele>
        <time>2026-03-09T12:49:16Z</time>
      </trkpt>
      <trkpt lat="49.04462" lon="7.81316">
        <ele>311</ele>
        <time>2026-03-09T12:49:21Z</time>
      </trkpt>
      <trkpt lat="49.04464" lon="7.81316">
        <ele>311</ele>
        <time>2026-03-09T12:49:26Z</time>
      </trkpt>
      <trkpt lat="49.04464" lon="7.81316">
        <ele>311</ele>
        <time>2026-03-09T12:49:31Z</time>
      </trkpt>
      <trkpt lat="49.04469" lon="7.8132">
        <ele>309.6</ele>
        <time>2026-03-09T12:49:36Z</time>
      </trkpt>
      <trkpt lat="49.04472" lon="7.81323">
        <ele>308.5</ele>
        <time>2026-03-09T12:49:41Z</time>
      </trkpt>
      <trkpt lat="49.04475" lon="7.81326">
        <ele>307.3</ele>
        <time>2026-03-09T12:49:46Z</time>
      </trkpt>
      <trkpt lat="49.04481" lon="7.81325">
        <ele>307.9</ele>
        <time>2026-03-09T12:49:51Z</time>
      </trkpt>
      <trkpt lat="49.04486" lon="7.81327">
        <ele>307.2</ele>
        <time>2026-03-09T12:49:56Z</time>
      </trkpt>
      <trkpt lat="49.04489" lon="7.81328">
        <ele>306.9</ele>
        <time>2026-03-09T12:50:01Z</time>
      </trkpt>
      <trkpt lat="49.04496" lon="7.81328">
        <ele>307.1</ele>
        <time>2026-03-09T12:50:06Z</time>
      </trkpt>
      <trkpt lat="49.04501" lon="7.81329">
        <ele>306.8</ele>
        <time>2026-03-09T12:50:11Z</time>
      </trkpt>
      <trkpt lat="49.04508" lon="7.8133">
        <ele>307</ele>
        <time>2026-03-09T12:50:16Z</time>
      </trkpt>
      <trkpt lat="49.04517" lon="7.81331">
        <ele>307.3</ele>
        <time>2026-03-09T12:50:21Z</time>
      </trkpt>
      <trkpt lat="49.04527" lon="7.81328">
        <ele>309.2</ele>
        <time>2026-03-09T12:50:26Z</time>
      </trkpt>
      <trkpt lat="49.04532" lon="7.81328">
        <ele>309.5</ele>
        <time>2026-03-09T12:50:31Z</time>
      </trkpt>
      <trkpt lat="49.04539" lon="7.81329">
        <ele>309.7</ele>
        <time>2026-03-09T12:50:36Z</time>
      </trkpt>
      <trkpt lat="49.04545" lon="7.81327">
        <ele>310.8</ele>
        <time>2026-03-09T12:50:41Z</time>
      </trkpt>
      <trkpt lat="49.0455" lon="7.81327">
        <ele>311.2</ele>
        <time>2026-03-09T12:50:46Z</time>
      </trkpt>
      <trkpt lat="49.04557" lon="7.81325">
        <ele>312.3</ele>
        <time>2026-03-09T12:50:51Z</time>
      </trkpt>
      <trkpt lat="49.04562" lon="7.81322">
        <ele>313.5</ele>
        <time>2026-03-09T12:50:56Z</time>
      </trkpt>
      <trkpt lat="49.04569" lon="7.81323">
        <ele>313.7</ele>
        <time>2026-03-09T12:51:01Z</time>
      </trkpt>
      <trkpt lat="49.04574" lon="7.8132">
        <ele>314.8</ele>
        <time>2026-03-09T12:51:06Z</time>
      </trkpt>
      <trkpt lat="49.04582" lon="7.81317">
        <ele>316</ele>
        <time>2026-03-09T12:51:11Z</time>
      </trkpt>
      <trkpt lat="49.04586" lon="7.81315">
        <ele>316.5</ele>
        <time>2026-03-09T12:51:16Z</time>
      </trkpt>
      <trkpt lat="49.04591" lon="7.81308">
        <ele>317.9</ele>
        <time>2026-03-09T12:51:21Z</time>
      </trkpt>
      <trkpt lat="49.04598" lon="7.81304">
        <ele>318.3</ele>
        <time>2026-03-09T12:51:26Z</time>
      </trkpt>
      <trkpt lat="49.04604" lon="7.81302">
        <ele>318.3</ele>
        <time>2026-03-09T12:51:31Z</time>
      </trkpt>
      <trkpt lat="49.0461" lon="7.81303">
        <ele>317.6</ele>
        <time>2026-03-09T12:51:36Z</time>
      </trkpt>
      <trkpt lat="49.04614" lon="7.813">
        <ele>318</ele>
        <time>2026-03-09T12:51:41Z</time>
      </trkpt>
      <trkpt lat="49.04621" lon="7.81296">
        <ele>318.2</ele>
        <time>2026-03-09T12:51:46Z</time>
      </trkpt>
      <trkpt lat="49.04628" lon="7.81289">
        <ele>319</ele>
        <time>2026-03-09T12:51:51Z</time>
      </trkpt>
      <trkpt lat="49.04638" lon="7.81284">
        <ele>319</ele>
        <time>2026-03-09T12:51:56Z</time>
      </trkpt>
      <trkpt lat="49.04646" lon="7.81278">
        <ele>319.2</ele>
        <time>2026-03-09T12:52:01Z</time>
      </trkpt>
      <trkpt lat="49.04652" lon="7.81274">
        <ele>319.2</ele>
        <time>2026-03-09T12:52:06Z</time>
      </trkpt>
      <trkpt lat="49.04656" lon="7.81274">
        <ele>318.7</ele>
        <time>2026-03-09T12:52:11Z</time>
      </trkpt>
      <trkpt lat="49.04663" lon="7.81281">
        <ele>316.9</ele>
        <time>2026-03-09T12:52:16Z</time>
      </trkpt>
      <trkpt lat="49.04663" lon="7.81284">
        <ele>316.5</ele>
        <time>2026-03-09T12:52:21Z</time>
      </trkpt>
      <trkpt lat="49.04668" lon="7.81287">
        <ele>315.7</ele>
        <time>2026-03-09T12:52:26Z</time>
      </trkpt>
      <trkpt lat="49.04675" lon="7.81288">
        <ele>315.5</ele>
        <time>2026-03-09T12:52:31Z</time>
      </trkpt>
      <trkpt lat="49.0468" lon="7.8129">
        <ele>315.2</ele>
        <time>2026-03-09T12:52:36Z</time>
      </trkpt>
      <trkpt lat="49.04687" lon="7.81294">
        <ele>314.7</ele>
        <time>2026-03-09T12:52:41Z</time>
      </trkpt>
      <trkpt lat="49.04688" lon="7.81297">
        <ele>314.3</ele>
        <time>2026-03-09T12:52:46Z</time>
      </trkpt>
      <trkpt lat="49.04688" lon="7.81298">
        <ele>314.2</ele>
        <time>2026-03-09T12:52:51Z</time>
      </trkpt>
      <trkpt lat="49.04692" lon="7.81301">
        <ele>313.8</ele>
        <time>2026-03-09T12:52:56Z</time>
      </trkpt>
      <trkpt lat="49.04695" lon="7.81308">
        <ele>312.9</ele>
        <time>2026-03-09T12:53:01Z</time>
      </trkpt>
      <trkpt lat="49.04696" lon="7.81322">
        <ele>311.1</ele>
        <time>2026-03-09T12:53:06Z</time>
      </trkpt>
      <trkpt lat="49.04699" lon="7.81329">
        <ele>310.3</ele>
        <time>2026-03-09T12:53:11Z</time>
      </trkpt>
      <trkpt lat="49.047" lon="7.81323">
        <ele>311.1</ele>
        <time>2026-03-09T12:53:16Z</time>
      </trkpt>
      <trkpt lat="49.04703" lon="7.81314">
        <ele>312.3</ele>
        <time>2026-03-09T12:53:21Z</time>
      </trkpt>
      <trkpt lat="49.04703" lon="7.81314">
        <ele>312.3</ele>
        <time>2026-03-09T12:53:26Z</time>
      </trkpt>
      <trkpt lat="49.04706" lon="7.81297">
        <ele>314.4</ele>
        <time>2026-03-09T12:53:31Z</time>
      </trkpt>
      <trkpt lat="49.04706" lon="7.81295">
        <ele>314.6</ele>
        <time>2026-03-09T12:53:36Z</time>
      </trkpt>
      <trkpt lat="49.04707" lon="7.81291">
        <ele>315.1</ele>
        <time>2026-03-09T12:53:41Z</time>
      </trkpt>
      <trkpt lat="49.04704" lon="7.81293">
        <ele>314.8</ele>
        <time>2026-03-09T12:53:46Z</time>
      </trkpt>
      <trkpt lat="49.04693" lon="7.81304">
        <ele>313.4</ele>
        <time>2026-03-09T12:53:51Z</time>
      </trkpt>
      <trkpt lat="49.04689" lon="7.81315">
        <ele>311.9</ele>
        <time>2026-03-09T12:53:56Z</time>
      </trkpt>
      <trkpt lat="49.04691" lon="7.81314">
        <ele>312.1</ele>
        <time>2026-03-09T12:54:01Z</time>
      </trkpt>
      <trkpt lat="49.04698" lon="7.81301">
        <ele>313.8</ele>
        <time>2026-03-09T12:54:06Z</time>
      </trkpt>
      <trkpt lat="49.04703" lon="7.81293">
        <ele>314.8</ele>
        <time>2026-03-09T12:54:11Z</time>
      </trkpt>
      <trkpt lat="49.0471" lon="7.81289">
        <ele>315.3</ele>
        <time>2026-03-09T12:54:16Z</time>
      </trkpt>
      <trkpt lat="49.04718" lon="7.81283">
        <ele>316</ele>
        <time>2026-03-09T12:54:21Z</time>
      </trkpt>
      <trkpt lat="49.04724" lon="7.81285">
        <ele>315.7</ele>
        <time>2026-03-09T12:54:26Z</time>
      </trkpt>
      <trkpt lat="49.04728" lon="7.81289">
        <ele>315.3</ele>
        <time>2026-03-09T12:54:31Z</time>
      </trkpt>
      <trkpt lat="49.04733" lon="7.81294">
        <ele>314.8</ele>
        <time>2026-03-09T12:54:36Z</time>
      </trkpt>
      <trkpt lat="49.04738" lon="7.81299">
        <ele>314.2</ele>
        <time>2026-03-09T12:54:41Z</time>
      </trkpt>
      <trkpt lat="49.0474" lon="7.81301">
        <ele>314.1</ele>
        <time>2026-03-09T12:54:46Z</time>
      </trkpt>
      <trkpt lat="49.04743" lon="7.81301">
        <ele>314.1</ele>
        <time>2026-03-09T12:54:51Z</time>
      </trkpt>
      <trkpt lat="49.04743" lon="7.81301">
        <ele>314.1</ele>
        <time>2026-03-09T12:54:56Z</time>
      </trkpt>
      <trkpt lat="49.04743" lon="7.81301">
        <ele>314.1</ele>
        <time>2026-03-09T12:55:01Z</time>
      </trkpt>
      <trkpt lat="49.04743" lon="7.81301">
        <ele>314.1</ele>
        <time>2026-03-09T12:55:06Z</time>
      </trkpt>
      <trkpt lat="49.04743" lon="7.81301">
        <ele>314.1</ele>
        <time>2026-03-09T12:55:11Z</time>
      </trkpt>
      <trkpt lat="49.04743" lon="7.81301">
        <ele>314.1</ele>
        <time>2026-03-09T12:55:16Z</time>
      </trkpt>
      <trkpt lat="49.04743" lon="7.81301">
        <ele>314.1</ele>
        <time>2026-03-09T12:55:21Z</time>
      </trkpt>
      <trkpt lat="49.04747" lon="7.81288">
        <ele>315.4</ele>
        <time>2026-03-09T12:55:26Z</time>
      </trkpt>
      <trkpt lat="49.04751" lon="7.81286">
        <ele>315.6</ele>
        <time>2026-03-09T12:55:31Z</time>
      </trkpt>
      <trkpt lat="49.04753" lon="7.81282">
        <ele>316.1</ele>
        <time>2026-03-09T12:55:36Z</time>
      </trkpt>
      <trkpt lat="49.04756" lon="7.81279">
        <ele>316.5</ele>
        <time>2026-03-09T12:55:41Z</time>
      </trkpt>
      <trkpt lat="49.0476" lon="7.81278">
        <ele>316.8</ele>
        <time>2026-03-09T12:55:46Z</time>
      </trkpt>
      <trkpt lat="49.04764" lon="7.81277">
        <ele>317.1</ele>
        <time>2026-03-09T12:55:51Z</time>
      </trkpt>
      <trkpt lat="49.04771" lon="7.81276">
        <ele>317.6</ele>
        <time>2026-03-09T12:55:56Z</time>
      </trkpt>
      <trkpt lat="49.04776" lon="7.81273">
        <ele>318.2</ele>
        <time>2026-03-09T12:56:01Z</time>
      </trkpt>
      <trkpt lat="49.04788" lon="7.81271">
        <ele>319.1</ele>
        <time>2026-03-09T12:56:06Z</time>
      </trkpt>
      <trkpt lat="49.04794" lon="7.81269">
        <ele>319.8</ele>
        <time>2026-03-09T12:56:11Z</time>
      </trkpt>
      <trkpt lat="49.048" lon="7.81267">
        <ele>320.5</ele>
        <time>2026-03-09T12:56:16Z</time>
      </trkpt>
      <trkpt lat="49.04805" lon="7.81265">
        <ele>321.1</ele>
        <time>2026-03-09T12:56:21Z</time>
      </trkpt>
      <trkpt lat="49.04811" lon="7.8126">
        <ele>322.4</ele>
        <time>2026-03-09T12:56:26Z</time>
      </trkpt>
      <trkpt lat="49.04816" lon="7.81254">
        <ele>323.8</ele>
        <time>2026-03-09T12:56:31Z</time>
      </trkpt>
      <trkpt lat="49.0482" lon="7.81255">
        <ele>323.9</ele>
        <time>2026-03-09T12:56:36Z</time>
      </trkpt>
      <trkpt lat="49.04825" lon="7.81254">
        <ele>324.5</ele>
        <time>2026-03-09T12:56:41Z</time>
      </trkpt>
      <trkpt lat="49.04829" lon="7.81253">
        <ele>325</ele>
        <time>2026-03-09T12:56:46Z</time>
      </trkpt>
      <trkpt lat="49.04835" lon="7.8125">
        <ele>326</ele>
        <time>2026-03-09T12:56:51Z</time>
      </trkpt>
      <trkpt lat="49.04841" lon="7.81246">
        <ele>326.9</ele>
        <time>2026-03-09T12:56:56Z</time>
      </trkpt>
      <trkpt lat="49.04846" lon="7.81245">
        <ele>327.1</ele>
        <time>2026-03-09T12:57:01Z</time>
      </trkpt>
      <trkpt lat="49.0485" lon="7.81243">
        <ele>327.6</ele>
        <time>2026-03-09T12:57:06Z</time>
      </trkpt>
      <trkpt lat="49.04854" lon="7.81239">
        <ele>328.7</ele>
        <time>2026-03-09T12:57:11Z</time>
      </trkpt>
      <trkpt lat="49.04857" lon="7.81236">
        <ele>329.5</ele>
        <time>2026-03-09T12:57:16Z</time>
      </trkpt>
      <trkpt lat="49.04863" lon="7.8123">
        <ele>331.1</ele>
        <time>2026-03-09T12:57:21Z</time>
      </trkpt>
      <trkpt lat="49.0487" lon="7.81223">
        <ele>333.1</ele>
        <time>2026-03-09T12:57:26Z</time>
      </trkpt>
      <trkpt lat="49.04878" lon="7.81219">
        <ele>334.3</ele>
        <time>2026-03-09T12:57:31Z</time>
      </trkpt>
      <trkpt lat="49.04882" lon="7.81216">
        <ele>335.2</ele>
        <time>2026-03-09T12:57:36Z</time>
      </trkpt>
      <trkpt lat="49.04886" lon="7.81213">
        <ele>336.1</ele>
        <time>2026-03-09T12:57:41Z</time>
      </trkpt>
      <trkpt lat="49.04888" lon="7.81209">
        <ele>337.3</ele>
        <time>2026-03-09T12:57:46Z</time>
      </trkpt>
      <trkpt lat="49.04894" lon="7.81206">
        <ele>338.2</ele>
        <time>2026-03-09T12:57:51Z</time>
      </trkpt>
      <trkpt lat="49.04896" lon="7.81204">
        <ele>338.9</ele>
        <time>2026-03-09T12:57:56Z</time>
      </trkpt>
      <trkpt lat="49.04901" lon="7.81197">
        <ele>341.1</ele>
        <time>2026-03-09T12:58:01Z</time>
      </trkpt>
      <trkpt lat="49.04907" lon="7.8119">
        <ele>343.3</ele>
        <time>2026-03-09T12:58:06Z</time>
      </trkpt>
      <trkpt lat="49.04911" lon="7.81185">
        <ele>345</ele>
        <time>2026-03-09T12:58:11Z</time>
      </trkpt>
      <trkpt lat="49.04912" lon="7.81185">
        <ele>345</ele>
        <time>2026-03-09T12:58:16Z</time>
      </trkpt>
      <trkpt lat="49.04912" lon="7.81185">
        <ele>345</ele>
        <time>2026-03-09T12:58:21Z</time>
      </trkpt>
      <trkpt lat="49.04915" lon="7.81181">
        <ele>346.3</ele>
        <time>2026-03-09T12:58:26Z</time>
      </trkpt>
      <trkpt lat="49.04918" lon="7.81175">
        <ele>348</ele>
        <time>2026-03-09T12:58:31Z</time>
      </trkpt>
      <trkpt lat="49.04918" lon="7.81165">
        <ele>351.2</ele>
        <time>2026-03-09T12:58:36Z</time>
      </trkpt>
      <trkpt lat="49.04917" lon="7.81155">
        <ele>354.7</ele>
        <time>2026-03-09T12:58:41Z</time>
      </trkpt>
      <trkpt lat="49.04916" lon="7.81145">
        <ele>358</ele>
        <time>2026-03-09T12:58:46Z</time>
      </trkpt>
      <trkpt lat="49.04917" lon="7.81137">
        <ele>360.5</ele>
        <time>2026-03-09T12:58:51Z</time>
      </trkpt>
      <trkpt lat="49.04918" lon="7.81132">
        <ele>361.9</ele>
        <time>2026-03-09T12:58:56Z</time>
      </trkpt>
      <trkpt lat="49.04922" lon="7.81127">
        <ele>362.3</ele>
        <time>2026-03-09T12:59:01Z</time>
      </trkpt>
      <trkpt lat="49.04924" lon="7.81123">
        <ele>363</ele>
        <time>2026-03-09T12:59:06Z</time>
      </trkpt>
      <trkpt lat="49.04927" lon="7.81117">
        <ele>364</ele>
        <time>2026-03-09T12:59:11Z</time>
      </trkpt>
      <trkpt lat="49.04931" lon="7.81113">
        <ele>364.1</ele>
        <time>2026-03-09T12:59:16Z</time>
      </trkpt>
      <trkpt lat="49.04935" lon="7.81108">
        <ele>364.4</ele>
        <time>2026-03-09T12:59:21Z</time>
      </trkpt>
      <trkpt lat="49.04938" lon="7.81101">
        <ele>365.5</ele>
        <time>2026-03-09T12:59:26Z</time>
      </trkpt>
      <trkpt lat="49.0494" lon="7.81095">
        <ele>366.7</ele>
        <time>2026-03-09T12:59:31Z</time>
      </trkpt>
      <trkpt lat="49.04943" lon="7.81091">
        <ele>366.9</ele>
        <time>2026-03-09T12:59:36Z</time>
      </trkpt>
      <trkpt lat="49.04947" lon="7.81084">
        <ele>367.6</ele>
        <time>2026-03-09T12:59:41Z</time>
      </trkpt>
      <trkpt lat="49.0495" lon="7.81076">
        <ele>368.3</ele>
        <time>2026-03-09T12:59:46Z</time>
      </trkpt>
      <trkpt lat="49.04953" lon="7.81069">
        <ele>368.7</ele>
        <time>2026-03-09T12:59:51Z</time>
      </trkpt>
      <trkpt lat="49.04954" lon="7.81062">
        <ele>369.8</ele>
        <time>2026-03-09T12:59:56Z</time>
      </trkpt>
      <trkpt lat="49.04955" lon="7.81056">
        <ele>370.7</ele>
        <time>2026-03-09T13:00:01Z</time>
      </trkpt>
      <trkpt lat="49.04958" lon="7.81048">
        <ele>371.3</ele>
        <time>2026-03-09T13:00:06Z</time>
      </trkpt>
      <trkpt lat="49.04958" lon="7.81042">
        <ele>372.5</ele>
        <time>2026-03-09T13:00:11Z</time>
      </trkpt>
      <trkpt lat="49.04961" lon="7.81034">
        <ele>373.1</ele>
        <time>2026-03-09T13:00:16Z</time>
      </trkpt>
      <trkpt lat="49.04963" lon="7.81027">
        <ele>373.8</ele>
        <time>2026-03-09T13:00:21Z</time>
      </trkpt>
      <trkpt lat="49.04964" lon="7.81018">
        <ele>375.3</ele>
        <time>2026-03-09T13:00:26Z</time>
      </trkpt>
      <trkpt lat="49.04965" lon="7.81011">
        <ele>376.4</ele>
        <time>2026-03-09T13:00:31Z</time>
      </trkpt>
      <trkpt lat="49.04968" lon="7.81004">
        <ele>376.7</ele>
        <time>2026-03-09T13:00:36Z</time>
      </trkpt>
      <trkpt lat="49.04969" lon="7.80997">
        <ele>377.7</ele>
        <time>2026-03-09T13:00:41Z</time>
      </trkpt>
      <trkpt lat="49.0497" lon="7.8099">
        <ele>378.6</ele>
        <time>2026-03-09T13:00:46Z</time>
      </trkpt>
      <trkpt lat="49.04971" lon="7.80982">
        <ele>379.7</ele>
        <time>2026-03-09T13:00:51Z</time>
      </trkpt>
      <trkpt lat="49.0497" lon="7.80973">
        <ele>381.6</ele>
        <time>2026-03-09T13:00:56Z</time>
      </trkpt>
      <trkpt lat="49.04969" lon="7.80967">
        <ele>383.1</ele>
        <time>2026-03-09T13:01:01Z</time>
      </trkpt>
      <trkpt lat="49.04968" lon="7.80961">
        <ele>384.5</ele>
        <time>2026-03-09T13:01:06Z</time>
      </trkpt>
      <trkpt lat="49.04969" lon="7.80952">
        <ele>385.7</ele>
        <time>2026-03-09T13:01:11Z</time>
      </trkpt>
      <trkpt lat="49.04969" lon="7.80942">
        <ele>387.5</ele>
        <time>2026-03-09T13:01:16Z</time>
      </trkpt>
      <trkpt lat="49.04967" lon="7.80931">
        <ele>390.1</ele>
        <time>2026-03-09T13:01:21Z</time>
      </trkpt>
      <trkpt lat="49.04965" lon="7.80921">
        <ele>392.6</ele>
        <time>2026-03-09T13:01:26Z</time>
      </trkpt>
      <trkpt lat="49.04969" lon="7.80916">
        <ele>392.2</ele>
        <time>2026-03-09T13:01:31Z</time>
      </trkpt>
      <trkpt lat="49.04971" lon="7.80907">
        <ele>393.1</ele>
        <time>2026-03-09T13:01:36Z</time>
      </trkpt>
      <trkpt lat="49.04973" lon="7.80899">
        <ele>393.9</ele>
        <time>2026-03-09T13:01:41Z</time>
      </trkpt>
      <trkpt lat="49.04976" lon="7.80895">
        <ele>393.6</ele>
        <time>2026-03-09T13:01:46Z</time>
      </trkpt>
      <trkpt lat="49.0498" lon="7.80893">
        <ele>392.6</ele>
        <time>2026-03-09T13:01:51Z</time>
      </trkpt>
      <trkpt lat="49.04987" lon="7.80893">
        <ele>390.3</ele>
        <time>2026-03-09T13:01:56Z</time>
      </trkpt>
      <trkpt lat="49.0499" lon="7.8089">
        <ele>389.8</ele>
        <time>2026-03-09T13:02:01Z</time>
      </trkpt>
      <trkpt lat="49.04993" lon="7.80888">
        <ele>389.1</ele>
        <time>2026-03-09T13:02:06Z</time>
      </trkpt>
      <trkpt lat="49.04999" lon="7.80883">
        <ele>388</ele>
        <time>2026-03-09T13:02:11Z</time>
      </trkpt>
      <trkpt lat="49.05002" lon="7.8088">
        <ele>387.4</ele>
        <time>2026-03-09T13:02:16Z</time>
      </trkpt>
      <trkpt lat="49.05006" lon="7.80878">
        <ele>386.3</ele>
        <time>2026-03-09T13:02:21Z</time>
      </trkpt>
      <trkpt lat="49.05011" lon="7.80873">
        <ele>385.4</ele>
        <time>2026-03-09T13:02:26Z</time>
      </trkpt>
      <trkpt lat="49.05014" lon="7.80868">
        <ele>385.2</ele>
        <time>2026-03-09T13:02:31Z</time>
      </trkpt>
      <trkpt lat="49.05018" lon="7.80863">
        <ele>384.6</ele>
        <time>2026-03-09T13:02:36Z</time>
      </trkpt>
      <trkpt lat="49.05021" lon="7.80858">
        <ele>384.4</ele>
        <time>2026-03-09T13:02:41Z</time>
      </trkpt>
      <trkpt lat="49.05026" lon="7.8085">
        <ele>384</ele>
        <time>2026-03-09T13:02:46Z</time>
      </trkpt>
      <trkpt lat="49.05028" lon="7.80845">
        <ele>384.2</ele>
        <time>2026-03-09T13:02:51Z</time>
      </trkpt>
      <trkpt lat="49.05031" lon="7.80838">
        <ele>384.4</ele>
        <time>2026-03-09T13:02:56Z</time>
      </trkpt>
      <trkpt lat="49.05034" lon="7.80831">
        <ele>384.5</ele>
        <time>2026-03-09T13:03:01Z</time>
      </trkpt>
      <trkpt lat="49.05037" lon="7.80824">
        <ele>384.3</ele>
        <time>2026-03-09T13:03:06Z</time>
      </trkpt>
      <trkpt lat="49.05038" lon="7.80819">
        <ele>384.6</ele>
        <time>2026-03-09T13:03:11Z</time>
      </trkpt>
      <trkpt lat="49.0504" lon="7.80811">
        <ele>384.9</ele>
        <time>2026-03-09T13:03:16Z</time>
      </trkpt>
      <trkpt lat="49.05041" lon="7.80803">
        <ele>385.6</ele>
        <time>2026-03-09T13:03:21Z</time>
      </trkpt>
      <trkpt lat="49.05042" lon="7.80797">
        <ele>386</ele>
        <time>2026-03-09T13:03:26Z</time>
      </trkpt>
      <trkpt lat="49.05042" lon="7.80787">
        <ele>387.2</ele>
        <time>2026-03-09T13:03:31Z</time>
      </trkpt>
      <trkpt lat="49.05042" lon="7.80779">
        <ele>388.2</ele>
        <time>2026-03-09T13:03:36Z</time>
      </trkpt>
      <trkpt lat="49.0504" lon="7.80773">
        <ele>389.8</ele>
        <time>2026-03-09T13:03:41Z</time>
      </trkpt>
      <trkpt lat="49.0504" lon="7.80766">
        <ele>390.6</ele>
        <time>2026-03-09T13:03:46Z</time>
      </trkpt>
      <trkpt lat="49.0504" lon="7.80758">
        <ele>391.7</ele>
        <time>2026-03-09T13:03:51Z</time>
      </trkpt>
      <trkpt lat="49.0504" lon="7.80749">
        <ele>392.8</ele>
        <time>2026-03-09T13:03:56Z</time>
      </trkpt>
      <trkpt lat="49.05039" lon="7.80739">
        <ele>394</ele>
        <time>2026-03-09T13:04:01Z</time>
      </trkpt>
      <trkpt lat="49.05038" lon="7.80731">
        <ele>395</ele>
        <time>2026-03-09T13:04:06Z</time>
      </trkpt>
      <trkpt lat="49.05036" lon="7.80727">
        <ele>396.1</ele>
        <time>2026-03-09T13:04:11Z</time>
      </trkpt>
      <trkpt lat="49.05032" lon="7.80722">
        <ele>398.2</ele>
        <time>2026-03-09T13:04:16Z</time>
      </trkpt>
      <trkpt lat="49.05031" lon="7.80714">
        <ele>399.2</ele>
        <time>2026-03-09T13:04:21Z</time>
      </trkpt>
      <trkpt lat="49.0503" lon="7.80704">
        <ele>400.4</ele>
        <time>2026-03-09T13:04:26Z</time>
      </trkpt>
      <trkpt lat="49.05029" lon="7.80696">
        <ele>401.5</ele>
        <time>2026-03-09T13:04:31Z</time>
      </trkpt>
      <trkpt lat="49.05026" lon="7.80685">
        <ele>403.6</ele>
        <time>2026-03-09T13:04:36Z</time>
      </trkpt>
      <trkpt lat="49.05023" lon="7.80679">
        <ele>405.3</ele>
        <time>2026-03-09T13:04:41Z</time>
      </trkpt>
      <trkpt lat="49.0502" lon="7.80671">
        <ele>407.2</ele>
        <time>2026-03-09T13:04:46Z</time>
      </trkpt>
      <trkpt lat="49.05018" lon="7.80664">
        <ele>408.4</ele>
        <time>2026-03-09T13:04:51Z</time>
      </trkpt>
      <trkpt lat="49.05018" lon="7.80657">
        <ele>408.2</ele>
        <time>2026-03-09T13:04:56Z</time>
      </trkpt>
      <trkpt lat="49.05017" lon="7.80649">
        <ele>408.5</ele>
        <time>2026-03-09T13:05:01Z</time>
      </trkpt>
      <trkpt lat="49.05014" lon="7.80641">
        <ele>409.6</ele>
        <time>2026-03-09T13:05:06Z</time>
      </trkpt>
      <trkpt lat="49.05013" lon="7.80634">
        <ele>409.8</ele>
        <time>2026-03-09T13:05:11Z</time>
      </trkpt>
      <trkpt lat="49.05012" lon="7.80627">
        <ele>410.1</ele>
        <time>2026-03-09T13:05:16Z</time>
      </trkpt>
      <trkpt lat="49.05012" lon="7.80619">
        <ele>409.9</ele>
        <time>2026-03-09T13:05:21Z</time>
      </trkpt>
      <trkpt lat="49.0501" lon="7.80614">
        <ele>410.6</ele>
        <time>2026-03-09T13:05:26Z</time>
      </trkpt>
      <trkpt lat="49.0501" lon="7.80611">
        <ele>410.5</ele>
        <time>2026-03-09T13:05:31Z</time>
      </trkpt>
      <trkpt lat="49.0501" lon="7.80611">
        <ele>410.5</ele>
        <time>2026-03-09T13:05:36Z</time>
      </trkpt>
      <trkpt lat="49.0501" lon="7.80611">
        <ele>410.5</ele>
        <time>2026-03-09T13:05:41Z</time>
      </trkpt>
      <trkpt lat="49.0501" lon="7.80611">
        <ele>410.5</ele>
        <time>2026-03-09T13:05:46Z</time>
      </trkpt>
      <trkpt lat="49.0501" lon="7.80611">
        <ele>410.5</ele>
        <time>2026-03-09T13:05:51Z</time>
      </trkpt>
      <trkpt lat="49.0501" lon="7.80611">
        <ele>410.5</ele>
        <time>2026-03-09T13:05:56Z</time>
      </trkpt>
      <trkpt lat="49.0501" lon="7.80611">
        <ele>410.5</ele>
        <time>2026-03-09T13:06:01Z</time>
      </trkpt>
      <trkpt lat="49.0501" lon="7.80611">
        <ele>410.5</ele>
        <time>2026-03-09T13:06:06Z</time>
      </trkpt>
      <trkpt lat="49.0501" lon="7.80611">
        <ele>410.5</ele>
        <time>2026-03-09T13:06:11Z</time>
      </trkpt>
      <trkpt lat="49.0501" lon="7.80611">
        <ele>410.5</ele>
        <time>2026-03-09T13:06:16Z</time>
      </trkpt>
      <trkpt lat="49.0501" lon="7.80611">
        <ele>410.5</ele>
        <time>2026-03-09T13:06:21Z</time>
      </trkpt>
      <trkpt lat="49.0501" lon="7.80611">
        <ele>410.5</ele>
        <time>2026-03-09T13:06:26Z</time>
      </trkpt>
      <trkpt lat="49.0501" lon="7.80611">
        <ele>410.5</ele>
        <time>2026-03-09T13:06:31Z</time>
      </trkpt>
      <trkpt lat="49.0501" lon="7.80611">
        <ele>410.5</ele>
        <time>2026-03-09T13:06:36Z</time>
      </trkpt>
      <trkpt lat="49.0501" lon="7.80611">
        <ele>410.5</ele>
        <time>2026-03-09T13:06:41Z</time>
      </trkpt>
      <trkpt lat="49.05011" lon="7.80604">
        <ele>410</ele>
        <time>2026-03-09T13:06:46Z</time>
      </trkpt>
      <trkpt lat="49.05013" lon="7.80597">
        <ele>409</ele>
        <time>2026-03-09T13:06:51Z</time>
      </trkpt>
      <trkpt lat="49.05011" lon="7.80592">
        <ele>409.7</ele>
        <time>2026-03-09T13:06:56Z</time>
      </trkpt>
      <trkpt lat="49.05009" lon="7.80592">
        <ele>410.5</ele>
        <time>2026-03-09T13:07:01Z</time>
      </trkpt>
      <trkpt lat="49.05009" lon="7.80593">
        <ele>410.5</ele>
        <time>2026-03-09T13:07:06Z</time>
      </trkpt>
      <trkpt lat="49.05008" lon="7.80588">
        <ele>410.8</ele>
        <time>2026-03-09T13:07:11Z</time>
      </trkpt>
      <trkpt lat="49.05007" lon="7.80581">
        <ele>411.1</ele>
        <time>2026-03-09T13:07:16Z</time>
      </trkpt>
      <trkpt lat="49.05006" lon="7.80578">
        <ele>411.5</ele>
        <time>2026-03-09T13:07:21Z</time>
      </trkpt>
      <trkpt lat="49.05007" lon="7.80574">
        <ele>411.1</ele>
        <time>2026-03-09T13:07:26Z</time>
      </trkpt>
      <trkpt lat="49.0501" lon="7.80565">
        <ele>409.9</ele>
        <time>2026-03-09T13:07:31Z</time>
      </trkpt>
      <trkpt lat="49.05013" lon="7.80553">
        <ele>408.8</ele>
        <time>2026-03-09T13:07:36Z</time>
      </trkpt>
      <trkpt lat="49.05013" lon="7.80542">
        <ele>408.9</ele>
        <time>2026-03-09T13:07:41Z</time>
      </trkpt>
      <trkpt lat="49.05012" lon="7.80534">
        <ele>409.3</ele>
        <time>2026-03-09T13:07:46Z</time>
      </trkpt>
      <trkpt lat="49.05013" lon="7.80526">
        <ele>409</ele>
        <time>2026-03-09T13:07:51Z</time>
      </trkpt>
      <trkpt lat="49.05015" lon="7.8052">
        <ele>408.4</ele>
        <time>2026-03-09T13:07:56Z</time>
      </trkpt>
      <trkpt lat="49.05018" lon="7.80518">
        <ele>407.4</ele>
        <time>2026-03-09T13:08:01Z</time>
      </trkpt>
      <trkpt lat="49.05022" lon="7.80525">
        <ele>406</ele>
        <time>2026-03-09T13:08:06Z</time>
      </trkpt>
      <trkpt lat="49.05028" lon="7.8053">
        <ele>403.9</ele>
        <time>2026-03-09T13:08:11Z</time>
      </trkpt>
      <trkpt lat="49.05034" lon="7.80533">
        <ele>401.7</ele>
        <time>2026-03-09T13:08:16Z</time>
      </trkpt>
      <trkpt lat="49.05038" lon="7.80536">
        <ele>400.3</ele>
        <time>2026-03-09T13:08:21Z</time>
      </trkpt>
      <trkpt lat="49.05043" lon="7.80538">
        <ele>398.4</ele>
        <time>2026-03-09T13:08:26Z</time>
      </trkpt>
      <trkpt lat="49.05047" lon="7.80531">
        <ele>397.4</ele>
        <time>2026-03-09T13:08:31Z</time>
      </trkpt>
      <trkpt lat="49.05049" lon="7.80531">
        <ele>396.7</ele>
        <time>2026-03-09T13:08:36Z</time>
      </trkpt>
      <trkpt lat="49.05052" lon="7.80529">
        <ele>395.8</ele>
        <time>2026-03-09T13:08:41Z</time>
      </trkpt>
      <trkpt lat="49.05053" lon="7.80528">
        <ele>395.5</ele>
        <time>2026-03-09T13:08:46Z</time>
      </trkpt>
      <trkpt lat="49.05058" lon="7.80524">
        <ele>394.1</ele>
        <time>2026-03-09T13:08:51Z</time>
      </trkpt>
      <trkpt lat="49.0506" lon="7.80519">
        <ele>393.8</ele>
        <time>2026-03-09T13:08:56Z</time>
      </trkpt>
      <trkpt lat="49.05061" lon="7.80513">
        <ele>393.8</ele>
        <time>2026-03-09T13:09:01Z</time>
      </trkpt>
      <trkpt lat="49.05059" lon="7.80507">
        <ele>394.8</ele>
        <time>2026-03-09T13:09:06Z</time>
      </trkpt>
      <trkpt lat="49.05058" lon="7.80501">
        <ele>395.5</ele>
        <time>2026-03-09T13:09:11Z</time>
      </trkpt>
      <trkpt lat="49.05056" lon="7.80495">
        <ele>397</ele>
        <time>2026-03-09T13:09:16Z</time>
      </trkpt>
      <trkpt lat="49.05055" lon="7.80487">
        <ele>398.6</ele>
        <time>2026-03-09T13:09:21Z</time>
      </trkpt>
      <trkpt lat="49.05054" lon="7.8048">
        <ele>400</ele>
        <time>2026-03-09T13:09:26Z</time>
      </trkpt>
      <trkpt lat="49.05053" lon="7.80473">
        <ele>401.4</ele>
        <time>2026-03-09T13:09:31Z</time>
      </trkpt>
      <trkpt lat="49.05051" lon="7.80461">
        <ele>403.8</ele>
        <time>2026-03-09T13:09:36Z</time>
      </trkpt>
      <trkpt lat="49.05051" lon="7.80451">
        <ele>405.4</ele>
        <time>2026-03-09T13:09:41Z</time>
      </trkpt>
      <trkpt lat="49.05052" lon="7.80444">
        <ele>406.3</ele>
        <time>2026-03-09T13:09:46Z</time>
      </trkpt>
      <trkpt lat="49.05053" lon="7.80435">
        <ele>407.5</ele>
        <time>2026-03-09T13:09:51Z</time>
      </trkpt>
      <trkpt lat="49.05056" lon="7.80426">
        <ele>408.4</ele>
        <time>2026-03-09T13:09:56Z</time>
      </trkpt>
      <trkpt lat="49.05059" lon="7.80419">
        <ele>409</ele>
        <time>2026-03-09T13:10:01Z</time>
      </trkpt>
      <trkpt lat="49.05063" lon="7.8041">
        <ele>410</ele>
        <time>2026-03-09T13:10:06Z</time>
      </trkpt>
      <trkpt lat="49.05066" lon="7.80402">
        <ele>411.1</ele>
        <time>2026-03-09T13:10:11Z</time>
      </trkpt>
      <trkpt lat="49.05069" lon="7.80396">
        <ele>411.7</ele>
        <time>2026-03-09T13:10:16Z</time>
      </trkpt>
      <trkpt lat="49.05073" lon="7.80388">
        <ele>412.5</ele>
        <time>2026-03-09T13:10:21Z</time>
      </trkpt>
      <trkpt lat="49.05077" lon="7.80381">
        <ele>413.1</ele>
        <time>2026-03-09T13:10:26Z</time>
      </trkpt>
      <trkpt lat="49.0508" lon="7.80374">
        <ele>413.9</ele>
        <time>2026-03-09T13:10:31Z</time>
      </trkpt>
      <trkpt lat="49.05082" lon="7.80366">
        <ele>415</ele>
        <time>2026-03-09T13:10:36Z</time>
      </trkpt>
      <trkpt lat="49.05085" lon="7.80358">
        <ele>415.8</ele>
        <time>2026-03-09T13:10:41Z</time>
      </trkpt>
      <trkpt lat="49.05087" lon="7.80349">
        <ele>416.9</ele>
        <time>2026-03-09T13:10:46Z</time>
      </trkpt>
      <trkpt lat="49.05088" lon="7.80341">
        <ele>418.1</ele>
        <time>2026-03-09T13:10:51Z</time>
      </trkpt>
      <trkpt lat="49.05091" lon="7.80331">
        <ele>419</ele>
        <time>2026-03-09T13:10:56Z</time>
      </trkpt>
      <trkpt lat="49.05093" lon="7.8032">
        <ele>420.3</ele>
        <time>2026-03-09T13:11:01Z</time>
      </trkpt>
      <trkpt lat="49.05094" lon="7.80312">
        <ele>421.3</ele>
        <time>2026-03-09T13:11:06Z</time>
      </trkpt>
      <trkpt lat="49.05095" lon="7.80305">
        <ele>422.1</ele>
        <time>2026-03-09T13:11:11Z</time>
      </trkpt>
      <trkpt lat="49.05096" lon="7.80297">
        <ele>423.1</ele>
        <time>2026-03-09T13:11:16Z</time>
      </trkpt>
      <trkpt lat="49.05097" lon="7.80289">
        <ele>424.1</ele>
        <time>2026-03-09T13:11:21Z</time>
      </trkpt>
      <trkpt lat="49.05097" lon="7.80282">
        <ele>425.3</ele>
        <time>2026-03-09T13:11:26Z</time>
      </trkpt>
      <trkpt lat="49.05097" lon="7.80273">
        <ele>426.8</ele>
        <time>2026-03-09T13:11:31Z</time>
      </trkpt>
      <trkpt lat="49.05096" lon="7.80264">
        <ele>428.6</ele>
        <time>2026-03-09T13:11:36Z</time>
      </trkpt>
      <trkpt lat="49.05097" lon="7.80254">
        <ele>429.9</ele>
        <time>2026-03-09T13:11:41Z</time>
      </trkpt>
      <trkpt lat="49.05097" lon="7.80244">
        <ele>430.8</ele>
        <time>2026-03-09T13:11:46Z</time>
      </trkpt>
      <trkpt lat="49.05096" lon="7.80234">
        <ele>431.5</ele>
        <time>2026-03-09T13:11:51Z</time>
      </trkpt>
      <trkpt lat="49.05097" lon="7.80225">
        <ele>431.3</ele>
        <time>2026-03-09T13:11:56Z</time>
      </trkpt>
      <trkpt lat="49.05097" lon="7.80217">
        <ele>431.6</ele>
        <time>2026-03-09T13:12:01Z</time>
      </trkpt>
      <trkpt lat="49.05096" lon="7.80208">
        <ele>432.3</ele>
        <time>2026-03-09T13:12:06Z</time>
      </trkpt>
      <trkpt lat="49.05096" lon="7.80199">
        <ele>432.5</ele>
        <time>2026-03-09T13:12:11Z</time>
      </trkpt>
      <trkpt lat="49.05095" lon="7.80188">
        <ele>433.3</ele>
        <time>2026-03-09T13:12:16Z</time>
      </trkpt>
      <trkpt lat="49.05093" lon="7.80179">
        <ele>434.4</ele>
        <time>2026-03-09T13:12:21Z</time>
      </trkpt>
      <trkpt lat="49.05094" lon="7.80172">
        <ele>434.2</ele>
        <time>2026-03-09T13:12:26Z</time>
      </trkpt>
      <trkpt lat="49.05094" lon="7.80161">
        <ele>434.5</ele>
        <time>2026-03-09T13:12:31Z</time>
      </trkpt>
      <trkpt lat="49.05093" lon="7.80151">
        <ele>435.1</ele>
        <time>2026-03-09T13:12:36Z</time>
      </trkpt>
      <trkpt lat="49.05092" lon="7.80138">
        <ele>435.8</ele>
        <time>2026-03-09T13:12:41Z</time>
      </trkpt>
      <trkpt lat="49.0509" lon="7.80123">
        <ele>437</ele>
        <time>2026-03-09T13:12:46Z</time>
      </trkpt>
      <trkpt lat="49.05089" lon="7.80113">
        <ele>437.7</ele>
        <time>2026-03-09T13:12:51Z</time>
      </trkpt>
      <trkpt lat="49.05088" lon="7.80105">
        <ele>438.3</ele>
        <time>2026-03-09T13:12:56Z</time>
      </trkpt>
      <trkpt lat="49.05086" lon="7.80096">
        <ele>439.4</ele>
        <time>2026-03-09T13:13:01Z</time>
      </trkpt>
      <trkpt lat="49.05087" lon="7.80086">
        <ele>439.2</ele>
        <time>2026-03-09T13:13:06Z</time>
      </trkpt>
      <trkpt lat="49.05086" lon="7.80076">
        <ele>439.6</ele>
        <time>2026-03-09T13:13:11Z</time>
      </trkpt>
      <trkpt lat="49.05084" lon="7.80064">
        <ele>440.2</ele>
        <time>2026-03-09T13:13:16Z</time>
      </trkpt>
      <trkpt lat="49.05084" lon="7.80055">
        <ele>440</ele>
        <time>2026-03-09T13:13:21Z</time>
      </trkpt>
      <trkpt lat="49.05085" lon="7.80042">
        <ele>439.3</ele>
        <time>2026-03-09T13:13:26Z</time>
      </trkpt>
      <trkpt lat="49.05086" lon="7.80033">
        <ele>438.7</ele>
        <time>2026-03-09T13:13:31Z</time>
      </trkpt>
      <trkpt lat="49.05092" lon="7.80026">
        <ele>436.2</ele>
        <time>2026-03-09T13:13:36Z</time>
      </trkpt>
      <trkpt lat="49.05101" lon="7.80023">
        <ele>432.6</ele>
        <time>2026-03-09T13:13:41Z</time>
      </trkpt>
      <trkpt lat="49.05108" lon="7.80023">
        <ele>429.9</ele>
        <time>2026-03-09T13:13:46Z</time>
      </trkpt>
      <trkpt lat="49.05114" lon="7.80023">
        <ele>427.5</ele>
        <time>2026-03-09T13:13:51Z</time>
      </trkpt>
      <trkpt lat="49.05119" lon="7.80029">
        <ele>425.4</ele>
        <time>2026-03-09T13:13:56Z</time>
      </trkpt>
      <trkpt lat="49.05123" lon="7.80032">
        <ele>423.7</ele>
        <time>2026-03-09T13:14:01Z</time>
      </trkpt>
      <trkpt lat="49.05129" lon="7.80034">
        <ele>421.1</ele>
        <time>2026-03-09T13:14:06Z</time>
      </trkpt>
      <trkpt lat="49.05137" lon="7.80033">
        <ele>417.9</ele>
        <time>2026-03-09T13:14:11Z</time>
      </trkpt>
      <trkpt lat="49.05143" lon="7.80031">
        <ele>415.6</ele>
        <time>2026-03-09T13:14:16Z</time>
      </trkpt>
      <trkpt lat="49.05149" lon="7.80029">
        <ele>413.3</ele>
        <time>2026-03-09T13:14:21Z</time>
      </trkpt>
      <trkpt lat="49.05156" lon="7.80029">
        <ele>410.5</ele>
        <time>2026-03-09T13:14:26Z</time>
      </trkpt>
      <trkpt lat="49.05162" lon="7.80031">
        <ele>407.9</ele>
        <time>2026-03-09T13:14:31Z</time>
      </trkpt>
      <trkpt lat="49.05169" lon="7.80033">
        <ele>405.2</ele>
        <time>2026-03-09T13:14:36Z</time>
      </trkpt>
      <trkpt lat="49.05176" lon="7.80036">
        <ele>402.8</ele>
        <time>2026-03-09T13:14:41Z</time>
      </trkpt>
      <trkpt lat="49.05183" lon="7.80038">
        <ele>400.4</ele>
        <time>2026-03-09T13:14:46Z</time>
      </trkpt>
      <trkpt lat="49.0519" lon="7.80038">
        <ele>398.3</ele>
        <time>2026-03-09T13:14:51Z</time>
      </trkpt>
      <trkpt lat="49.05197" lon="7.80038">
        <ele>396.2</ele>
        <time>2026-03-09T13:14:56Z</time>
      </trkpt>
      <trkpt lat="49.05203" lon="7.80042">
        <ele>393.6</ele>
        <time>2026-03-09T13:15:01Z</time>
      </trkpt>
      <trkpt lat="49.0521" lon="7.80044">
        <ele>391</ele>
        <time>2026-03-09T13:15:06Z</time>
      </trkpt>
      <trkpt lat="49.05218" lon="7.80042">
        <ele>388.9</ele>
        <time>2026-03-09T13:15:11Z</time>
      </trkpt>
      <trkpt lat="49.05227" lon="7.8004">
        <ele>386.6</ele>
        <time>2026-03-09T13:15:16Z</time>
      </trkpt>
      <trkpt lat="49.05235" lon="7.80034">
        <ele>385.8</ele>
        <time>2026-03-09T13:15:21Z</time>
      </trkpt>
      <trkpt lat="49.0524" lon="7.80027">
        <ele>386.3</ele>
        <time>2026-03-09T13:15:26Z</time>
      </trkpt>
      <trkpt lat="49.05246" lon="7.80018">
        <ele>387.4</ele>
        <time>2026-03-09T13:15:31Z</time>
      </trkpt>
      <trkpt lat="49.05251" lon="7.80011">
        <ele>388.3</ele>
        <time>2026-03-09T13:15:36Z</time>
      </trkpt>
      <trkpt lat="49.05256" lon="7.80004">
        <ele>389.3</ele>
        <time>2026-03-09T13:15:41Z</time>
      </trkpt>
      <trkpt lat="49.05262" lon="7.79995">
        <ele>390.5</ele>
        <time>2026-03-09T13:15:46Z</time>
      </trkpt>
      <trkpt lat="49.05267" lon="7.79988">
        <ele>391.3</ele>
        <time>2026-03-09T13:15:51Z</time>
      </trkpt>
      <trkpt lat="49.05273" lon="7.79978">
        <ele>392.7</ele>
        <time>2026-03-09T13:15:56Z</time>
      </trkpt>
      <trkpt lat="49.05277" lon="7.79969">
        <ele>394.2</ele>
        <time>2026-03-09T13:16:01Z</time>
      </trkpt>
      <trkpt lat="49.05281" lon="7.79966">
        <ele>393.8</ele>
        <time>2026-03-09T13:16:06Z</time>
      </trkpt>
      <trkpt lat="49.05281" lon="7.79965">
        <ele>394.1</ele>
        <time>2026-03-09T13:16:11Z</time>
      </trkpt>
      <trkpt lat="49.0528" lon="7.79963">
        <ele>395</ele>
        <time>2026-03-09T13:16:16Z</time>
      </trkpt>
      <trkpt lat="49.0528" lon="7.79963">
        <ele>395</ele>
        <time>2026-03-09T13:16:21Z</time>
      </trkpt>
      <trkpt lat="49.05283" lon="7.79956">
        <ele>396.1</ele>
        <time>2026-03-09T13:16:26Z</time>
      </trkpt>
      <trkpt lat="49.05285" lon="7.79952">
        <ele>396.6</ele>
        <time>2026-03-09T13:16:31Z</time>
      </trkpt>
      <trkpt lat="49.05289" lon="7.79945">
        <ele>397.2</ele>
        <time>2026-03-09T13:16:36Z</time>
      </trkpt>
      <trkpt lat="49.05297" lon="7.79938">
        <ele>396.5</ele>
        <time>2026-03-09T13:16:41Z</time>
      </trkpt>
      <trkpt lat="49.05307" lon="7.79929">
        <ele>395.4</ele>
        <time>2026-03-09T13:16:46Z</time>
      </trkpt>
      <trkpt lat="49.05318" lon="7.79923">
        <ele>393</ele>
        <time>2026-03-09T13:16:51Z</time>
      </trkpt>
      <trkpt lat="49.05324" lon="7.79918">
        <ele>392.1</ele>
        <time>2026-03-09T13:16:56Z</time>
      </trkpt>
      <trkpt lat="49.0533" lon="7.79912">
        <ele>390.9</ele>
        <time>2026-03-09T13:17:01Z</time>
      </trkpt>
      <trkpt lat="49.05336" lon="7.79912">
        <ele>388.8</ele>
        <time>2026-03-09T13:17:06Z</time>
      </trkpt>
      <trkpt lat="49.0534" lon="7.79907">
        <ele>388.1</ele>
        <time>2026-03-09T13:17:11Z</time>
      </trkpt>
      <trkpt lat="49.05346" lon="7.79903">
        <ele>386.5</ele>
        <time>2026-03-09T13:17:16Z</time>
      </trkpt>
      <trkpt lat="49.05352" lon="7.79899">
        <ele>385</ele>
        <time>2026-03-09T13:17:21Z</time>
      </trkpt>
      <trkpt lat="49.05358" lon="7.79894">
        <ele>383.6</ele>
        <time>2026-03-09T13:17:26Z</time>
      </trkpt>
      <trkpt lat="49.05363" lon="7.79889">
        <ele>382.5</ele>
        <time>2026-03-09T13:17:31Z</time>
      </trkpt>
      <trkpt lat="49.05369" lon="7.79881">
        <ele>381.5</ele>
        <time>2026-03-09T13:17:36Z</time>
      </trkpt>
      <trkpt lat="49.05375" lon="7.79871">
        <ele>380.8</ele>
        <time>2026-03-09T13:17:41Z</time>
      </trkpt>
      <trkpt lat="49.0538" lon="7.79864">
        <ele>380.1</ele>
        <time>2026-03-09T13:17:46Z</time>
      </trkpt>
      <trkpt lat="49.05385" lon="7.79859">
        <ele>379</ele>
        <time>2026-03-09T13:17:51Z</time>
      </trkpt>
      <trkpt lat="49.05391" lon="7.7985">
        <ele>378.1</ele>
        <time>2026-03-09T13:17:56Z</time>
      </trkpt>
      <trkpt lat="49.05394" lon="7.7984">
        <ele>378.5</ele>
        <time>2026-03-09T13:18:01Z</time>
      </trkpt>
      <trkpt lat="49.05396" lon="7.79831">
        <ele>378.8</ele>
        <time>2026-03-09T13:18:06Z</time>
      </trkpt>
      <trkpt lat="49.05394" lon="7.79819">
        <ele>379.9</ele>
        <time>2026-03-09T13:18:11Z</time>
      </trkpt>
      <trkpt lat="49.05395" lon="7.79807">
        <ele>380</ele>
        <time>2026-03-09T13:18:16Z</time>
      </trkpt>
      <trkpt lat="49.05396" lon="7.79797">
        <ele>380</ele>
        <time>2026-03-09T13:18:21Z</time>
      </trkpt>
      <trkpt lat="49.05397" lon="7.79785">
        <ele>380.1</ele>
        <time>2026-03-09T13:18:26Z</time>
      </trkpt>
      <trkpt lat="49.05398" lon="7.79774">
        <ele>380.1</ele>
        <time>2026-03-09T13:18:31Z</time>
      </trkpt>
      <trkpt lat="49.05397" lon="7.79764">
        <ele>380.8</ele>
        <time>2026-03-09T13:18:36Z</time>
      </trkpt>
      <trkpt lat="49.05397" lon="7.79754">
        <ele>381.2</ele>
        <time>2026-03-09T13:18:41Z</time>
      </trkpt>
      <trkpt lat="49.05397" lon="7.79744">
        <ele>381.1</ele>
        <time>2026-03-09T13:18:46Z</time>
      </trkpt>
      <trkpt lat="49.05395" lon="7.79732">
        <ele>381.5</ele>
        <time>2026-03-09T13:18:51Z</time>
      </trkpt>
      <trkpt lat="49.05393" lon="7.7972">
        <ele>381.8</ele>
        <time>2026-03-09T13:18:56Z</time>
      </trkpt>
      <trkpt lat="49.05394" lon="7.7971">
        <ele>381.1</ele>
        <time>2026-03-09T13:19:01Z</time>
      </trkpt>
      <trkpt lat="49.05393" lon="7.79696">
        <ele>381</ele>
        <time>2026-03-09T13:19:06Z</time>
      </trkpt>
      <trkpt lat="49.05392" lon="7.79683">
        <ele>380.9</ele>
        <time>2026-03-09T13:19:11Z</time>
      </trkpt>
      <trkpt lat="49.05392" lon="7.79669">
        <ele>380.4</ele>
        <time>2026-03-09T13:19:16Z</time>
      </trkpt>
      <trkpt lat="49.05389" lon="7.79656">
        <ele>380.4</ele>
        <time>2026-03-09T13:19:21Z</time>
      </trkpt>
      <trkpt lat="49.05386" lon="7.79647">
        <ele>380.7</ele>
        <time>2026-03-09T13:19:26Z</time>
      </trkpt>
      <trkpt lat="49.05383" lon="7.79642">
        <ele>381.2</ele>
        <time>2026-03-09T13:19:31Z</time>
      </trkpt>
      <trkpt lat="49.05381" lon="7.79638">
        <ele>381.5</ele>
        <time>2026-03-09T13:19:36Z</time>
      </trkpt>
      <trkpt lat="49.05381" lon="7.79633">
        <ele>381.1</ele>
        <time>2026-03-09T13:19:41Z</time>
      </trkpt>
      <trkpt lat="49.05379" lon="7.79631">
        <ele>381.5</ele>
        <time>2026-03-09T13:19:46Z</time>
      </trkpt>
      <trkpt lat="49.05379" lon="7.79631">
        <ele>381.5</ele>
        <time>2026-03-09T13:19:51Z</time>
      </trkpt>
      <trkpt lat="49.05369" lon="7.79621">
        <ele>383.7</ele>
        <time>2026-03-09T13:19:56Z</time>
      </trkpt>
      <trkpt lat="49.05366" lon="7.79614">
        <ele>383.9</ele>
        <time>2026-03-09T13:20:01Z</time>
      </trkpt>
      <trkpt lat="49.05365" lon="7.79607">
        <ele>383.6</ele>
        <time>2026-03-09T13:20:06Z</time>
      </trkpt>
      <trkpt lat="49.05364" lon="7.79597">
        <ele>382.9</ele>
        <time>2026-03-09T13:20:11Z</time>
      </trkpt>
      <trkpt lat="49.05363" lon="7.79586">
        <ele>382.1</ele>
        <time>2026-03-09T13:20:16Z</time>
      </trkpt>
      <trkpt lat="49.05359" lon="7.79573">
        <ele>381.7</ele>
        <time>2026-03-09T13:20:21Z</time>
      </trkpt>
      <trkpt lat="49.05359" lon="7.79561">
        <ele>380.2</ele>
        <time>2026-03-09T13:20:26Z</time>
      </trkpt>
      <trkpt lat="49.05359" lon="7.79552">
        <ele>379.1</ele>
        <time>2026-03-09T13:20:31Z</time>
      </trkpt>
      <trkpt lat="49.05356" lon="7.79543">
        <ele>378.8</ele>
        <time>2026-03-09T13:20:36Z</time>
      </trkpt>
      <trkpt lat="49.05354" lon="7.79534">
        <ele>378.2</ele>
        <time>2026-03-09T13:20:41Z</time>
      </trkpt>
      <trkpt lat="49.05354" lon="7.79524">
        <ele>377</ele>
        <time>2026-03-09T13:20:46Z</time>
      </trkpt>
      <trkpt lat="49.05356" lon="7.79513">
        <ele>375.1</ele>
        <time>2026-03-09T13:20:51Z</time>
      </trkpt>
      <trkpt lat="49.05355" lon="7.79503">
        <ele>374.2</ele>
        <time>2026-03-09T13:20:56Z</time>
      </trkpt>
      <trkpt lat="49.05353" lon="7.79494">
        <ele>373.2</ele>
        <time>2026-03-09T13:21:01Z</time>
      </trkpt>
      <trkpt lat="49.05351" lon="7.79484">
        <ele>371.8</ele>
        <time>2026-03-09T13:21:06Z</time>
      </trkpt>
      <trkpt lat="49.05348" lon="7.79473">
        <ele>370.4</ele>
        <time>2026-03-09T13:21:11Z</time>
      </trkpt>
      <trkpt lat="49.05342" lon="7.79463">
        <ele>369.7</ele>
        <time>2026-03-09T13:21:16Z</time>
      </trkpt>
      <trkpt lat="49.05337" lon="7.79459">
        <ele>369.9</ele>
        <time>2026-03-09T13:21:21Z</time>
      </trkpt>
      <trkpt lat="49.05334" lon="7.79454">
        <ele>369.5</ele>
        <time>2026-03-09T13:21:26Z</time>
      </trkpt>
      <trkpt lat="49.05333" lon="7.79447">
        <ele>368.2</ele>
        <time>2026-03-09T13:21:31Z</time>
      </trkpt>
      <trkpt lat="49.05334" lon="7.79439">
        <ele>366.4</ele>
        <time>2026-03-09T13:21:36Z</time>
      </trkpt>
      <trkpt lat="49.05334" lon="7.7943">
        <ele>364.6</ele>
        <time>2026-03-09T13:21:41Z</time>
      </trkpt>
      <trkpt lat="49.05332" lon="7.79421">
        <ele>363</ele>
        <time>2026-03-09T13:21:46Z</time>
      </trkpt>
      <trkpt lat="49.05329" lon="7.79414">
        <ele>362</ele>
        <time>2026-03-09T13:21:51Z</time>
      </trkpt>
      <trkpt lat="49.05325" lon="7.79404">
        <ele>360.6</ele>
        <time>2026-03-09T13:21:56Z</time>
      </trkpt>
      <trkpt lat="49.0532" lon="7.79404">
        <ele>361.1</ele>
        <time>2026-03-09T13:22:01Z</time>
      </trkpt>
      <trkpt lat="49.05314" lon="7.79405">
        <ele>361.8</ele>
        <time>2026-03-09T13:22:06Z</time>
      </trkpt>
      <trkpt lat="49.05311" lon="7.79398">
        <ele>360.9</ele>
        <time>2026-03-09T13:22:11Z</time>
      </trkpt>
      <trkpt lat="49.05306" lon="7.79386">
        <ele>359.2</ele>
        <time>2026-03-09T13:22:16Z</time>
      </trkpt>
      <trkpt lat="49.05302" lon="7.79373">
        <ele>357.3</ele>
        <time>2026-03-09T13:22:21Z</time>
      </trkpt>
      <trkpt lat="49.05304" lon="7.79361">
        <ele>355</ele>
        <time>2026-03-09T13:22:26Z</time>
      </trkpt>
      <trkpt lat="49.05306" lon="7.79353">
        <ele>353.4</ele>
        <time>2026-03-09T13:22:31Z</time>
      </trkpt>
      <trkpt lat="49.05306" lon="7.79353">
        <ele>353.4</ele>
        <time>2026-03-09T13:22:36Z</time>
      </trkpt>
      <trkpt lat="49.05306" lon="7.79353">
        <ele>353.4</ele>
        <time>2026-03-09T13:22:41Z</time>
      </trkpt>
      <trkpt lat="49.05306" lon="7.79353">
        <ele>353.4</ele>
        <time>2026-03-09T13:22:46Z</time>
      </trkpt>
      <trkpt lat="49.05306" lon="7.79353">
        <ele>353.4</ele>
        <time>2026-03-09T13:22:51Z</time>
      </trkpt>
      <trkpt lat="49.05306" lon="7.79353">
        <ele>353.4</ele>
        <time>2026-03-09T13:22:56Z</time>
      </trkpt>
      <trkpt lat="49.05308" lon="7.7935">
        <ele>352.7</ele>
        <time>2026-03-09T13:23:01Z</time>
      </trkpt>
      <trkpt lat="49.05308" lon="7.79349">
        <ele>352.6</ele>
        <time>2026-03-09T13:23:06Z</time>
      </trkpt>
      <trkpt lat="49.05309" lon="7.79345">
        <ele>351.8</ele>
        <time>2026-03-09T13:23:11Z</time>
      </trkpt>
      <trkpt lat="49.05313" lon="7.79337">
        <ele>350.1</ele>
        <time>2026-03-09T13:23:16Z</time>
      </trkpt>
      <trkpt lat="49.05314" lon="7.79331">
        <ele>349.3</ele>
        <time>2026-03-09T13:23:21Z</time>
      </trkpt>
      <trkpt lat="49.05314" lon="7.79324">
        <ele>348.9</ele>
        <time>2026-03-09T13:23:26Z</time>
      </trkpt>
      <trkpt lat="49.05311" lon="7.79318">
        <ele>348.7</ele>
        <time>2026-03-09T13:23:31Z</time>
      </trkpt>
      <trkpt lat="49.0531" lon="7.79309">
        <ele>348.2</ele>
        <time>2026-03-09T13:23:36Z</time>
      </trkpt>
      <trkpt lat="49.0531" lon="7.79302">
        <ele>347.8</ele>
        <time>2026-03-09T13:23:41Z</time>
      </trkpt>
      <trkpt lat="49.0531" lon="7.79293">
        <ele>347.3</ele>
        <time>2026-03-09T13:23:46Z</time>
      </trkpt>
      <trkpt lat="49.05311" lon="7.79286">
        <ele>346.8</ele>
        <time>2026-03-09T13:23:51Z</time>
      </trkpt>
      <trkpt lat="49.0531" lon="7.79275">
        <ele>346.2</ele>
        <time>2026-03-09T13:23:56Z</time>
      </trkpt>
      <trkpt lat="49.05309" lon="7.79265">
        <ele>345.6</ele>
        <time>2026-03-09T13:24:01Z</time>
      </trkpt>
      <trkpt lat="49.05309" lon="7.79255">
        <ele>345</ele>
        <time>2026-03-09T13:24:06Z</time>
      </trkpt>
      <trkpt lat="49.0531" lon="7.79248">
        <ele>344.9</ele>
        <time>2026-03-09T13:24:11Z</time>
      </trkpt>
      <trkpt lat="49.05311" lon="7.79242">
        <ele>345.4</ele>
        <time>2026-03-09T13:24:16Z</time>
      </trkpt>
      <trkpt lat="49.05311" lon="7.79233">
        <ele>346.2</ele>
        <time>2026-03-09T13:24:21Z</time>
      </trkpt>
      <trkpt lat="49.05312" lon="7.79226">
        <ele>346.9</ele>
        <time>2026-03-09T13:24:26Z</time>
      </trkpt>
      <trkpt lat="49.05314" lon="7.79222">
        <ele>347.3</ele>
        <time>2026-03-09T13:24:31Z</time>
      </trkpt>
      <trkpt lat="49.05313" lon="7.79217">
        <ele>347.7</ele>
        <time>2026-03-09T13:24:36Z</time>
      </trkpt>
      <trkpt lat="49.05313" lon="7.79212">
        <ele>348.2</ele>
        <time>2026-03-09T13:24:41Z</time>
      </trkpt>
      <trkpt lat="49.05313" lon="7.79207">
        <ele>348.6</ele>
        <time>2026-03-09T13:24:46Z</time>
      </trkpt>
      <trkpt lat="49.05313" lon="7.79201">
        <ele>349.2</ele>
        <time>2026-03-09T13:24:51Z</time>
      </trkpt>
      <trkpt lat="49.05313" lon="7.79195">
        <ele>349.7</ele>
        <time>2026-03-09T13:24:56Z</time>
      </trkpt>
      <trkpt lat="49.05313" lon="7.79189">
        <ele>350.3</ele>
        <time>2026-03-09T13:25:01Z</time>
      </trkpt>
      <trkpt lat="49.05314" lon="7.79184">
        <ele>350.8</ele>
        <time>2026-03-09T13:25:06Z</time>
      </trkpt>
      <trkpt lat="49.05314" lon="7.7918">
        <ele>351.2</ele>
        <time>2026-03-09T13:25:11Z</time>
      </trkpt>
      <trkpt lat="49.05314" lon="7.7918">
        <ele>351.2</ele>
        <time>2026-03-09T13:25:16Z</time>
      </trkpt>
      <trkpt lat="49.05314" lon="7.7918">
        <ele>351.2</ele>
        <time>2026-03-09T13:25:21Z</time>
      </trkpt>
      <trkpt lat="49.05314" lon="7.7918">
        <ele>351.2</ele>
        <time>2026-03-09T13:25:26Z</time>
      </trkpt>
      <trkpt lat="49.05314" lon="7.7918">
        <ele>351.2</ele>
        <time>2026-03-09T13:25:31Z</time>
      </trkpt>
      <trkpt lat="49.05314" lon="7.7918">
        <ele>351.2</ele>
        <time>2026-03-09T13:25:36Z</time>
      </trkpt>
      <trkpt lat="49.05314" lon="7.7918">
        <ele>351.2</ele>
        <time>2026-03-09T13:25:41Z</time>
      </trkpt>
      <trkpt lat="49.05314" lon="7.7918">
        <ele>351.2</ele>
        <time>2026-03-09T13:25:46Z</time>
      </trkpt>
      <trkpt lat="49.05314" lon="7.7918">
        <ele>351.2</ele>
        <time>2026-03-09T13:25:51Z</time>
      </trkpt>
      <trkpt lat="49.05314" lon="7.7918">
        <ele>351.2</ele>
        <time>2026-03-09T13:25:56Z</time>
      </trkpt>
      <trkpt lat="49.05314" lon="7.7918">
        <ele>351.2</ele>
        <time>2026-03-09T13:26:01Z</time>
      </trkpt>
      <trkpt lat="49.05311" lon="7.79178">
        <ele>351.1</ele>
        <time>2026-03-09T13:26:06Z</time>
      </trkpt>
      <trkpt lat="49.05308" lon="7.7917">
        <ele>351.6</ele>
        <time>2026-03-09T13:26:11Z</time>
      </trkpt>
      <trkpt lat="49.05308" lon="7.79164">
        <ele>352.3</ele>
        <time>2026-03-09T13:26:16Z</time>
      </trkpt>
      <trkpt lat="49.0531" lon="7.79159">
        <ele>353.1</ele>
        <time>2026-03-09T13:26:21Z</time>
      </trkpt>
      <trkpt lat="49.05312" lon="7.79154">
        <ele>354</ele>
        <time>2026-03-09T13:26:26Z</time>
      </trkpt>
      <trkpt lat="49.05313" lon="7.79152">
        <ele>354.4</ele>
        <time>2026-03-09T13:26:31Z</time>
      </trkpt>
      <trkpt lat="49.05315" lon="7.79145">
        <ele>355.6</ele>
        <time>2026-03-09T13:26:36Z</time>
      </trkpt>
      <trkpt lat="49.05315" lon="7.7914">
        <ele>356.3</ele>
        <time>2026-03-09T13:26:41Z</time>
      </trkpt>
      <trkpt lat="49.05314" lon="7.79135">
        <ele>356.9</ele>
        <time>2026-03-09T13:26:46Z</time>
      </trkpt>
      <trkpt lat="49.0531" lon="7.79128">
        <ele>357.6</ele>
        <time>2026-03-09T13:26:51Z</time>
      </trkpt>
      <trkpt lat="49.05308" lon="7.79122">
        <ele>358.3</ele>
        <time>2026-03-09T13:26:56Z</time>
      </trkpt>
      <trkpt lat="49.05303" lon="7.79117">
        <ele>358.6</ele>
        <time>2026-03-09T13:27:01Z</time>
      </trkpt>
      <trkpt lat="49.05302" lon="7.79111">
        <ele>359.4</ele>
        <time>2026-03-09T13:27:06Z</time>
      </trkpt>
      <trkpt lat="49.05299" lon="7.79104">
        <ele>360.1</ele>
        <time>2026-03-09T13:27:11Z</time>
      </trkpt>
      <trkpt lat="49.05297" lon="7.79098">
        <ele>360.8</ele>
        <time>2026-03-09T13:27:16Z</time>
      </trkpt>
      <trkpt lat="49.05295" lon="7.79092">
        <ele>361.5</ele>
        <time>2026-03-09T13:27:21Z</time>
      </trkpt>
      <trkpt lat="49.05291" lon="7.79087">
        <ele>361.9</ele>
        <time>2026-03-09T13:27:26Z</time>
      </trkpt>
      <trkpt lat="49.05288" lon="7.79084">
        <ele>362.1</ele>
        <time>2026-03-09T13:27:31Z</time>
      </trkpt>
      <trkpt lat="49.05284" lon="7.79079">
        <ele>362.6</ele>
        <time>2026-03-09T13:27:36Z</time>
      </trkpt>
      <trkpt lat="49.0528" lon="7.79076">
        <ele>362.7</ele>
        <time>2026-03-09T13:27:41Z</time>
      </trkpt>
      <trkpt lat="49.05275" lon="7.79074">
        <ele>362.6</ele>
        <time>2026-03-09T13:27:46Z</time>
      </trkpt>
      <trkpt lat="49.05272" lon="7.79069">
        <ele>363.1</ele>
        <time>2026-03-09T13:27:51Z</time>
      </trkpt>
      <trkpt lat="49.05269" lon="7.79067">
        <ele>363.1</ele>
        <time>2026-03-09T13:27:56Z</time>
      </trkpt>
      <trkpt lat="49.05266" lon="7.79061">
        <ele>363.8</ele>
        <time>2026-03-09T13:28:01Z</time>
      </trkpt>
      <trkpt lat="49.05263" lon="7.79056">
        <ele>364.2</ele>
        <time>2026-03-09T13:28:06Z</time>
      </trkpt>
      <trkpt lat="49.05259" lon="7.79051">
        <ele>364.6</ele>
        <time>2026-03-09T13:28:11Z</time>
      </trkpt>
      <trkpt lat="49.05255" lon="7.79047">
        <ele>364.8</ele>
        <time>2026-03-09T13:28:16Z</time>
      </trkpt>
      <trkpt lat="49.05253" lon="7.79044">
        <ele>365</ele>
        <time>2026-03-09T13:28:21Z</time>
      </trkpt>
      <trkpt lat="49.05249" lon="7.79039">
        <ele>365.4</ele>
        <time>2026-03-09T13:28:26Z</time>
      </trkpt>
      <trkpt lat="49.05246" lon="7.79035">
        <ele>365.9</ele>
        <time>2026-03-09T13:28:31Z</time>
      </trkpt>
      <trkpt lat="49.05244" lon="7.79032">
        <ele>366.3</ele>
        <time>2026-03-09T13:28:36Z</time>
      </trkpt>
      <trkpt lat="49.05241" lon="7.7903">
        <ele>366.5</ele>
        <time>2026-03-09T13:28:41Z</time>
      </trkpt>
      <trkpt lat="49.05238" lon="7.79025">
        <ele>367.2</ele>
        <time>2026-03-09T13:28:46Z</time>
      </trkpt>
      <trkpt lat="49.05236" lon="7.79022">
        <ele>367.6</ele>
        <time>2026-03-09T13:28:51Z</time>
      </trkpt>
      <trkpt lat="49.05232" lon="7.79017">
        <ele>368.3</ele>
        <time>2026-03-09T13:28:56Z</time>
      </trkpt>
      <trkpt lat="49.05231" lon="7.79015">
        <ele>368.6</ele>
        <time>2026-03-09T13:29:01Z</time>
      </trkpt>
      <trkpt lat="49.05231" lon="7.79015">
        <ele>368.6</ele>
        <time>2026-03-09T13:29:06Z</time>
      </trkpt>
      <trkpt lat="49.05231" lon="7.79015">
        <ele>368.6</ele>
        <time>2026-03-09T13:29:11Z</time>
      </trkpt>
      <trkpt lat="49.05231" lon="7.79015">
        <ele>368.6</ele>
        <time>2026-03-09T13:29:16Z</time>
      </trkpt>
      <trkpt lat="49.05225" lon="7.79003">
        <ele>370.3</ele>
        <time>2026-03-09T13:29:21Z</time>
      </trkpt>
      <trkpt lat="49.05225" lon="7.79003">
        <ele>370.3</ele>
        <time>2026-03-09T13:29:26Z</time>
      </trkpt>
      <trkpt lat="49.05218" lon="7.78998">
        <ele>371.1</ele>
        <time>2026-03-09T13:29:31Z</time>
      </trkpt>
      <trkpt lat="49.05215" lon="7.78995">
        <ele>371.7</ele>
        <time>2026-03-09T13:29:36Z</time>
      </trkpt>
      <trkpt lat="49.05213" lon="7.78992">
        <ele>372.3</ele>
        <time>2026-03-09T13:29:41Z</time>
      </trkpt>
      <trkpt lat="49.05209" lon="7.7899">
        <ele>372.7</ele>
        <time>2026-03-09T13:29:46Z</time>
      </trkpt>
      <trkpt lat="49.05206" lon="7.78986">
        <ele>373.5</ele>
        <time>2026-03-09T13:29:51Z</time>
      </trkpt>
      <trkpt lat="49.05203" lon="7.78983">
        <ele>374</ele>
        <time>2026-03-09T13:29:56Z</time>
      </trkpt>
      <trkpt lat="49.05202" lon="7.78981">
        <ele>374.4</ele>
        <time>2026-03-09T13:30:01Z</time>
      </trkpt>
      <trkpt lat="49.05202" lon="7.78981">
        <ele>374.4</ele>
        <time>2026-03-09T13:30:06Z</time>
      </trkpt>
      <trkpt lat="49.05202" lon="7.78981">
        <ele>374.4</ele>
        <time>2026-03-09T13:30:11Z</time>
      </trkpt>
      <trkpt lat="49.05193" lon="7.78974">
        <ele>375.6</ele>
        <time>2026-03-09T13:30:16Z</time>
      </trkpt>
      <trkpt lat="49.05193" lon="7.78974">
        <ele>375.6</ele>
        <time>2026-03-09T13:30:21Z</time>
      </trkpt>
      <trkpt lat="49.05188" lon="7.78969">
        <ele>376.4</ele>
        <time>2026-03-09T13:30:26Z</time>
      </trkpt>
      <trkpt lat="49.05184" lon="7.78968">
        <ele>376.4</ele>
        <time>2026-03-09T13:30:31Z</time>
      </trkpt>
      <trkpt lat="49.05179" lon="7.78967">
        <ele>376.4</ele>
        <time>2026-03-09T13:30:36Z</time>
      </trkpt>
      <trkpt lat="49.05177" lon="7.78964">
        <ele>376.9</ele>
        <time>2026-03-09T13:30:41Z</time>
      </trkpt>
      <trkpt lat="49.05175" lon="7.78959">
        <ele>377.8</ele>
        <time>2026-03-09T13:30:46Z</time>
      </trkpt>
      <trkpt lat="49.05171" lon="7.78955">
        <ele>378.3</ele>
        <time>2026-03-09T13:30:51Z</time>
      </trkpt>
      <trkpt lat="49.05168" lon="7.78949">
        <ele>379.3</ele>
        <time>2026-03-09T13:30:56Z</time>
      </trkpt>
      <trkpt lat="49.05166" lon="7.78944">
        <ele>380</ele>
        <time>2026-03-09T13:31:01Z</time>
      </trkpt>
      <trkpt lat="49.05166" lon="7.78938">
        <ele>381.1</ele>
        <time>2026-03-09T13:31:06Z</time>
      </trkpt>
      <trkpt lat="49.05162" lon="7.78936">
        <ele>381.1</ele>
        <time>2026-03-09T13:31:11Z</time>
      </trkpt>
      <trkpt lat="49.05159" lon="7.78935">
        <ele>381</ele>
        <time>2026-03-09T13:31:16Z</time>
      </trkpt>
      <trkpt lat="49.05154" lon="7.78928">
        <ele>381.8</ele>
        <time>2026-03-09T13:31:21Z</time>
      </trkpt>
      <trkpt lat="49.05149" lon="7.78926">
        <ele>381.6</ele>
        <time>2026-03-09T13:31:26Z</time>
      </trkpt>
      <trkpt lat="49.05145" lon="7.78922">
        <ele>381.8</ele>
        <time>2026-03-09T13:31:31Z</time>
      </trkpt>
      <trkpt lat="49.05142" lon="7.78918">
        <ele>382.1</ele>
        <time>2026-03-09T13:31:36Z</time>
      </trkpt>
      <trkpt lat="49.0514" lon="7.78913">
        <ele>382.8</ele>
        <time>2026-03-09T13:31:41Z</time>
      </trkpt>
      <trkpt lat="49.05139" lon="7.78908">
        <ele>383.5</ele>
        <time>2026-03-09T13:31:46Z</time>
      </trkpt>
      <trkpt lat="49.05138" lon="7.78907">
        <ele>383.6</ele>
        <time>2026-03-09T13:31:51Z</time>
      </trkpt>
      <trkpt lat="49.05139" lon="7.789">
        <ele>384.9</ele>
        <time>2026-03-09T13:31:56Z</time>
      </trkpt>
      <trkpt lat="49.05136" lon="7.78895">
        <ele>385.4</ele>
        <time>2026-03-09T13:32:01Z</time>
      </trkpt>
      <trkpt lat="49.05133" lon="7.7889">
        <ele>385.8</ele>
        <time>2026-03-09T13:32:06Z</time>
      </trkpt>
      <trkpt lat="49.0513" lon="7.78885">
        <ele>386.3</ele>
        <time>2026-03-09T13:32:11Z</time>
      </trkpt>
      <trkpt lat="49.05128" lon="7.78882">
        <ele>386.5</ele>
        <time>2026-03-09T13:32:16Z</time>
      </trkpt>
      <trkpt lat="49.05126" lon="7.78881">
        <ele>386.4</ele>
        <time>2026-03-09T13:32:21Z</time>
      </trkpt>
      <trkpt lat="49.05123" lon="7.78876">
        <ele>386.8</ele>
        <time>2026-03-09T13:32:26Z</time>
      </trkpt>
      <trkpt lat="49.05121" lon="7.78871">
        <ele>387.3</ele>
        <time>2026-03-09T13:32:31Z</time>
      </trkpt>
      <trkpt lat="49.05119" lon="7.78868">
        <ele>387.5</ele>
        <time>2026-03-09T13:32:36Z</time>
      </trkpt>
      <trkpt lat="49.05116" lon="7.78867">
        <ele>387.3</ele>
        <time>2026-03-09T13:32:41Z</time>
      </trkpt>
      <trkpt lat="49.05116" lon="7.78867">
        <ele>387.3</ele>
        <time>2026-03-09T13:32:46Z</time>
      </trkpt>
      <trkpt lat="49.05112" lon="7.78862">
        <ele>387.4</ele>
        <time>2026-03-09T13:32:51Z</time>
      </trkpt>
      <trkpt lat="49.0511" lon="7.78858">
        <ele>387.8</ele>
        <time>2026-03-09T13:32:56Z</time>
      </trkpt>
      <trkpt lat="49.05108" lon="7.78855">
        <ele>387.9</ele>
        <time>2026-03-09T13:33:01Z</time>
      </trkpt>
      <trkpt lat="49.05104" lon="7.78853">
        <ele>387.6</ele>
        <time>2026-03-09T13:33:06Z</time>
      </trkpt>
      <trkpt lat="49.05101" lon="7.7885">
        <ele>387.6</ele>
        <time>2026-03-09T13:33:11Z</time>
      </trkpt>
      <trkpt lat="49.05097" lon="7.78849">
        <ele>387.1</ele>
        <time>2026-03-09T13:33:16Z</time>
      </trkpt>
      <trkpt lat="49.05095" lon="7.78849">
        <ele>386.8</ele>
        <time>2026-03-09T13:33:21Z</time>
      </trkpt>
      <trkpt lat="49.05095" lon="7.78849">
        <ele>386.8</ele>
        <time>2026-03-09T13:33:26Z</time>
      </trkpt>
      <trkpt lat="49.05095" lon="7.78849">
        <ele>386.8</ele>
        <time>2026-03-09T13:33:31Z</time>
      </trkpt>
      <trkpt lat="49.05089" lon="7.78838">
        <ele>387.3</ele>
        <time>2026-03-09T13:33:36Z</time>
      </trkpt>
      <trkpt lat="49.05089" lon="7.78836">
        <ele>387.6</ele>
        <time>2026-03-09T13:33:41Z</time>
      </trkpt>
      <trkpt lat="49.05089" lon="7.78836">
        <ele>387.6</ele>
        <time>2026-03-09T13:33:46Z</time>
      </trkpt>
      <trkpt lat="49.05089" lon="7.78836">
        <ele>387.6</ele>
        <time>2026-03-09T13:33:51Z</time>
      </trkpt>
      <trkpt lat="49.05089" lon="7.78836">
        <ele>387.6</ele>
        <time>2026-03-09T13:33:56Z</time>
      </trkpt>
      <trkpt lat="49.05089" lon="7.78836">
        <ele>387.6</ele>
        <time>2026-03-09T13:34:01Z</time>
      </trkpt>
      <trkpt lat="49.05089" lon="7.78836">
        <ele>387.6</ele>
        <time>2026-03-09T13:34:06Z</time>
      </trkpt>
      <trkpt lat="49.05088" lon="7.78834">
        <ele>387.7</ele>
        <time>2026-03-09T13:34:11Z</time>
      </trkpt>
      <trkpt lat="49.05088" lon="7.78834">
        <ele>387.7</ele>
        <time>2026-03-09T13:34:16Z</time>
      </trkpt>
      <trkpt lat="49.05088" lon="7.78834">
        <ele>387.7</ele>
        <time>2026-03-09T13:34:21Z</time>
      </trkpt>
      <trkpt lat="49.05088" lon="7.78834">
        <ele>387.7</ele>
        <time>2026-03-09T13:34:26Z</time>
      </trkpt>
      <trkpt lat="49.05088" lon="7.78834">
        <ele>387.7</ele>
        <time>2026-03-09T13:34:31Z</time>
      </trkpt>
      <trkpt lat="49.05088" lon="7.78834">
        <ele>387.7</ele>
        <time>2026-03-09T13:34:36Z</time>
      </trkpt>
      <trkpt lat="49.05088" lon="7.78834">
        <ele>387.7</ele>
        <time>2026-03-09T13:34:41Z</time>
      </trkpt>
      <trkpt lat="49.05088" lon="7.78834">
        <ele>387.7</ele>
        <time>2026-03-09T13:34:46Z</time>
      </trkpt>
      <trkpt lat="49.05088" lon="7.78834">
        <ele>387.7</ele>
        <time>2026-03-09T13:34:51Z</time>
      </trkpt>
      <trkpt lat="49.05088" lon="7.78834">
        <ele>387.7</ele>
        <time>2026-03-09T13:34:56Z</time>
      </trkpt>
      <trkpt lat="49.05089" lon="7.78822">
        <ele>389</ele>
        <time>2026-03-09T13:35:01Z</time>
      </trkpt>
      <trkpt lat="49.05081" lon="7.7881">
        <ele>388.5</ele>
        <time>2026-03-09T13:35:06Z</time>
      </trkpt>
      <trkpt lat="49.05076" lon="7.78807">
        <ele>387.9</ele>
        <time>2026-03-09T13:35:11Z</time>
      </trkpt>
      <trkpt lat="49.05071" lon="7.78804">
        <ele>387.2</ele>
        <time>2026-03-09T13:35:16Z</time>
      </trkpt>
      <trkpt lat="49.05069" lon="7.78798">
        <ele>387.2</ele>
        <time>2026-03-09T13:35:21Z</time>
      </trkpt>
      <trkpt lat="49.05067" lon="7.7879">
        <ele>387.4</ele>
        <time>2026-03-09T13:35:26Z</time>
      </trkpt>
      <trkpt lat="49.05064" lon="7.78786">
        <ele>387</ele>
        <time>2026-03-09T13:35:31Z</time>
      </trkpt>
      <trkpt lat="49.05063" lon="7.78779">
        <ele>387.3</ele>
        <time>2026-03-09T13:35:36Z</time>
      </trkpt>
      <trkpt lat="49.05062" lon="7.78772">
        <ele>387.5</ele>
        <time>2026-03-09T13:35:41Z</time>
      </trkpt>
      <trkpt lat="49.05062" lon="7.78765">
        <ele>387.9</ele>
        <time>2026-03-09T13:35:46Z</time>
      </trkpt>
      <trkpt lat="49.05059" lon="7.78761">
        <ele>387.5</ele>
        <time>2026-03-09T13:35:51Z</time>
      </trkpt>
      <trkpt lat="49.05057" lon="7.78756">
        <ele>387.3</ele>
        <time>2026-03-09T13:35:56Z</time>
      </trkpt>
      <trkpt lat="49.05057" lon="7.78755">
        <ele>387.4</ele>
        <time>2026-03-09T13:36:01Z</time>
      </trkpt>
      <trkpt lat="49.05056" lon="7.78743">
        <ele>387.6</ele>
        <time>2026-03-09T13:36:06Z</time>
      </trkpt>
      <trkpt lat="49.05055" lon="7.78739">
        <ele>387.5</ele>
        <time>2026-03-09T13:36:11Z</time>
      </trkpt>
      <trkpt lat="49.05055" lon="7.78737">
        <ele>387.5</ele>
        <time>2026-03-09T13:36:16Z</time>
      </trkpt>
      <trkpt lat="49.05056" lon="7.78727">
        <ele>388</ele>
        <time>2026-03-09T13:36:21Z</time>
      </trkpt>
      <trkpt lat="49.05058" lon="7.78718">
        <ele>388.7</ele>
        <time>2026-03-09T13:36:26Z</time>
      </trkpt>
      <trkpt lat="49.05058" lon="7.7871">
        <ele>388.9</ele>
        <time>2026-03-09T13:36:31Z</time>
      </trkpt>
      <trkpt lat="49.05059" lon="7.78707">
        <ele>389.2</ele>
        <time>2026-03-09T13:36:36Z</time>
      </trkpt>
      <trkpt lat="49.05061" lon="7.78704">
        <ele>389.7</ele>
        <time>2026-03-09T13:36:41Z</time>
      </trkpt>
      <trkpt lat="49.05063" lon="7.78703">
        <ele>390.2</ele>
        <time>2026-03-09T13:36:46Z</time>
      </trkpt>
      <trkpt lat="49.05065" lon="7.78698">
        <ele>390.8</ele>
        <time>2026-03-09T13:36:51Z</time>
      </trkpt>
      <trkpt lat="49.05067" lon="7.78694">
        <ele>391.4</ele>
        <time>2026-03-09T13:36:56Z</time>
      </trkpt>
      <trkpt lat="49.05067" lon="7.7869">
        <ele>391.5</ele>
        <time>2026-03-09T13:37:01Z</time>
      </trkpt>
      <trkpt lat="49.05068" lon="7.78687">
        <ele>391.8</ele>
        <time>2026-03-09T13:37:06Z</time>
      </trkpt>
      <trkpt lat="49.05068" lon="7.78687">
        <ele>391.8</ele>
        <time>2026-03-09T13:37:11Z</time>
      </trkpt>
      <trkpt lat="49.0507" lon="7.78678">
        <ele>392.5</ele>
        <time>2026-03-09T13:37:16Z</time>
      </trkpt>
      <trkpt lat="49.05071" lon="7.78672">
        <ele>392.9</ele>
        <time>2026-03-09T13:37:21Z</time>
      </trkpt>
      <trkpt lat="49.05073" lon="7.78669">
        <ele>393.5</ele>
        <time>2026-03-09T13:37:26Z</time>
      </trkpt>
      <trkpt lat="49.05074" lon="7.78665">
        <ele>393.7</ele>
        <time>2026-03-09T13:37:31Z</time>
      </trkpt>
      <trkpt lat="49.05077" lon="7.78662">
        <ele>394.2</ele>
        <time>2026-03-09T13:37:36Z</time>
      </trkpt>
      <trkpt lat="49.05079" lon="7.78659">
        <ele>394.5</ele>
        <time>2026-03-09T13:37:41Z</time>
      </trkpt>
      <trkpt lat="49.0508" lon="7.78657">
        <ele>394.6</ele>
        <time>2026-03-09T13:37:46Z</time>
      </trkpt>
      <trkpt lat="49.05082" lon="7.78652">
        <ele>394.8</ele>
        <time>2026-03-09T13:37:51Z</time>
      </trkpt>
      <trkpt lat="49.05082" lon="7.78649">
        <ele>394.6</ele>
        <time>2026-03-09T13:37:56Z</time>
      </trkpt>
      <trkpt lat="49.05082" lon="7.78648">
        <ele>394.6</ele>
        <time>2026-03-09T13:38:01Z</time>
      </trkpt>
      <trkpt lat="49.05086" lon="7.78644">
        <ele>395.4</ele>
        <time>2026-03-09T13:38:06Z</time>
      </trkpt>
      <trkpt lat="49.05088" lon="7.7864">
        <ele>395.8</ele>
        <time>2026-03-09T13:38:11Z</time>
      </trkpt>
      <trkpt lat="49.05089" lon="7.78638">
        <ele>395.9</ele>
        <time>2026-03-09T13:38:16Z</time>
      </trkpt>
      <trkpt lat="49.05091" lon="7.78636">
        <ele>396.4</ele>
        <time>2026-03-09T13:38:21Z</time>
      </trkpt>
      <trkpt lat="49.05093" lon="7.78632">
        <ele>396.7</ele>
        <time>2026-03-09T13:38:26Z</time>
      </trkpt>
      <trkpt lat="49.05096" lon="7.7863">
        <ele>397.4</ele>
        <time>2026-03-09T13:38:31Z</time>
      </trkpt>
      <trkpt lat="49.051" lon="7.78626">
        <ele>398.2</ele>
        <time>2026-03-09T13:38:36Z</time>
      </trkpt>
      <trkpt lat="49.05103" lon="7.78623">
        <ele>398.8</ele>
        <time>2026-03-09T13:38:41Z</time>
      </trkpt>
      <trkpt lat="49.05104" lon="7.78622">
        <ele>399</ele>
        <time>2026-03-09T13:38:46Z</time>
      </trkpt>
      <trkpt lat="49.05107" lon="7.7862">
        <ele>399.6</ele>
        <time>2026-03-09T13:38:51Z</time>
      </trkpt>
      <trkpt lat="49.0511" lon="7.78617">
        <ele>400.1</ele>
        <time>2026-03-09T13:38:56Z</time>
      </trkpt>
      <trkpt lat="49.05111" lon="7.78616">
        <ele>400.3</ele>
        <time>2026-03-09T13:39:01Z</time>
      </trkpt>
      <trkpt lat="49.05111" lon="7.78617">
        <ele>400.4</ele>
        <time>2026-03-09T13:39:06Z</time>
      </trkpt>
      <trkpt lat="49.05111" lon="7.78617">
        <ele>400.4</ele>
        <time>2026-03-09T13:39:11Z</time>
      </trkpt>
      <trkpt lat="49.05121" lon="7.78615">
        <ele>402.9</ele>
        <time>2026-03-09T13:39:16Z</time>
      </trkpt>
      <trkpt lat="49.05125" lon="7.78617">
        <ele>404.1</ele>
        <time>2026-03-09T13:39:21Z</time>
      </trkpt>
      <trkpt lat="49.05126" lon="7.78617">
        <ele>404.4</ele>
        <time>2026-03-09T13:39:26Z</time>
      </trkpt>
      <trkpt lat="49.05126" lon="7.78617">
        <ele>404.4</ele>
        <time>2026-03-09T13:39:31Z</time>
      </trkpt>
      <trkpt lat="49.05126" lon="7.78617">
        <ele>404.4</ele>
        <time>2026-03-09T13:39:36Z</time>
      </trkpt>
      <trkpt lat="49.05126" lon="7.78617">
        <ele>404.4</ele>
        <time>2026-03-09T13:39:41Z</time>
      </trkpt>
      <trkpt lat="49.05126" lon="7.78617">
        <ele>404.4</ele>
        <time>2026-03-09T13:39:46Z</time>
      </trkpt>
      <trkpt lat="49.05126" lon="7.78617">
        <ele>404.4</ele>
        <time>2026-03-09T13:39:51Z</time>
      </trkpt>
      <trkpt lat="49.05126" lon="7.78617">
        <ele>404.4</ele>
        <time>2026-03-09T13:39:56Z</time>
      </trkpt>
      <trkpt lat="49.05134" lon="7.78615">
        <ele>406.3</ele>
        <time>2026-03-09T13:40:01Z</time>
      </trkpt>
      <trkpt lat="49.05138" lon="7.78609">
        <ele>406.6</ele>
        <time>2026-03-09T13:40:06Z</time>
      </trkpt>
      <trkpt lat="49.05142" lon="7.78603">
        <ele>406.9</ele>
        <time>2026-03-09T13:40:11Z</time>
      </trkpt>
      <trkpt lat="49.05145" lon="7.78601">
        <ele>407.4</ele>
        <time>2026-03-09T13:40:16Z</time>
      </trkpt>
      <trkpt lat="49.05148" lon="7.78599">
        <ele>407.9</ele>
        <time>2026-03-09T13:40:21Z</time>
      </trkpt>
      <trkpt lat="49.05151" lon="7.78593">
        <ele>407.8</ele>
        <time>2026-03-09T13:40:26Z</time>
      </trkpt>
      <trkpt lat="49.05155" lon="7.7859">
        <ele>408.3</ele>
        <time>2026-03-09T13:40:31Z</time>
      </trkpt>
      <trkpt lat="49.05158" lon="7.78589">
        <ele>408.9</ele>
        <time>2026-03-09T13:40:36Z</time>
      </trkpt>
      <trkpt lat="49.05162" lon="7.78585">
        <ele>409.2</ele>
        <time>2026-03-09T13:40:41Z</time>
      </trkpt>
      <trkpt lat="49.05164" lon="7.78581">
        <ele>408.9</ele>
        <time>2026-03-09T13:40:46Z</time>
      </trkpt>
      <trkpt lat="49.05168" lon="7.78575">
        <ele>408.8</ele>
        <time>2026-03-09T13:40:51Z</time>
      </trkpt>
      <trkpt lat="49.05173" lon="7.7857">
        <ele>409.6</ele>
        <time>2026-03-09T13:40:56Z</time>
      </trkpt>
      <trkpt lat="49.05177" lon="7.78566">
        <ele>410.2</ele>
        <time>2026-03-09T13:41:01Z</time>
      </trkpt>
      <trkpt lat="49.05182" lon="7.78563">
        <ele>411.4</ele>
        <time>2026-03-09T13:41:06Z</time>
      </trkpt>
      <trkpt lat="49.05187" lon="7.7856">
        <ele>412.5</ele>
        <time>2026-03-09T13:41:11Z</time>
      </trkpt>
      <trkpt lat="49.05191" lon="7.78554">
        <ele>412.5</ele>
        <time>2026-03-09T13:41:16Z</time>
      </trkpt>
      <trkpt lat="49.05196" lon="7.7855">
        <ele>413.3</ele>
        <time>2026-03-09T13:41:21Z</time>
      </trkpt>
      <trkpt lat="49.052" lon="7.78543">
        <ele>413</ele>
        <time>2026-03-09T13:41:26Z</time>
      </trkpt>
      <trkpt lat="49.05206" lon="7.78537">
        <ele>413.6</ele>
        <time>2026-03-09T13:41:31Z</time>
      </trkpt>
      <trkpt lat="49.0521" lon="7.78533">
        <ele>413.9</ele>
        <time>2026-03-09T13:41:36Z</time>
      </trkpt>
      <trkpt lat="49.05215" lon="7.78531">
        <ele>415</ele>
        <time>2026-03-09T13:41:41Z</time>
      </trkpt>
      <trkpt lat="49.0522" lon="7.78526">
        <ele>415.3</ele>
        <time>2026-03-09T13:41:46Z</time>
      </trkpt>
      <trkpt lat="49.05225" lon="7.78519">
        <ele>415</ele>
        <time>2026-03-09T13:41:51Z</time>
      </trkpt>
      <trkpt lat="49.0523" lon="7.78515">
        <ele>415.4</ele>
        <time>2026-03-09T13:41:56Z</time>
      </trkpt>
      <trkpt lat="49.05235" lon="7.7851">
        <ele>415.5</ele>
        <time>2026-03-09T13:42:01Z</time>
      </trkpt>
      <trkpt lat="49.05238" lon="7.78506">
        <ele>415.3</ele>
        <time>2026-03-09T13:42:06Z</time>
      </trkpt>
      <trkpt lat="49.05243" lon="7.78501">
        <ele>415.3</ele>
        <time>2026-03-09T13:42:11Z</time>
      </trkpt>
      <trkpt lat="49.05246" lon="7.78497">
        <ele>415</ele>
        <time>2026-03-09T13:42:16Z</time>
      </trkpt>
      <trkpt lat="49.05249" lon="7.78493">
        <ele>414.7</ele>
        <time>2026-03-09T13:42:21Z</time>
      </trkpt>
      <trkpt lat="49.05254" lon="7.78488">
        <ele>415</ele>
        <time>2026-03-09T13:42:26Z</time>
      </trkpt>
      <trkpt lat="49.05258" lon="7.78483">
        <ele>415</ele>
        <time>2026-03-09T13:42:31Z</time>
      </trkpt>
      <trkpt lat="49.05262" lon="7.78478">
        <ele>415</ele>
        <time>2026-03-09T13:42:36Z</time>
      </trkpt>
      <trkpt lat="49.05268" lon="7.78474">
        <ele>416</ele>
        <time>2026-03-09T13:42:41Z</time>
      </trkpt>
      <trkpt lat="49.05273" lon="7.78469">
        <ele>416.3</ele>
        <time>2026-03-09T13:42:46Z</time>
      </trkpt>
      <trkpt lat="49.05278" lon="7.78467">
        <ele>417.5</ele>
        <time>2026-03-09T13:42:51Z</time>
      </trkpt>
      <trkpt lat="49.05284" lon="7.78464">
        <ele>418.8</ele>
        <time>2026-03-09T13:42:56Z</time>
      </trkpt>
      <trkpt lat="49.05288" lon="7.7846">
        <ele>419</ele>
        <time>2026-03-09T13:43:01Z</time>
      </trkpt>
      <trkpt lat="49.05292" lon="7.78455">
        <ele>418.8</ele>
        <time>2026-03-09T13:43:06Z</time>
      </trkpt>
      <trkpt lat="49.05297" lon="7.78453">
        <ele>420</ele>
        <time>2026-03-09T13:43:11Z</time>
      </trkpt>
      <trkpt lat="49.05302" lon="7.78451">
        <ele>421.1</ele>
        <time>2026-03-09T13:43:16Z</time>
      </trkpt>
      <trkpt lat="49.05306" lon="7.78448">
        <ele>421.6</ele>
        <time>2026-03-09T13:43:21Z</time>
      </trkpt>
      <trkpt lat="49.05308" lon="7.78444">
        <ele>421</ele>
        <time>2026-03-09T13:43:26Z</time>
      </trkpt>
      <trkpt lat="49.05311" lon="7.78439">
        <ele>420.5</ele>
        <time>2026-03-09T13:43:31Z</time>
      </trkpt>
      <trkpt lat="49.05314" lon="7.78434">
        <ele>420</ele>
        <time>2026-03-09T13:43:36Z</time>
      </trkpt>
      <trkpt lat="49.05319" lon="7.78429">
        <ele>420.1</ele>
        <time>2026-03-09T13:43:41Z</time>
      </trkpt>
      <trkpt lat="49.05322" lon="7.78423">
        <ele>419.2</ele>
        <time>2026-03-09T13:43:46Z</time>
      </trkpt>
      <trkpt lat="49.05326" lon="7.78418">
        <ele>419</ele>
        <time>2026-03-09T13:43:51Z</time>
      </trkpt>
      <trkpt lat="49.05329" lon="7.78414">
        <ele>418.8</ele>
        <time>2026-03-09T13:43:56Z</time>
      </trkpt>
      <trkpt lat="49.05332" lon="7.78409">
        <ele>418.5</ele>
        <time>2026-03-09T13:44:01Z</time>
      </trkpt>
      <trkpt lat="49.05335" lon="7.78404">
        <ele>418.5</ele>
        <time>2026-03-09T13:44:06Z</time>
      </trkpt>
      <trkpt lat="49.05338" lon="7.78398">
        <ele>418.4</ele>
        <time>2026-03-09T13:44:11Z</time>
      </trkpt>
      <trkpt lat="49.05342" lon="7.78391">
        <ele>418.7</ele>
        <time>2026-03-09T13:44:16Z</time>
      </trkpt>
      <trkpt lat="49.05343" lon="7.78385">
        <ele>417.6</ele>
        <time>2026-03-09T13:44:21Z</time>
      </trkpt>
      <trkpt lat="49.05344" lon="7.7838">
        <ele>416.8</ele>
        <time>2026-03-09T13:44:26Z</time>
      </trkpt>
      <trkpt lat="49.05347" lon="7.78377">
        <ele>417.6</ele>
        <time>2026-03-09T13:44:31Z</time>
      </trkpt>
      <trkpt lat="49.05351" lon="7.78374">
        <ele>418.9</ele>
        <time>2026-03-09T13:44:36Z</time>
      </trkpt>
      <trkpt lat="49.05354" lon="7.78369">
        <ele>419.1</ele>
        <time>2026-03-09T13:44:41Z</time>
      </trkpt>
      <trkpt lat="49.05357" lon="7.78363">
        <ele>419.1</ele>
        <time>2026-03-09T13:44:46Z</time>
      </trkpt>
      <trkpt lat="49.0536" lon="7.78357">
        <ele>419.1</ele>
        <time>2026-03-09T13:44:51Z</time>
      </trkpt>
      <trkpt lat="49.05363" lon="7.78352">
        <ele>419.4</ele>
        <time>2026-03-09T13:44:56Z</time>
      </trkpt>
      <trkpt lat="49.05365" lon="7.78347">
        <ele>419.2</ele>
        <time>2026-03-09T13:45:01Z</time>
      </trkpt>
      <trkpt lat="49.05366" lon="7.7834">
        <ele>417.9</ele>
        <time>2026-03-09T13:45:06Z</time>
      </trkpt>
      <trkpt lat="49.05368" lon="7.78333">
        <ele>417.2</ele>
        <time>2026-03-09T13:45:11Z</time>
      </trkpt>
      <trkpt lat="49.05369" lon="7.78328">
        <ele>416.5</ele>
        <time>2026-03-09T13:45:16Z</time>
      </trkpt>
      <trkpt lat="49.05367" lon="7.78322">
        <ele>413.8</ele>
        <time>2026-03-09T13:45:21Z</time>
      </trkpt>
      <trkpt lat="49.05366" lon="7.78319">
        <ele>412.5</ele>
        <time>2026-03-09T13:45:26Z</time>
      </trkpt>
      <trkpt lat="49.05366" lon="7.78319">
        <ele>412.5</ele>
        <time>2026-03-09T13:45:31Z</time>
      </trkpt>
      <trkpt lat="49.05366" lon="7.78319">
        <ele>412.5</ele>
        <time>2026-03-09T13:45:36Z</time>
      </trkpt>
      <trkpt lat="49.05366" lon="7.78319">
        <ele>412.5</ele>
        <time>2026-03-09T13:45:41Z</time>
      </trkpt>
      <trkpt lat="49.05366" lon="7.78319">
        <ele>412.5</ele>
        <time>2026-03-09T13:45:46Z</time>
      </trkpt>
      <trkpt lat="49.05366" lon="7.78319">
        <ele>412.5</ele>
        <time>2026-03-09T13:45:51Z</time>
      </trkpt>
      <trkpt lat="49.05366" lon="7.78319">
        <ele>412.5</ele>
        <time>2026-03-09T13:45:56Z</time>
      </trkpt>
      <trkpt lat="49.05366" lon="7.78319">
        <ele>412.5</ele>
        <time>2026-03-09T13:46:01Z</time>
      </trkpt>
      <trkpt lat="49.05366" lon="7.78319">
        <ele>412.5</ele>
        <time>2026-03-09T13:46:06Z</time>
      </trkpt>
      <trkpt lat="49.05366" lon="7.78319">
        <ele>412.5</ele>
        <time>2026-03-09T13:46:11Z</time>
      </trkpt>
      <trkpt lat="49.05372" lon="7.78317">
        <ele>415.2</ele>
        <time>2026-03-09T13:46:16Z</time>
      </trkpt>
      <trkpt lat="49.05378" lon="7.78314">
        <ele>417.6</ele>
        <time>2026-03-09T13:46:21Z</time>
      </trkpt>
      <trkpt lat="49.05382" lon="7.78307">
        <ele>417.9</ele>
        <time>2026-03-09T13:46:26Z</time>
      </trkpt>
      <trkpt lat="49.05383" lon="7.783">
        <ele>416.7</ele>
        <time>2026-03-09T13:46:31Z</time>
      </trkpt>
      <trkpt lat="49.05386" lon="7.78294">
        <ele>416.7</ele>
        <time>2026-03-09T13:46:36Z</time>
      </trkpt>
      <trkpt lat="49.05389" lon="7.78292">
        <ele>417.8</ele>
        <time>2026-03-09T13:46:41Z</time>
      </trkpt>
      <trkpt lat="49.05393" lon="7.78289">
        <ele>419.2</ele>
        <time>2026-03-09T13:46:46Z</time>
      </trkpt>
      <trkpt lat="49.05397" lon="7.78287">
        <ele>420.8</ele>
        <time>2026-03-09T13:46:51Z</time>
      </trkpt>
      <trkpt lat="49.054" lon="7.78279">
        <ele>420.4</ele>
        <time>2026-03-09T13:46:56Z</time>
      </trkpt>
      <trkpt lat="49.05402" lon="7.78273">
        <ele>419.9</ele>
        <time>2026-03-09T13:47:01Z</time>
      </trkpt>
      <trkpt lat="49.05405" lon="7.78267">
        <ele>420</ele>
        <time>2026-03-09T13:47:06Z</time>
      </trkpt>
      <trkpt lat="49.05408" lon="7.78262">
        <ele>420.4</ele>
        <time>2026-03-09T13:47:11Z</time>
      </trkpt>
      <trkpt lat="49.05411" lon="7.78255">
        <ele>420.2</ele>
        <time>2026-03-09T13:47:16Z</time>
      </trkpt>
      <trkpt lat="49.05413" lon="7.7825">
        <ele>420</ele>
        <time>2026-03-09T13:47:21Z</time>
      </trkpt>
      <trkpt lat="49.05416" lon="7.78243">
        <ele>421.3</ele>
        <time>2026-03-09T13:47:26Z</time>
      </trkpt>
      <trkpt lat="49.05418" lon="7.78239">
        <ele>422.3</ele>
        <time>2026-03-09T13:47:31Z</time>
      </trkpt>
      <trkpt lat="49.05421" lon="7.78235">
        <ele>423.9</ele>
        <time>2026-03-09T13:47:36Z</time>
      </trkpt>
      <trkpt lat="49.05423" lon="7.7823">
        <ele>424.9</ele>
        <time>2026-03-09T13:47:41Z</time>
      </trkpt>
      <trkpt lat="49.05425" lon="7.78225">
        <ele>425.9</ele>
        <time>2026-03-09T13:47:46Z</time>
      </trkpt>
      <trkpt lat="49.05427" lon="7.78218">
        <ele>426.7</ele>
        <time>2026-03-09T13:47:51Z</time>
      </trkpt>
      <trkpt lat="49.05429" lon="7.78213">
        <ele>427.7</ele>
        <time>2026-03-09T13:47:56Z</time>
      </trkpt>
      <trkpt lat="49.05432" lon="7.78207">
        <ele>429.1</ele>
        <time>2026-03-09T13:48:01Z</time>
      </trkpt>
      <trkpt lat="49.05431" lon="7.782">
        <ele>428.1</ele>
        <time>2026-03-09T13:48:06Z</time>
      </trkpt>
      <trkpt lat="49.05432" lon="7.78197">
        <ele>428.6</ele>
        <time>2026-03-09T13:48:11Z</time>
      </trkpt>
      <trkpt lat="49.05435" lon="7.78191">
        <ele>430</ele>
        <time>2026-03-09T13:48:16Z</time>
      </trkpt>
      <trkpt lat="49.05437" lon="7.78186">
        <ele>430.9</ele>
        <time>2026-03-09T13:48:21Z</time>
      </trkpt>
      <trkpt lat="49.0544" lon="7.78181">
        <ele>432.3</ele>
        <time>2026-03-09T13:48:26Z</time>
      </trkpt>
      <trkpt lat="49.05441" lon="7.78178">
        <ele>432.7</ele>
        <time>2026-03-09T13:48:31Z</time>
      </trkpt>
      <trkpt lat="49.05441" lon="7.78174">
        <ele>432.5</ele>
        <time>2026-03-09T13:48:36Z</time>
      </trkpt>
      <trkpt lat="49.05441" lon="7.7817">
        <ele>432.2</ele>
        <time>2026-03-09T13:48:41Z</time>
      </trkpt>
      <trkpt lat="49.05441" lon="7.7817">
        <ele>432.2</ele>
        <time>2026-03-09T13:48:46Z</time>
      </trkpt>
      <trkpt lat="49.05441" lon="7.7817">
        <ele>432.2</ele>
        <time>2026-03-09T13:48:51Z</time>
      </trkpt>
      <trkpt lat="49.05441" lon="7.7817">
        <ele>432.2</ele>
        <time>2026-03-09T13:48:56Z</time>
      </trkpt>
      <trkpt lat="49.05444" lon="7.78157">
        <ele>435.7</ele>
        <time>2026-03-09T13:49:01Z</time>
      </trkpt>
      <trkpt lat="49.05445" lon="7.78152">
        <ele>437.2</ele>
        <time>2026-03-09T13:49:06Z</time>
      </trkpt>
      <trkpt lat="49.05446" lon="7.78146">
        <ele>438.9</ele>
        <time>2026-03-09T13:49:11Z</time>
      </trkpt>
      <trkpt lat="49.05447" lon="7.78139">
        <ele>440.8</ele>
        <time>2026-03-09T13:49:16Z</time>
      </trkpt>
      <trkpt lat="49.05449" lon="7.78132">
        <ele>443.1</ele>
        <time>2026-03-09T13:49:21Z</time>
      </trkpt>
      <trkpt lat="49.05449" lon="7.78127">
        <ele>444.1</ele>
        <time>2026-03-09T13:49:26Z</time>
      </trkpt>
      <trkpt lat="49.05451" lon="7.78122">
        <ele>445.9</ele>
        <time>2026-03-09T13:49:31Z</time>
      </trkpt>
      <trkpt lat="49.05452" lon="7.78115">
        <ele>447.6</ele>
        <time>2026-03-09T13:49:36Z</time>
      </trkpt>
      <trkpt lat="49.05455" lon="7.78108">
        <ele>450.1</ele>
        <time>2026-03-09T13:49:41Z</time>
      </trkpt>
      <trkpt lat="49.0546" lon="7.78107">
        <ele>452.4</ele>
        <time>2026-03-09T13:49:46Z</time>
      </trkpt>
      <trkpt lat="49.05465" lon="7.78115">
        <ele>453.3</ele>
        <time>2026-03-09T13:49:51Z</time>
      </trkpt>
      <trkpt lat="49.05465" lon="7.7812">
        <ele>452.5</ele>
        <time>2026-03-09T13:49:56Z</time>
      </trkpt>
      <trkpt lat="49.05465" lon="7.7812">
        <ele>452.5</ele>
        <time>2026-03-09T13:50:01Z</time>
      </trkpt>
      <trkpt lat="49.05459" lon="7.78107">
        <ele>451.9</ele>
        <time>2026-03-09T13:50:06Z</time>
      </trkpt>
      <trkpt lat="49.05452" lon="7.78094">
        <ele>451.4</ele>
        <time>2026-03-09T13:50:11Z</time>
      </trkpt>
      <trkpt lat="49.05443" lon="7.78092">
        <ele>448.4</ele>
        <time>2026-03-09T13:50:16Z</time>
      </trkpt>
      <trkpt lat="49.05438" lon="7.78088">
        <ele>447.4</ele>
        <time>2026-03-09T13:50:21Z</time>
      </trkpt>
      <trkpt lat="49.05433" lon="7.78084">
        <ele>446.5</ele>
        <time>2026-03-09T13:50:26Z</time>
      </trkpt>
      <trkpt lat="49.05429" lon="7.78081">
        <ele>445.7</ele>
        <time>2026-03-09T13:50:31Z</time>
      </trkpt>
      <trkpt lat="49.05429" lon="7.78081">
        <ele>445.7</ele>
        <time>2026-03-09T13:50:36Z</time>
      </trkpt>
      <trkpt lat="49.05429" lon="7.78081">
        <ele>445.7</ele>
        <time>2026-03-09T13:50:41Z</time>
      </trkpt>
      <trkpt lat="49.05429" lon="7.78081">
        <ele>445.7</ele>
        <time>2026-03-09T13:50:46Z</time>
      </trkpt>
      <trkpt lat="49.05429" lon="7.78081">
        <ele>445.7</ele>
        <time>2026-03-09T13:50:51Z</time>
      </trkpt>
      <trkpt lat="49.05429" lon="7.78081">
        <ele>445.7</ele>
        <time>2026-03-09T13:50:56Z</time>
      </trkpt>
      <trkpt lat="49.05429" lon="7.78081">
        <ele>445.7</ele>
        <time>2026-03-09T13:51:01Z</time>
      </trkpt>
      <trkpt lat="49.05429" lon="7.78081">
        <ele>445.7</ele>
        <time>2026-03-09T13:51:06Z</time>
      </trkpt>
      <trkpt lat="49.05429" lon="7.78081">
        <ele>445.7</ele>
        <time>2026-03-09T13:51:11Z</time>
      </trkpt>
      <trkpt lat="49.05429" lon="7.78081">
        <ele>445.7</ele>
        <time>2026-03-09T13:51:16Z</time>
      </trkpt>
      <trkpt lat="49.05429" lon="7.78081">
        <ele>445.7</ele>
        <time>2026-03-09T13:51:21Z</time>
      </trkpt>
      <trkpt lat="49.05429" lon="7.78081">
        <ele>445.7</ele>
        <time>2026-03-09T13:51:26Z</time>
      </trkpt>
      <trkpt lat="49.05429" lon="7.78081">
        <ele>445.7</ele>
        <time>2026-03-09T13:51:31Z</time>
      </trkpt>
      <trkpt lat="49.05429" lon="7.78081">
        <ele>445.7</ele>
        <time>2026-03-09T13:51:36Z</time>
      </trkpt>
      <trkpt lat="49.05429" lon="7.78081">
        <ele>445.7</ele>
        <time>2026-03-09T13:51:41Z</time>
      </trkpt>
      <trkpt lat="49.05429" lon="7.78081">
        <ele>445.7</ele>
        <time>2026-03-09T13:51:46Z</time>
      </trkpt>
      <trkpt lat="49.05429" lon="7.78081">
        <ele>445.7</ele>
        <time>2026-03-09T13:51:51Z</time>
      </trkpt>
      <trkpt lat="49.05429" lon="7.78081">
        <ele>445.7</ele>
        <time>2026-03-09T13:51:56Z</time>
      </trkpt>
      <trkpt lat="49.05429" lon="7.78081">
        <ele>445.7</ele>
        <time>2026-03-09T13:52:01Z</time>
      </trkpt>
      <trkpt lat="49.05424" lon="7.78072">
        <ele>445.6</ele>
        <time>2026-03-09T13:52:06Z</time>
      </trkpt>
      <trkpt lat="49.05419" lon="7.78067">
        <ele>445.2</ele>
        <time>2026-03-09T13:52:11Z</time>
      </trkpt>
      <trkpt lat="49.05413" lon="7.78064">
        <ele>443.4</ele>
        <time>2026-03-09T13:52:16Z</time>
      </trkpt>
      <trkpt lat="49.05414" lon="7.78059">
        <ele>445</ele>
        <time>2026-03-09T13:52:21Z</time>
      </trkpt>
      <trkpt lat="49.0542" lon="7.78053">
        <ele>448.2</ele>
        <time>2026-03-09T13:52:26Z</time>
      </trkpt>
      <trkpt lat="49.05422" lon="7.78049">
        <ele>449.4</ele>
        <time>2026-03-09T13:52:31Z</time>
      </trkpt>
      <trkpt lat="49.05423" lon="7.78043">
        <ele>450.7</ele>
        <time>2026-03-09T13:52:36Z</time>
      </trkpt>
      <trkpt lat="49.05424" lon="7.78042">
        <ele>451</ele>
        <time>2026-03-09T13:52:41Z</time>
      </trkpt>
      <trkpt lat="49.05421" lon="7.78032">
        <ele>452.5</ele>
        <time>2026-03-09T13:52:46Z</time>
      </trkpt>
      <trkpt lat="49.05419" lon="7.78029">
        <ele>452.9</ele>
        <time>2026-03-09T13:52:51Z</time>
      </trkpt>
      <trkpt lat="49.05415" lon="7.78027">
        <ele>452.5</ele>
        <time>2026-03-09T13:52:56Z</time>
      </trkpt>
      <trkpt lat="49.05414" lon="7.78027">
        <ele>452.1</ele>
        <time>2026-03-09T13:53:01Z</time>
      </trkpt>
      <trkpt lat="49.05414" lon="7.78027">
        <ele>452.1</ele>
        <time>2026-03-09T13:53:06Z</time>
      </trkpt>
      <trkpt lat="49.05414" lon="7.78027">
        <ele>452.1</ele>
        <time>2026-03-09T13:53:11Z</time>
      </trkpt>
      <trkpt lat="49.05408" lon="7.78019">
        <ele>451.4</ele>
        <time>2026-03-09T13:53:16Z</time>
      </trkpt>
      <trkpt lat="49.05406" lon="7.78013">
        <ele>452</ele>
        <time>2026-03-09T13:53:21Z</time>
      </trkpt>
      <trkpt lat="49.05403" lon="7.78009">
        <ele>451.8</ele>
        <time>2026-03-09T13:53:26Z</time>
      </trkpt>
      <trkpt lat="49.05401" lon="7.78006">
        <ele>451.7</ele>
        <time>2026-03-09T13:53:31Z</time>
      </trkpt>
      <trkpt lat="49.05399" lon="7.78002">
        <ele>451.9</ele>
        <time>2026-03-09T13:53:36Z</time>
      </trkpt>
      <trkpt lat="49.05397" lon="7.77998">
        <ele>451.4</ele>
        <time>2026-03-09T13:53:41Z</time>
      </trkpt>
      <trkpt lat="49.05395" lon="7.77994">
        <ele>450.3</ele>
        <time>2026-03-09T13:53:46Z</time>
      </trkpt>
      <trkpt lat="49.05391" lon="7.77989">
        <ele>448.4</ele>
        <time>2026-03-09T13:53:51Z</time>
      </trkpt>
      <trkpt lat="49.05388" lon="7.77987">
        <ele>447.3</ele>
        <time>2026-03-09T13:53:56Z</time>
      </trkpt>
      <trkpt lat="49.05384" lon="7.77981">
        <ele>445.7</ele>
        <time>2026-03-09T13:54:01Z</time>
      </trkpt>
      <trkpt lat="49.0538" lon="7.77979">
        <ele>444.4</ele>
        <time>2026-03-09T13:54:06Z</time>
      </trkpt>
      <trkpt lat="49.05374" lon="7.77977">
        <ele>442.7</ele>
        <time>2026-03-09T13:54:11Z</time>
      </trkpt>
      <trkpt lat="49.0537" lon="7.77975">
        <ele>441.6</ele>
        <time>2026-03-09T13:54:16Z</time>
      </trkpt>
      <trkpt lat="49.05366" lon="7.77972">
        <ele>440.6</ele>
        <time>2026-03-09T13:54:21Z</time>
      </trkpt>
      <trkpt lat="49.05362" lon="7.77966">
        <ele>439.8</ele>
        <time>2026-03-09T13:54:26Z</time>
      </trkpt>
      <trkpt lat="49.05359" lon="7.77961">
        <ele>439.3</ele>
        <time>2026-03-09T13:54:31Z</time>
      </trkpt>
      <trkpt lat="49.05354" lon="7.77957">
        <ele>438.6</ele>
        <time>2026-03-09T13:54:36Z</time>
      </trkpt>
      <trkpt lat="49.05352" lon="7.77961">
        <ele>437.9</ele>
        <time>2026-03-09T13:54:41Z</time>
      </trkpt>
      <trkpt lat="49.05352" lon="7.77965">
        <ele>437.6</ele>
        <time>2026-03-09T13:54:46Z</time>
      </trkpt>
      <trkpt lat="49.05352" lon="7.77965">
        <ele>437.6</ele>
        <time>2026-03-09T13:54:51Z</time>
      </trkpt>
      <trkpt lat="49.05352" lon="7.77965">
        <ele>437.6</ele>
        <time>2026-03-09T13:54:56Z</time>
      </trkpt>
      <trkpt lat="49.05352" lon="7.77965">
        <ele>437.6</ele>
        <time>2026-03-09T13:55:01Z</time>
      </trkpt>
      <trkpt lat="49.05352" lon="7.77965">
        <ele>437.6</ele>
        <time>2026-03-09T13:55:06Z</time>
      </trkpt>
      <trkpt lat="49.05352" lon="7.77965">
        <ele>437.6</ele>
        <time>2026-03-09T13:55:11Z</time>
      </trkpt>
      <trkpt lat="49.05352" lon="7.77965">
        <ele>437.6</ele>
        <time>2026-03-09T13:55:16Z</time>
      </trkpt>
      <trkpt lat="49.05352" lon="7.77965">
        <ele>437.6</ele>
        <time>2026-03-09T13:55:21Z</time>
      </trkpt>
      <trkpt lat="49.05352" lon="7.77965">
        <ele>437.6</ele>
        <time>2026-03-09T13:55:26Z</time>
      </trkpt>
      <trkpt lat="49.05352" lon="7.77965">
        <ele>437.6</ele>
        <time>2026-03-09T13:55:31Z</time>
      </trkpt>
      <trkpt lat="49.05352" lon="7.77965">
        <ele>437.6</ele>
        <time>2026-03-09T13:55:36Z</time>
      </trkpt>
      <trkpt lat="49.05352" lon="7.77965">
        <ele>437.6</ele>
        <time>2026-03-09T13:55:41Z</time>
      </trkpt>
      <trkpt lat="49.05352" lon="7.77965">
        <ele>437.6</ele>
        <time>2026-03-09T13:55:46Z</time>
      </trkpt>
      <trkpt lat="49.05352" lon="7.77965">
        <ele>437.6</ele>
        <time>2026-03-09T13:55:51Z</time>
      </trkpt>
      <trkpt lat="49.05352" lon="7.77965">
        <ele>437.6</ele>
        <time>2026-03-09T13:55:56Z</time>
      </trkpt>
      <trkpt lat="49.05352" lon="7.77965">
        <ele>437.6</ele>
        <time>2026-03-09T13:56:01Z</time>
      </trkpt>
      <trkpt lat="49.05352" lon="7.77965">
        <ele>437.6</ele>
        <time>2026-03-09T13:56:06Z</time>
      </trkpt>
      <trkpt lat="49.05352" lon="7.77965">
        <ele>437.6</ele>
        <time>2026-03-09T13:56:11Z</time>
      </trkpt>
      <trkpt lat="49.05352" lon="7.77965">
        <ele>437.6</ele>
        <time>2026-03-09T13:56:16Z</time>
      </trkpt>
      <trkpt lat="49.05352" lon="7.77965">
        <ele>437.6</ele>
        <time>2026-03-09T13:56:21Z</time>
      </trkpt>
      <trkpt lat="49.05352" lon="7.77965">
        <ele>437.6</ele>
        <time>2026-03-09T13:56:26Z</time>
      </trkpt>
      <trkpt lat="49.05352" lon="7.77965">
        <ele>437.6</ele>
        <time>2026-03-09T13:56:31Z</time>
      </trkpt>
      <trkpt lat="49.05352" lon="7.77965">
        <ele>437.6</ele>
        <time>2026-03-09T13:56:36Z</time>
      </trkpt>
      <trkpt lat="49.05352" lon="7.77965">
        <ele>437.6</ele>
        <time>2026-03-09T13:56:41Z</time>
      </trkpt>
      <trkpt lat="49.05347" lon="7.77953">
        <ele>437.6</ele>
        <time>2026-03-09T13:56:46Z</time>
      </trkpt>
      <trkpt lat="49.05343" lon="7.77945">
        <ele>437.9</ele>
        <time>2026-03-09T13:56:51Z</time>
      </trkpt>
      <trkpt lat="49.0534" lon="7.77939">
        <ele>438.2</ele>
        <time>2026-03-09T13:56:56Z</time>
      </trkpt>
      <trkpt lat="49.05336" lon="7.77935">
        <ele>438.4</ele>
        <time>2026-03-09T13:57:01Z</time>
      </trkpt>
      <trkpt lat="49.05331" lon="7.77931">
        <ele>437.9</ele>
        <time>2026-03-09T13:57:06Z</time>
      </trkpt>
      <trkpt lat="49.05326" lon="7.77926">
        <ele>436.8</ele>
        <time>2026-03-09T13:57:11Z</time>
      </trkpt>
      <trkpt lat="49.05322" lon="7.77922">
        <ele>436.1</ele>
        <time>2026-03-09T13:57:16Z</time>
      </trkpt>
      <trkpt lat="49.05317" lon="7.77918">
        <ele>435.1</ele>
        <time>2026-03-09T13:57:21Z</time>
      </trkpt>
      <trkpt lat="49.05313" lon="7.77913">
        <ele>433.6</ele>
        <time>2026-03-09T13:57:26Z</time>
      </trkpt>
      <trkpt lat="49.05308" lon="7.77909">
        <ele>431.7</ele>
        <time>2026-03-09T13:57:31Z</time>
      </trkpt>
      <trkpt lat="49.05303" lon="7.77903">
        <ele>429.8</ele>
        <time>2026-03-09T13:57:36Z</time>
      </trkpt>
      <trkpt lat="49.05297" lon="7.77899">
        <ele>428</ele>
        <time>2026-03-09T13:57:41Z</time>
      </trkpt>
      <trkpt lat="49.05293" lon="7.77892">
        <ele>427</ele>
        <time>2026-03-09T13:57:46Z</time>
      </trkpt>
      <trkpt lat="49.05288" lon="7.77885">
        <ele>425.9</ele>
        <time>2026-03-09T13:57:51Z</time>
      </trkpt>
      <trkpt lat="49.05282" lon="7.77881">
        <ele>424.9</ele>
        <time>2026-03-09T13:57:56Z</time>
      </trkpt>
      <trkpt lat="49.05276" lon="7.77879">
        <ele>423.9</ele>
        <time>2026-03-09T13:58:01Z</time>
      </trkpt>
      <trkpt lat="49.0527" lon="7.77876">
        <ele>423.1</ele>
        <time>2026-03-09T13:58:06Z</time>
      </trkpt>
      <trkpt lat="49.05265" lon="7.77871">
        <ele>422.9</ele>
        <time>2026-03-09T13:58:11Z</time>
      </trkpt>
      <trkpt lat="49.05261" lon="7.7787">
        <ele>422.5</ele>
        <time>2026-03-09T13:58:16Z</time>
      </trkpt>
      <trkpt lat="49.05259" lon="7.77871">
        <ele>422.1</ele>
        <time>2026-03-09T13:58:21Z</time>
      </trkpt>
      <trkpt lat="49.05259" lon="7.77871">
        <ele>422.1</ele>
        <time>2026-03-09T13:58:26Z</time>
      </trkpt>
      <trkpt lat="49.05254" lon="7.77865">
        <ele>422.4</ele>
        <time>2026-03-09T13:58:31Z</time>
      </trkpt>
      <trkpt lat="49.05249" lon="7.77861">
        <ele>422.4</ele>
        <time>2026-03-09T13:58:36Z</time>
      </trkpt>
      <trkpt lat="49.05244" lon="7.77856">
        <ele>421.8</ele>
        <time>2026-03-09T13:58:41Z</time>
      </trkpt>
      <trkpt lat="49.0524" lon="7.77851">
        <ele>421.7</ele>
        <time>2026-03-09T13:58:46Z</time>
      </trkpt>
      <trkpt lat="49.05235" lon="7.77845">
        <ele>421.6</ele>
        <time>2026-03-09T13:58:51Z</time>
      </trkpt>
      <trkpt lat="49.05231" lon="7.77841">
        <ele>421.4</ele>
        <time>2026-03-09T13:58:56Z</time>
      </trkpt>
      <trkpt lat="49.05226" lon="7.77836">
        <ele>421.3</ele>
        <time>2026-03-09T13:59:01Z</time>
      </trkpt>
      <trkpt lat="49.05221" lon="7.77832">
        <ele>420.6</ele>
        <time>2026-03-09T13:59:06Z</time>
      </trkpt>
      <trkpt lat="49.05216" lon="7.77828">
        <ele>419.1</ele>
        <time>2026-03-09T13:59:11Z</time>
      </trkpt>
      <trkpt lat="49.0521" lon="7.77822">
        <ele>417.5</ele>
        <time>2026-03-09T13:59:16Z</time>
      </trkpt>
      <trkpt lat="49.05203" lon="7.77816">
        <ele>416.1</ele>
        <time>2026-03-09T13:59:21Z</time>
      </trkpt>
      <trkpt lat="49.05199" lon="7.7781">
        <ele>415.5</ele>
        <time>2026-03-09T13:59:26Z</time>
      </trkpt>
      <trkpt lat="49.05195" lon="7.77806">
        <ele>415.1</ele>
        <time>2026-03-09T13:59:31Z</time>
      </trkpt>
      <trkpt lat="49.0519" lon="7.77801">
        <ele>414.7</ele>
        <time>2026-03-09T13:59:36Z</time>
      </trkpt>
      <trkpt lat="49.05185" lon="7.77796">
        <ele>414.6</ele>
        <time>2026-03-09T13:59:41Z</time>
      </trkpt>
      <trkpt lat="49.0518" lon="7.77792">
        <ele>414.7</ele>
        <time>2026-03-09T13:59:46Z</time>
      </trkpt>
      <trkpt lat="49.05174" lon="7.77791">
        <ele>414.5</ele>
        <time>2026-03-09T13:59:51Z</time>
      </trkpt>
      <trkpt lat="49.05169" lon="7.77787">
        <ele>414.9</ele>
        <time>2026-03-09T13:59:56Z</time>
      </trkpt>
      <trkpt lat="49.05163" lon="7.77782">
        <ele>415</ele>
        <time>2026-03-09T14:00:01Z</time>
      </trkpt>
      <trkpt lat="49.05156" lon="7.77776">
        <ele>414.9</ele>
        <time>2026-03-09T14:00:06Z</time>
      </trkpt>
      <trkpt lat="49.05152" lon="7.77771">
        <ele>415.1</ele>
        <time>2026-03-09T14:00:11Z</time>
      </trkpt>
      <trkpt lat="49.05146" lon="7.77766">
        <ele>415.2</ele>
        <time>2026-03-09T14:00:16Z</time>
      </trkpt>
      <trkpt lat="49.05141" lon="7.7776">
        <ele>415.6</ele>
        <time>2026-03-09T14:00:21Z</time>
      </trkpt>
      <trkpt lat="49.05135" lon="7.77753">
        <ele>416.2</ele>
        <time>2026-03-09T14:00:26Z</time>
      </trkpt>
      <trkpt lat="49.0513" lon="7.77748">
        <ele>415.9</ele>
        <time>2026-03-09T14:00:31Z</time>
      </trkpt>
      <trkpt lat="49.05125" lon="7.77741">
        <ele>414.6</ele>
        <time>2026-03-09T14:00:36Z</time>
      </trkpt>
      <trkpt lat="49.05121" lon="7.77736">
        <ele>413.7</ele>
        <time>2026-03-09T14:00:41Z</time>
      </trkpt>
      <trkpt lat="49.05117" lon="7.77731">
        <ele>412.9</ele>
        <time>2026-03-09T14:00:46Z</time>
      </trkpt>
      <trkpt lat="49.05112" lon="7.77724">
        <ele>412.1</ele>
        <time>2026-03-09T14:00:51Z</time>
      </trkpt>
      <trkpt lat="49.05105" lon="7.77718">
        <ele>411.3</ele>
        <time>2026-03-09T14:00:56Z</time>
      </trkpt>
      <trkpt lat="49.05101" lon="7.77712">
        <ele>411</ele>
        <time>2026-03-09T14:01:01Z</time>
      </trkpt>
      <trkpt lat="49.05097" lon="7.77708">
        <ele>410.7</ele>
        <time>2026-03-09T14:01:06Z</time>
      </trkpt>
      <trkpt lat="49.05093" lon="7.77701">
        <ele>410.6</ele>
        <time>2026-03-09T14:01:11Z</time>
      </trkpt>
      <trkpt lat="49.05089" lon="7.77694">
        <ele>410.6</ele>
        <time>2026-03-09T14:01:16Z</time>
      </trkpt>
      <trkpt lat="49.05084" lon="7.77688">
        <ele>410.7</ele>
        <time>2026-03-09T14:01:21Z</time>
      </trkpt>
      <trkpt lat="49.05078" lon="7.77681">
        <ele>410</ele>
        <time>2026-03-09T14:01:26Z</time>
      </trkpt>
      <trkpt lat="49.05072" lon="7.77674">
        <ele>409.4</ele>
        <time>2026-03-09T14:01:31Z</time>
      </trkpt>
      <trkpt lat="49.05067" lon="7.77667">
        <ele>409</ele>
        <time>2026-03-09T14:01:36Z</time>
      </trkpt>
      <trkpt lat="49.05062" lon="7.7766">
        <ele>407.4</ele>
        <time>2026-03-09T14:01:41Z</time>
      </trkpt>
      <trkpt lat="49.05059" lon="7.77653">
        <ele>406.1</ele>
        <time>2026-03-09T14:01:46Z</time>
      </trkpt>
      <trkpt lat="49.05057" lon="7.77649">
        <ele>405.3</ele>
        <time>2026-03-09T14:01:51Z</time>
      </trkpt>
      <trkpt lat="49.05053" lon="7.77645">
        <ele>404.4</ele>
        <time>2026-03-09T14:01:56Z</time>
      </trkpt>
      <trkpt lat="49.05047" lon="7.77639">
        <ele>403.1</ele>
        <time>2026-03-09T14:02:01Z</time>
      </trkpt>
      <trkpt lat="49.05043" lon="7.77634">
        <ele>402.2</ele>
        <time>2026-03-09T14:02:06Z</time>
      </trkpt>
      <trkpt lat="49.05038" lon="7.77629">
        <ele>401.2</ele>
        <time>2026-03-09T14:02:11Z</time>
      </trkpt>
      <trkpt lat="49.05034" lon="7.77625">
        <ele>400.5</ele>
        <time>2026-03-09T14:02:16Z</time>
      </trkpt>
      <trkpt lat="49.0503" lon="7.7762">
        <ele>399.8</ele>
        <time>2026-03-09T14:02:21Z</time>
      </trkpt>
      <trkpt lat="49.05025" lon="7.77615">
        <ele>399</ele>
        <time>2026-03-09T14:02:26Z</time>
      </trkpt>
      <trkpt lat="49.05018" lon="7.7761">
        <ele>398.3</ele>
        <time>2026-03-09T14:02:31Z</time>
      </trkpt>
      <trkpt lat="49.05013" lon="7.77604">
        <ele>397.6</ele>
        <time>2026-03-09T14:02:36Z</time>
      </trkpt>
      <trkpt lat="49.05009" lon="7.776">
        <ele>397.2</ele>
        <time>2026-03-09T14:02:41Z</time>
      </trkpt>
      <trkpt lat="49.05004" lon="7.77595">
        <ele>396.8</ele>
        <time>2026-03-09T14:02:46Z</time>
      </trkpt>
      <trkpt lat="49.04998" lon="7.77589">
        <ele>396</ele>
        <time>2026-03-09T14:02:51Z</time>
      </trkpt>
      <trkpt lat="49.04994" lon="7.77585">
        <ele>395.1</ele>
        <time>2026-03-09T14:02:56Z</time>
      </trkpt>
      <trkpt lat="49.04988" lon="7.77579">
        <ele>392.9</ele>
        <time>2026-03-09T14:03:01Z</time>
      </trkpt>
      <trkpt lat="49.04982" lon="7.77575">
        <ele>390.9</ele>
        <time>2026-03-09T14:03:06Z</time>
      </trkpt>
      <trkpt lat="49.04978" lon="7.7757">
        <ele>389.1</ele>
        <time>2026-03-09T14:03:11Z</time>
      </trkpt>
      <trkpt lat="49.04974" lon="7.77562">
        <ele>386.6</ele>
        <time>2026-03-09T14:03:16Z</time>
      </trkpt>
      <trkpt lat="49.0497" lon="7.77558">
        <ele>385.1</ele>
        <time>2026-03-09T14:03:21Z</time>
      </trkpt>
      <trkpt lat="49.04965" lon="7.77555">
        <ele>383.8</ele>
        <time>2026-03-09T14:03:26Z</time>
      </trkpt>
      <trkpt lat="49.04958" lon="7.7755">
        <ele>381.8</ele>
        <time>2026-03-09T14:03:31Z</time>
      </trkpt>
      <trkpt lat="49.04953" lon="7.77546">
        <ele>380.3</ele>
        <time>2026-03-09T14:03:36Z</time>
      </trkpt>
      <trkpt lat="49.04947" lon="7.77545">
        <ele>379.3</ele>
        <time>2026-03-09T14:03:41Z</time>
      </trkpt>
      <trkpt lat="49.04939" lon="7.77543">
        <ele>377.9</ele>
        <time>2026-03-09T14:03:46Z</time>
      </trkpt>
      <trkpt lat="49.04933" lon="7.77536">
        <ele>375.9</ele>
        <time>2026-03-09T14:03:51Z</time>
      </trkpt>
      <trkpt lat="49.04928" lon="7.77531">
        <ele>374.4</ele>
        <time>2026-03-09T14:03:56Z</time>
      </trkpt>
      <trkpt lat="49.04924" lon="7.77526">
        <ele>373.1</ele>
        <time>2026-03-09T14:04:01Z</time>
      </trkpt>
      <trkpt lat="49.04921" lon="7.77522">
        <ele>372.1</ele>
        <time>2026-03-09T14:04:06Z</time>
      </trkpt>
      <trkpt lat="49.04916" lon="7.77522">
        <ele>371.5</ele>
        <time>2026-03-09T14:04:11Z</time>
      </trkpt>
      <trkpt lat="49.04912" lon="7.77519">
        <ele>370</ele>
        <time>2026-03-09T14:04:16Z</time>
      </trkpt>
      <trkpt lat="49.04907" lon="7.77517">
        <ele>368.5</ele>
        <time>2026-03-09T14:04:21Z</time>
      </trkpt>
      <trkpt lat="49.04902" lon="7.77512">
        <ele>366.5</ele>
        <time>2026-03-09T14:04:26Z</time>
      </trkpt>
      <trkpt lat="49.04898" lon="7.77512">
        <ele>365.6</ele>
        <time>2026-03-09T14:04:31Z</time>
      </trkpt>
      <trkpt lat="49.04893" lon="7.7751">
        <ele>364.2</ele>
        <time>2026-03-09T14:04:36Z</time>
      </trkpt>
      <trkpt lat="49.04887" lon="7.77506">
        <ele>362.3</ele>
        <time>2026-03-09T14:04:41Z</time>
      </trkpt>
      <trkpt lat="49.04884" lon="7.77503">
        <ele>361.3</ele>
        <time>2026-03-09T14:04:46Z</time>
      </trkpt>
      <trkpt lat="49.04879" lon="7.77501">
        <ele>360</ele>
        <time>2026-03-09T14:04:51Z</time>
      </trkpt>
      <trkpt lat="49.04873" lon="7.77501">
        <ele>358.7</ele>
        <time>2026-03-09T14:04:56Z</time>
      </trkpt>
      <trkpt lat="49.04867" lon="7.77499">
        <ele>357.1</ele>
        <time>2026-03-09T14:05:01Z</time>
      </trkpt>
      <trkpt lat="49.04863" lon="7.77497">
        <ele>356</ele>
        <time>2026-03-09T14:05:06Z</time>
      </trkpt>
      <trkpt lat="49.04861" lon="7.77493">
        <ele>355.1</ele>
        <time>2026-03-09T14:05:11Z</time>
      </trkpt>
      <trkpt lat="49.04857" lon="7.7749">
        <ele>354</ele>
        <time>2026-03-09T14:05:16Z</time>
      </trkpt>
      <trkpt lat="49.04852" lon="7.7749">
        <ele>353</ele>
        <time>2026-03-09T14:05:21Z</time>
      </trkpt>
      <trkpt lat="49.04847" lon="7.77488">
        <ele>351.9</ele>
        <time>2026-03-09T14:05:26Z</time>
      </trkpt>
      <trkpt lat="49.04843" lon="7.77485">
        <ele>350.9</ele>
        <time>2026-03-09T14:05:31Z</time>
      </trkpt>
      <trkpt lat="49.04842" lon="7.77479">
        <ele>350.2</ele>
        <time>2026-03-09T14:05:36Z</time>
      </trkpt>
      <trkpt lat="49.04839" lon="7.77475">
        <ele>349.4</ele>
        <time>2026-03-09T14:05:41Z</time>
      </trkpt>
      <trkpt lat="49.04836" lon="7.77475">
        <ele>348.9</ele>
        <time>2026-03-09T14:05:46Z</time>
      </trkpt>
      <trkpt lat="49.04835" lon="7.77477">
        <ele>348.9</ele>
        <time>2026-03-09T14:05:51Z</time>
      </trkpt>
      <trkpt lat="49.04835" lon="7.77477">
        <ele>348.9</ele>
        <time>2026-03-09T14:05:56Z</time>
      </trkpt>
      <trkpt lat="49.04832" lon="7.77476">
        <ele>348.3</ele>
        <time>2026-03-09T14:06:01Z</time>
      </trkpt>
      <trkpt lat="49.04828" lon="7.77473">
        <ele>347.3</ele>
        <time>2026-03-09T14:06:06Z</time>
      </trkpt>
      <trkpt lat="49.04825" lon="7.77467">
        <ele>346.3</ele>
        <time>2026-03-09T14:06:11Z</time>
      </trkpt>
      <trkpt lat="49.04822" lon="7.77464">
        <ele>345.6</ele>
        <time>2026-03-09T14:06:16Z</time>
      </trkpt>
      <trkpt lat="49.04817" lon="7.77462">
        <ele>344.5</ele>
        <time>2026-03-09T14:06:21Z</time>
      </trkpt>
      <trkpt lat="49.04811" lon="7.77457">
        <ele>343.2</ele>
        <time>2026-03-09T14:06:26Z</time>
      </trkpt>
      <trkpt lat="49.04807" lon="7.77454">
        <ele>342.3</ele>
        <time>2026-03-09T14:06:31Z</time>
      </trkpt>
      <trkpt lat="49.04804" lon="7.77453">
        <ele>341.7</ele>
        <time>2026-03-09T14:06:36Z</time>
      </trkpt>
      <trkpt lat="49.048" lon="7.77452">
        <ele>341</ele>
        <time>2026-03-09T14:06:41Z</time>
      </trkpt>
      <trkpt lat="49.04799" lon="7.77451">
        <ele>340.8</ele>
        <time>2026-03-09T14:06:46Z</time>
      </trkpt>
      <trkpt lat="49.04799" lon="7.77451">
        <ele>340.8</ele>
        <time>2026-03-09T14:06:51Z</time>
      </trkpt>
      <trkpt lat="49.04791" lon="7.77441">
        <ele>339.2</ele>
        <time>2026-03-09T14:06:56Z</time>
      </trkpt>
      <trkpt lat="49.04791" lon="7.77439">
        <ele>339.2</ele>
        <time>2026-03-09T14:07:01Z</time>
      </trkpt>
      <trkpt lat="49.04791" lon="7.77439">
        <ele>339.2</ele>
        <time>2026-03-09T14:07:06Z</time>
      </trkpt>
      <trkpt lat="49.04791" lon="7.77439">
        <ele>339.2</ele>
        <time>2026-03-09T14:07:11Z</time>
      </trkpt>
      <trkpt lat="49.04791" lon="7.77439">
        <ele>339.2</ele>
        <time>2026-03-09T14:07:16Z</time>
      </trkpt>
      <trkpt lat="49.04791" lon="7.77439">
        <ele>339.2</ele>
        <time>2026-03-09T14:07:21Z</time>
      </trkpt>
      <trkpt lat="49.04791" lon="7.77439">
        <ele>339.2</ele>
        <time>2026-03-09T14:07:26Z</time>
      </trkpt>
      <trkpt lat="49.04791" lon="7.77439">
        <ele>339.2</ele>
        <time>2026-03-09T14:07:31Z</time>
      </trkpt>
      <trkpt lat="49.04783" lon="7.7744">
        <ele>337.8</ele>
        <time>2026-03-09T14:07:36Z</time>
      </trkpt>
      <trkpt lat="49.0478" lon="7.77438">
        <ele>337.3</ele>
        <time>2026-03-09T14:07:41Z</time>
      </trkpt>
      <trkpt lat="49.04777" lon="7.77434">
        <ele>336.8</ele>
        <time>2026-03-09T14:07:46Z</time>
      </trkpt>
      <trkpt lat="49.04773" lon="7.77431">
        <ele>336.2</ele>
        <time>2026-03-09T14:07:51Z</time>
      </trkpt>
      <trkpt lat="49.04769" lon="7.77429">
        <ele>335.6</ele>
        <time>2026-03-09T14:07:56Z</time>
      </trkpt>
      <trkpt lat="49.04765" lon="7.77426">
        <ele>335</ele>
        <time>2026-03-09T14:08:01Z</time>
      </trkpt>
      <trkpt lat="49.04761" lon="7.77428">
        <ele>334.3</ele>
        <time>2026-03-09T14:08:06Z</time>
      </trkpt>
      <trkpt lat="49.04756" lon="7.77432">
        <ele>333.4</ele>
        <time>2026-03-09T14:08:11Z</time>
      </trkpt>
      <trkpt lat="49.04751" lon="7.77436">
        <ele>332.5</ele>
        <time>2026-03-09T14:08:16Z</time>
      </trkpt>
      <trkpt lat="49.04746" lon="7.77439">
        <ele>332</ele>
        <time>2026-03-09T14:08:21Z</time>
      </trkpt>
      <trkpt lat="49.04743" lon="7.77443">
        <ele>331.8</ele>
        <time>2026-03-09T14:08:26Z</time>
      </trkpt>
      <trkpt lat="49.04741" lon="7.77444">
        <ele>331.6</ele>
        <time>2026-03-09T14:08:31Z</time>
      </trkpt>
      <trkpt lat="49.04739" lon="7.77444">
        <ele>331.5</ele>
        <time>2026-03-09T14:08:36Z</time>
      </trkpt>
      <trkpt lat="49.04739" lon="7.77444">
        <ele>331.5</ele>
        <time>2026-03-09T14:08:41Z</time>
      </trkpt>
      <trkpt lat="49.04739" lon="7.77444">
        <ele>331.5</ele>
        <time>2026-03-09T14:08:46Z</time>
      </trkpt>
      <trkpt lat="49.04733" lon="7.77451">
        <ele>330.9</ele>
        <time>2026-03-09T14:08:51Z</time>
      </trkpt>
      <trkpt lat="49.04731" lon="7.77459">
        <ele>330.4</ele>
        <time>2026-03-09T14:08:56Z</time>
      </trkpt>
      <trkpt lat="49.04729" lon="7.77468">
        <ele>329.9</ele>
        <time>2026-03-09T14:09:01Z</time>
      </trkpt>
      <trkpt lat="49.04727" lon="7.77477">
        <ele>329.3</ele>
        <time>2026-03-09T14:09:06Z</time>
      </trkpt>
      <trkpt lat="49.04725" lon="7.77485">
        <ele>328.7</ele>
        <time>2026-03-09T14:09:11Z</time>
      </trkpt>
      <trkpt lat="49.04722" lon="7.7749">
        <ele>328.2</ele>
        <time>2026-03-09T14:09:16Z</time>
      </trkpt>
      <trkpt lat="49.04723" lon="7.77492">
        <ele>328.2</ele>
        <time>2026-03-09T14:09:21Z</time>
      </trkpt>
      <trkpt lat="49.0472" lon="7.77496">
        <ele>327.7</ele>
        <time>2026-03-09T14:09:26Z</time>
      </trkpt>
      <trkpt lat="49.04714" lon="7.77498">
        <ele>327.1</ele>
        <time>2026-03-09T14:09:31Z</time>
      </trkpt>
      <trkpt lat="49.04709" lon="7.775">
        <ele>326.6</ele>
        <time>2026-03-09T14:09:36Z</time>
      </trkpt>
      <trkpt lat="49.04706" lon="7.77502">
        <ele>326.2</ele>
        <time>2026-03-09T14:09:41Z</time>
      </trkpt>
      <trkpt lat="49.04702" lon="7.77505">
        <ele>325.7</ele>
        <time>2026-03-09T14:09:46Z</time>
      </trkpt>
      <trkpt lat="49.04697" lon="7.77503">
        <ele>325.4</ele>
        <time>2026-03-09T14:09:51Z</time>
      </trkpt>
      <trkpt lat="49.04696" lon="7.77496">
        <ele>325.8</ele>
        <time>2026-03-09T14:09:56Z</time>
      </trkpt>
      <trkpt lat="49.04696" lon="7.77494">
        <ele>325.9</ele>
        <time>2026-03-09T14:10:01Z</time>
      </trkpt>
      <trkpt lat="49.04694" lon="7.77489">
        <ele>326.1</ele>
        <time>2026-03-09T14:10:06Z</time>
      </trkpt>
      <trkpt lat="49.0469" lon="7.77481">
        <ele>326.5</ele>
        <time>2026-03-09T14:10:11Z</time>
      </trkpt>
      <trkpt lat="49.04689" lon="7.77476">
        <ele>326.8</ele>
        <time>2026-03-09T14:10:16Z</time>
      </trkpt>
      <trkpt lat="49.04689" lon="7.77476">
        <ele>326.8</ele>
        <time>2026-03-09T14:10:21Z</time>
      </trkpt>
      <trkpt lat="49.04686" lon="7.7747">
        <ele>327.1</ele>
        <time>2026-03-09T14:10:26Z</time>
      </trkpt>
      <trkpt lat="49.0468" lon="7.77465">
        <ele>327.1</ele>
        <time>2026-03-09T14:10:31Z</time>
      </trkpt>
      <trkpt lat="49.04675" lon="7.7746">
        <ele>327.3</ele>
        <time>2026-03-09T14:10:36Z</time>
      </trkpt>
      <trkpt lat="49.0467" lon="7.77455">
        <ele>327.5</ele>
        <time>2026-03-09T14:10:41Z</time>
      </trkpt>
      <trkpt lat="49.04663" lon="7.77447">
        <ele>328</ele>
        <time>2026-03-09T14:10:46Z</time>
      </trkpt>
      <trkpt lat="49.04659" lon="7.77444">
        <ele>328.1</ele>
        <time>2026-03-09T14:10:51Z</time>
      </trkpt>
      <trkpt lat="49.04655" lon="7.77436">
        <ele>328.8</ele>
        <time>2026-03-09T14:10:56Z</time>
      </trkpt>
      <trkpt lat="49.04652" lon="7.77432">
        <ele>329.2</ele>
        <time>2026-03-09T14:11:01Z</time>
      </trkpt>
      <trkpt lat="49.04652" lon="7.77426">
        <ele>329.8</ele>
        <time>2026-03-09T14:11:06Z</time>
      </trkpt>
      <trkpt lat="49.04652" lon="7.77421">
        <ele>330.4</ele>
        <time>2026-03-09T14:11:11Z</time>
      </trkpt>
      <trkpt lat="49.04649" lon="7.77414">
        <ele>331.1</ele>
        <time>2026-03-09T14:11:16Z</time>
      </trkpt>
      <trkpt lat="49.04644" lon="7.7741">
        <ele>331.6</ele>
        <time>2026-03-09T14:11:21Z</time>
      </trkpt>
      <trkpt lat="49.04637" lon="7.77403">
        <ele>332.5</ele>
        <time>2026-03-09T14:11:26Z</time>
      </trkpt>
      <trkpt lat="49.04633" lon="7.77399">
        <ele>333.1</ele>
        <time>2026-03-09T14:11:31Z</time>
      </trkpt>
      <trkpt lat="49.04626" lon="7.77393">
        <ele>333.9</ele>
        <time>2026-03-09T14:11:36Z</time>
      </trkpt>
      <trkpt lat="49.04621" lon="7.77389">
        <ele>334.5</ele>
        <time>2026-03-09T14:11:41Z</time>
      </trkpt>
      <trkpt lat="49.04617" lon="7.77382">
        <ele>335.6</ele>
        <time>2026-03-09T14:11:46Z</time>
      </trkpt>
      <trkpt lat="49.0461" lon="7.77372">
        <ele>337.1</ele>
        <time>2026-03-09T14:11:51Z</time>
      </trkpt>
      <trkpt lat="49.04605" lon="7.77364">
        <ele>338.5</ele>
        <time>2026-03-09T14:11:56Z</time>
      </trkpt>
      <trkpt lat="49.04601" lon="7.77358">
        <ele>339.5</ele>
        <time>2026-03-09T14:12:01Z</time>
      </trkpt>
      <trkpt lat="49.04596" lon="7.77351">
        <ele>340.7</ele>
        <time>2026-03-09T14:12:06Z</time>
      </trkpt>
      <trkpt lat="49.0459" lon="7.77346">
        <ele>341.7</ele>
        <time>2026-03-09T14:12:11Z</time>
      </trkpt>
      <trkpt lat="49.04585" lon="7.7734">
        <ele>342.8</ele>
        <time>2026-03-09T14:12:16Z</time>
      </trkpt>
      <trkpt lat="49.04578" lon="7.77337">
        <ele>343.1</ele>
        <time>2026-03-09T14:12:21Z</time>
      </trkpt>
      <trkpt lat="49.04572" lon="7.77332">
        <ele>343.5</ele>
        <time>2026-03-09T14:12:26Z</time>
      </trkpt>
      <trkpt lat="49.04567" lon="7.77329">
        <ele>343.5</ele>
        <time>2026-03-09T14:12:31Z</time>
      </trkpt>
      <trkpt lat="49.04563" lon="7.77325">
        <ele>343.7</ele>
        <time>2026-03-09T14:12:36Z</time>
      </trkpt>
      <trkpt lat="49.04559" lon="7.77321">
        <ele>343.9</ele>
        <time>2026-03-09T14:12:41Z</time>
      </trkpt>
      <trkpt lat="49.04555" lon="7.77313">
        <ele>344.4</ele>
        <time>2026-03-09T14:12:46Z</time>
      </trkpt>
      <trkpt lat="49.04555" lon="7.77306">
        <ele>345.1</ele>
        <time>2026-03-09T14:12:51Z</time>
      </trkpt>
      <trkpt lat="49.04554" lon="7.773">
        <ele>345.7</ele>
        <time>2026-03-09T14:12:56Z</time>
      </trkpt>
      <trkpt lat="49.04554" lon="7.77298">
        <ele>345.9</ele>
        <time>2026-03-09T14:13:01Z</time>
      </trkpt>
      <trkpt lat="49.04554" lon="7.77298">
        <ele>345.9</ele>
        <time>2026-03-09T14:13:06Z</time>
      </trkpt>
      <trkpt lat="49.04554" lon="7.77298">
        <ele>345.9</ele>
        <time>2026-03-09T14:13:11Z</time>
      </trkpt>
      <trkpt lat="49.04554" lon="7.77298">
        <ele>345.9</ele>
        <time>2026-03-09T14:13:16Z</time>
      </trkpt>
      <trkpt lat="49.04554" lon="7.77298">
        <ele>345.9</ele>
        <time>2026-03-09T14:13:21Z</time>
      </trkpt>
      <trkpt lat="49.04554" lon="7.77298">
        <ele>345.9</ele>
        <time>2026-03-09T14:13:26Z</time>
      </trkpt>
      <trkpt lat="49.04554" lon="7.77298">
        <ele>345.9</ele>
        <time>2026-03-09T14:13:31Z</time>
      </trkpt>
      <trkpt lat="49.04554" lon="7.77308">
        <ele>344.8</ele>
        <time>2026-03-09T14:13:36Z</time>
      </trkpt>
      <trkpt lat="49.04557" lon="7.77316">
        <ele>344.2</ele>
        <time>2026-03-09T14:13:41Z</time>
      </trkpt>
      <trkpt lat="49.04557" lon="7.77324">
        <ele>343.4</ele>
        <time>2026-03-09T14:13:46Z</time>
      </trkpt>
      <trkpt lat="49.04555" lon="7.77328">
        <ele>342.9</ele>
        <time>2026-03-09T14:13:51Z</time>
      </trkpt>
      <trkpt lat="49.04552" lon="7.77329">
        <ele>342.6</ele>
        <time>2026-03-09T14:13:56Z</time>
      </trkpt>
      <trkpt lat="49.04547" lon="7.77331">
        <ele>342</ele>
        <time>2026-03-09T14:14:01Z</time>
      </trkpt>
      <trkpt lat="49.04542" lon="7.77332">
        <ele>341.6</ele>
        <time>2026-03-09T14:14:06Z</time>
      </trkpt>
      <trkpt lat="49.04536" lon="7.77331">
        <ele>341.4</ele>
        <time>2026-03-09T14:14:11Z</time>
      </trkpt>
      <trkpt lat="49.04529" lon="7.77329">
        <ele>341.1</ele>
        <time>2026-03-09T14:14:16Z</time>
      </trkpt>
      <trkpt lat="49.04522" lon="7.7733">
        <ele>340.6</ele>
        <time>2026-03-09T14:14:21Z</time>
      </trkpt>
      <trkpt lat="49.04514" lon="7.77327">
        <ele>340.2</ele>
        <time>2026-03-09T14:14:26Z</time>
      </trkpt>
      <trkpt lat="49.04508" lon="7.77328">
        <ele>339.8</ele>
        <time>2026-03-09T14:14:31Z</time>
      </trkpt>
      <trkpt lat="49.04502" lon="7.77328">
        <ele>339.4</ele>
        <time>2026-03-09T14:14:36Z</time>
      </trkpt>
      <trkpt lat="49.04496" lon="7.77328">
        <ele>338.7</ele>
        <time>2026-03-09T14:14:41Z</time>
      </trkpt>
      <trkpt lat="49.04492" lon="7.77331">
        <ele>338</ele>
        <time>2026-03-09T14:14:46Z</time>
      </trkpt>
      <trkpt lat="49.0449" lon="7.77334">
        <ele>337.5</ele>
        <time>2026-03-09T14:14:51Z</time>
      </trkpt>
      <trkpt lat="49.04483" lon="7.77334">
        <ele>336.5</ele>
        <time>2026-03-09T14:14:56Z</time>
      </trkpt>
      <trkpt lat="49.04477" lon="7.77333">
        <ele>335.7</ele>
        <time>2026-03-09T14:15:01Z</time>
      </trkpt>
      <trkpt lat="49.04472" lon="7.77332">
        <ele>335</ele>
        <time>2026-03-09T14:15:06Z</time>
      </trkpt>
      <trkpt lat="49.04463" lon="7.7733">
        <ele>333.8</ele>
        <time>2026-03-09T14:15:11Z</time>
      </trkpt>
      <trkpt lat="49.04453" lon="7.77327">
        <ele>332.4</ele>
        <time>2026-03-09T14:15:16Z</time>
      </trkpt>
      <trkpt lat="49.04446" lon="7.77323">
        <ele>331.5</ele>
        <time>2026-03-09T14:15:21Z</time>
      </trkpt>
      <trkpt lat="49.0444" lon="7.77317">
        <ele>330.7</ele>
        <time>2026-03-09T14:15:26Z</time>
      </trkpt>
      <trkpt lat="49.04436" lon="7.77312">
        <ele>330.2</ele>
        <time>2026-03-09T14:15:31Z</time>
      </trkpt>
      <trkpt lat="49.04431" lon="7.77309">
        <ele>329.5</ele>
        <time>2026-03-09T14:15:36Z</time>
      </trkpt>
      <trkpt lat="49.04425" lon="7.77305">
        <ele>328.6</ele>
        <time>2026-03-09T14:15:41Z</time>
      </trkpt>
      <trkpt lat="49.04421" lon="7.77301">
        <ele>328.1</ele>
        <time>2026-03-09T14:15:46Z</time>
      </trkpt>
      <trkpt lat="49.04416" lon="7.77296">
        <ele>327.4</ele>
        <time>2026-03-09T14:15:51Z</time>
      </trkpt>
      <trkpt lat="49.04409" lon="7.77291">
        <ele>326.7</ele>
        <time>2026-03-09T14:15:56Z</time>
      </trkpt>
      <trkpt lat="49.04405" lon="7.7729">
        <ele>326.3</ele>
        <time>2026-03-09T14:16:01Z</time>
      </trkpt>
      <trkpt lat="49.04401" lon="7.77287">
        <ele>325.9</ele>
        <time>2026-03-09T14:16:06Z</time>
      </trkpt>
      <trkpt lat="49.04395" lon="7.77286">
        <ele>325.3</ele>
        <time>2026-03-09T14:16:11Z</time>
      </trkpt>
      <trkpt lat="49.04388" lon="7.77287">
        <ele>324.5</ele>
        <time>2026-03-09T14:16:16Z</time>
      </trkpt>
      <trkpt lat="49.04381" lon="7.77287">
        <ele>323.8</ele>
        <time>2026-03-09T14:16:21Z</time>
      </trkpt>
      <trkpt lat="49.04376" lon="7.77287">
        <ele>323.2</ele>
        <time>2026-03-09T14:16:26Z</time>
      </trkpt>
      <trkpt lat="49.0437" lon="7.77287">
        <ele>322.6</ele>
        <time>2026-03-09T14:16:31Z</time>
      </trkpt>
      <trkpt lat="49.04364" lon="7.77285">
        <ele>322</ele>
        <time>2026-03-09T14:16:36Z</time>
      </trkpt>
      <trkpt lat="49.04357" lon="7.77284">
        <ele>321.3</ele>
        <time>2026-03-09T14:16:41Z</time>
      </trkpt>
      <trkpt lat="49.04352" lon="7.77281">
        <ele>320.8</ele>
        <time>2026-03-09T14:16:46Z</time>
      </trkpt>
      <trkpt lat="49.04346" lon="7.77276">
        <ele>320.4</ele>
        <time>2026-03-09T14:16:51Z</time>
      </trkpt>
      <trkpt lat="49.04342" lon="7.77273">
        <ele>320.1</ele>
        <time>2026-03-09T14:16:56Z</time>
      </trkpt>
      <trkpt lat="49.04337" lon="7.7727">
        <ele>319.7</ele>
        <time>2026-03-09T14:17:01Z</time>
      </trkpt>
      <trkpt lat="49.04331" lon="7.77265">
        <ele>319.2</ele>
        <time>2026-03-09T14:17:06Z</time>
      </trkpt>
      <trkpt lat="49.04325" lon="7.77259">
        <ele>318.7</ele>
        <time>2026-03-09T14:17:11Z</time>
      </trkpt>
      <trkpt lat="49.0432" lon="7.77254">
        <ele>318.5</ele>
        <time>2026-03-09T14:17:16Z</time>
      </trkpt>
      <trkpt lat="49.04315" lon="7.77248">
        <ele>318.2</ele>
        <time>2026-03-09T14:17:21Z</time>
      </trkpt>
      <trkpt lat="49.0431" lon="7.77242">
        <ele>317.4</ele>
        <time>2026-03-09T14:17:26Z</time>
      </trkpt>
      <trkpt lat="49.04306" lon="7.77238">
        <ele>316.9</ele>
        <time>2026-03-09T14:17:31Z</time>
      </trkpt>
      <trkpt lat="49.04302" lon="7.77233">
        <ele>316.4</ele>
        <time>2026-03-09T14:17:36Z</time>
      </trkpt>
      <trkpt lat="49.04299" lon="7.77229">
        <ele>316.1</ele>
        <time>2026-03-09T14:17:41Z</time>
      </trkpt>
      <trkpt lat="49.04294" lon="7.77226">
        <ele>315.6</ele>
        <time>2026-03-09T14:17:46Z</time>
      </trkpt>
      <trkpt lat="49.04291" lon="7.77223">
        <ele>315.3</ele>
        <time>2026-03-09T14:17:51Z</time>
      </trkpt>
      <trkpt lat="49.04287" lon="7.77218">
        <ele>314.9</ele>
        <time>2026-03-09T14:17:56Z</time>
      </trkpt>
      <trkpt lat="49.04283" lon="7.77213">
        <ele>314.6</ele>
        <time>2026-03-09T14:18:01Z</time>
      </trkpt>
      <trkpt lat="49.04279" lon="7.77205">
        <ele>314.2</ele>
        <time>2026-03-09T14:18:06Z</time>
      </trkpt>
      <trkpt lat="49.04275" lon="7.77201">
        <ele>313.9</ele>
        <time>2026-03-09T14:18:11Z</time>
      </trkpt>
      <trkpt lat="49.0427" lon="7.77195">
        <ele>313.6</ele>
        <time>2026-03-09T14:18:16Z</time>
      </trkpt>
      <trkpt lat="49.04265" lon="7.7719">
        <ele>313.4</ele>
        <time>2026-03-09T14:18:21Z</time>
      </trkpt>
      <trkpt lat="49.0426" lon="7.77184">
        <ele>313.2</ele>
        <time>2026-03-09T14:18:26Z</time>
      </trkpt>
      <trkpt lat="49.04253" lon="7.77175">
        <ele>313</ele>
        <time>2026-03-09T14:18:31Z</time>
      </trkpt>
      <trkpt lat="49.04247" lon="7.77168">
        <ele>312.4</ele>
        <time>2026-03-09T14:18:36Z</time>
      </trkpt>
      <trkpt lat="49.04241" lon="7.77161">
        <ele>310.8</ele>
        <time>2026-03-09T14:18:41Z</time>
      </trkpt>
      <trkpt lat="49.04239" lon="7.77151">
        <ele>309.5</ele>
        <time>2026-03-09T14:18:46Z</time>
      </trkpt>
      <trkpt lat="49.04237" lon="7.77141">
        <ele>308.4</ele>
        <time>2026-03-09T14:18:51Z</time>
      </trkpt>
      <trkpt lat="49.04236" lon="7.77129">
        <ele>307.3</ele>
        <time>2026-03-09T14:18:56Z</time>
      </trkpt>
      <trkpt lat="49.04233" lon="7.77118">
        <ele>306.1</ele>
        <time>2026-03-09T14:19:01Z</time>
      </trkpt>
      <trkpt lat="49.04233" lon="7.7711">
        <ele>305.6</ele>
        <time>2026-03-09T14:19:06Z</time>
      </trkpt>
      <trkpt lat="49.04231" lon="7.77104">
        <ele>305</ele>
        <time>2026-03-09T14:19:11Z</time>
      </trkpt>
      <trkpt lat="49.04229" lon="7.771">
        <ele>304.6</ele>
        <time>2026-03-09T14:19:16Z</time>
      </trkpt>
      <trkpt lat="49.04227" lon="7.77094">
        <ele>304.1</ele>
        <time>2026-03-09T14:19:21Z</time>
      </trkpt>
      <trkpt lat="49.04225" lon="7.77084">
        <ele>303.4</ele>
        <time>2026-03-09T14:19:26Z</time>
      </trkpt>
      <trkpt lat="49.04223" lon="7.77076">
        <ele>302.3</ele>
        <time>2026-03-09T14:19:31Z</time>
      </trkpt>
      <trkpt lat="49.04221" lon="7.77065">
        <ele>300.8</ele>
        <time>2026-03-09T14:19:36Z</time>
      </trkpt>
      <trkpt lat="49.04218" lon="7.77053">
        <ele>299.3</ele>
        <time>2026-03-09T14:19:41Z</time>
      </trkpt>
      <trkpt lat="49.04214" lon="7.77045">
        <ele>298.3</ele>
        <time>2026-03-09T14:19:46Z</time>
      </trkpt>
      <trkpt lat="49.04214" lon="7.77037">
        <ele>297.3</ele>
        <time>2026-03-09T14:19:51Z</time>
      </trkpt>
      <trkpt lat="49.04213" lon="7.7703">
        <ele>296.4</ele>
        <time>2026-03-09T14:19:56Z</time>
      </trkpt>
      <trkpt lat="49.04213" lon="7.77024">
        <ele>295.7</ele>
        <time>2026-03-09T14:20:01Z</time>
      </trkpt>
      <trkpt lat="49.04213" lon="7.77017">
        <ele>294.8</ele>
        <time>2026-03-09T14:20:06Z</time>
      </trkpt>
      <trkpt lat="49.04212" lon="7.77011">
        <ele>294.1</ele>
        <time>2026-03-09T14:20:11Z</time>
      </trkpt>
      <trkpt lat="49.04209" lon="7.77003">
        <ele>293.3</ele>
        <time>2026-03-09T14:20:16Z</time>
      </trkpt>
      <trkpt lat="49.04205" lon="7.76996">
        <ele>292.7</ele>
        <time>2026-03-09T14:20:21Z</time>
      </trkpt>
      <trkpt lat="49.04201" lon="7.76986">
        <ele>291.7</ele>
        <time>2026-03-09T14:20:26Z</time>
      </trkpt>
      <trkpt lat="49.04198" lon="7.76977">
        <ele>290.6</ele>
        <time>2026-03-09T14:20:31Z</time>
      </trkpt>
      <trkpt lat="49.04197" lon="7.76969">
        <ele>289.6</ele>
        <time>2026-03-09T14:20:36Z</time>
      </trkpt>
      <trkpt lat="49.04195" lon="7.76958">
        <ele>288.3</ele>
        <time>2026-03-09T14:20:41Z</time>
      </trkpt>
      <trkpt lat="49.04194" lon="7.7695">
        <ele>287.2</ele>
        <time>2026-03-09T14:20:46Z</time>
      </trkpt>
      <trkpt lat="49.04194" lon="7.7695">
        <ele>287.2</ele>
        <time>2026-03-09T14:20:51Z</time>
      </trkpt>
      <trkpt lat="49.04192" lon="7.76952">
        <ele>287.6</ele>
        <time>2026-03-09T14:20:56Z</time>
      </trkpt>
      <trkpt lat="49.04192" lon="7.76952">
        <ele>287.6</ele>
        <time>2026-03-09T14:21:01Z</time>
      </trkpt>
      <trkpt lat="49.04192" lon="7.76952">
        <ele>287.6</ele>
        <time>2026-03-09T14:21:06Z</time>
      </trkpt>
      <trkpt lat="49.04192" lon="7.76952">
        <ele>287.6</ele>
        <time>2026-03-09T14:21:11Z</time>
      </trkpt>
      <trkpt lat="49.04192" lon="7.76952">
        <ele>287.6</ele>
        <time>2026-03-09T14:21:16Z</time>
      </trkpt>
      <trkpt lat="49.04192" lon="7.76952">
        <ele>287.6</ele>
        <time>2026-03-09T14:21:21Z</time>
      </trkpt>
      <trkpt lat="49.0419" lon="7.76952">
        <ele>287.7</ele>
        <time>2026-03-09T14:21:26Z</time>
      </trkpt>
      <trkpt lat="49.04188" lon="7.76953">
        <ele>288</ele>
        <time>2026-03-09T14:21:31Z</time>
      </trkpt>
      <trkpt lat="49.04188" lon="7.76953">
        <ele>288</ele>
        <time>2026-03-09T14:21:36Z</time>
      </trkpt>
      <trkpt lat="49.04188" lon="7.76953">
        <ele>288</ele>
        <time>2026-03-09T14:21:41Z</time>
      </trkpt>
      <trkpt lat="49.04188" lon="7.76953">
        <ele>288</ele>
        <time>2026-03-09T14:21:46Z</time>
      </trkpt>
      <trkpt lat="49.04188" lon="7.76953">
        <ele>288</ele>
        <time>2026-03-09T14:21:51Z</time>
      </trkpt>
      <trkpt lat="49.04188" lon="7.76953">
        <ele>288</ele>
        <time>2026-03-09T14:21:56Z</time>
      </trkpt>
      <trkpt lat="49.04188" lon="7.76953">
        <ele>288</ele>
        <time>2026-03-09T14:22:01Z</time>
      </trkpt>
      <trkpt lat="49.04185" lon="7.76942">
        <ele>286.6</ele>
        <time>2026-03-09T14:22:06Z</time>
      </trkpt>
      <trkpt lat="49.04182" lon="7.7693">
        <ele>285.1</ele>
        <time>2026-03-09T14:22:11Z</time>
      </trkpt>
      <trkpt lat="49.04178" lon="7.7692">
        <ele>283.9</ele>
        <time>2026-03-09T14:22:16Z</time>
      </trkpt>
      <trkpt lat="49.04176" lon="7.76913">
        <ele>282.9</ele>
        <time>2026-03-09T14:22:21Z</time>
      </trkpt>
      <trkpt lat="49.04174" lon="7.76907">
        <ele>282</ele>
        <time>2026-03-09T14:22:26Z</time>
      </trkpt>
      <trkpt lat="49.04172" lon="7.769">
        <ele>280.9</ele>
        <time>2026-03-09T14:22:31Z</time>
      </trkpt>
      <trkpt lat="49.0417" lon="7.76894">
        <ele>279.9</ele>
        <time>2026-03-09T14:22:36Z</time>
      </trkpt>
      <trkpt lat="49.04166" lon="7.76886">
        <ele>278.4</ele>
        <time>2026-03-09T14:22:41Z</time>
      </trkpt>
      <trkpt lat="49.04162" lon="7.76875">
        <ele>276.2</ele>
        <time>2026-03-09T14:22:46Z</time>
      </trkpt>
      <trkpt lat="49.04158" lon="7.76868">
        <ele>274.7</ele>
        <time>2026-03-09T14:22:51Z</time>
      </trkpt>
      <trkpt lat="49.04152" lon="7.76856">
        <ele>272.2</ele>
        <time>2026-03-09T14:22:56Z</time>
      </trkpt>
      <trkpt lat="49.04148" lon="7.76847">
        <ele>270.5</ele>
        <time>2026-03-09T14:23:01Z</time>
      </trkpt>
      <trkpt lat="49.04144" lon="7.76839">
        <ele>268.9</ele>
        <time>2026-03-09T14:23:06Z</time>
      </trkpt>
      <trkpt lat="49.04139" lon="7.76829">
        <ele>267.1</ele>
        <time>2026-03-09T14:23:11Z</time>
      </trkpt>
      <trkpt lat="49.04135" lon="7.76819">
        <ele>265.6</ele>
        <time>2026-03-09T14:23:16Z</time>
      </trkpt>
      <trkpt lat="49.04129" lon="7.76812">
        <ele>264.3</ele>
        <time>2026-03-09T14:23:21Z</time>
      </trkpt>
      <trkpt lat="49.04127" lon="7.76803">
        <ele>262.9</ele>
        <time>2026-03-09T14:23:26Z</time>
      </trkpt>
      <trkpt lat="49.04125" lon="7.76794">
        <ele>261.6</ele>
        <time>2026-03-09T14:23:31Z</time>
      </trkpt>
      <trkpt lat="49.04121" lon="7.76785">
        <ele>260.1</ele>
        <time>2026-03-09T14:23:36Z</time>
      </trkpt>
      <trkpt lat="49.04118" lon="7.76777">
        <ele>258.7</ele>
        <time>2026-03-09T14:23:41Z</time>
      </trkpt>
      <trkpt lat="49.04115" lon="7.76768">
        <ele>257.2</ele>
        <time>2026-03-09T14:23:46Z</time>
      </trkpt>
      <trkpt lat="49.04112" lon="7.7676">
        <ele>255.8</ele>
        <time>2026-03-09T14:23:51Z</time>
      </trkpt>
      <trkpt lat="49.04108" lon="7.76753">
        <ele>254.5</ele>
        <time>2026-03-09T14:23:56Z</time>
      </trkpt>
      <trkpt lat="49.04105" lon="7.76746">
        <ele>253.5</ele>
        <time>2026-03-09T14:24:01Z</time>
      </trkpt>
      <trkpt lat="49.04102" lon="7.76738">
        <ele>252.5</ele>
        <time>2026-03-09T14:24:06Z</time>
      </trkpt>
      <trkpt lat="49.04097" lon="7.76729">
        <ele>251.2</ele>
        <time>2026-03-09T14:24:11Z</time>
      </trkpt>
      <trkpt lat="49.04092" lon="7.76719">
        <ele>249.7</ele>
        <time>2026-03-09T14:24:16Z</time>
      </trkpt>
      <trkpt lat="49.04087" lon="7.76711">
        <ele>248.2</ele>
        <time>2026-03-09T14:24:21Z</time>
      </trkpt>
      <trkpt lat="49.04081" lon="7.76703">
        <ele>246.5</ele>
        <time>2026-03-09T14:24:26Z</time>
      </trkpt>
      <trkpt lat="49.04075" lon="7.76696">
        <ele>244.6</ele>
        <time>2026-03-09T14:24:31Z</time>
      </trkpt>
      <trkpt lat="49.0407" lon="7.76689">
        <ele>242.9</ele>
        <time>2026-03-09T14:24:36Z</time>
      </trkpt>
      <trkpt lat="49.04064" lon="7.76681">
        <ele>240.9</ele>
        <time>2026-03-09T14:24:41Z</time>
      </trkpt>
      <trkpt lat="49.04057" lon="7.76673">
        <ele>238.7</ele>
        <time>2026-03-09T14:24:46Z</time>
      </trkpt>
      <trkpt lat="49.04051" lon="7.76669">
        <ele>237.1</ele>
        <time>2026-03-09T14:24:51Z</time>
      </trkpt>
      <trkpt lat="49.04043" lon="7.76662">
        <ele>235.1</ele>
        <time>2026-03-09T14:24:56Z</time>
      </trkpt>
      <trkpt lat="49.04037" lon="7.76654">
        <ele>233.5</ele>
        <time>2026-03-09T14:25:01Z</time>
      </trkpt>
      <trkpt lat="49.04029" lon="7.7665">
        <ele>231.7</ele>
        <time>2026-03-09T14:25:06Z</time>
      </trkpt>
      <trkpt lat="49.04023" lon="7.76642">
        <ele>229.9</ele>
        <time>2026-03-09T14:25:11Z</time>
      </trkpt>
      <trkpt lat="49.04017" lon="7.76637">
        <ele>228.3</ele>
        <time>2026-03-09T14:25:16Z</time>
      </trkpt>
      <trkpt lat="49.04012" lon="7.76632">
        <ele>226.8</ele>
        <time>2026-03-09T14:25:21Z</time>
      </trkpt>
      <trkpt lat="49.04007" lon="7.76625">
        <ele>225.1</ele>
        <time>2026-03-09T14:25:26Z</time>
      </trkpt>
      <trkpt lat="49.04001" lon="7.7662">
        <ele>223.3</ele>
        <time>2026-03-09T14:25:31Z</time>
      </trkpt>
      <trkpt lat="49.03994" lon="7.76618">
        <ele>221.8</ele>
        <time>2026-03-09T14:25:36Z</time>
      </trkpt>
      <trkpt lat="49.03988" lon="7.76619">
        <ele>220.9</ele>
        <time>2026-03-09T14:25:41Z</time>
      </trkpt>
      <trkpt lat="49.03982" lon="7.76617">
        <ele>219.6</ele>
        <time>2026-03-09T14:25:46Z</time>
      </trkpt>
      <trkpt lat="49.03977" lon="7.76619">
        <ele>218.9</ele>
        <time>2026-03-09T14:25:51Z</time>
      </trkpt>
      <trkpt lat="49.0397" lon="7.76622">
        <ele>217.9</ele>
        <time>2026-03-09T14:25:56Z</time>
      </trkpt>
      <trkpt lat="49.03963" lon="7.76627">
        <ele>217</ele>
        <time>2026-03-09T14:26:01Z</time>
      </trkpt>
      <trkpt lat="49.03958" lon="7.76629">
        <ele>216.2</ele>
        <time>2026-03-09T14:26:06Z</time>
      </trkpt>
      <trkpt lat="49.03952" lon="7.76632">
        <ele>215.4</ele>
        <time>2026-03-09T14:26:11Z</time>
      </trkpt>
      <trkpt lat="49.03945" lon="7.76635">
        <ele>214.3</ele>
        <time>2026-03-09T14:26:16Z</time>
      </trkpt>
      <trkpt lat="49.03939" lon="7.76637">
        <ele>213.3</ele>
        <time>2026-03-09T14:26:21Z</time>
      </trkpt>
      <trkpt lat="49.03933" lon="7.76636">
        <ele>212.2</ele>
        <time>2026-03-09T14:26:26Z</time>
      </trkpt>
      <trkpt lat="49.03927" lon="7.76629">
        <ele>210.6</ele>
        <time>2026-03-09T14:26:31Z</time>
      </trkpt>
      <trkpt lat="49.03921" lon="7.76619">
        <ele>208.9</ele>
        <time>2026-03-09T14:26:36Z</time>
      </trkpt>
      <trkpt lat="49.03916" lon="7.76612">
        <ele>207.8</ele>
        <time>2026-03-09T14:26:41Z</time>
      </trkpt>
      <trkpt lat="49.03911" lon="7.76608">
        <ele>208</ele>
        <time>2026-03-09T14:26:46Z</time>
      </trkpt>
      <trkpt lat="49.03905" lon="7.76601">
        <ele>208.2</ele>
        <time>2026-03-09T14:26:51Z</time>
      </trkpt>
      <trkpt lat="49.03899" lon="7.76594">
        <ele>208.7</ele>
        <time>2026-03-09T14:26:56Z</time>
      </trkpt>
      <trkpt lat="49.03897" lon="7.76584">
        <ele>208.8</ele>
        <time>2026-03-09T14:27:01Z</time>
      </trkpt>
      <trkpt lat="49.03897" lon="7.76577">
        <ele>210.1</ele>
        <time>2026-03-09T14:27:06Z</time>
      </trkpt>
      <trkpt lat="49.03898" lon="7.76571">
        <ele>211.1</ele>
        <time>2026-03-09T14:27:11Z</time>
      </trkpt>
      <trkpt lat="49.03893" lon="7.76568">
        <ele>212.4</ele>
        <time>2026-03-09T14:27:16Z</time>
      </trkpt>
      <trkpt lat="49.0389" lon="7.76558">
        <ele>214.9</ele>
        <time>2026-03-09T14:27:21Z</time>
      </trkpt>
      <trkpt lat="49.03889" lon="7.7655">
        <ele>216.6</ele>
        <time>2026-03-09T14:27:26Z</time>
      </trkpt>
      <trkpt lat="49.03886" lon="7.76544">
        <ele>218.4</ele>
        <time>2026-03-09T14:27:31Z</time>
      </trkpt>
      <trkpt lat="49.0388" lon="7.76544">
        <ele>219.4</ele>
        <time>2026-03-09T14:27:36Z</time>
      </trkpt>
      <trkpt lat="49.03876" lon="7.76541">
        <ele>220.7</ele>
        <time>2026-03-09T14:27:41Z</time>
      </trkpt>
      <trkpt lat="49.03872" lon="7.76534">
        <ele>222.9</ele>
        <time>2026-03-09T14:27:46Z</time>
      </trkpt>
      <trkpt lat="49.03868" lon="7.76529">
        <ele>224.7</ele>
        <time>2026-03-09T14:27:51Z</time>
      </trkpt>
      <trkpt lat="49.03864" lon="7.76523">
        <ele>226.7</ele>
        <time>2026-03-09T14:27:56Z</time>
      </trkpt>
      <trkpt lat="49.03861" lon="7.76516">
        <ele>228.8</ele>
        <time>2026-03-09T14:28:01Z</time>
      </trkpt>
      <trkpt lat="49.03856" lon="7.76512">
        <ele>230.7</ele>
        <time>2026-03-09T14:28:06Z</time>
      </trkpt>
      <trkpt lat="49.03851" lon="7.76509">
        <ele>232.4</ele>
        <time>2026-03-09T14:28:11Z</time>
      </trkpt>
      <trkpt lat="49.03846" lon="7.76502">
        <ele>235</ele>
        <time>2026-03-09T14:28:16Z</time>
      </trkpt>
      <trkpt lat="49.03844" lon="7.765">
        <ele>235.8</ele>
        <time>2026-03-09T14:28:21Z</time>
      </trkpt>
      <trkpt lat="49.03841" lon="7.765">
        <ele>236.4</ele>
        <time>2026-03-09T14:28:26Z</time>
      </trkpt>
      <trkpt lat="49.03835" lon="7.76503">
        <ele>236.9</ele>
        <time>2026-03-09T14:28:31Z</time>
      </trkpt>
      <trkpt lat="49.03829" lon="7.76506">
        <ele>237</ele>
        <time>2026-03-09T14:28:36Z</time>
      </trkpt>
      <trkpt lat="49.03823" lon="7.76506">
        <ele>237.7</ele>
        <time>2026-03-09T14:28:41Z</time>
      </trkpt>
      <trkpt lat="49.03819" lon="7.76507">
        <ele>237.9</ele>
        <time>2026-03-09T14:28:46Z</time>
      </trkpt>
      <trkpt lat="49.03815" lon="7.76507">
        <ele>238.3</ele>
        <time>2026-03-09T14:28:51Z</time>
      </trkpt>
      <trkpt lat="49.0381" lon="7.7651">
        <ele>238.1</ele>
        <time>2026-03-09T14:28:56Z</time>
      </trkpt>
      <trkpt lat="49.03806" lon="7.76511">
        <ele>238.3</ele>
        <time>2026-03-09T14:29:01Z</time>
      </trkpt>
      <trkpt lat="49.03803" lon="7.76515">
        <ele>237.7</ele>
        <time>2026-03-09T14:29:06Z</time>
      </trkpt>
      <trkpt lat="49.03803" lon="7.76522">
        <ele>236</ele>
        <time>2026-03-09T14:29:11Z</time>
      </trkpt>
      <trkpt lat="49.03804" lon="7.76528">
        <ele>234.4</ele>
        <time>2026-03-09T14:29:16Z</time>
      </trkpt>
      <trkpt lat="49.03804" lon="7.76528">
        <ele>234.4</ele>
        <time>2026-03-09T14:29:21Z</time>
      </trkpt>
      <trkpt lat="49.03804" lon="7.76514">
        <ele>237.8</ele>
        <time>2026-03-09T14:29:26Z</time>
      </trkpt>
      <trkpt lat="49.03805" lon="7.76502">
        <ele>240.6</ele>
        <time>2026-03-09T14:29:31Z</time>
      </trkpt>
      <trkpt lat="49.03804" lon="7.76497">
        <ele>241.6</ele>
        <time>2026-03-09T14:29:36Z</time>
      </trkpt>
      <trkpt lat="49.03799" lon="7.76495">
        <ele>242.5</ele>
        <time>2026-03-09T14:29:41Z</time>
      </trkpt>
      <trkpt lat="49.03796" lon="7.76493">
        <ele>243.2</ele>
        <time>2026-03-09T14:29:46Z</time>
      </trkpt>
      <trkpt lat="49.03794" lon="7.76489">
        <ele>244</ele>
        <time>2026-03-09T14:29:51Z</time>
      </trkpt>
      <trkpt lat="49.03791" lon="7.76484">
        <ele>245.2</ele>
        <time>2026-03-09T14:29:56Z</time>
      </trkpt>
      <trkpt lat="49.03788" lon="7.76481">
        <ele>246</ele>
        <time>2026-03-09T14:30:01Z</time>
      </trkpt>
      <trkpt lat="49.03787" lon="7.76478">
        <ele>246.6</ele>
        <time>2026-03-09T14:30:06Z</time>
      </trkpt>
      <trkpt lat="49.03786" lon="7.76474">
        <ele>247.4</ele>
        <time>2026-03-09T14:30:11Z</time>
      </trkpt>
      <trkpt lat="49.03786" lon="7.76469">
        <ele>248.2</ele>
        <time>2026-03-09T14:30:16Z</time>
      </trkpt>
      <trkpt lat="49.03785" lon="7.76464">
        <ele>249.2</ele>
        <time>2026-03-09T14:30:21Z</time>
      </trkpt>
      <trkpt lat="49.03782" lon="7.76458">
        <ele>250.5</ele>
        <time>2026-03-09T14:30:26Z</time>
      </trkpt>
      <trkpt lat="49.0378" lon="7.76451">
        <ele>251.9</ele>
        <time>2026-03-09T14:30:31Z</time>
      </trkpt>
      <trkpt lat="49.03778" lon="7.76446">
        <ele>253</ele>
        <time>2026-03-09T14:30:36Z</time>
      </trkpt>
      <trkpt lat="49.03777" lon="7.76442">
        <ele>253.8</ele>
        <time>2026-03-09T14:30:41Z</time>
      </trkpt>
      <trkpt lat="49.03775" lon="7.76438">
        <ele>254.8</ele>
        <time>2026-03-09T14:30:46Z</time>
      </trkpt>
      <trkpt lat="49.03773" lon="7.76435">
        <ele>255.6</ele>
        <time>2026-03-09T14:30:51Z</time>
      </trkpt>
      <trkpt lat="49.03771" lon="7.7643">
        <ele>256.7</ele>
        <time>2026-03-09T14:30:56Z</time>
      </trkpt>
      <trkpt lat="49.03766" lon="7.76431">
        <ele>257.2</ele>
        <time>2026-03-09T14:31:01Z</time>
      </trkpt>
      <trkpt lat="49.03765" lon="7.76433">
        <ele>257</ele>
        <time>2026-03-09T14:31:06Z</time>
      </trkpt>
      <trkpt lat="49.03765" lon="7.76433">
        <ele>257</ele>
        <time>2026-03-09T14:31:11Z</time>
      </trkpt>
      <trkpt lat="49.03765" lon="7.76433">
        <ele>257</ele>
        <time>2026-03-09T14:31:16Z</time>
      </trkpt>
      <trkpt lat="49.03765" lon="7.76433">
        <ele>257</ele>
        <time>2026-03-09T14:31:21Z</time>
      </trkpt>
      <trkpt lat="49.03765" lon="7.76433">
        <ele>257</ele>
        <time>2026-03-09T14:31:26Z</time>
      </trkpt>
      <trkpt lat="49.03768" lon="7.76419">
        <ele>259</ele>
        <time>2026-03-09T14:31:31Z</time>
      </trkpt>
      <trkpt lat="49.03768" lon="7.76412">
        <ele>260.2</ele>
        <time>2026-03-09T14:31:36Z</time>
      </trkpt>
      <trkpt lat="49.03766" lon="7.76407">
        <ele>261.4</ele>
        <time>2026-03-09T14:31:41Z</time>
      </trkpt>
      <trkpt lat="49.03766" lon="7.76404">
        <ele>261.9</ele>
        <time>2026-03-09T14:31:46Z</time>
      </trkpt>
      <trkpt lat="49.03769" lon="7.76399">
        <ele>262.3</ele>
        <time>2026-03-09T14:31:51Z</time>
      </trkpt>
      <trkpt lat="49.0377" lon="7.76395">
        <ele>262.8</ele>
        <time>2026-03-09T14:31:56Z</time>
      </trkpt>
      <trkpt lat="49.03769" lon="7.76389">
        <ele>264</ele>
        <time>2026-03-09T14:32:01Z</time>
      </trkpt>
      <trkpt lat="49.03764" lon="7.76386">
        <ele>265.3</ele>
        <time>2026-03-09T14:32:06Z</time>
      </trkpt>
      <trkpt lat="49.03764" lon="7.76386">
        <ele>265.3</ele>
        <time>2026-03-09T14:32:11Z</time>
      </trkpt>
      <trkpt lat="49.03764" lon="7.76386">
        <ele>265.3</ele>
        <time>2026-03-09T14:32:16Z</time>
      </trkpt>
      <trkpt lat="49.03764" lon="7.76386">
        <ele>265.3</ele>
        <time>2026-03-09T14:32:21Z</time>
      </trkpt>
      <trkpt lat="49.03764" lon="7.76386">
        <ele>265.3</ele>
        <time>2026-03-09T14:32:26Z</time>
      </trkpt>
      <trkpt lat="49.03764" lon="7.76386">
        <ele>265.3</ele>
        <time>2026-03-09T14:32:31Z</time>
      </trkpt>
      <trkpt lat="49.03764" lon="7.76386">
        <ele>265.3</ele>
        <time>2026-03-09T14:32:36Z</time>
      </trkpt>
      <trkpt lat="49.03755" lon="7.76393">
        <ele>265.5</ele>
        <time>2026-03-09T14:32:41Z</time>
      </trkpt>
      <trkpt lat="49.03755" lon="7.76393">
        <ele>265.5</ele>
        <time>2026-03-09T14:32:46Z</time>
      </trkpt>
      <trkpt lat="49.03761" lon="7.76386">
        <ele>265.8</ele>
        <time>2026-03-09T14:32:51Z</time>
      </trkpt>
      <trkpt lat="49.03761" lon="7.76382">
        <ele>266.5</ele>
        <time>2026-03-09T14:32:56Z</time>
      </trkpt>
      <trkpt lat="49.03762" lon="7.76377">
        <ele>267.2</ele>
        <time>2026-03-09T14:33:01Z</time>
      </trkpt>
      <trkpt lat="49.03761" lon="7.76371">
        <ele>268.4</ele>
        <time>2026-03-09T14:33:06Z</time>
      </trkpt>
      <trkpt lat="49.0376" lon="7.76367">
        <ele>269.3</ele>
        <time>2026-03-09T14:33:11Z</time>
      </trkpt>
      <trkpt lat="49.03757" lon="7.76365">
        <ele>270.1</ele>
        <time>2026-03-09T14:33:16Z</time>
      </trkpt>
      <trkpt lat="49.03755" lon="7.76358">
        <ele>271.7</ele>
        <time>2026-03-09T14:33:21Z</time>
      </trkpt>
      <trkpt lat="49.03755" lon="7.76356">
        <ele>272.1</ele>
        <time>2026-03-09T14:33:26Z</time>
      </trkpt>
      <trkpt lat="49.03756" lon="7.76349">
        <ele>273.1</ele>
        <time>2026-03-09T14:33:31Z</time>
      </trkpt>
      <trkpt lat="49.03756" lon="7.76344">
        <ele>274</ele>
        <time>2026-03-09T14:33:36Z</time>
      </trkpt>
      <trkpt lat="49.03755" lon="7.76341">
        <ele>274.7</ele>
        <time>2026-03-09T14:33:41Z</time>
      </trkpt>
      <trkpt lat="49.03754" lon="7.76339">
        <ele>275.3</ele>
        <time>2026-03-09T14:33:46Z</time>
      </trkpt>
      <trkpt lat="49.03753" lon="7.76338">
        <ele>275.6</ele>
        <time>2026-03-09T14:33:51Z</time>
      </trkpt>
      <trkpt lat="49.03753" lon="7.76338">
        <ele>275.6</ele>
        <time>2026-03-09T14:33:56Z</time>
      </trkpt>
      <trkpt lat="49.03753" lon="7.76338">
        <ele>275.6</ele>
        <time>2026-03-09T14:34:01Z</time>
      </trkpt>
      <trkpt lat="49.03753" lon="7.76338">
        <ele>275.6</ele>
        <time>2026-03-09T14:34:06Z</time>
      </trkpt>
      <trkpt lat="49.03753" lon="7.76338">
        <ele>275.6</ele>
        <time>2026-03-09T14:34:11Z</time>
      </trkpt>
      <trkpt lat="49.03753" lon="7.76338">
        <ele>275.6</ele>
        <time>2026-03-09T14:34:16Z</time>
      </trkpt>
      <trkpt lat="49.03749" lon="7.76324">
        <ele>278</ele>
        <time>2026-03-09T14:34:21Z</time>
      </trkpt>
      <trkpt lat="49.03748" lon="7.76319">
        <ele>278.7</ele>
        <time>2026-03-09T14:34:26Z</time>
      </trkpt>
      <trkpt lat="49.03746" lon="7.76314">
        <ele>279.6</ele>
        <time>2026-03-09T14:34:31Z</time>
      </trkpt>
      <trkpt lat="49.03742" lon="7.76312">
        <ele>280.7</ele>
        <time>2026-03-09T14:34:36Z</time>
      </trkpt>
      <trkpt lat="49.03738" lon="7.7631">
        <ele>281.8</ele>
        <time>2026-03-09T14:34:41Z</time>
      </trkpt>
      <trkpt lat="49.03737" lon="7.76303">
        <ele>282.6</ele>
        <time>2026-03-09T14:34:46Z</time>
      </trkpt>
      <trkpt lat="49.03736" lon="7.76297">
        <ele>283.3</ele>
        <time>2026-03-09T14:34:51Z</time>
      </trkpt>
      <trkpt lat="49.03735" lon="7.76294">
        <ele>283.7</ele>
        <time>2026-03-09T14:34:56Z</time>
      </trkpt>
      <trkpt lat="49.03734" lon="7.76292">
        <ele>284.1</ele>
        <time>2026-03-09T14:35:01Z</time>
      </trkpt>
      <trkpt lat="49.03734" lon="7.76291">
        <ele>284.2</ele>
        <time>2026-03-09T14:35:06Z</time>
      </trkpt>
      <trkpt lat="49.03734" lon="7.76291">
        <ele>284.2</ele>
        <time>2026-03-09T14:35:11Z</time>
      </trkpt>
      <trkpt lat="49.03734" lon="7.76291">
        <ele>284.2</ele>
        <time>2026-03-09T14:35:16Z</time>
      </trkpt>
      <trkpt lat="49.03734" lon="7.76291">
        <ele>284.2</ele>
        <time>2026-03-09T14:35:21Z</time>
      </trkpt>
      <trkpt lat="49.03734" lon="7.76291">
        <ele>284.2</ele>
        <time>2026-03-09T14:35:26Z</time>
      </trkpt>
      <trkpt lat="49.03732" lon="7.76278">
        <ele>285.7</ele>
        <time>2026-03-09T14:35:31Z</time>
      </trkpt>
      <trkpt lat="49.03731" lon="7.76275">
        <ele>286.1</ele>
        <time>2026-03-09T14:35:36Z</time>
      </trkpt>
      <trkpt lat="49.03729" lon="7.76275">
        <ele>286.6</ele>
        <time>2026-03-09T14:35:41Z</time>
      </trkpt>
      <trkpt lat="49.03726" lon="7.76271">
        <ele>287.6</ele>
        <time>2026-03-09T14:35:46Z</time>
      </trkpt>
      <trkpt lat="49.03721" lon="7.76268">
        <ele>288.9</ele>
        <time>2026-03-09T14:35:51Z</time>
      </trkpt>
      <trkpt lat="49.03719" lon="7.76262">
        <ele>289.8</ele>
        <time>2026-03-09T14:35:56Z</time>
      </trkpt>
      <trkpt lat="49.03718" lon="7.76256">
        <ele>290.5</ele>
        <time>2026-03-09T14:36:01Z</time>
      </trkpt>
      <trkpt lat="49.03716" lon="7.7625">
        <ele>291.3</ele>
        <time>2026-03-09T14:36:06Z</time>
      </trkpt>
      <trkpt lat="49.03714" lon="7.76246">
        <ele>292</ele>
        <time>2026-03-09T14:36:11Z</time>
      </trkpt>
      <trkpt lat="49.03713" lon="7.76242">
        <ele>292.4</ele>
        <time>2026-03-09T14:36:16Z</time>
      </trkpt>
      <trkpt lat="49.03713" lon="7.7624">
        <ele>292.5</ele>
        <time>2026-03-09T14:36:21Z</time>
      </trkpt>
      <trkpt lat="49.03709" lon="7.76237">
        <ele>293.5</ele>
        <time>2026-03-09T14:36:26Z</time>
      </trkpt>
      <trkpt lat="49.03708" lon="7.76232">
        <ele>293.9</ele>
        <time>2026-03-09T14:36:31Z</time>
      </trkpt>
      <trkpt lat="49.03704" lon="7.7623">
        <ele>294.8</ele>
        <time>2026-03-09T14:36:36Z</time>
      </trkpt>
      <trkpt lat="49.03702" lon="7.7623">
        <ele>295.2</ele>
        <time>2026-03-09T14:36:41Z</time>
      </trkpt>
      <trkpt lat="49.03702" lon="7.7623">
        <ele>295.2</ele>
        <time>2026-03-09T14:36:46Z</time>
      </trkpt>
      <trkpt lat="49.03702" lon="7.7623">
        <ele>295.2</ele>
        <time>2026-03-09T14:36:51Z</time>
      </trkpt>
      <trkpt lat="49.03702" lon="7.7623">
        <ele>295.2</ele>
        <time>2026-03-09T14:36:56Z</time>
      </trkpt>
      <trkpt lat="49.03702" lon="7.7623">
        <ele>295.2</ele>
        <time>2026-03-09T14:37:01Z</time>
      </trkpt>
      <trkpt lat="49.03702" lon="7.7623">
        <ele>295.2</ele>
        <time>2026-03-09T14:37:06Z</time>
      </trkpt>
      <trkpt lat="49.03702" lon="7.7623">
        <ele>295.2</ele>
        <time>2026-03-09T14:37:11Z</time>
      </trkpt>
      <trkpt lat="49.03702" lon="7.7623">
        <ele>295.2</ele>
        <time>2026-03-09T14:37:16Z</time>
      </trkpt>
      <trkpt lat="49.03702" lon="7.7623">
        <ele>295.2</ele>
        <time>2026-03-09T14:37:21Z</time>
      </trkpt>
      <trkpt lat="49.03702" lon="7.7623">
        <ele>295.2</ele>
        <time>2026-03-09T14:37:26Z</time>
      </trkpt>
      <trkpt lat="49.03702" lon="7.7623">
        <ele>295.2</ele>
        <time>2026-03-09T14:37:31Z</time>
      </trkpt>
      <trkpt lat="49.03702" lon="7.7623">
        <ele>295.2</ele>
        <time>2026-03-09T14:37:36Z</time>
      </trkpt>
      <trkpt lat="49.03702" lon="7.7623">
        <ele>295.2</ele>
        <time>2026-03-09T14:37:41Z</time>
      </trkpt>
      <trkpt lat="49.03696" lon="7.76223">
        <ele>296.6</ele>
        <time>2026-03-09T14:37:46Z</time>
      </trkpt>
      <trkpt lat="49.03693" lon="7.76216">
        <ele>297.3</ele>
        <time>2026-03-09T14:37:51Z</time>
      </trkpt>
      <trkpt lat="49.03688" lon="7.76212">
        <ele>298.3</ele>
        <time>2026-03-09T14:37:56Z</time>
      </trkpt>
      <trkpt lat="49.03683" lon="7.76206">
        <ele>299.3</ele>
        <time>2026-03-09T14:38:01Z</time>
      </trkpt>
      <trkpt lat="49.03679" lon="7.76203">
        <ele>300</ele>
        <time>2026-03-09T14:38:06Z</time>
      </trkpt>
      <trkpt lat="49.03674" lon="7.76203">
        <ele>300.8</ele>
        <time>2026-03-09T14:38:11Z</time>
      </trkpt>
      <trkpt lat="49.03667" lon="7.76206">
        <ele>301.9</ele>
        <time>2026-03-09T14:38:16Z</time>
      </trkpt>
      <trkpt lat="49.0366" lon="7.76203">
        <ele>301.8</ele>
        <time>2026-03-09T14:38:21Z</time>
      </trkpt>
      <trkpt lat="49.03655" lon="7.76197">
        <ele>301.6</ele>
        <time>2026-03-09T14:38:26Z</time>
      </trkpt>
      <trkpt lat="49.03655" lon="7.76187">
        <ele>301.5</ele>
        <time>2026-03-09T14:38:31Z</time>
      </trkpt>
      <trkpt lat="49.03653" lon="7.76178">
        <ele>301.3</ele>
        <time>2026-03-09T14:38:36Z</time>
      </trkpt>
      <trkpt lat="49.03652" lon="7.76174">
        <ele>301.2</ele>
        <time>2026-03-09T14:38:41Z</time>
      </trkpt>
      <trkpt lat="49.03648" lon="7.76171">
        <ele>300.9</ele>
        <time>2026-03-09T14:38:46Z</time>
      </trkpt>
      <trkpt lat="49.03645" lon="7.76169">
        <ele>300.7</ele>
        <time>2026-03-09T14:38:51Z</time>
      </trkpt>
      <trkpt lat="49.03642" lon="7.76166">
        <ele>300.5</ele>
        <time>2026-03-09T14:38:56Z</time>
      </trkpt>
      <trkpt lat="49.0364" lon="7.76161">
        <ele>300.4</ele>
        <time>2026-03-09T14:39:01Z</time>
      </trkpt>
      <trkpt lat="49.03638" lon="7.76156">
        <ele>300.3</ele>
        <time>2026-03-09T14:39:06Z</time>
      </trkpt>
      <trkpt lat="49.03635" lon="7.76153">
        <ele>300.1</ele>
        <time>2026-03-09T14:39:11Z</time>
      </trkpt>
      <trkpt lat="49.0363" lon="7.76151">
        <ele>299.8</ele>
        <time>2026-03-09T14:39:16Z</time>
      </trkpt>
      <trkpt lat="49.03626" lon="7.76152">
        <ele>299.5</ele>
        <time>2026-03-09T14:39:21Z</time>
      </trkpt>
      <trkpt lat="49.03622" lon="7.76148">
        <ele>299.2</ele>
        <time>2026-03-09T14:39:26Z</time>
      </trkpt>
      <trkpt lat="49.03617" lon="7.76138">
        <ele>298.7</ele>
        <time>2026-03-09T14:39:31Z</time>
      </trkpt>
      <trkpt lat="49.03616" lon="7.76133">
        <ele>298.5</ele>
        <time>2026-03-09T14:39:36Z</time>
      </trkpt>
      <trkpt lat="49.03616" lon="7.76133">
        <ele>298.5</ele>
        <time>2026-03-09T14:39:41Z</time>
      </trkpt>
      <trkpt lat="49.03616" lon="7.76133">
        <ele>298.5</ele>
        <time>2026-03-09T14:39:46Z</time>
      </trkpt>
      <trkpt lat="49.03616" lon="7.76133">
        <ele>298.5</ele>
        <time>2026-03-09T14:39:51Z</time>
      </trkpt>
      <trkpt lat="49.03616" lon="7.76133">
        <ele>298.5</ele>
        <time>2026-03-09T14:39:56Z</time>
      </trkpt>
      <trkpt lat="49.03616" lon="7.76133">
        <ele>298.5</ele>
        <time>2026-03-09T14:40:01Z</time>
      </trkpt>
      <trkpt lat="49.03621" lon="7.76124">
        <ele>298.9</ele>
        <time>2026-03-09T14:40:06Z</time>
      </trkpt>
      <trkpt lat="49.03622" lon="7.76119">
        <ele>298.9</ele>
        <time>2026-03-09T14:40:11Z</time>
      </trkpt>
      <trkpt lat="49.03621" lon="7.76117">
        <ele>298.8</ele>
        <time>2026-03-09T14:40:16Z</time>
      </trkpt>
      <trkpt lat="49.03618" lon="7.76114">
        <ele>298.5</ele>
        <time>2026-03-09T14:40:21Z</time>
      </trkpt>
      <trkpt lat="49.03615" lon="7.76111">
        <ele>298.2</ele>
        <time>2026-03-09T14:40:26Z</time>
      </trkpt>
      <trkpt lat="49.03612" lon="7.76109">
        <ele>297.8</ele>
        <time>2026-03-09T14:40:31Z</time>
      </trkpt>
      <trkpt lat="49.03608" lon="7.76107">
        <ele>297.4</ele>
        <time>2026-03-09T14:40:36Z</time>
      </trkpt>
      <trkpt lat="49.03607" lon="7.76104">
        <ele>297.2</ele>
        <time>2026-03-09T14:40:41Z</time>
      </trkpt>
      <trkpt lat="49.03607" lon="7.76101">
        <ele>297.2</ele>
        <time>2026-03-09T14:40:46Z</time>
      </trkpt>
      <trkpt lat="49.03606" lon="7.761">
        <ele>297</ele>
        <time>2026-03-09T14:40:51Z</time>
      </trkpt>
      <trkpt lat="49.03604" lon="7.76092">
        <ele>296.7</ele>
        <time>2026-03-09T14:40:56Z</time>
      </trkpt>
      <trkpt lat="49.03604" lon="7.76092">
        <ele>296.7</ele>
        <time>2026-03-09T14:41:01Z</time>
      </trkpt>
      <trkpt lat="49.03604" lon="7.76092">
        <ele>296.7</ele>
        <time>2026-03-09T14:41:06Z</time>
      </trkpt>
      <trkpt lat="49.03593" lon="7.76086">
        <ele>295.2</ele>
        <time>2026-03-09T14:41:11Z</time>
      </trkpt>
      <trkpt lat="49.03591" lon="7.76082">
        <ele>294.9</ele>
        <time>2026-03-09T14:41:16Z</time>
      </trkpt>
      <trkpt lat="49.03592" lon="7.76081">
        <ele>295</ele>
        <time>2026-03-09T14:41:21Z</time>
      </trkpt>
      <trkpt lat="49.03592" lon="7.76081">
        <ele>295</ele>
        <time>2026-03-09T14:41:26Z</time>
      </trkpt>
      <trkpt lat="49.03592" lon="7.76081">
        <ele>295</ele>
        <time>2026-03-09T14:41:31Z</time>
      </trkpt>
      <trkpt lat="49.03592" lon="7.76081">
        <ele>295</ele>
        <time>2026-03-09T14:41:36Z</time>
      </trkpt>
      <trkpt lat="49.03589" lon="7.76073">
        <ele>294.3</ele>
        <time>2026-03-09T14:41:41Z</time>
      </trkpt>
      <trkpt lat="49.03586" lon="7.7607">
        <ele>293.7</ele>
        <time>2026-03-09T14:41:46Z</time>
      </trkpt>
      <trkpt lat="49.03585" lon="7.76066">
        <ele>293.4</ele>
        <time>2026-03-09T14:41:51Z</time>
      </trkpt>
      <trkpt lat="49.03584" lon="7.76066">
        <ele>293.3</ele>
        <time>2026-03-09T14:41:56Z</time>
      </trkpt>
      <trkpt lat="49.03584" lon="7.76066">
        <ele>293.3</ele>
        <time>2026-03-09T14:42:01Z</time>
      </trkpt>
      <trkpt lat="49.03584" lon="7.76055">
        <ele>292.7</ele>
        <time>2026-03-09T14:42:06Z</time>
      </trkpt>
      <trkpt lat="49.03586" lon="7.7605">
        <ele>292.8</ele>
        <time>2026-03-09T14:42:11Z</time>
      </trkpt>
      <trkpt lat="49.03589" lon="7.76045">
        <ele>293.1</ele>
        <time>2026-03-09T14:42:16Z</time>
      </trkpt>
      <trkpt lat="49.03589" lon="7.76041">
        <ele>292.9</ele>
        <time>2026-03-09T14:42:21Z</time>
      </trkpt>
      <trkpt lat="49.03587" lon="7.76038">
        <ele>292.5</ele>
        <time>2026-03-09T14:42:26Z</time>
      </trkpt>
      <trkpt lat="49.03584" lon="7.76035">
        <ele>291.8</ele>
        <time>2026-03-09T14:42:31Z</time>
      </trkpt>
      <trkpt lat="49.03584" lon="7.76034">
        <ele>291.7</ele>
        <time>2026-03-09T14:42:36Z</time>
      </trkpt>
      <trkpt lat="49.03584" lon="7.76034">
        <ele>291.7</ele>
        <time>2026-03-09T14:42:41Z</time>
      </trkpt>
      <trkpt lat="49.03584" lon="7.76034">
        <ele>291.7</ele>
        <time>2026-03-09T14:42:46Z</time>
      </trkpt>
      <trkpt lat="49.03586" lon="7.7602">
        <ele>291.5</ele>
        <time>2026-03-09T14:42:51Z</time>
      </trkpt>
      <trkpt lat="49.03584" lon="7.76017">
        <ele>290.9</ele>
        <time>2026-03-09T14:42:56Z</time>
      </trkpt>
      <trkpt lat="49.03584" lon="7.76016">
        <ele>290.9</ele>
        <time>2026-03-09T14:43:01Z</time>
      </trkpt>
      <trkpt lat="49.0358" lon="7.76009">
        <ele>289.1</ele>
        <time>2026-03-09T14:43:06Z</time>
      </trkpt>
      <trkpt lat="49.0358" lon="7.76002">
        <ele>288.8</ele>
        <time>2026-03-09T14:43:11Z</time>
      </trkpt>
      <trkpt lat="49.03581" lon="7.75998">
        <ele>289</ele>
        <time>2026-03-09T14:43:16Z</time>
      </trkpt>
      <trkpt lat="49.03581" lon="7.75993">
        <ele>288.8</ele>
        <time>2026-03-09T14:43:21Z</time>
      </trkpt>
      <trkpt lat="49.0358" lon="7.75993">
        <ele>288.4</ele>
        <time>2026-03-09T14:43:26Z</time>
      </trkpt>
      <trkpt lat="49.03576" lon="7.75993">
        <ele>286.8</ele>
        <time>2026-03-09T14:43:31Z</time>
      </trkpt>
      <trkpt lat="49.03576" lon="7.75994">
        <ele>286.9</ele>
        <time>2026-03-09T14:43:36Z</time>
      </trkpt>
      <trkpt lat="49.03576" lon="7.75994">
        <ele>286.9</ele>
        <time>2026-03-09T14:43:41Z</time>
      </trkpt>
      <trkpt lat="49.03576" lon="7.75994">
        <ele>286.9</ele>
        <time>2026-03-09T14:43:46Z</time>
      </trkpt>
      <trkpt lat="49.03574" lon="7.76012">
        <ele>287</ele>
        <time>2026-03-09T14:43:51Z</time>
      </trkpt>
      <trkpt lat="49.03574" lon="7.76012">
        <ele>287</ele>
        <time>2026-03-09T14:43:56Z</time>
      </trkpt>
      <trkpt lat="49.03574" lon="7.76012">
        <ele>287</ele>
        <time>2026-03-09T14:44:01Z</time>
      </trkpt>
      <trkpt lat="49.03574" lon="7.76012">
        <ele>287</ele>
        <time>2026-03-09T14:44:06Z</time>
      </trkpt>
      <trkpt lat="49.03574" lon="7.76012">
        <ele>287</ele>
        <time>2026-03-09T14:44:11Z</time>
      </trkpt>
      <trkpt lat="49.03569" lon="7.76008">
        <ele>284.9</ele>
        <time>2026-03-09T14:44:16Z</time>
      </trkpt>
      <trkpt lat="49.03564" lon="7.76005">
        <ele>282.8</ele>
        <time>2026-03-09T14:44:21Z</time>
      </trkpt>
      <trkpt lat="49.03562" lon="7.76004">
        <ele>282</ele>
        <time>2026-03-09T14:44:26Z</time>
      </trkpt>
      <trkpt lat="49.03558" lon="7.76005">
        <ele>280.5</ele>
        <time>2026-03-09T14:44:31Z</time>
      </trkpt>
      <trkpt lat="49.03558" lon="7.76005">
        <ele>280.5</ele>
        <time>2026-03-09T14:44:36Z</time>
      </trkpt>
      <trkpt lat="49.03558" lon="7.76005">
        <ele>280.5</ele>
        <time>2026-03-09T14:44:41Z</time>
      </trkpt>
      <trkpt lat="49.03558" lon="7.76005">
        <ele>280.5</ele>
        <time>2026-03-09T14:44:46Z</time>
      </trkpt>
      <trkpt lat="49.03558" lon="7.76005">
        <ele>280.5</ele>
        <time>2026-03-09T14:44:51Z</time>
      </trkpt>
      <trkpt lat="49.03558" lon="7.76005">
        <ele>280.5</ele>
        <time>2026-03-09T14:44:56Z</time>
      </trkpt>
      <trkpt lat="49.03558" lon="7.76005">
        <ele>280.5</ele>
        <time>2026-03-09T14:45:01Z</time>
      </trkpt>
      <trkpt lat="49.03558" lon="7.76005">
        <ele>280.5</ele>
        <time>2026-03-09T14:45:06Z</time>
      </trkpt>
      <trkpt lat="49.03558" lon="7.76005">
        <ele>280.5</ele>
        <time>2026-03-09T14:45:11Z</time>
      </trkpt>
      <trkpt lat="49.03558" lon="7.76005">
        <ele>280.5</ele>
        <time>2026-03-09T14:45:16Z</time>
      </trkpt>
      <trkpt lat="49.03566" lon="7.76007">
        <ele>283.7</ele>
        <time>2026-03-09T14:45:21Z</time>
      </trkpt>
      <trkpt lat="49.0357" lon="7.76014">
        <ele>285.5</ele>
        <time>2026-03-09T14:45:26Z</time>
      </trkpt>
      <trkpt lat="49.03567" lon="7.76025">
        <ele>284.9</ele>
        <time>2026-03-09T14:45:31Z</time>
      </trkpt>
      <trkpt lat="49.03561" lon="7.76034">
        <ele>282.9</ele>
        <time>2026-03-09T14:45:36Z</time>
      </trkpt>
      <trkpt lat="49.03554" lon="7.76039">
        <ele>280.4</ele>
        <time>2026-03-09T14:45:41Z</time>
      </trkpt>
      <trkpt lat="49.03549" lon="7.76044">
        <ele>278.7</ele>
        <time>2026-03-09T14:45:46Z</time>
      </trkpt>
      <trkpt lat="49.03547" lon="7.76052">
        <ele>278.3</ele>
        <time>2026-03-09T14:45:51Z</time>
      </trkpt>
      <trkpt lat="49.03545" lon="7.76062">
        <ele>277.9</ele>
        <time>2026-03-09T14:45:56Z</time>
      </trkpt>
      <trkpt lat="49.03544" lon="7.76073">
        <ele>278</ele>
        <time>2026-03-09T14:46:01Z</time>
      </trkpt>
      <trkpt lat="49.03542" lon="7.76086">
        <ele>277.8</ele>
        <time>2026-03-09T14:46:06Z</time>
      </trkpt>
      <trkpt lat="49.03538" lon="7.76096">
        <ele>276.8</ele>
        <time>2026-03-09T14:46:11Z</time>
      </trkpt>
      <trkpt lat="49.03538" lon="7.76103">
        <ele>277.3</ele>
        <time>2026-03-09T14:46:16Z</time>
      </trkpt>
      <trkpt lat="49.03537" lon="7.7611">
        <ele>277.3</ele>
        <time>2026-03-09T14:46:21Z</time>
      </trkpt>
      <trkpt lat="49.03536" lon="7.76119">
        <ele>277.5</ele>
        <time>2026-03-09T14:46:26Z</time>
      </trkpt>
      <trkpt lat="49.03533" lon="7.76127">
        <ele>276.9</ele>
        <time>2026-03-09T14:46:31Z</time>
      </trkpt>
      <trkpt lat="49.0353" lon="7.76136">
        <ele>276.4</ele>
        <time>2026-03-09T14:46:36Z</time>
      </trkpt>
      <trkpt lat="49.03529" lon="7.76146">
        <ele>276.7</ele>
        <time>2026-03-09T14:46:41Z</time>
      </trkpt>
      <trkpt lat="49.03526" lon="7.76157">
        <ele>276.4</ele>
        <time>2026-03-09T14:46:46Z</time>
      </trkpt>
      <trkpt lat="49.03524" lon="7.76168">
        <ele>276.5</ele>
        <time>2026-03-09T14:46:51Z</time>
      </trkpt>
      <trkpt lat="49.03521" lon="7.76183">
        <ele>277.3</ele>
        <time>2026-03-09T14:46:56Z</time>
      </trkpt>
      <trkpt lat="49.03519" lon="7.76196">
        <ele>278.3</ele>
        <time>2026-03-09T14:47:01Z</time>
      </trkpt>
      <trkpt lat="49.03518" lon="7.76204">
        <ele>279</ele>
        <time>2026-03-09T14:47:06Z</time>
      </trkpt>
      <trkpt lat="49.0352" lon="7.76206">
        <ele>279.8</ele>
        <time>2026-03-09T14:47:11Z</time>
      </trkpt>
      <trkpt lat="49.0352" lon="7.76211">
        <ele>280.5</ele>
        <time>2026-03-09T14:47:16Z</time>
      </trkpt>
      <trkpt lat="49.03519" lon="7.7622">
        <ele>281.3</ele>
        <time>2026-03-09T14:47:21Z</time>
      </trkpt>
      <trkpt lat="49.03518" lon="7.76225">
        <ele>281.6</ele>
        <time>2026-03-09T14:47:26Z</time>
      </trkpt>
      <trkpt lat="49.03519" lon="7.76232">
        <ele>282.8</ele>
        <time>2026-03-09T14:47:31Z</time>
      </trkpt>
      <trkpt lat="49.03517" lon="7.76243">
        <ele>283.6</ele>
        <time>2026-03-09T14:47:36Z</time>
      </trkpt>
      <trkpt lat="49.03515" lon="7.76259">
        <ele>285.7</ele>
        <time>2026-03-09T14:47:41Z</time>
      </trkpt>
      <trkpt lat="49.03512" lon="7.76272">
        <ele>287.5</ele>
        <time>2026-03-09T14:47:46Z</time>
      </trkpt>
      <trkpt lat="49.03509" lon="7.7628">
        <ele>288.6</ele>
        <time>2026-03-09T14:47:51Z</time>
      </trkpt>
      <trkpt lat="49.03503" lon="7.76288">
        <ele>289.2</ele>
        <time>2026-03-09T14:47:56Z</time>
      </trkpt>
      <trkpt lat="49.03497" lon="7.76295">
        <ele>289.3</ele>
        <time>2026-03-09T14:48:01Z</time>
      </trkpt>
      <trkpt lat="49.03491" lon="7.763">
        <ele>288.5</ele>
        <time>2026-03-09T14:48:06Z</time>
      </trkpt>
      <trkpt lat="49.03484" lon="7.76304">
        <ele>287.2</ele>
        <time>2026-03-09T14:48:11Z</time>
      </trkpt>
      <trkpt lat="49.03478" lon="7.76311">
        <ele>286.8</ele>
        <time>2026-03-09T14:48:16Z</time>
      </trkpt>
      <trkpt lat="49.03472" lon="7.76315">
        <ele>285.7</ele>
        <time>2026-03-09T14:48:21Z</time>
      </trkpt>
      <trkpt lat="49.03468" lon="7.76323">
        <ele>286.1</ele>
        <time>2026-03-09T14:48:26Z</time>
      </trkpt>
      <trkpt lat="49.03465" lon="7.76331">
        <ele>286.8</ele>
        <time>2026-03-09T14:48:31Z</time>
      </trkpt>
      <trkpt lat="49.03461" lon="7.7634">
        <ele>286.5</ele>
        <time>2026-03-09T14:48:36Z</time>
      </trkpt>
      <trkpt lat="49.03456" lon="7.76348">
        <ele>285.5</ele>
        <time>2026-03-09T14:48:41Z</time>
      </trkpt>
      <trkpt lat="49.03452" lon="7.76356">
        <ele>284.9</ele>
        <time>2026-03-09T14:48:46Z</time>
      </trkpt>
      <trkpt lat="49.03447" lon="7.76363">
        <ele>283.9</ele>
        <time>2026-03-09T14:48:51Z</time>
      </trkpt>
      <trkpt lat="49.03443" lon="7.7637">
        <ele>283.2</ele>
        <time>2026-03-09T14:48:56Z</time>
      </trkpt>
      <trkpt lat="49.0344" lon="7.76377">
        <ele>282.9</ele>
        <time>2026-03-09T14:49:01Z</time>
      </trkpt>
      <trkpt lat="49.03438" lon="7.76384">
        <ele>282.9</ele>
        <time>2026-03-09T14:49:06Z</time>
      </trkpt>
      <trkpt lat="49.03437" lon="7.7639">
        <ele>283.1</ele>
        <time>2026-03-09T14:49:11Z</time>
      </trkpt>
      <trkpt lat="49.03437" lon="7.76392">
        <ele>283.3</ele>
        <time>2026-03-09T14:49:16Z</time>
      </trkpt>
      <trkpt lat="49.03436" lon="7.76396">
        <ele>283.3</ele>
        <time>2026-03-09T14:49:21Z</time>
      </trkpt>
      <trkpt lat="49.03431" lon="7.76401">
        <ele>282.2</ele>
        <time>2026-03-09T14:49:26Z</time>
      </trkpt>
      <trkpt lat="49.03427" lon="7.76407">
        <ele>281.4</ele>
        <time>2026-03-09T14:49:31Z</time>
      </trkpt>
      <trkpt lat="49.03422" lon="7.76418">
        <ele>280.7</ele>
        <time>2026-03-09T14:49:36Z</time>
      </trkpt>
      <trkpt lat="49.03418" lon="7.76424">
        <ele>279.4</ele>
        <time>2026-03-09T14:49:41Z</time>
      </trkpt>
      <trkpt lat="49.03414" lon="7.76429">
        <ele>277.8</ele>
        <time>2026-03-09T14:49:46Z</time>
      </trkpt>
      <trkpt lat="49.0341" lon="7.76437">
        <ele>276.1</ele>
        <time>2026-03-09T14:49:51Z</time>
      </trkpt>
      <trkpt lat="49.03407" lon="7.76445">
        <ele>274.8</ele>
        <time>2026-03-09T14:49:56Z</time>
      </trkpt>
      <trkpt lat="49.03405" lon="7.76456">
        <ele>274</ele>
        <time>2026-03-09T14:50:01Z</time>
      </trkpt>
      <trkpt lat="49.03401" lon="7.76466">
        <ele>272.2</ele>
        <time>2026-03-09T14:50:06Z</time>
      </trkpt>
      <trkpt lat="49.03398" lon="7.76472">
        <ele>270.9</ele>
        <time>2026-03-09T14:50:11Z</time>
      </trkpt>
      <trkpt lat="49.03395" lon="7.76476">
        <ele>269.6</ele>
        <time>2026-03-09T14:50:16Z</time>
      </trkpt>
      <trkpt lat="49.0339" lon="7.76482">
        <ele>267.5</ele>
        <time>2026-03-09T14:50:21Z</time>
      </trkpt>
      <trkpt lat="49.03387" lon="7.76489">
        <ele>266.2</ele>
        <time>2026-03-09T14:50:26Z</time>
      </trkpt>
      <trkpt lat="49.03384" lon="7.76495">
        <ele>264.9</ele>
        <time>2026-03-09T14:50:31Z</time>
      </trkpt>
      <trkpt lat="49.03382" lon="7.765">
        <ele>264</ele>
        <time>2026-03-09T14:50:36Z</time>
      </trkpt>
      <trkpt lat="49.03379" lon="7.76499">
        <ele>262.7</ele>
        <time>2026-03-09T14:50:41Z</time>
      </trkpt>
      <trkpt lat="49.03377" lon="7.76499">
        <ele>261.9</ele>
        <time>2026-03-09T14:50:46Z</time>
      </trkpt>
      <trkpt lat="49.03377" lon="7.76499">
        <ele>261.9</ele>
        <time>2026-03-09T14:50:51Z</time>
      </trkpt>
      <trkpt lat="49.03377" lon="7.76499">
        <ele>261.9</ele>
        <time>2026-03-09T14:50:56Z</time>
      </trkpt>
      <trkpt lat="49.03379" lon="7.76512">
        <ele>261.4</ele>
        <time>2026-03-09T14:51:01Z</time>
      </trkpt>
      <trkpt lat="49.03379" lon="7.76512">
        <ele>261.4</ele>
        <time>2026-03-09T14:51:06Z</time>
      </trkpt>
      <trkpt lat="49.03379" lon="7.76512">
        <ele>261.4</ele>
        <time>2026-03-09T14:51:11Z</time>
      </trkpt>
      <trkpt lat="49.03379" lon="7.76512">
        <ele>261.4</ele>
        <time>2026-03-09T14:51:16Z</time>
      </trkpt>
      <trkpt lat="49.03372" lon="7.76525">
        <ele>256.9</ele>
        <time>2026-03-09T14:51:21Z</time>
      </trkpt>
      <trkpt lat="49.0337" lon="7.7653">
        <ele>255.4</ele>
        <time>2026-03-09T14:51:26Z</time>
      </trkpt>
      <trkpt lat="49.03368" lon="7.7653">
        <ele>254.6</ele>
        <time>2026-03-09T14:51:31Z</time>
      </trkpt>
      <trkpt lat="49.03368" lon="7.7653">
        <ele>254.6</ele>
        <time>2026-03-09T14:51:36Z</time>
      </trkpt>
      <trkpt lat="49.03368" lon="7.7653">
        <ele>254.6</ele>
        <time>2026-03-09T14:51:41Z</time>
      </trkpt>
      <trkpt lat="49.03368" lon="7.7653">
        <ele>254.6</ele>
        <time>2026-03-09T14:51:46Z</time>
      </trkpt>
      <trkpt lat="49.03364" lon="7.76544">
        <ele>251.3</ele>
        <time>2026-03-09T14:51:51Z</time>
      </trkpt>
      <trkpt lat="49.03364" lon="7.76545">
        <ele>251.2</ele>
        <time>2026-03-09T14:51:56Z</time>
      </trkpt>
      <trkpt lat="49.03364" lon="7.76545">
        <ele>251.2</ele>
        <time>2026-03-09T14:52:01Z</time>
      </trkpt>
      <trkpt lat="49.03364" lon="7.76545">
        <ele>251.2</ele>
        <time>2026-03-09T14:52:06Z</time>
      </trkpt>
      <trkpt lat="49.03364" lon="7.76545">
        <ele>251.2</ele>
        <time>2026-03-09T14:52:11Z</time>
      </trkpt>
      <trkpt lat="49.03364" lon="7.76545">
        <ele>251.2</ele>
        <time>2026-03-09T14:52:16Z</time>
      </trkpt>
      <trkpt lat="49.03359" lon="7.76558">
        <ele>247.6</ele>
        <time>2026-03-09T14:52:21Z</time>
      </trkpt>
      <trkpt lat="49.03359" lon="7.76558">
        <ele>247.6</ele>
        <time>2026-03-09T14:52:26Z</time>
      </trkpt>
      <trkpt lat="49.03359" lon="7.76558">
        <ele>247.6</ele>
        <time>2026-03-09T14:52:31Z</time>
      </trkpt>
      <trkpt lat="49.03359" lon="7.76558">
        <ele>247.6</ele>
        <time>2026-03-09T14:52:36Z</time>
      </trkpt>
      <trkpt lat="49.03359" lon="7.76558">
        <ele>247.6</ele>
        <time>2026-03-09T14:52:41Z</time>
      </trkpt>
      <trkpt lat="49.03359" lon="7.76558">
        <ele>247.6</ele>
        <time>2026-03-09T14:52:46Z</time>
      </trkpt>
      <trkpt lat="49.03359" lon="7.76558">
        <ele>247.6</ele>
        <time>2026-03-09T14:52:51Z</time>
      </trkpt>
      <trkpt lat="49.03359" lon="7.76558">
        <ele>247.6</ele>
        <time>2026-03-09T14:52:56Z</time>
      </trkpt>
      <trkpt lat="49.03359" lon="7.76558">
        <ele>247.6</ele>
        <time>2026-03-09T14:53:01Z</time>
      </trkpt>
      <trkpt lat="49.03359" lon="7.76558">
        <ele>247.6</ele>
        <time>2026-03-09T14:53:06Z</time>
      </trkpt>
      <trkpt lat="49.03365" lon="7.76543">
        <ele>251.8</ele>
        <time>2026-03-09T14:53:11Z</time>
      </trkpt>
      <trkpt lat="49.03368" lon="7.76539">
        <ele>253.6</ele>
        <time>2026-03-09T14:53:16Z</time>
      </trkpt>
      <trkpt lat="49.0337" lon="7.76536">
        <ele>254.8</ele>
        <time>2026-03-09T14:53:21Z</time>
      </trkpt>
      <trkpt lat="49.0337" lon="7.76537">
        <ele>254.6</ele>
        <time>2026-03-09T14:53:26Z</time>
      </trkpt>
      <trkpt lat="49.0337" lon="7.76535">
        <ele>254.9</ele>
        <time>2026-03-09T14:53:31Z</time>
      </trkpt>
      <trkpt lat="49.0337" lon="7.76535">
        <ele>254.9</ele>
        <time>2026-03-09T14:53:36Z</time>
      </trkpt>
      <trkpt lat="49.0337" lon="7.76535">
        <ele>254.9</ele>
        <time>2026-03-09T14:53:41Z</time>
      </trkpt>
      <trkpt lat="49.03374" lon="7.76526">
        <ele>257.6</ele>
        <time>2026-03-09T14:53:46Z</time>
      </trkpt>
      <trkpt lat="49.03376" lon="7.76521">
        <ele>259</ele>
        <time>2026-03-09T14:53:51Z</time>
      </trkpt>
      <trkpt lat="49.03377" lon="7.76516">
        <ele>260</ele>
        <time>2026-03-09T14:53:56Z</time>
      </trkpt>
      <trkpt lat="49.03379" lon="7.76512">
        <ele>261.4</ele>
        <time>2026-03-09T14:54:01Z</time>
      </trkpt>
      <trkpt lat="49.03381" lon="7.76508">
        <ele>262.7</ele>
        <time>2026-03-09T14:54:06Z</time>
      </trkpt>
      <trkpt lat="49.03381" lon="7.76505">
        <ele>263</ele>
        <time>2026-03-09T14:54:11Z</time>
      </trkpt>
      <trkpt lat="49.03383" lon="7.76501">
        <ele>264.3</ele>
        <time>2026-03-09T14:54:16Z</time>
      </trkpt>
      <trkpt lat="49.03383" lon="7.76499">
        <ele>264.5</ele>
        <time>2026-03-09T14:54:21Z</time>
      </trkpt>
      <trkpt lat="49.03384" lon="7.76498">
        <ele>264.9</ele>
        <time>2026-03-09T14:54:26Z</time>
      </trkpt>
      <trkpt lat="49.03384" lon="7.76498">
        <ele>264.9</ele>
        <time>2026-03-09T14:54:31Z</time>
      </trkpt>
      <trkpt lat="49.03384" lon="7.76498">
        <ele>264.9</ele>
        <time>2026-03-09T14:54:36Z</time>
      </trkpt>
      <trkpt lat="49.03384" lon="7.76498">
        <ele>264.9</ele>
        <time>2026-03-09T14:54:41Z</time>
      </trkpt>
      <trkpt lat="49.03391" lon="7.76489">
        <ele>267.9</ele>
        <time>2026-03-09T14:54:46Z</time>
      </trkpt>
      <trkpt lat="49.03395" lon="7.76485">
        <ele>269.6</ele>
        <time>2026-03-09T14:54:51Z</time>
      </trkpt>
      <trkpt lat="49.03396" lon="7.76478">
        <ele>270.1</ele>
        <time>2026-03-09T14:54:56Z</time>
      </trkpt>
      <trkpt lat="49.03399" lon="7.76472">
        <ele>271.4</ele>
        <time>2026-03-09T14:55:01Z</time>
      </trkpt>
      <trkpt lat="49.03403" lon="7.76466">
        <ele>273.1</ele>
        <time>2026-03-09T14:55:06Z</time>
      </trkpt>
      <trkpt lat="49.03409" lon="7.76458">
        <ele>275.7</ele>
        <time>2026-03-09T14:55:11Z</time>
      </trkpt>
      <trkpt lat="49.03412" lon="7.7645">
        <ele>277</ele>
        <time>2026-03-09T14:55:16Z</time>
      </trkpt>
      <trkpt lat="49.03414" lon="7.7644">
        <ele>277.8</ele>
        <time>2026-03-09T14:55:21Z</time>
      </trkpt>
      <trkpt lat="49.03416" lon="7.76431">
        <ele>278.7</ele>
        <time>2026-03-09T14:55:26Z</time>
      </trkpt>
      <trkpt lat="49.03419" lon="7.76424">
        <ele>279.7</ele>
        <time>2026-03-09T14:55:31Z</time>
      </trkpt>
      <trkpt lat="49.03423" lon="7.76416">
        <ele>281</ele>
        <time>2026-03-09T14:55:36Z</time>
      </trkpt>
      <trkpt lat="49.03429" lon="7.76407">
        <ele>282.1</ele>
        <time>2026-03-09T14:55:41Z</time>
      </trkpt>
      <trkpt lat="49.03434" lon="7.76401">
        <ele>283.2</ele>
        <time>2026-03-09T14:55:46Z</time>
      </trkpt>
      <trkpt lat="49.03439" lon="7.7639">
        <ele>283.8</ele>
        <time>2026-03-09T14:55:51Z</time>
      </trkpt>
      <trkpt lat="49.03444" lon="7.76383">
        <ele>284.8</ele>
        <time>2026-03-09T14:55:56Z</time>
      </trkpt>
      <trkpt lat="49.03448" lon="7.76373">
        <ele>285.2</ele>
        <time>2026-03-09T14:56:01Z</time>
      </trkpt>
      <trkpt lat="49.03451" lon="7.76367">
        <ele>285.6</ele>
        <time>2026-03-09T14:56:06Z</time>
      </trkpt>
      <trkpt lat="49.03454" lon="7.76359">
        <ele>285.9</ele>
        <time>2026-03-09T14:56:11Z</time>
      </trkpt>
      <trkpt lat="49.03457" lon="7.76352">
        <ele>286.2</ele>
        <time>2026-03-09T14:56:16Z</time>
      </trkpt>
      <trkpt lat="49.0346" lon="7.76344">
        <ele>286.5</ele>
        <time>2026-03-09T14:56:21Z</time>
      </trkpt>
      <trkpt lat="49.03465" lon="7.76335">
        <ele>287.4</ele>
        <time>2026-03-09T14:56:26Z</time>
      </trkpt>
      <trkpt lat="49.03468" lon="7.76329">
        <ele>287.3</ele>
        <time>2026-03-09T14:56:31Z</time>
      </trkpt>
      <trkpt lat="49.03473" lon="7.76323">
        <ele>287.7</ele>
        <time>2026-03-09T14:56:36Z</time>
      </trkpt>
      <trkpt lat="49.03476" lon="7.76314">
        <ele>286.8</ele>
        <time>2026-03-09T14:56:41Z</time>
      </trkpt>
      <trkpt lat="49.03483" lon="7.7631">
        <ele>288.2</ele>
        <time>2026-03-09T14:56:46Z</time>
      </trkpt>
      <trkpt lat="49.03489" lon="7.76304">
        <ele>288.8</ele>
        <time>2026-03-09T14:56:51Z</time>
      </trkpt>
      <trkpt lat="49.03495" lon="7.76298">
        <ele>289.4</ele>
        <time>2026-03-09T14:56:56Z</time>
      </trkpt>
      <trkpt lat="49.035" lon="7.76292">
        <ele>289.6</ele>
        <time>2026-03-09T14:57:01Z</time>
      </trkpt>
      <trkpt lat="49.03506" lon="7.76285">
        <ele>289</ele>
        <time>2026-03-09T14:57:06Z</time>
      </trkpt>
      <trkpt lat="49.03513" lon="7.76277">
        <ele>288.7</ele>
        <time>2026-03-09T14:57:11Z</time>
      </trkpt>
      <trkpt lat="49.03516" lon="7.76269">
        <ele>287.8</ele>
        <time>2026-03-09T14:57:16Z</time>
      </trkpt>
      <trkpt lat="49.03521" lon="7.7626">
        <ele>287.3</ele>
        <time>2026-03-09T14:57:21Z</time>
      </trkpt>
      <trkpt lat="49.03522" lon="7.76251">
        <ele>286</ele>
        <time>2026-03-09T14:57:26Z</time>
      </trkpt>
      <trkpt lat="49.03522" lon="7.7624">
        <ele>284.6</ele>
        <time>2026-03-09T14:57:31Z</time>
      </trkpt>
      <trkpt lat="49.03522" lon="7.7623">
        <ele>283.4</ele>
        <time>2026-03-09T14:57:36Z</time>
      </trkpt>
      <trkpt lat="49.03523" lon="7.7622">
        <ele>282.4</ele>
        <time>2026-03-09T14:57:41Z</time>
      </trkpt>
      <trkpt lat="49.03525" lon="7.76203">
        <ele>281</ele>
        <time>2026-03-09T14:57:46Z</time>
      </trkpt>
      <trkpt lat="49.03525" lon="7.76192">
        <ele>279.7</ele>
        <time>2026-03-09T14:57:51Z</time>
      </trkpt>
      <trkpt lat="49.03528" lon="7.76184">
        <ele>279.8</ele>
        <time>2026-03-09T14:57:56Z</time>
      </trkpt>
      <trkpt lat="49.03528" lon="7.76172">
        <ele>278.4</ele>
        <time>2026-03-09T14:58:01Z</time>
      </trkpt>
      <trkpt lat="49.0353" lon="7.7616">
        <ele>278</ele>
        <time>2026-03-09T14:58:06Z</time>
      </trkpt>
      <trkpt lat="49.03534" lon="7.76149">
        <ele>278.7</ele>
        <time>2026-03-09T14:58:11Z</time>
      </trkpt>
      <trkpt lat="49.03537" lon="7.7614">
        <ele>279.2</ele>
        <time>2026-03-09T14:58:16Z</time>
      </trkpt>
      <trkpt lat="49.03539" lon="7.7613">
        <ele>279.3</ele>
        <time>2026-03-09T14:58:21Z</time>
      </trkpt>
      <trkpt lat="49.03542" lon="7.76122">
        <ele>279.9</ele>
        <time>2026-03-09T14:58:26Z</time>
      </trkpt>
      <trkpt lat="49.03542" lon="7.76111">
        <ele>279.3</ele>
        <time>2026-03-09T14:58:31Z</time>
      </trkpt>
      <trkpt lat="49.03544" lon="7.761">
        <ele>279.4</ele>
        <time>2026-03-09T14:58:36Z</time>
      </trkpt>
      <trkpt lat="49.03546" lon="7.7609">
        <ele>279.6</ele>
        <time>2026-03-09T14:58:41Z</time>
      </trkpt>
      <trkpt lat="49.03546" lon="7.76078">
        <ele>279</ele>
        <time>2026-03-09T14:58:46Z</time>
      </trkpt>
      <trkpt lat="49.03549" lon="7.76066">
        <ele>279.7</ele>
        <time>2026-03-09T14:58:51Z</time>
      </trkpt>
      <trkpt lat="49.03551" lon="7.76054">
        <ele>279.9</ele>
        <time>2026-03-09T14:58:56Z</time>
      </trkpt>
      <trkpt lat="49.03553" lon="7.76045">
        <ele>280.3</ele>
        <time>2026-03-09T14:59:01Z</time>
      </trkpt>
      <trkpt lat="49.03555" lon="7.76035">
        <ele>280.7</ele>
        <time>2026-03-09T14:59:06Z</time>
      </trkpt>
      <trkpt lat="49.03558" lon="7.76029">
        <ele>281.6</ele>
        <time>2026-03-09T14:59:11Z</time>
      </trkpt>
      <trkpt lat="49.0356" lon="7.7602">
        <ele>281.9</ele>
        <time>2026-03-09T14:59:16Z</time>
      </trkpt>
      <trkpt lat="49.03563" lon="7.76012">
        <ele>282.7</ele>
        <time>2026-03-09T14:59:21Z</time>
      </trkpt>
      <trkpt lat="49.03565" lon="7.76004">
        <ele>283.1</ele>
        <time>2026-03-09T14:59:26Z</time>
      </trkpt>
      <trkpt lat="49.03567" lon="7.76">
        <ele>283.7</ele>
        <time>2026-03-09T14:59:31Z</time>
      </trkpt>
      <trkpt lat="49.03568" lon="7.76001">
        <ele>284.2</ele>
        <time>2026-03-09T14:59:36Z</time>
      </trkpt>
      <trkpt lat="49.03568" lon="7.76001">
        <ele>284.2</ele>
        <time>2026-03-09T14:59:41Z</time>
      </trkpt>
      <trkpt lat="49.03568" lon="7.76001">
        <ele>284.2</ele>
        <time>2026-03-09T14:59:46Z</time>
      </trkpt>
      <trkpt lat="49.03568" lon="7.76001">
        <ele>284.2</ele>
        <time>2026-03-09T14:59:51Z</time>
      </trkpt>
      <trkpt lat="49.03568" lon="7.76001">
        <ele>284.2</ele>
        <time>2026-03-09T14:59:56Z</time>
      </trkpt>
      <trkpt lat="49.03568" lon="7.76001">
        <ele>284.2</ele>
        <time>2026-03-09T15:00:01Z</time>
      </trkpt>
      <trkpt lat="49.03568" lon="7.76001">
        <ele>284.2</ele>
        <time>2026-03-09T15:00:06Z</time>
      </trkpt>
      <trkpt lat="49.03568" lon="7.76001">
        <ele>284.2</ele>
        <time>2026-03-09T15:00:11Z</time>
      </trkpt>
      <trkpt lat="49.03576" lon="7.76009">
        <ele>287.6</ele>
        <time>2026-03-09T15:00:16Z</time>
      </trkpt>
      <trkpt lat="49.03579" lon="7.76007">
        <ele>288.7</ele>
        <time>2026-03-09T15:00:21Z</time>
      </trkpt>
      <trkpt lat="49.03587" lon="7.76009">
        <ele>291.2</ele>
        <time>2026-03-09T15:00:26Z</time>
      </trkpt>
      <trkpt lat="49.03591" lon="7.76009">
        <ele>292</ele>
        <time>2026-03-09T15:00:31Z</time>
      </trkpt>
      <trkpt lat="49.03592" lon="7.76003">
        <ele>292</ele>
        <time>2026-03-09T15:00:36Z</time>
      </trkpt>
      <trkpt lat="49.0359" lon="7.76001">
        <ele>291.5</ele>
        <time>2026-03-09T15:00:41Z</time>
      </trkpt>
      <trkpt lat="49.0359" lon="7.76001">
        <ele>291.5</ele>
        <time>2026-03-09T15:00:46Z</time>
      </trkpt>
      <trkpt lat="49.0359" lon="7.76001">
        <ele>291.5</ele>
        <time>2026-03-09T15:00:51Z</time>
      </trkpt>
      <trkpt lat="49.0359" lon="7.76001">
        <ele>291.5</ele>
        <time>2026-03-09T15:00:56Z</time>
      </trkpt>
      <trkpt lat="49.03595" lon="7.75995">
        <ele>292.4</ele>
        <time>2026-03-09T15:01:01Z</time>
      </trkpt>
      <trkpt lat="49.03598" lon="7.75985">
        <ele>292.8</ele>
        <time>2026-03-09T15:01:06Z</time>
      </trkpt>
      <trkpt lat="49.03601" lon="7.75978">
        <ele>293.4</ele>
        <time>2026-03-09T15:01:11Z</time>
      </trkpt>
      <trkpt lat="49.03599" lon="7.75969">
        <ele>292.7</ele>
        <time>2026-03-09T15:01:16Z</time>
      </trkpt>
      <trkpt lat="49.03599" lon="7.75962">
        <ele>292.5</ele>
        <time>2026-03-09T15:01:21Z</time>
      </trkpt>
      <trkpt lat="49.03598" lon="7.75954">
        <ele>292</ele>
        <time>2026-03-09T15:01:26Z</time>
      </trkpt>
      <trkpt lat="49.03596" lon="7.75944">
        <ele>291.2</ele>
        <time>2026-03-09T15:01:31Z</time>
      </trkpt>
      <trkpt lat="49.03594" lon="7.75934">
        <ele>290.3</ele>
        <time>2026-03-09T15:01:36Z</time>
      </trkpt>
      <trkpt lat="49.03593" lon="7.75924">
        <ele>289.6</ele>
        <time>2026-03-09T15:01:41Z</time>
      </trkpt>
      <trkpt lat="49.03592" lon="7.75917">
        <ele>289</ele>
        <time>2026-03-09T15:01:46Z</time>
      </trkpt>
      <trkpt lat="49.03592" lon="7.75917">
        <ele>289</ele>
        <time>2026-03-09T15:01:51Z</time>
      </trkpt>
      <trkpt lat="49.03592" lon="7.75917">
        <ele>289</ele>
        <time>2026-03-09T15:01:56Z</time>
      </trkpt>
      <trkpt lat="49.03592" lon="7.75917">
        <ele>289</ele>
        <time>2026-03-09T15:02:01Z</time>
      </trkpt>
      <trkpt lat="49.03592" lon="7.75917">
        <ele>289</ele>
        <time>2026-03-09T15:02:06Z</time>
      </trkpt>
      <trkpt lat="49.03592" lon="7.75917">
        <ele>289</ele>
        <time>2026-03-09T15:02:11Z</time>
      </trkpt>
      <trkpt lat="49.03592" lon="7.75917">
        <ele>289</ele>
        <time>2026-03-09T15:02:16Z</time>
      </trkpt>
      <trkpt lat="49.03585" lon="7.75915">
        <ele>286.7</ele>
        <time>2026-03-09T15:02:21Z</time>
      </trkpt>
      <trkpt lat="49.03583" lon="7.75906">
        <ele>286.8</ele>
        <time>2026-03-09T15:02:26Z</time>
      </trkpt>
      <trkpt lat="49.03581" lon="7.75898">
        <ele>286.7</ele>
        <time>2026-03-09T15:02:31Z</time>
      </trkpt>
      <trkpt lat="49.03581" lon="7.7589">
        <ele>287.4</ele>
        <time>2026-03-09T15:02:36Z</time>
      </trkpt>
      <trkpt lat="49.03577" lon="7.75877">
        <ele>287</ele>
        <time>2026-03-09T15:02:41Z</time>
      </trkpt>
      <trkpt lat="49.03571" lon="7.75865">
        <ele>286</ele>
        <time>2026-03-09T15:02:46Z</time>
      </trkpt>
      <trkpt lat="49.03566" lon="7.75857">
        <ele>285</ele>
        <time>2026-03-09T15:02:51Z</time>
      </trkpt>
      <trkpt lat="49.03565" lon="7.7585">
        <ele>285.3</ele>
        <time>2026-03-09T15:02:56Z</time>
      </trkpt>
      <trkpt lat="49.03561" lon="7.75841">
        <ele>284.8</ele>
        <time>2026-03-09T15:03:01Z</time>
      </trkpt>
      <trkpt lat="49.03559" lon="7.75835">
        <ele>284.7</ele>
        <time>2026-03-09T15:03:06Z</time>
      </trkpt>
      <trkpt lat="49.03557" lon="7.75828">
        <ele>284.8</ele>
        <time>2026-03-09T15:03:11Z</time>
      </trkpt>
      <trkpt lat="49.03553" lon="7.75821">
        <ele>284.2</ele>
        <time>2026-03-09T15:03:16Z</time>
      </trkpt>
      <trkpt lat="49.0355" lon="7.75811">
        <ele>284.4</ele>
        <time>2026-03-09T15:03:21Z</time>
      </trkpt>
      <trkpt lat="49.03546" lon="7.75801">
        <ele>284.3</ele>
        <time>2026-03-09T15:03:26Z</time>
      </trkpt>
      <trkpt lat="49.03548" lon="7.75791">
        <ele>286.1</ele>
        <time>2026-03-09T15:03:31Z</time>
      </trkpt>
      <trkpt lat="49.03548" lon="7.75782">
        <ele>287.2</ele>
        <time>2026-03-09T15:03:36Z</time>
      </trkpt>
      <trkpt lat="49.03549" lon="7.75773">
        <ele>288.6</ele>
        <time>2026-03-09T15:03:41Z</time>
      </trkpt>
      <trkpt lat="49.03549" lon="7.75764">
        <ele>289.6</ele>
        <time>2026-03-09T15:03:46Z</time>
      </trkpt>
      <trkpt lat="49.03549" lon="7.75756">
        <ele>290.6</ele>
        <time>2026-03-09T15:03:51Z</time>
      </trkpt>
      <trkpt lat="49.03549" lon="7.75748">
        <ele>291.4</ele>
        <time>2026-03-09T15:03:56Z</time>
      </trkpt>
      <trkpt lat="49.03548" lon="7.75737">
        <ele>291.5</ele>
        <time>2026-03-09T15:04:01Z</time>
      </trkpt>
      <trkpt lat="49.03548" lon="7.75729">
        <ele>291.8</ele>
        <time>2026-03-09T15:04:06Z</time>
      </trkpt>
      <trkpt lat="49.03548" lon="7.75721">
        <ele>292.2</ele>
        <time>2026-03-09T15:04:11Z</time>
      </trkpt>
      <trkpt lat="49.03547" lon="7.75711">
        <ele>292.3</ele>
        <time>2026-03-09T15:04:16Z</time>
      </trkpt>
      <trkpt lat="49.03547" lon="7.75701">
        <ele>292.7</ele>
        <time>2026-03-09T15:04:21Z</time>
      </trkpt>
      <trkpt lat="49.03548" lon="7.75692">
        <ele>293.4</ele>
        <time>2026-03-09T15:04:26Z</time>
      </trkpt>
      <trkpt lat="49.0355" lon="7.75683">
        <ele>294.3</ele>
        <time>2026-03-09T15:04:31Z</time>
      </trkpt>
      <trkpt lat="49.03548" lon="7.75675">
        <ele>294.1</ele>
        <time>2026-03-09T15:04:36Z</time>
      </trkpt>
      <trkpt lat="49.03548" lon="7.75666">
        <ele>294.4</ele>
        <time>2026-03-09T15:04:41Z</time>
      </trkpt>
      <trkpt lat="49.03549" lon="7.75657">
        <ele>294.8</ele>
        <time>2026-03-09T15:04:46Z</time>
      </trkpt>
      <trkpt lat="49.03551" lon="7.75646">
        <ele>295.5</ele>
        <time>2026-03-09T15:04:51Z</time>
      </trkpt>
      <trkpt lat="49.03553" lon="7.75636">
        <ele>296.1</ele>
        <time>2026-03-09T15:04:56Z</time>
      </trkpt>
      <trkpt lat="49.03553" lon="7.75627">
        <ele>296.2</ele>
        <time>2026-03-09T15:05:01Z</time>
      </trkpt>
      <trkpt lat="49.03553" lon="7.75618">
        <ele>296.3</ele>
        <time>2026-03-09T15:05:06Z</time>
      </trkpt>
      <trkpt lat="49.03553" lon="7.7561">
        <ele>296.3</ele>
        <time>2026-03-09T15:05:11Z</time>
      </trkpt>
      <trkpt lat="49.03554" lon="7.75602">
        <ele>296.7</ele>
        <time>2026-03-09T15:05:16Z</time>
      </trkpt>
      <trkpt lat="49.03555" lon="7.75595">
        <ele>297.1</ele>
        <time>2026-03-09T15:05:21Z</time>
      </trkpt>
      <trkpt lat="49.03555" lon="7.75584">
        <ele>297.2</ele>
        <time>2026-03-09T15:05:26Z</time>
      </trkpt>
      <trkpt lat="49.03557" lon="7.75574">
        <ele>297.6</ele>
        <time>2026-03-09T15:05:31Z</time>
      </trkpt>
      <trkpt lat="49.03559" lon="7.75566">
        <ele>298.2</ele>
        <time>2026-03-09T15:05:36Z</time>
      </trkpt>
      <trkpt lat="49.03561" lon="7.75557">
        <ele>298.7</ele>
        <time>2026-03-09T15:05:41Z</time>
      </trkpt>
      <trkpt lat="49.03561" lon="7.75548">
        <ele>298.6</ele>
        <time>2026-03-09T15:05:46Z</time>
      </trkpt>
      <trkpt lat="49.03559" lon="7.75539">
        <ele>297.8</ele>
        <time>2026-03-09T15:05:51Z</time>
      </trkpt>
      <trkpt lat="49.0356" lon="7.75528">
        <ele>298</ele>
        <time>2026-03-09T15:05:56Z</time>
      </trkpt>
      <trkpt lat="49.03563" lon="7.75521">
        <ele>298.9</ele>
        <time>2026-03-09T15:06:01Z</time>
      </trkpt>
      <trkpt lat="49.03563" lon="7.75512">
        <ele>298.8</ele>
        <time>2026-03-09T15:06:06Z</time>
      </trkpt>
      <trkpt lat="49.03563" lon="7.75502">
        <ele>298.7</ele>
        <time>2026-03-09T15:06:11Z</time>
      </trkpt>
      <trkpt lat="49.03562" lon="7.75494">
        <ele>298.1</ele>
        <time>2026-03-09T15:06:16Z</time>
      </trkpt>
      <trkpt lat="49.03562" lon="7.75486">
        <ele>297.9</ele>
        <time>2026-03-09T15:06:21Z</time>
      </trkpt>
      <trkpt lat="49.03563" lon="7.75475">
        <ele>297.9</ele>
        <time>2026-03-09T15:06:26Z</time>
      </trkpt>
      <trkpt lat="49.03565" lon="7.75467">
        <ele>298.5</ele>
        <time>2026-03-09T15:06:31Z</time>
      </trkpt>
      <trkpt lat="49.03567" lon="7.75458">
        <ele>299</ele>
        <time>2026-03-09T15:06:36Z</time>
      </trkpt>
      <trkpt lat="49.03567" lon="7.75449">
        <ele>298.8</ele>
        <time>2026-03-09T15:06:41Z</time>
      </trkpt>
      <trkpt lat="49.03567" lon="7.7544">
        <ele>298.6</ele>
        <time>2026-03-09T15:06:46Z</time>
      </trkpt>
      <trkpt lat="49.03567" lon="7.7543">
        <ele>298.3</ele>
        <time>2026-03-09T15:06:51Z</time>
      </trkpt>
      <trkpt lat="49.03567" lon="7.75421">
        <ele>298.1</ele>
        <time>2026-03-09T15:06:56Z</time>
      </trkpt>
      <trkpt lat="49.03566" lon="7.7541">
        <ele>297.5</ele>
        <time>2026-03-09T15:07:01Z</time>
      </trkpt>
      <trkpt lat="49.03567" lon="7.754">
        <ele>297.9</ele>
        <time>2026-03-09T15:07:06Z</time>
      </trkpt>
      <trkpt lat="49.03568" lon="7.75387">
        <ele>298.3</ele>
        <time>2026-03-09T15:07:11Z</time>
      </trkpt>
      <trkpt lat="49.03569" lon="7.7538">
        <ele>298.7</ele>
        <time>2026-03-09T15:07:16Z</time>
      </trkpt>
      <trkpt lat="49.03569" lon="7.75371">
        <ele>298.7</ele>
        <time>2026-03-09T15:07:21Z</time>
      </trkpt>
      <trkpt lat="49.03567" lon="7.75361">
        <ele>297.8</ele>
        <time>2026-03-09T15:07:26Z</time>
      </trkpt>
      <trkpt lat="49.03566" lon="7.75351">
        <ele>297.3</ele>
        <time>2026-03-09T15:07:31Z</time>
      </trkpt>
      <trkpt lat="49.03567" lon="7.75341">
        <ele>297.8</ele>
        <time>2026-03-09T15:07:36Z</time>
      </trkpt>
      <trkpt lat="49.03568" lon="7.75332">
        <ele>298.2</ele>
        <time>2026-03-09T15:07:41Z</time>
      </trkpt>
      <trkpt lat="49.03567" lon="7.75324">
        <ele>298</ele>
        <time>2026-03-09T15:07:46Z</time>
      </trkpt>
      <trkpt lat="49.03568" lon="7.75315">
        <ele>298.7</ele>
        <time>2026-03-09T15:07:51Z</time>
      </trkpt>
      <trkpt lat="49.03567" lon="7.75305">
        <ele>298.6</ele>
        <time>2026-03-09T15:07:56Z</time>
      </trkpt>
      <trkpt lat="49.03565" lon="7.75297">
        <ele>297.9</ele>
        <time>2026-03-09T15:08:01Z</time>
      </trkpt>
      <trkpt lat="49.03564" lon="7.75288">
        <ele>297.7</ele>
        <time>2026-03-09T15:08:06Z</time>
      </trkpt>
      <trkpt lat="49.03561" lon="7.75277">
        <ele>296.6</ele>
        <time>2026-03-09T15:08:11Z</time>
      </trkpt>
      <trkpt lat="49.03561" lon="7.75266">
        <ele>296.9</ele>
        <time>2026-03-09T15:08:16Z</time>
      </trkpt>
      <trkpt lat="49.03559" lon="7.75258">
        <ele>296.1</ele>
        <time>2026-03-09T15:08:21Z</time>
      </trkpt>
      <trkpt lat="49.03557" lon="7.7525">
        <ele>295.4</ele>
        <time>2026-03-09T15:08:26Z</time>
      </trkpt>
      <trkpt lat="49.03555" lon="7.75242">
        <ele>294.5</ele>
        <time>2026-03-09T15:08:31Z</time>
      </trkpt>
      <trkpt lat="49.03553" lon="7.75229">
        <ele>293.8</ele>
        <time>2026-03-09T15:08:36Z</time>
      </trkpt>
      <trkpt lat="49.03553" lon="7.7522">
        <ele>293.9</ele>
        <time>2026-03-09T15:08:41Z</time>
      </trkpt>
      <trkpt lat="49.03554" lon="7.75213">
        <ele>294.5</ele>
        <time>2026-03-09T15:08:46Z</time>
      </trkpt>
      <trkpt lat="49.03553" lon="7.75202">
        <ele>294.2</ele>
        <time>2026-03-09T15:08:51Z</time>
      </trkpt>
      <trkpt lat="49.03554" lon="7.75193">
        <ele>294.8</ele>
        <time>2026-03-09T15:08:56Z</time>
      </trkpt>
      <trkpt lat="49.03554" lon="7.75185">
        <ele>294.9</ele>
        <time>2026-03-09T15:09:01Z</time>
      </trkpt>
      <trkpt lat="49.03554" lon="7.75175">
        <ele>295.1</ele>
        <time>2026-03-09T15:09:06Z</time>
      </trkpt>
      <trkpt lat="49.03555" lon="7.75166">
        <ele>295.7</ele>
        <time>2026-03-09T15:09:11Z</time>
      </trkpt>
      <trkpt lat="49.03555" lon="7.75157">
        <ele>295.8</ele>
        <time>2026-03-09T15:09:16Z</time>
      </trkpt>
      <trkpt lat="49.03555" lon="7.75149">
        <ele>295.8</ele>
        <time>2026-03-09T15:09:21Z</time>
      </trkpt>
      <trkpt lat="49.03555" lon="7.75141">
        <ele>295.8</ele>
        <time>2026-03-09T15:09:26Z</time>
      </trkpt>
      <trkpt lat="49.03556" lon="7.75132">
        <ele>296.4</ele>
        <time>2026-03-09T15:09:31Z</time>
      </trkpt>
      <trkpt lat="49.03555" lon="7.75123">
        <ele>295.9</ele>
        <time>2026-03-09T15:09:36Z</time>
      </trkpt>
      <trkpt lat="49.03555" lon="7.75113">
        <ele>295.9</ele>
        <time>2026-03-09T15:09:41Z</time>
      </trkpt>
      <trkpt lat="49.03555" lon="7.75103">
        <ele>296</ele>
        <time>2026-03-09T15:09:46Z</time>
      </trkpt>
      <trkpt lat="49.03555" lon="7.75096">
        <ele>296</ele>
        <time>2026-03-09T15:09:51Z</time>
      </trkpt>
      <trkpt lat="49.03559" lon="7.75088">
        <ele>298</ele>
        <time>2026-03-09T15:09:56Z</time>
      </trkpt>
      <trkpt lat="49.03561" lon="7.75079">
        <ele>298.9</ele>
        <time>2026-03-09T15:10:01Z</time>
      </trkpt>
      <trkpt lat="49.03562" lon="7.7507">
        <ele>299.1</ele>
        <time>2026-03-09T15:10:06Z</time>
      </trkpt>
      <trkpt lat="49.03563" lon="7.7506">
        <ele>299.3</ele>
        <time>2026-03-09T15:10:11Z</time>
      </trkpt>
      <trkpt lat="49.03565" lon="7.75051">
        <ele>299.9</ele>
        <time>2026-03-09T15:10:16Z</time>
      </trkpt>
      <trkpt lat="49.03567" lon="7.75043">
        <ele>300.6</ele>
        <time>2026-03-09T15:10:21Z</time>
      </trkpt>
      <trkpt lat="49.03569" lon="7.75035">
        <ele>301.2</ele>
        <time>2026-03-09T15:10:26Z</time>
      </trkpt>
      <trkpt lat="49.0357" lon="7.75027">
        <ele>301.4</ele>
        <time>2026-03-09T15:10:31Z</time>
      </trkpt>
      <trkpt lat="49.03573" lon="7.75019">
        <ele>302.4</ele>
        <time>2026-03-09T15:10:36Z</time>
      </trkpt>
      <trkpt lat="49.03576" lon="7.75011">
        <ele>303.4</ele>
        <time>2026-03-09T15:10:41Z</time>
      </trkpt>
      <trkpt lat="49.03578" lon="7.75004">
        <ele>303.9</ele>
        <time>2026-03-09T15:10:46Z</time>
      </trkpt>
      <trkpt lat="49.03581" lon="7.74998">
        <ele>304.8</ele>
        <time>2026-03-09T15:10:51Z</time>
      </trkpt>
      <trkpt lat="49.03583" lon="7.74994">
        <ele>305.2</ele>
        <time>2026-03-09T15:10:56Z</time>
      </trkpt>
      <trkpt lat="49.03586" lon="7.74988">
        <ele>305.6</ele>
        <time>2026-03-09T15:11:01Z</time>
      </trkpt>
      <trkpt lat="49.03589" lon="7.7498">
        <ele>305.6</ele>
        <time>2026-03-09T15:11:06Z</time>
      </trkpt>
      <trkpt lat="49.03591" lon="7.74974">
        <ele>305.5</ele>
        <time>2026-03-09T15:11:11Z</time>
      </trkpt>
      <trkpt lat="49.03595" lon="7.74967">
        <ele>305.9</ele>
        <time>2026-03-09T15:11:16Z</time>
      </trkpt>
      <trkpt lat="49.03599" lon="7.74959">
        <ele>306.1</ele>
        <time>2026-03-09T15:11:21Z</time>
      </trkpt>
      <trkpt lat="49.03603" lon="7.74952">
        <ele>306.3</ele>
        <time>2026-03-09T15:11:26Z</time>
      </trkpt>
      <trkpt lat="49.03606" lon="7.74946">
        <ele>306.4</ele>
        <time>2026-03-09T15:11:31Z</time>
      </trkpt>
      <trkpt lat="49.03607" lon="7.74942">
        <ele>306.1</ele>
        <time>2026-03-09T15:11:36Z</time>
      </trkpt>
      <trkpt lat="49.03613" lon="7.74935">
        <ele>306.7</ele>
        <time>2026-03-09T15:11:41Z</time>
      </trkpt>
      <trkpt lat="49.03618" lon="7.74929">
        <ele>307.1</ele>
        <time>2026-03-09T15:11:46Z</time>
      </trkpt>
      <trkpt lat="49.03622" lon="7.74925">
        <ele>307.6</ele>
        <time>2026-03-09T15:11:51Z</time>
      </trkpt>
      <trkpt lat="49.03629" lon="7.74919">
        <ele>308.3</ele>
        <time>2026-03-09T15:11:56Z</time>
      </trkpt>
      <trkpt lat="49.03633" lon="7.74913">
        <ele>308.4</ele>
        <time>2026-03-09T15:12:01Z</time>
      </trkpt>
      <trkpt lat="49.03641" lon="7.7491">
        <ele>309.9</ele>
        <time>2026-03-09T15:12:06Z</time>
      </trkpt>
      <trkpt lat="49.03645" lon="7.74906">
        <ele>310.2</ele>
        <time>2026-03-09T15:12:11Z</time>
      </trkpt>
      <trkpt lat="49.0365" lon="7.74901">
        <ele>310.7</ele>
        <time>2026-03-09T15:12:16Z</time>
      </trkpt>
      <trkpt lat="49.03655" lon="7.74899">
        <ele>311.5</ele>
        <time>2026-03-09T15:12:21Z</time>
      </trkpt>
      <trkpt lat="49.03659" lon="7.74896">
        <ele>312</ele>
        <time>2026-03-09T15:12:26Z</time>
      </trkpt>
      <trkpt lat="49.03664" lon="7.74894">
        <ele>312.9</ele>
        <time>2026-03-09T15:12:31Z</time>
      </trkpt>
      <trkpt lat="49.03667" lon="7.74894">
        <ele>313.5</ele>
        <time>2026-03-09T15:12:36Z</time>
      </trkpt>
      <trkpt lat="49.03672" lon="7.74892">
        <ele>314.3</ele>
        <time>2026-03-09T15:12:41Z</time>
      </trkpt>
      <trkpt lat="49.03678" lon="7.74891">
        <ele>315.4</ele>
        <time>2026-03-09T15:12:46Z</time>
      </trkpt>
      <trkpt lat="49.0368" lon="7.7489">
        <ele>315.6</ele>
        <time>2026-03-09T15:12:51Z</time>
      </trkpt>
      <trkpt lat="49.03682" lon="7.74889">
        <ele>315.9</ele>
        <time>2026-03-09T15:12:56Z</time>
      </trkpt>
      <trkpt lat="49.03684" lon="7.74887">
        <ele>315.9</ele>
        <time>2026-03-09T15:13:01Z</time>
      </trkpt>
      <trkpt lat="49.03687" lon="7.74887">
        <ele>316.6</ele>
        <time>2026-03-09T15:13:06Z</time>
      </trkpt>
      <trkpt lat="49.03687" lon="7.74886">
        <ele>316.4</ele>
        <time>2026-03-09T15:13:11Z</time>
      </trkpt>
      <trkpt lat="49.03687" lon="7.74886">
        <ele>316.4</ele>
        <time>2026-03-09T15:13:16Z</time>
      </trkpt>
      <trkpt lat="49.03687" lon="7.74886">
        <ele>316.4</ele>
        <time>2026-03-09T15:13:21Z</time>
      </trkpt>
      <trkpt lat="49.03687" lon="7.74886">
        <ele>316.4</ele>
        <time>2026-03-09T15:13:26Z</time>
      </trkpt>
      <trkpt lat="49.03687" lon="7.74886">
        <ele>316.4</ele>
        <time>2026-03-09T15:13:31Z</time>
      </trkpt>
      <trkpt lat="49.03687" lon="7.74886">
        <ele>316.4</ele>
        <time>2026-03-09T15:13:36Z</time>
      </trkpt>
      <trkpt lat="49.03697" lon="7.74885">
        <ele>318.2</ele>
        <time>2026-03-09T15:13:41Z</time>
      </trkpt>
      <trkpt lat="49.03701" lon="7.74886">
        <ele>319.2</ele>
        <time>2026-03-09T15:13:46Z</time>
      </trkpt>
      <trkpt lat="49.03704" lon="7.74886">
        <ele>319.9</ele>
        <time>2026-03-09T15:13:51Z</time>
      </trkpt>
      <trkpt lat="49.03707" lon="7.74885">
        <ele>320.3</ele>
        <time>2026-03-09T15:13:56Z</time>
      </trkpt>
      <trkpt lat="49.0371" lon="7.74886">
        <ele>321.1</ele>
        <time>2026-03-09T15:14:01Z</time>
      </trkpt>
      <trkpt lat="49.03717" lon="7.74882">
        <ele>321.7</ele>
        <time>2026-03-09T15:14:06Z</time>
      </trkpt>
      <trkpt lat="49.03724" lon="7.7488">
        <ele>322.6</ele>
        <time>2026-03-09T15:14:11Z</time>
      </trkpt>
      <trkpt lat="49.0373" lon="7.74881">
        <ele>324</ele>
        <time>2026-03-09T15:14:16Z</time>
      </trkpt>
      <trkpt lat="49.03735" lon="7.7488">
        <ele>324.8</ele>
        <time>2026-03-09T15:14:21Z</time>
      </trkpt>
      <trkpt lat="49.03741" lon="7.74877">
        <ele>325.3</ele>
        <time>2026-03-09T15:14:26Z</time>
      </trkpt>
      <trkpt lat="49.03749" lon="7.74875">
        <ele>326.3</ele>
        <time>2026-03-09T15:14:31Z</time>
      </trkpt>
      <trkpt lat="49.03755" lon="7.74874">
        <ele>326.7</ele>
        <time>2026-03-09T15:14:36Z</time>
      </trkpt>
      <trkpt lat="49.0376" lon="7.74876">
        <ele>327.6</ele>
        <time>2026-03-09T15:14:41Z</time>
      </trkpt>
      <trkpt lat="49.03768" lon="7.74875">
        <ele>328</ele>
        <time>2026-03-09T15:14:46Z</time>
      </trkpt>
      <trkpt lat="49.03776" lon="7.74874">
        <ele>328.4</ele>
        <time>2026-03-09T15:14:51Z</time>
      </trkpt>
      <trkpt lat="49.03785" lon="7.74875">
        <ele>329.4</ele>
        <time>2026-03-09T15:14:56Z</time>
      </trkpt>
      <trkpt lat="49.03792" lon="7.74877">
        <ele>330.5</ele>
        <time>2026-03-09T15:15:01Z</time>
      </trkpt>
      <trkpt lat="49.03799" lon="7.7488">
        <ele>331.9</ele>
        <time>2026-03-09T15:15:06Z</time>
      </trkpt>
      <trkpt lat="49.03804" lon="7.74881">
        <ele>332.5</ele>
        <time>2026-03-09T15:15:11Z</time>
      </trkpt>
      <trkpt lat="49.03812" lon="7.74877">
        <ele>332.2</ele>
        <time>2026-03-09T15:15:16Z</time>
      </trkpt>
      <trkpt lat="49.03819" lon="7.74876">
        <ele>332.5</ele>
        <time>2026-03-09T15:15:21Z</time>
      </trkpt>
      <trkpt lat="49.03825" lon="7.74869">
        <ele>331.3</ele>
        <time>2026-03-09T15:15:26Z</time>
      </trkpt>
      <trkpt lat="49.0383" lon="7.74862">
        <ele>329.9</ele>
        <time>2026-03-09T15:15:31Z</time>
      </trkpt>
      <trkpt lat="49.03837" lon="7.74853">
        <ele>328.8</ele>
        <time>2026-03-09T15:15:36Z</time>
      </trkpt>
      <trkpt lat="49.03842" lon="7.74843">
        <ele>327.6</ele>
        <time>2026-03-09T15:15:41Z</time>
      </trkpt>
      <trkpt lat="49.03846" lon="7.74835">
        <ele>326.7</ele>
        <time>2026-03-09T15:15:46Z</time>
      </trkpt>
      <trkpt lat="49.0385" lon="7.74828">
        <ele>326.5</ele>
        <time>2026-03-09T15:15:51Z</time>
      </trkpt>
      <trkpt lat="49.03852" lon="7.7482">
        <ele>325.8</ele>
        <time>2026-03-09T15:15:56Z</time>
      </trkpt>
      <trkpt lat="49.03855" lon="7.74819">
        <ele>326.4</ele>
        <time>2026-03-09T15:16:01Z</time>
      </trkpt>
      <trkpt lat="49.03855" lon="7.74819">
        <ele>326.4</ele>
        <time>2026-03-09T15:16:06Z</time>
      </trkpt>
      <trkpt lat="49.03861" lon="7.74811">
        <ele>326.8</ele>
        <time>2026-03-09T15:16:11Z</time>
      </trkpt>
      <trkpt lat="49.03863" lon="7.74802">
        <ele>326</ele>
        <time>2026-03-09T15:16:16Z</time>
      </trkpt>
      <trkpt lat="49.03865" lon="7.74792">
        <ele>325</ele>
        <time>2026-03-09T15:16:21Z</time>
      </trkpt>
      <trkpt lat="49.03866" lon="7.74784">
        <ele>324</ele>
        <time>2026-03-09T15:16:26Z</time>
      </trkpt>
      <trkpt lat="49.03868" lon="7.74776">
        <ele>323.4</ele>
        <time>2026-03-09T15:16:31Z</time>
      </trkpt>
      <trkpt lat="49.0387" lon="7.74769">
        <ele>322.9</ele>
        <time>2026-03-09T15:16:36Z</time>
      </trkpt>
      <trkpt lat="49.0387" lon="7.7476">
        <ele>321.5</ele>
        <time>2026-03-09T15:16:41Z</time>
      </trkpt>
      <trkpt lat="49.03866" lon="7.7476">
        <ele>320.3</ele>
        <time>2026-03-09T15:16:46Z</time>
      </trkpt>
      <trkpt lat="49.03864" lon="7.7476">
        <ele>319.7</ele>
        <time>2026-03-09T15:16:51Z</time>
      </trkpt>
      <trkpt lat="49.03864" lon="7.7476">
        <ele>319.7</ele>
        <time>2026-03-09T15:16:56Z</time>
      </trkpt>
      <trkpt lat="49.03864" lon="7.7476">
        <ele>319.7</ele>
        <time>2026-03-09T15:17:01Z</time>
      </trkpt>
      <trkpt lat="49.03862" lon="7.74748">
        <ele>317.5</ele>
        <time>2026-03-09T15:17:06Z</time>
      </trkpt>
      <trkpt lat="49.0386" lon="7.74741">
        <ele>316.3</ele>
        <time>2026-03-09T15:17:11Z</time>
      </trkpt>
      <trkpt lat="49.03859" lon="7.74736">
        <ele>315.7</ele>
        <time>2026-03-09T15:17:16Z</time>
      </trkpt>
      <trkpt lat="49.03859" lon="7.74731">
        <ele>315.3</ele>
        <time>2026-03-09T15:17:21Z</time>
      </trkpt>
      <trkpt lat="49.03859" lon="7.74723">
        <ele>314.7</ele>
        <time>2026-03-09T15:17:26Z</time>
      </trkpt>
      <trkpt lat="49.03858" lon="7.74714">
        <ele>313.7</ele>
        <time>2026-03-09T15:17:31Z</time>
      </trkpt>
      <trkpt lat="49.03859" lon="7.74703">
        <ele>313.2</ele>
        <time>2026-03-09T15:17:36Z</time>
      </trkpt>
      <trkpt lat="49.03859" lon="7.74694">
        <ele>312.5</ele>
        <time>2026-03-09T15:17:41Z</time>
      </trkpt>
      <trkpt lat="49.03862" lon="7.74684">
        <ele>312.9</ele>
        <time>2026-03-09T15:17:46Z</time>
      </trkpt>
      <trkpt lat="49.03861" lon="7.74675">
        <ele>311.9</ele>
        <time>2026-03-09T15:17:51Z</time>
      </trkpt>
      <trkpt lat="49.03859" lon="7.74665">
        <ele>310.5</ele>
        <time>2026-03-09T15:17:56Z</time>
      </trkpt>
      <trkpt lat="49.03858" lon="7.74654">
        <ele>310.4</ele>
        <time>2026-03-09T15:18:01Z</time>
      </trkpt>
      <trkpt lat="49.03858" lon="7.74645">
        <ele>310.7</ele>
        <time>2026-03-09T15:18:06Z</time>
      </trkpt>
      <trkpt lat="49.03857" lon="7.74636">
        <ele>310.5</ele>
        <time>2026-03-09T15:18:11Z</time>
      </trkpt>
      <trkpt lat="49.03854" lon="7.74627">
        <ele>309.4</ele>
        <time>2026-03-09T15:18:16Z</time>
      </trkpt>
      <trkpt lat="49.03853" lon="7.7462">
        <ele>309.1</ele>
        <time>2026-03-09T15:18:21Z</time>
      </trkpt>
      <trkpt lat="49.03851" lon="7.74612">
        <ele>308.3</ele>
        <time>2026-03-09T15:18:26Z</time>
      </trkpt>
      <trkpt lat="49.03848" lon="7.74605">
        <ele>307</ele>
        <time>2026-03-09T15:18:31Z</time>
      </trkpt>
      <trkpt lat="49.03846" lon="7.74599">
        <ele>306.2</ele>
        <time>2026-03-09T15:18:36Z</time>
      </trkpt>
      <trkpt lat="49.03845" lon="7.74589">
        <ele>305.8</ele>
        <time>2026-03-09T15:18:41Z</time>
      </trkpt>
      <trkpt lat="49.03844" lon="7.7458">
        <ele>305.8</ele>
        <time>2026-03-09T15:18:46Z</time>
      </trkpt>
      <trkpt lat="49.03842" lon="7.74569">
        <ele>306.1</ele>
        <time>2026-03-09T15:18:51Z</time>
      </trkpt>
      <trkpt lat="49.0384" lon="7.74563">
        <ele>305.9</ele>
        <time>2026-03-09T15:18:56Z</time>
      </trkpt>
      <trkpt lat="49.03839" lon="7.74556">
        <ele>306.2</ele>
        <time>2026-03-09T15:19:01Z</time>
      </trkpt>
      <trkpt lat="49.03838" lon="7.74544">
        <ele>307.2</ele>
        <time>2026-03-09T15:19:06Z</time>
      </trkpt>
      <trkpt lat="49.03834" lon="7.74535">
        <ele>306.1</ele>
        <time>2026-03-09T15:19:11Z</time>
      </trkpt>
      <trkpt lat="49.0383" lon="7.74531">
        <ele>305.4</ele>
        <time>2026-03-09T15:19:16Z</time>
      </trkpt>
      <trkpt lat="49.03828" lon="7.74524">
        <ele>305.7</ele>
        <time>2026-03-09T15:19:21Z</time>
      </trkpt>
      <trkpt lat="49.03823" lon="7.7452">
        <ele>304.9</ele>
        <time>2026-03-09T15:19:26Z</time>
      </trkpt>
      <trkpt lat="49.0382" lon="7.74512">
        <ele>305</ele>
        <time>2026-03-09T15:19:31Z</time>
      </trkpt>
      <trkpt lat="49.03818" lon="7.74504">
        <ele>305.3</ele>
        <time>2026-03-09T15:19:36Z</time>
      </trkpt>
      <trkpt lat="49.03816" lon="7.74498">
        <ele>305.7</ele>
        <time>2026-03-09T15:19:41Z</time>
      </trkpt>
      <trkpt lat="49.03813" lon="7.74494">
        <ele>305.8</ele>
        <time>2026-03-09T15:19:46Z</time>
      </trkpt>
      <trkpt lat="49.03811" lon="7.74487">
        <ele>306.9</ele>
        <time>2026-03-09T15:19:51Z</time>
      </trkpt>
      <trkpt lat="49.03809" lon="7.74476">
        <ele>308.8</ele>
        <time>2026-03-09T15:19:56Z</time>
      </trkpt>
      <trkpt lat="49.03802" lon="7.74468">
        <ele>308.5</ele>
        <time>2026-03-09T15:20:01Z</time>
      </trkpt>
      <trkpt lat="49.03798" lon="7.74462">
        <ele>308.7</ele>
        <time>2026-03-09T15:20:06Z</time>
      </trkpt>
      <trkpt lat="49.03795" lon="7.74456">
        <ele>309.1</ele>
        <time>2026-03-09T15:20:11Z</time>
      </trkpt>
      <trkpt lat="49.03792" lon="7.74449">
        <ele>309.6</ele>
        <time>2026-03-09T15:20:16Z</time>
      </trkpt>
      <trkpt lat="49.0379" lon="7.74445">
        <ele>309.8</ele>
        <time>2026-03-09T15:20:21Z</time>
      </trkpt>
      <trkpt lat="49.03786" lon="7.74437">
        <ele>310.2</ele>
        <time>2026-03-09T15:20:26Z</time>
      </trkpt>
      <trkpt lat="49.03781" lon="7.74429">
        <ele>310.2</ele>
        <time>2026-03-09T15:20:31Z</time>
      </trkpt>
      <trkpt lat="49.03777" lon="7.74423">
        <ele>310.1</ele>
        <time>2026-03-09T15:20:36Z</time>
      </trkpt>
      <trkpt lat="49.03773" lon="7.74416">
        <ele>310.1</ele>
        <time>2026-03-09T15:20:41Z</time>
      </trkpt>
      <trkpt lat="49.03769" lon="7.7441">
        <ele>309.1</ele>
        <time>2026-03-09T15:20:46Z</time>
      </trkpt>
      <trkpt lat="49.03763" lon="7.74404">
        <ele>307.5</ele>
        <time>2026-03-09T15:20:51Z</time>
      </trkpt>
      <trkpt lat="49.03757" lon="7.744">
        <ele>305.7</ele>
        <time>2026-03-09T15:20:56Z</time>
      </trkpt>
      <trkpt lat="49.03754" lon="7.74396">
        <ele>304.9</ele>
        <time>2026-03-09T15:21:01Z</time>
      </trkpt>
      <trkpt lat="49.03752" lon="7.74391">
        <ele>304.6</ele>
        <time>2026-03-09T15:21:06Z</time>
      </trkpt>
      <trkpt lat="49.0375" lon="7.74386">
        <ele>304.2</ele>
        <time>2026-03-09T15:21:11Z</time>
      </trkpt>
      <trkpt lat="49.03748" lon="7.74383">
        <ele>304</ele>
        <time>2026-03-09T15:21:16Z</time>
      </trkpt>
      <trkpt lat="49.03744" lon="7.74376">
        <ele>303.7</ele>
        <time>2026-03-09T15:21:21Z</time>
      </trkpt>
      <trkpt lat="49.03741" lon="7.7437">
        <ele>303.5</ele>
        <time>2026-03-09T15:21:26Z</time>
      </trkpt>
      <trkpt lat="49.03737" lon="7.74364">
        <ele>303.1</ele>
        <time>2026-03-09T15:21:31Z</time>
      </trkpt>
      <trkpt lat="49.03733" lon="7.74361">
        <ele>302.5</ele>
        <time>2026-03-09T15:21:36Z</time>
      </trkpt>
      <trkpt lat="49.03731" lon="7.7436">
        <ele>302.2</ele>
        <time>2026-03-09T15:21:41Z</time>
      </trkpt>
      <trkpt lat="49.03729" lon="7.74363">
        <ele>301.6</ele>
        <time>2026-03-09T15:21:46Z</time>
      </trkpt>
      <trkpt lat="49.03729" lon="7.74363">
        <ele>301.6</ele>
        <time>2026-03-09T15:21:51Z</time>
      </trkpt>
      <trkpt lat="49.03729" lon="7.74363">
        <ele>301.6</ele>
        <time>2026-03-09T15:21:56Z</time>
      </trkpt>
      <trkpt lat="49.03729" lon="7.74363">
        <ele>301.6</ele>
        <time>2026-03-09T15:22:01Z</time>
      </trkpt>
      <trkpt lat="49.03729" lon="7.74363">
        <ele>301.6</ele>
        <time>2026-03-09T15:22:06Z</time>
      </trkpt>
      <trkpt lat="49.03724" lon="7.74352">
        <ele>301.4</ele>
        <time>2026-03-09T15:22:11Z</time>
      </trkpt>
      <trkpt lat="49.03723" lon="7.74347">
        <ele>301.5</ele>
        <time>2026-03-09T15:22:16Z</time>
      </trkpt>
      <trkpt lat="49.03722" lon="7.74342">
        <ele>301.7</ele>
        <time>2026-03-09T15:22:21Z</time>
      </trkpt>
      <trkpt lat="49.03723" lon="7.74336">
        <ele>302.3</ele>
        <time>2026-03-09T15:22:26Z</time>
      </trkpt>
      <trkpt lat="49.03723" lon="7.7433">
        <ele>302.3</ele>
        <time>2026-03-09T15:22:31Z</time>
      </trkpt>
      <trkpt lat="49.03722" lon="7.74326">
        <ele>301.8</ele>
        <time>2026-03-09T15:22:36Z</time>
      </trkpt>
      <trkpt lat="49.03722" lon="7.74322">
        <ele>301.5</ele>
        <time>2026-03-09T15:22:41Z</time>
      </trkpt>
      <trkpt lat="49.03724" lon="7.74317">
        <ele>301.6</ele>
        <time>2026-03-09T15:22:46Z</time>
      </trkpt>
      <trkpt lat="49.03725" lon="7.74315">
        <ele>301.6</ele>
        <time>2026-03-09T15:22:51Z</time>
      </trkpt>
      <trkpt lat="49.03725" lon="7.74315">
        <ele>301.6</ele>
        <time>2026-03-09T15:22:56Z</time>
      </trkpt>
      <trkpt lat="49.03725" lon="7.74315">
        <ele>301.6</ele>
        <time>2026-03-09T15:23:01Z</time>
      </trkpt>
      <trkpt lat="49.03725" lon="7.74315">
        <ele>301.6</ele>
        <time>2026-03-09T15:23:06Z</time>
      </trkpt>
      <trkpt lat="49.03725" lon="7.74315">
        <ele>301.6</ele>
        <time>2026-03-09T15:23:11Z</time>
      </trkpt>
      <trkpt lat="49.03725" lon="7.74315">
        <ele>301.6</ele>
        <time>2026-03-09T15:23:16Z</time>
      </trkpt>
      <trkpt lat="49.03725" lon="7.74315">
        <ele>301.6</ele>
        <time>2026-03-09T15:23:21Z</time>
      </trkpt>
      <trkpt lat="49.03725" lon="7.74315">
        <ele>301.6</ele>
        <time>2026-03-09T15:23:26Z</time>
      </trkpt>
      <trkpt lat="49.03725" lon="7.74315">
        <ele>301.6</ele>
        <time>2026-03-09T15:23:31Z</time>
      </trkpt>
      <trkpt lat="49.03725" lon="7.74315">
        <ele>301.6</ele>
        <time>2026-03-09T15:23:36Z</time>
      </trkpt>
      <trkpt lat="49.03725" lon="7.74315">
        <ele>301.6</ele>
        <time>2026-03-09T15:23:41Z</time>
      </trkpt>
      <trkpt lat="49.03725" lon="7.74315">
        <ele>301.6</ele>
        <time>2026-03-09T15:23:46Z</time>
      </trkpt>
      <trkpt lat="49.03725" lon="7.74315">
        <ele>301.6</ele>
        <time>2026-03-09T15:23:51Z</time>
      </trkpt>
      <trkpt lat="49.03725" lon="7.74315">
        <ele>301.6</ele>
        <time>2026-03-09T15:23:56Z</time>
      </trkpt>
      <trkpt lat="49.03725" lon="7.74315">
        <ele>301.6</ele>
        <time>2026-03-09T15:24:01Z</time>
      </trkpt>
      <trkpt lat="49.03725" lon="7.74315">
        <ele>301.6</ele>
        <time>2026-03-09T15:24:06Z</time>
      </trkpt>
      <trkpt lat="49.03725" lon="7.74304">
        <ele>300.9</ele>
        <time>2026-03-09T15:24:11Z</time>
      </trkpt>
      <trkpt lat="49.03725" lon="7.74304">
        <ele>300.9</ele>
        <time>2026-03-09T15:24:16Z</time>
      </trkpt>
      <trkpt lat="49.03725" lon="7.74304">
        <ele>300.9</ele>
        <time>2026-03-09T15:24:21Z</time>
      </trkpt>
      <trkpt lat="49.03725" lon="7.74304">
        <ele>300.9</ele>
        <time>2026-03-09T15:24:26Z</time>
      </trkpt>
      <trkpt lat="49.03725" lon="7.74304">
        <ele>300.9</ele>
        <time>2026-03-09T15:24:31Z</time>
      </trkpt>
      <trkpt lat="49.03725" lon="7.74304">
        <ele>300.9</ele>
        <time>2026-03-09T15:24:36Z</time>
      </trkpt>
      <trkpt lat="49.03725" lon="7.74304">
        <ele>300.9</ele>
        <time>2026-03-09T15:24:41Z</time>
      </trkpt>
      <trkpt lat="49.03725" lon="7.74304">
        <ele>300.9</ele>
        <time>2026-03-09T15:24:46Z</time>
      </trkpt>
      <trkpt lat="49.03725" lon="7.74304">
        <ele>300.9</ele>
        <time>2026-03-09T15:24:51Z</time>
      </trkpt>
      <trkpt lat="49.03725" lon="7.74304">
        <ele>300.9</ele>
        <time>2026-03-09T15:24:56Z</time>
      </trkpt>
      <trkpt lat="49.03727" lon="7.74302">
        <ele>301.1</ele>
        <time>2026-03-09T15:25:01Z</time>
      </trkpt>
      <trkpt lat="49.03731" lon="7.74298">
        <ele>301.5</ele>
        <time>2026-03-09T15:25:06Z</time>
      </trkpt>
      <trkpt lat="49.03733" lon="7.74294">
        <ele>301.6</ele>
        <time>2026-03-09T15:25:11Z</time>
      </trkpt>
      <trkpt lat="49.03732" lon="7.7429">
        <ele>301.1</ele>
        <time>2026-03-09T15:25:16Z</time>
      </trkpt>
      <trkpt lat="49.03732" lon="7.7429">
        <ele>301.1</ele>
        <time>2026-03-09T15:25:21Z</time>
      </trkpt>
      <trkpt lat="49.03732" lon="7.7429">
        <ele>301.1</ele>
        <time>2026-03-09T15:25:26Z</time>
      </trkpt>
      <trkpt lat="49.03732" lon="7.7429">
        <ele>301.1</ele>
        <time>2026-03-09T15:25:31Z</time>
      </trkpt>
      <trkpt lat="49.03732" lon="7.7429">
        <ele>301.1</ele>
        <time>2026-03-09T15:25:36Z</time>
      </trkpt>
      <trkpt lat="49.03732" lon="7.7429">
        <ele>301.1</ele>
        <time>2026-03-09T15:25:41Z</time>
      </trkpt>
      <trkpt lat="49.03732" lon="7.7429">
        <ele>301.1</ele>
        <time>2026-03-09T15:25:46Z</time>
      </trkpt>
      <trkpt lat="49.03732" lon="7.7429">
        <ele>301.1</ele>
        <time>2026-03-09T15:25:51Z</time>
      </trkpt>
      <trkpt lat="49.03732" lon="7.7429">
        <ele>301.1</ele>
        <time>2026-03-09T15:25:56Z</time>
      </trkpt>
      <trkpt lat="49.03732" lon="7.7429">
        <ele>301.1</ele>
        <time>2026-03-09T15:26:01Z</time>
      </trkpt>
      <trkpt lat="49.03732" lon="7.7429">
        <ele>301.1</ele>
        <time>2026-03-09T15:26:06Z</time>
      </trkpt>
      <trkpt lat="49.03732" lon="7.7429">
        <ele>301.1</ele>
        <time>2026-03-09T15:26:11Z</time>
      </trkpt>
      <trkpt lat="49.03734" lon="7.74288">
        <ele>301.3</ele>
        <time>2026-03-09T15:26:16Z</time>
      </trkpt>
      <trkpt lat="49.03738" lon="7.7428">
        <ele>301.4</ele>
        <time>2026-03-09T15:26:21Z</time>
      </trkpt>
      <trkpt lat="49.0374" lon="7.74271">
        <ele>301.1</ele>
        <time>2026-03-09T15:26:26Z</time>
      </trkpt>
      <trkpt lat="49.03743" lon="7.74264">
        <ele>301</ele>
        <time>2026-03-09T15:26:31Z</time>
      </trkpt>
      <trkpt lat="49.03747" lon="7.7426">
        <ele>301.4</ele>
        <time>2026-03-09T15:26:36Z</time>
      </trkpt>
      <trkpt lat="49.03753" lon="7.7426">
        <ele>302.9</ele>
        <time>2026-03-09T15:26:41Z</time>
      </trkpt>
      <trkpt lat="49.03758" lon="7.74259">
        <ele>304.7</ele>
        <time>2026-03-09T15:26:46Z</time>
      </trkpt>
      <trkpt lat="49.03758" lon="7.74259">
        <ele>304.7</ele>
        <time>2026-03-09T15:26:51Z</time>
      </trkpt>
      <trkpt lat="49.03758" lon="7.74259">
        <ele>304.7</ele>
        <time>2026-03-09T15:26:56Z</time>
      </trkpt>
      <trkpt lat="49.03758" lon="7.74259">
        <ele>304.7</ele>
        <time>2026-03-09T15:27:01Z</time>
      </trkpt>
      <trkpt lat="49.03767" lon="7.74259">
        <ele>307.9</ele>
        <time>2026-03-09T15:27:06Z</time>
      </trkpt>
      <trkpt lat="49.03768" lon="7.74258">
        <ele>308.2</ele>
        <time>2026-03-09T15:27:11Z</time>
      </trkpt>
      <trkpt lat="49.03773" lon="7.74253">
        <ele>309.6</ele>
        <time>2026-03-09T15:27:16Z</time>
      </trkpt>
      <trkpt lat="49.03773" lon="7.74253">
        <ele>309.6</ele>
        <time>2026-03-09T15:27:21Z</time>
      </trkpt>
      <trkpt lat="49.03773" lon="7.74253">
        <ele>309.6</ele>
        <time>2026-03-09T15:27:26Z</time>
      </trkpt>
      <trkpt lat="49.03773" lon="7.74253">
        <ele>309.6</ele>
        <time>2026-03-09T15:27:31Z</time>
      </trkpt>
      <trkpt lat="49.03781" lon="7.74243">
        <ele>310.9</ele>
        <time>2026-03-09T15:27:36Z</time>
      </trkpt>
      <trkpt lat="49.03784" lon="7.74241">
        <ele>311.6</ele>
        <time>2026-03-09T15:27:41Z</time>
      </trkpt>
      <trkpt lat="49.03788" lon="7.74238">
        <ele>312.4</ele>
        <time>2026-03-09T15:27:46Z</time>
      </trkpt>
      <trkpt lat="49.0379" lon="7.74233">
        <ele>312.2</ele>
        <time>2026-03-09T15:27:51Z</time>
      </trkpt>
      <trkpt lat="49.03792" lon="7.74228">
        <ele>311.9</ele>
        <time>2026-03-09T15:27:56Z</time>
      </trkpt>
      <trkpt lat="49.03793" lon="7.74222">
        <ele>311.1</ele>
        <time>2026-03-09T15:28:01Z</time>
      </trkpt>
      <trkpt lat="49.03793" lon="7.7422">
        <ele>310.7</ele>
        <time>2026-03-09T15:28:06Z</time>
      </trkpt>
      <trkpt lat="49.03793" lon="7.7422">
        <ele>310.7</ele>
        <time>2026-03-09T15:28:11Z</time>
      </trkpt>
      <trkpt lat="49.03798" lon="7.74214">
        <ele>311.1</ele>
        <time>2026-03-09T15:28:16Z</time>
      </trkpt>
      <trkpt lat="49.03801" lon="7.7421">
        <ele>311.2</ele>
        <time>2026-03-09T15:28:21Z</time>
      </trkpt>
      <trkpt lat="49.03803" lon="7.74204">
        <ele>310.6</ele>
        <time>2026-03-09T15:28:26Z</time>
      </trkpt>
      <trkpt lat="49.03806" lon="7.74196">
        <ele>309.9</ele>
        <time>2026-03-09T15:28:31Z</time>
      </trkpt>
      <trkpt lat="49.03808" lon="7.74194">
        <ele>310.1</ele>
        <time>2026-03-09T15:28:36Z</time>
      </trkpt>
      <trkpt lat="49.0381" lon="7.74191">
        <ele>310</ele>
        <time>2026-03-09T15:28:41Z</time>
      </trkpt>
      <trkpt lat="49.03811" lon="7.74186">
        <ele>309.2</ele>
        <time>2026-03-09T15:28:46Z</time>
      </trkpt>
      <trkpt lat="49.03814" lon="7.74181">
        <ele>309</ele>
        <time>2026-03-09T15:28:51Z</time>
      </trkpt>
      <trkpt lat="49.03818" lon="7.74178">
        <ele>309.5</ele>
        <time>2026-03-09T15:28:56Z</time>
      </trkpt>
      <trkpt lat="49.03822" lon="7.74174">
        <ele>309.7</ele>
        <time>2026-03-09T15:29:01Z</time>
      </trkpt>
      <trkpt lat="49.03822" lon="7.74167">
        <ele>308.1</ele>
        <time>2026-03-09T15:29:06Z</time>
      </trkpt>
      <trkpt lat="49.03824" lon="7.74162">
        <ele>307.7</ele>
        <time>2026-03-09T15:29:11Z</time>
      </trkpt>
      <trkpt lat="49.03825" lon="7.74159">
        <ele>307.4</ele>
        <time>2026-03-09T15:29:16Z</time>
      </trkpt>
      <trkpt lat="49.03825" lon="7.74157">
        <ele>307</ele>
        <time>2026-03-09T15:29:21Z</time>
      </trkpt>
      <trkpt lat="49.03825" lon="7.74157">
        <ele>307</ele>
        <time>2026-03-09T15:29:26Z</time>
      </trkpt>
      <trkpt lat="49.03825" lon="7.74157">
        <ele>307</ele>
        <time>2026-03-09T15:29:31Z</time>
      </trkpt>
      <trkpt lat="49.03828" lon="7.74141">
        <ele>304.7</ele>
        <time>2026-03-09T15:29:36Z</time>
      </trkpt>
      <trkpt lat="49.03828" lon="7.74141">
        <ele>304.7</ele>
        <time>2026-03-09T15:29:41Z</time>
      </trkpt>
      <trkpt lat="49.03828" lon="7.74141">
        <ele>304.7</ele>
        <time>2026-03-09T15:29:46Z</time>
      </trkpt>
      <trkpt lat="49.03828" lon="7.74141">
        <ele>304.7</ele>
        <time>2026-03-09T15:29:51Z</time>
      </trkpt>
      <trkpt lat="49.03833" lon="7.74127">
        <ele>303.3</ele>
        <time>2026-03-09T15:29:56Z</time>
      </trkpt>
      <trkpt lat="49.03833" lon="7.74127">
        <ele>303.3</ele>
        <time>2026-03-09T15:30:01Z</time>
      </trkpt>
      <trkpt lat="49.03833" lon="7.74127">
        <ele>303.3</ele>
        <time>2026-03-09T15:30:06Z</time>
      </trkpt>
      <trkpt lat="49.03833" lon="7.74127">
        <ele>303.3</ele>
        <time>2026-03-09T15:30:11Z</time>
      </trkpt>
      <trkpt lat="49.03833" lon="7.74127">
        <ele>303.3</ele>
        <time>2026-03-09T15:30:16Z</time>
      </trkpt>
      <trkpt lat="49.03833" lon="7.74127">
        <ele>303.3</ele>
        <time>2026-03-09T15:30:21Z</time>
      </trkpt>
      <trkpt lat="49.03839" lon="7.74111">
        <ele>303.7</ele>
        <time>2026-03-09T15:30:26Z</time>
      </trkpt>
      <trkpt lat="49.03839" lon="7.74105">
        <ele>302.5</ele>
        <time>2026-03-09T15:30:31Z</time>
      </trkpt>
      <trkpt lat="49.03839" lon="7.741">
        <ele>301.6</ele>
        <time>2026-03-09T15:30:36Z</time>
      </trkpt>
      <trkpt lat="49.03841" lon="7.74094">
        <ele>301.6</ele>
        <time>2026-03-09T15:30:41Z</time>
      </trkpt>
      <trkpt lat="49.0384" lon="7.74088">
        <ele>299.9</ele>
        <time>2026-03-09T15:30:46Z</time>
      </trkpt>
      <trkpt lat="49.0384" lon="7.74084">
        <ele>299.1</ele>
        <time>2026-03-09T15:30:51Z</time>
      </trkpt>
      <trkpt lat="49.03842" lon="7.74081">
        <ele>300.3</ele>
        <time>2026-03-09T15:30:56Z</time>
      </trkpt>
      <trkpt lat="49.03842" lon="7.74081">
        <ele>300.3</ele>
        <time>2026-03-09T15:31:01Z</time>
      </trkpt>
      <trkpt lat="49.03842" lon="7.74081">
        <ele>300.3</ele>
        <time>2026-03-09T15:31:06Z</time>
      </trkpt>
      <trkpt lat="49.03842" lon="7.74081">
        <ele>300.3</ele>
        <time>2026-03-09T15:31:11Z</time>
      </trkpt>
      <trkpt lat="49.03842" lon="7.74081">
        <ele>300.3</ele>
        <time>2026-03-09T15:31:16Z</time>
      </trkpt>
      <trkpt lat="49.03842" lon="7.74081">
        <ele>300.3</ele>
        <time>2026-03-09T15:31:21Z</time>
      </trkpt>
      <trkpt lat="49.03842" lon="7.74081">
        <ele>300.3</ele>
        <time>2026-03-09T15:31:26Z</time>
      </trkpt>
      <trkpt lat="49.03846" lon="7.74086">
        <ele>303.1</ele>
        <time>2026-03-09T15:31:31Z</time>
      </trkpt>
      <trkpt lat="49.03847" lon="7.74093">
        <ele>305</ele>
        <time>2026-03-09T15:31:36Z</time>
      </trkpt>
      <trkpt lat="49.03849" lon="7.74099">
        <ele>307.3</ele>
        <time>2026-03-09T15:31:41Z</time>
      </trkpt>
      <trkpt lat="49.03849" lon="7.74104">
        <ele>308.3</ele>
        <time>2026-03-09T15:31:46Z</time>
      </trkpt>
      <trkpt lat="49.03849" lon="7.74104">
        <ele>308.3</ele>
        <time>2026-03-09T15:31:51Z</time>
      </trkpt>
      <trkpt lat="49.03849" lon="7.74104">
        <ele>308.3</ele>
        <time>2026-03-09T15:31:56Z</time>
      </trkpt>
      <trkpt lat="49.03849" lon="7.74104">
        <ele>308.3</ele>
        <time>2026-03-09T15:32:01Z</time>
      </trkpt>
      <trkpt lat="49.03852" lon="7.74118">
        <ele>312.7</ele>
        <time>2026-03-09T15:32:06Z</time>
      </trkpt>
      <trkpt lat="49.03855" lon="7.7412">
        <ele>314.8</ele>
        <time>2026-03-09T15:32:11Z</time>
      </trkpt>
      <trkpt lat="49.03855" lon="7.7412">
        <ele>314.8</ele>
        <time>2026-03-09T15:32:16Z</time>
      </trkpt>
      <trkpt lat="49.03855" lon="7.7412">
        <ele>314.8</ele>
        <time>2026-03-09T15:32:21Z</time>
      </trkpt>
      <trkpt lat="49.03855" lon="7.7412">
        <ele>314.8</ele>
        <time>2026-03-09T15:32:26Z</time>
      </trkpt>
      <trkpt lat="49.03855" lon="7.7412">
        <ele>314.8</ele>
        <time>2026-03-09T15:32:31Z</time>
      </trkpt>
      <trkpt lat="49.03855" lon="7.7412">
        <ele>314.8</ele>
        <time>2026-03-09T15:32:36Z</time>
      </trkpt>
      <trkpt lat="49.03855" lon="7.7412">
        <ele>314.8</ele>
        <time>2026-03-09T15:32:41Z</time>
      </trkpt>
      <trkpt lat="49.03855" lon="7.7412">
        <ele>314.8</ele>
        <time>2026-03-09T15:32:46Z</time>
      </trkpt>
      <trkpt lat="49.03855" lon="7.7412">
        <ele>314.8</ele>
        <time>2026-03-09T15:32:51Z</time>
      </trkpt>
      <trkpt lat="49.03856" lon="7.74105">
        <ele>312.6</ele>
        <time>2026-03-09T15:32:56Z</time>
      </trkpt>
      <trkpt lat="49.03857" lon="7.74104">
        <ele>313</ele>
        <time>2026-03-09T15:33:01Z</time>
      </trkpt>
      <trkpt lat="49.03858" lon="7.74094">
        <ele>311.8</ele>
        <time>2026-03-09T15:33:06Z</time>
      </trkpt>
      <trkpt lat="49.03858" lon="7.74087">
        <ele>310.5</ele>
        <time>2026-03-09T15:33:11Z</time>
      </trkpt>
      <trkpt lat="49.03858" lon="7.74087">
        <ele>310.5</ele>
        <time>2026-03-09T15:33:16Z</time>
      </trkpt>
      <trkpt lat="49.0386" lon="7.7408">
        <ele>311.1</ele>
        <time>2026-03-09T15:33:21Z</time>
      </trkpt>
      <trkpt lat="49.03861" lon="7.74075">
        <ele>311.9</ele>
        <time>2026-03-09T15:33:26Z</time>
      </trkpt>
      <trkpt lat="49.03861" lon="7.74071">
        <ele>312.1</ele>
        <time>2026-03-09T15:33:31Z</time>
      </trkpt>
      <trkpt lat="49.03862" lon="7.74064">
        <ele>313</ele>
        <time>2026-03-09T15:33:36Z</time>
      </trkpt>
      <trkpt lat="49.03862" lon="7.74064">
        <ele>313</ele>
        <time>2026-03-09T15:33:41Z</time>
      </trkpt>
      <trkpt lat="49.03864" lon="7.74054">
        <ele>314.5</ele>
        <time>2026-03-09T15:33:46Z</time>
      </trkpt>
      <trkpt lat="49.03861" lon="7.74047">
        <ele>313.1</ele>
        <time>2026-03-09T15:33:51Z</time>
      </trkpt>
      <trkpt lat="49.0386" lon="7.74038">
        <ele>312.8</ele>
        <time>2026-03-09T15:33:56Z</time>
      </trkpt>
      <trkpt lat="49.03861" lon="7.74028">
        <ele>313.8</ele>
        <time>2026-03-09T15:34:01Z</time>
      </trkpt>
      <trkpt lat="49.03859" lon="7.74021">
        <ele>312.9</ele>
        <time>2026-03-09T15:34:06Z</time>
      </trkpt>
      <trkpt lat="49.03859" lon="7.74015">
        <ele>313.2</ele>
        <time>2026-03-09T15:34:11Z</time>
      </trkpt>
      <trkpt lat="49.03857" lon="7.74006">
        <ele>312.4</ele>
        <time>2026-03-09T15:34:16Z</time>
      </trkpt>
      <trkpt lat="49.03854" lon="7.73994">
        <ele>311.6</ele>
        <time>2026-03-09T15:34:21Z</time>
      </trkpt>
      <trkpt lat="49.03853" lon="7.73988">
        <ele>311.6</ele>
        <time>2026-03-09T15:34:26Z</time>
      </trkpt>
      <trkpt lat="49.0385" lon="7.7398">
        <ele>310.7</ele>
        <time>2026-03-09T15:34:31Z</time>
      </trkpt>
      <trkpt lat="49.03849" lon="7.73973">
        <ele>310.9</ele>
        <time>2026-03-09T15:34:36Z</time>
      </trkpt>
      <trkpt lat="49.03849" lon="7.73972">
        <ele>311</ele>
        <time>2026-03-09T15:34:41Z</time>
      </trkpt>
      <trkpt lat="49.03849" lon="7.73967">
        <ele>311.5</ele>
        <time>2026-03-09T15:34:46Z</time>
      </trkpt>
      <trkpt lat="49.0385" lon="7.73958">
        <ele>313</ele>
        <time>2026-03-09T15:34:51Z</time>
      </trkpt>
      <trkpt lat="49.03849" lon="7.7395">
        <ele>313.3</ele>
        <time>2026-03-09T15:34:56Z</time>
      </trkpt>
      <trkpt lat="49.03848" lon="7.73945">
        <ele>313.2</ele>
        <time>2026-03-09T15:35:01Z</time>
      </trkpt>
      <trkpt lat="49.03847" lon="7.73939">
        <ele>313.2</ele>
        <time>2026-03-09T15:35:06Z</time>
      </trkpt>
      <trkpt lat="49.03847" lon="7.73932">
        <ele>313.9</ele>
        <time>2026-03-09T15:35:11Z</time>
      </trkpt>
      <trkpt lat="49.03846" lon="7.73922">
        <ele>314.4</ele>
        <time>2026-03-09T15:35:16Z</time>
      </trkpt>
      <trkpt lat="49.03843" lon="7.73911">
        <ele>314.6</ele>
        <time>2026-03-09T15:35:21Z</time>
      </trkpt>
      <trkpt lat="49.03842" lon="7.73902">
        <ele>316.4</ele>
        <time>2026-03-09T15:35:26Z</time>
      </trkpt>
      <trkpt lat="49.03841" lon="7.73891">
        <ele>318.7</ele>
        <time>2026-03-09T15:35:31Z</time>
      </trkpt>
      <trkpt lat="49.03841" lon="7.73884">
        <ele>320.6</ele>
        <time>2026-03-09T15:35:36Z</time>
      </trkpt>
      <trkpt lat="49.03845" lon="7.73885">
        <ele>322.8</ele>
        <time>2026-03-09T15:35:41Z</time>
      </trkpt>
      <trkpt lat="49.03848" lon="7.73885">
        <ele>324.6</ele>
        <time>2026-03-09T15:35:46Z</time>
      </trkpt>
      <trkpt lat="49.03848" lon="7.73885">
        <ele>324.6</ele>
        <time>2026-03-09T15:35:51Z</time>
      </trkpt>
      <trkpt lat="49.03848" lon="7.73885">
        <ele>324.6</ele>
        <time>2026-03-09T15:35:56Z</time>
      </trkpt>
      <trkpt lat="49.03848" lon="7.73885">
        <ele>324.6</ele>
        <time>2026-03-09T15:36:01Z</time>
      </trkpt>
      <trkpt lat="49.03848" lon="7.73885">
        <ele>324.6</ele>
        <time>2026-03-09T15:36:06Z</time>
      </trkpt>
      <trkpt lat="49.03841" lon="7.73869">
        <ele>324.7</ele>
        <time>2026-03-09T15:36:11Z</time>
      </trkpt>
      <trkpt lat="49.03841" lon="7.73864">
        <ele>326</ele>
        <time>2026-03-09T15:36:16Z</time>
      </trkpt>
      <trkpt lat="49.03842" lon="7.73863">
        <ele>326.9</ele>
        <time>2026-03-09T15:36:21Z</time>
      </trkpt>
      <trkpt lat="49.03842" lon="7.73863">
        <ele>326.9</ele>
        <time>2026-03-09T15:36:26Z</time>
      </trkpt>
      <trkpt lat="49.03842" lon="7.73863">
        <ele>326.9</ele>
        <time>2026-03-09T15:36:31Z</time>
      </trkpt>
      <trkpt lat="49.03842" lon="7.73863">
        <ele>326.9</ele>
        <time>2026-03-09T15:36:36Z</time>
      </trkpt>
      <trkpt lat="49.03842" lon="7.73863">
        <ele>326.9</ele>
        <time>2026-03-09T15:36:41Z</time>
      </trkpt>
      <trkpt lat="49.03842" lon="7.73849">
        <ele>330.7</ele>
        <time>2026-03-09T15:36:46Z</time>
      </trkpt>
      <trkpt lat="49.03842" lon="7.73847">
        <ele>331.2</ele>
        <time>2026-03-09T15:36:51Z</time>
      </trkpt>
      <trkpt lat="49.03842" lon="7.73847">
        <ele>331.2</ele>
        <time>2026-03-09T15:36:56Z</time>
      </trkpt>
      <trkpt lat="49.03838" lon="7.73837">
        <ele>331.6</ele>
        <time>2026-03-09T15:37:01Z</time>
      </trkpt>
      <trkpt lat="49.03836" lon="7.73831">
        <ele>332.5</ele>
        <time>2026-03-09T15:37:06Z</time>
      </trkpt>
      <trkpt lat="49.03832" lon="7.73823">
        <ele>333.9</ele>
        <time>2026-03-09T15:37:11Z</time>
      </trkpt>
      <trkpt lat="49.03831" lon="7.73818">
        <ele>335.7</ele>
        <time>2026-03-09T15:37:16Z</time>
      </trkpt>
      <trkpt lat="49.03828" lon="7.73813">
        <ele>336.9</ele>
        <time>2026-03-09T15:37:21Z</time>
      </trkpt>
      <trkpt lat="49.03825" lon="7.73807">
        <ele>338.6</ele>
        <time>2026-03-09T15:37:26Z</time>
      </trkpt>
      <trkpt lat="49.03823" lon="7.73799">
        <ele>341.4</ele>
        <time>2026-03-09T15:37:31Z</time>
      </trkpt>
      <trkpt lat="49.03819" lon="7.73791">
        <ele>343.7</ele>
        <time>2026-03-09T15:37:36Z</time>
      </trkpt>
      <trkpt lat="49.03815" lon="7.73786">
        <ele>344.7</ele>
        <time>2026-03-09T15:37:41Z</time>
      </trkpt>
      <trkpt lat="49.03812" lon="7.7378">
        <ele>346.4</ele>
        <time>2026-03-09T15:37:46Z</time>
      </trkpt>
      <trkpt lat="49.03807" lon="7.73774">
        <ele>347.6</ele>
        <time>2026-03-09T15:37:51Z</time>
      </trkpt>
      <trkpt lat="49.03804" lon="7.73766">
        <ele>350.3</ele>
        <time>2026-03-09T15:37:56Z</time>
      </trkpt>
      <trkpt lat="49.03801" lon="7.7376">
        <ele>352.1</ele>
        <time>2026-03-09T15:38:01Z</time>
      </trkpt>
      <trkpt lat="49.03801" lon="7.73753">
        <ele>355.1</ele>
        <time>2026-03-09T15:38:06Z</time>
      </trkpt>
      <trkpt lat="49.03802" lon="7.73747">
        <ele>358.1</ele>
        <time>2026-03-09T15:38:11Z</time>
      </trkpt>
      <trkpt lat="49.03798" lon="7.73744">
        <ele>358.5</ele>
        <time>2026-03-09T15:38:16Z</time>
      </trkpt>
      <trkpt lat="49.03793" lon="7.7374">
        <ele>359.2</ele>
        <time>2026-03-09T15:38:21Z</time>
      </trkpt>
      <trkpt lat="49.03792" lon="7.73735">
        <ele>361.4</ele>
        <time>2026-03-09T15:38:26Z</time>
      </trkpt>
      <trkpt lat="49.03789" lon="7.7373">
        <ele>363.1</ele>
        <time>2026-03-09T15:38:31Z</time>
      </trkpt>
      <trkpt lat="49.03786" lon="7.73725">
        <ele>364.9</ele>
        <time>2026-03-09T15:38:36Z</time>
      </trkpt>
      <trkpt lat="49.03783" lon="7.73721">
        <ele>366.2</ele>
        <time>2026-03-09T15:38:41Z</time>
      </trkpt>
      <trkpt lat="49.03778" lon="7.73715">
        <ele>368.2</ele>
        <time>2026-03-09T15:38:46Z</time>
      </trkpt>
      <trkpt lat="49.03774" lon="7.73714">
        <ele>367.8</ele>
        <time>2026-03-09T15:38:51Z</time>
      </trkpt>
      <trkpt lat="49.0377" lon="7.73713">
        <ele>367.5</ele>
        <time>2026-03-09T15:38:56Z</time>
      </trkpt>
      <trkpt lat="49.03767" lon="7.7371">
        <ele>368.5</ele>
        <time>2026-03-09T15:39:01Z</time>
      </trkpt>
      <trkpt lat="49.03764" lon="7.73708">
        <ele>368.9</ele>
        <time>2026-03-09T15:39:06Z</time>
      </trkpt>
      <trkpt lat="49.03761" lon="7.73703">
        <ele>371</ele>
        <time>2026-03-09T15:39:11Z</time>
      </trkpt>
      <trkpt lat="49.03757" lon="7.737">
        <ele>371.9</ele>
        <time>2026-03-09T15:39:16Z</time>
      </trkpt>
      <trkpt lat="49.03755" lon="7.73698">
        <ele>372.6</ele>
        <time>2026-03-09T15:39:21Z</time>
      </trkpt>
      <trkpt lat="49.03751" lon="7.73697">
        <ele>372.4</ele>
        <time>2026-03-09T15:39:26Z</time>
      </trkpt>
      <trkpt lat="49.03746" lon="7.73696">
        <ele>372.3</ele>
        <time>2026-03-09T15:39:31Z</time>
      </trkpt>
      <trkpt lat="49.0374" lon="7.73695">
        <ele>372.2</ele>
        <time>2026-03-09T15:39:36Z</time>
      </trkpt>
      <trkpt lat="49.03735" lon="7.73694">
        <ele>372.1</ele>
        <time>2026-03-09T15:39:41Z</time>
      </trkpt>
      <trkpt lat="49.0373" lon="7.73695">
        <ele>371</ele>
        <time>2026-03-09T15:39:46Z</time>
      </trkpt>
      <trkpt lat="49.03723" lon="7.73694">
        <ele>370.7</ele>
        <time>2026-03-09T15:39:51Z</time>
      </trkpt>
      <trkpt lat="49.03717" lon="7.73692">
        <ele>371.1</ele>
        <time>2026-03-09T15:39:56Z</time>
      </trkpt>
      <trkpt lat="49.03711" lon="7.73691">
        <ele>370.9</ele>
        <time>2026-03-09T15:40:01Z</time>
      </trkpt>
      <trkpt lat="49.03706" lon="7.73688">
        <ele>371.9</ele>
        <time>2026-03-09T15:40:06Z</time>
      </trkpt>
      <trkpt lat="49.03699" lon="7.73685">
        <ele>372.8</ele>
        <time>2026-03-09T15:40:11Z</time>
      </trkpt>
      <trkpt lat="49.03695" lon="7.73682">
        <ele>373.9</ele>
        <time>2026-03-09T15:40:16Z</time>
      </trkpt>
      <trkpt lat="49.03687" lon="7.73679">
        <ele>374.6</ele>
        <time>2026-03-09T15:40:21Z</time>
      </trkpt>
      <trkpt lat="49.03682" lon="7.7368">
        <ele>373.5</ele>
        <time>2026-03-09T15:40:26Z</time>
      </trkpt>
      <trkpt lat="49.03679" lon="7.73678">
        <ele>374.2</ele>
        <time>2026-03-09T15:40:31Z</time>
      </trkpt>
      <trkpt lat="49.03677" lon="7.73673">
        <ele>376.7</ele>
        <time>2026-03-09T15:40:36Z</time>
      </trkpt>
      <trkpt lat="49.03674" lon="7.73676">
        <ele>374.7</ele>
        <time>2026-03-09T15:40:41Z</time>
      </trkpt>
      <trkpt lat="49.03668" lon="7.73672">
        <ele>376.2</ele>
        <time>2026-03-09T15:40:46Z</time>
      </trkpt>
      <trkpt lat="49.03662" lon="7.7367">
        <ele>376.7</ele>
        <time>2026-03-09T15:40:51Z</time>
      </trkpt>
      <trkpt lat="49.03655" lon="7.73668">
        <ele>377</ele>
        <time>2026-03-09T15:40:56Z</time>
      </trkpt>
      <trkpt lat="49.0365" lon="7.73668">
        <ele>376.5</ele>
        <time>2026-03-09T15:41:01Z</time>
      </trkpt>
      <trkpt lat="49.03649" lon="7.7367">
        <ele>375.3</ele>
        <time>2026-03-09T15:41:06Z</time>
      </trkpt>
      <trkpt lat="49.03643" lon="7.73668">
        <ele>375.7</ele>
        <time>2026-03-09T15:41:11Z</time>
      </trkpt>
      <trkpt lat="49.03637" lon="7.73661">
        <ele>377.7</ele>
        <time>2026-03-09T15:41:16Z</time>
      </trkpt>
      <trkpt lat="49.03633" lon="7.73657">
        <ele>378.5</ele>
        <time>2026-03-09T15:41:21Z</time>
      </trkpt>
      <trkpt lat="49.03631" lon="7.73653">
        <ele>379.6</ele>
        <time>2026-03-09T15:41:26Z</time>
      </trkpt>
      <trkpt lat="49.03626" lon="7.73652">
        <ele>379.4</ele>
        <time>2026-03-09T15:41:31Z</time>
      </trkpt>
      <trkpt lat="49.03621" lon="7.73653">
        <ele>378.6</ele>
        <time>2026-03-09T15:41:36Z</time>
      </trkpt>
      <trkpt lat="49.03617" lon="7.73656">
        <ele>377.2</ele>
        <time>2026-03-09T15:41:41Z</time>
      </trkpt>
      <trkpt lat="49.0361" lon="7.73654">
        <ele>377.1</ele>
        <time>2026-03-09T15:41:46Z</time>
      </trkpt>
      <trkpt lat="49.03603" lon="7.73651">
        <ele>377.3</ele>
        <time>2026-03-09T15:41:51Z</time>
      </trkpt>
      <trkpt lat="49.03596" lon="7.73651">
        <ele>376.6</ele>
        <time>2026-03-09T15:41:56Z</time>
      </trkpt>
      <trkpt lat="49.03592" lon="7.73654">
        <ele>375.2</ele>
        <time>2026-03-09T15:42:01Z</time>
      </trkpt>
      <trkpt lat="49.03588" lon="7.73655">
        <ele>374.4</ele>
        <time>2026-03-09T15:42:06Z</time>
      </trkpt>
      <trkpt lat="49.03584" lon="7.73653">
        <ele>374.7</ele>
        <time>2026-03-09T15:42:11Z</time>
      </trkpt>
      <trkpt lat="49.03578" lon="7.73653">
        <ele>374.5</ele>
        <time>2026-03-09T15:42:16Z</time>
      </trkpt>
      <trkpt lat="49.03573" lon="7.73652">
        <ele>374.7</ele>
        <time>2026-03-09T15:42:21Z</time>
      </trkpt>
      <trkpt lat="49.03568" lon="7.73652">
        <ele>374.6</ele>
        <time>2026-03-09T15:42:26Z</time>
      </trkpt>
      <trkpt lat="49.03562" lon="7.73654">
        <ele>373.7</ele>
        <time>2026-03-09T15:42:31Z</time>
      </trkpt>
      <trkpt lat="49.03561" lon="7.73658">
        <ele>372.4</ele>
        <time>2026-03-09T15:42:36Z</time>
      </trkpt>
      <trkpt lat="49.03556" lon="7.73658">
        <ele>372.3</ele>
        <time>2026-03-09T15:42:41Z</time>
      </trkpt>
      <trkpt lat="49.03551" lon="7.73657">
        <ele>372.5</ele>
        <time>2026-03-09T15:42:46Z</time>
      </trkpt>
      <trkpt lat="49.03547" lon="7.73659">
        <ele>371.7</ele>
        <time>2026-03-09T15:42:51Z</time>
      </trkpt>
      <trkpt lat="49.03542" lon="7.73658">
        <ele>371.9</ele>
        <time>2026-03-09T15:42:56Z</time>
      </trkpt>
      <trkpt lat="49.03535" lon="7.73654">
        <ele>373.1</ele>
        <time>2026-03-09T15:43:01Z</time>
      </trkpt>
      <trkpt lat="49.03529" lon="7.73652">
        <ele>373.6</ele>
        <time>2026-03-09T15:43:06Z</time>
      </trkpt>
      <trkpt lat="49.03527" lon="7.73651">
        <ele>373.9</ele>
        <time>2026-03-09T15:43:11Z</time>
      </trkpt>
      <trkpt lat="49.03525" lon="7.73652">
        <ele>373.5</ele>
        <time>2026-03-09T15:43:16Z</time>
      </trkpt>
      <trkpt lat="49.03522" lon="7.73653">
        <ele>373.1</ele>
        <time>2026-03-09T15:43:21Z</time>
      </trkpt>
      <trkpt lat="49.03518" lon="7.73647">
        <ele>375</ele>
        <time>2026-03-09T15:43:26Z</time>
      </trkpt>
      <trkpt lat="49.03516" lon="7.73643">
        <ele>376.3</ele>
        <time>2026-03-09T15:43:31Z</time>
      </trkpt>
      <trkpt lat="49.03514" lon="7.7364">
        <ele>377.3</ele>
        <time>2026-03-09T15:43:36Z</time>
      </trkpt>
      <trkpt lat="49.0351" lon="7.73637">
        <ele>378.2</ele>
        <time>2026-03-09T15:43:41Z</time>
      </trkpt>
      <trkpt lat="49.03505" lon="7.73633">
        <ele>379.4</ele>
        <time>2026-03-09T15:43:46Z</time>
      </trkpt>
      <trkpt lat="49.035" lon="7.73633">
        <ele>379.3</ele>
        <time>2026-03-09T15:43:51Z</time>
      </trkpt>
      <trkpt lat="49.03495" lon="7.73633">
        <ele>378.9</ele>
        <time>2026-03-09T15:43:56Z</time>
      </trkpt>
      <trkpt lat="49.03493" lon="7.73635">
        <ele>378.1</ele>
        <time>2026-03-09T15:44:01Z</time>
      </trkpt>
      <trkpt lat="49.0349" lon="7.73643">
        <ele>375.2</ele>
        <time>2026-03-09T15:44:06Z</time>
      </trkpt>
      <trkpt lat="49.03486" lon="7.73642">
        <ele>375.2</ele>
        <time>2026-03-09T15:44:11Z</time>
      </trkpt>
      <trkpt lat="49.03484" lon="7.73639">
        <ele>376</ele>
        <time>2026-03-09T15:44:16Z</time>
      </trkpt>
      <trkpt lat="49.0348" lon="7.73637">
        <ele>376.4</ele>
        <time>2026-03-09T15:44:21Z</time>
      </trkpt>
      <trkpt lat="49.03475" lon="7.73634">
        <ele>376.9</ele>
        <time>2026-03-09T15:44:26Z</time>
      </trkpt>
      <trkpt lat="49.0347" lon="7.73633">
        <ele>376.9</ele>
        <time>2026-03-09T15:44:31Z</time>
      </trkpt>
      <trkpt lat="49.03466" lon="7.73634">
        <ele>376.2</ele>
        <time>2026-03-09T15:44:36Z</time>
      </trkpt>
      <trkpt lat="49.03462" lon="7.73634">
        <ele>375.9</ele>
        <time>2026-03-09T15:44:41Z</time>
      </trkpt>
      <trkpt lat="49.03456" lon="7.73634">
        <ele>375.4</ele>
        <time>2026-03-09T15:44:46Z</time>
      </trkpt>
      <trkpt lat="49.03452" lon="7.73633">
        <ele>375.4</ele>
        <time>2026-03-09T15:44:51Z</time>
      </trkpt>
      <trkpt lat="49.03449" lon="7.73632">
        <ele>375.5</ele>
        <time>2026-03-09T15:44:56Z</time>
      </trkpt>
      <trkpt lat="49.03445" lon="7.73631">
        <ele>375.5</ele>
        <time>2026-03-09T15:45:01Z</time>
      </trkpt>
      <trkpt lat="49.03442" lon="7.73629">
        <ele>375.9</ele>
        <time>2026-03-09T15:45:06Z</time>
      </trkpt>
      <trkpt lat="49.03439" lon="7.73629">
        <ele>375.6</ele>
        <time>2026-03-09T15:45:11Z</time>
      </trkpt>
      <trkpt lat="49.03434" lon="7.73628">
        <ele>375.5</ele>
        <time>2026-03-09T15:45:16Z</time>
      </trkpt>
      <trkpt lat="49.03429" lon="7.73624">
        <ele>376.4</ele>
        <time>2026-03-09T15:45:21Z</time>
      </trkpt>
      <trkpt lat="49.03425" lon="7.73625">
        <ele>375.7</ele>
        <time>2026-03-09T15:45:26Z</time>
      </trkpt>
      <trkpt lat="49.03422" lon="7.73624">
        <ele>375.8</ele>
        <time>2026-03-09T15:45:31Z</time>
      </trkpt>
      <trkpt lat="49.03417" lon="7.73625">
        <ele>375</ele>
        <time>2026-03-09T15:45:36Z</time>
      </trkpt>
      <trkpt lat="49.03413" lon="7.73629">
        <ele>372.6</ele>
        <time>2026-03-09T15:45:41Z</time>
      </trkpt>
      <trkpt lat="49.03409" lon="7.73629">
        <ele>371.3</ele>
        <time>2026-03-09T15:45:46Z</time>
      </trkpt>
      <trkpt lat="49.03406" lon="7.7363">
        <ele>370</ele>
        <time>2026-03-09T15:45:51Z</time>
      </trkpt>
      <trkpt lat="49.03401" lon="7.73634">
        <ele>367.1</ele>
        <time>2026-03-09T15:45:56Z</time>
      </trkpt>
      <trkpt lat="49.03397" lon="7.73639">
        <ele>364.2</ele>
        <time>2026-03-09T15:46:01Z</time>
      </trkpt>
      <trkpt lat="49.03394" lon="7.73642">
        <ele>362.2</ele>
        <time>2026-03-09T15:46:06Z</time>
      </trkpt>
      <trkpt lat="49.03391" lon="7.73644">
        <ele>360.6</ele>
        <time>2026-03-09T15:46:11Z</time>
      </trkpt>
      <trkpt lat="49.03389" lon="7.73644">
        <ele>359.9</ele>
        <time>2026-03-09T15:46:16Z</time>
      </trkpt>
      <trkpt lat="49.03385" lon="7.73646">
        <ele>357.9</ele>
        <time>2026-03-09T15:46:21Z</time>
      </trkpt>
      <trkpt lat="49.03382" lon="7.73647">
        <ele>356.6</ele>
        <time>2026-03-09T15:46:26Z</time>
      </trkpt>
      <trkpt lat="49.0338" lon="7.7365">
        <ele>354.9</ele>
        <time>2026-03-09T15:46:31Z</time>
      </trkpt>
      <trkpt lat="49.0338" lon="7.7365">
        <ele>354.9</ele>
        <time>2026-03-09T15:46:36Z</time>
      </trkpt>
      <trkpt lat="49.0338" lon="7.7365">
        <ele>354.9</ele>
        <time>2026-03-09T15:46:41Z</time>
      </trkpt>
      <trkpt lat="49.0338" lon="7.7365">
        <ele>354.9</ele>
        <time>2026-03-09T15:46:46Z</time>
      </trkpt>
      <trkpt lat="49.0338" lon="7.7365">
        <ele>354.9</ele>
        <time>2026-03-09T15:46:51Z</time>
      </trkpt>
      <trkpt lat="49.03376" lon="7.73654">
        <ele>352.2</ele>
        <time>2026-03-09T15:46:56Z</time>
      </trkpt>
      <trkpt lat="49.03372" lon="7.73648">
        <ele>352.9</ele>
        <time>2026-03-09T15:47:01Z</time>
      </trkpt>
      <trkpt lat="49.0337" lon="7.73642">
        <ele>354.3</ele>
        <time>2026-03-09T15:47:06Z</time>
      </trkpt>
      <trkpt lat="49.03367" lon="7.73637">
        <ele>355</ele>
        <time>2026-03-09T15:47:11Z</time>
      </trkpt>
      <trkpt lat="49.03366" lon="7.73632">
        <ele>356.4</ele>
        <time>2026-03-09T15:47:16Z</time>
      </trkpt>
      <trkpt lat="49.03364" lon="7.73628">
        <ele>357.2</ele>
        <time>2026-03-09T15:47:21Z</time>
      </trkpt>
      <trkpt lat="49.03359" lon="7.73624">
        <ele>357</ele>
        <time>2026-03-09T15:47:26Z</time>
      </trkpt>
      <trkpt lat="49.03355" lon="7.73621">
        <ele>356.8</ele>
        <time>2026-03-09T15:47:31Z</time>
      </trkpt>
      <trkpt lat="49.0335" lon="7.73618">
        <ele>356.3</ele>
        <time>2026-03-09T15:47:36Z</time>
      </trkpt>
      <trkpt lat="49.03347" lon="7.73612">
        <ele>357.6</ele>
        <time>2026-03-09T15:47:41Z</time>
      </trkpt>
      <trkpt lat="49.03346" lon="7.73603">
        <ele>360.5</ele>
        <time>2026-03-09T15:47:46Z</time>
      </trkpt>
      <trkpt lat="49.03344" lon="7.73596">
        <ele>362.5</ele>
        <time>2026-03-09T15:47:51Z</time>
      </trkpt>
      <trkpt lat="49.03343" lon="7.7359">
        <ele>364.4</ele>
        <time>2026-03-09T15:47:56Z</time>
      </trkpt>
      <trkpt lat="49.03341" lon="7.73584">
        <ele>366</ele>
        <time>2026-03-09T15:48:01Z</time>
      </trkpt>
      <trkpt lat="49.03339" lon="7.73579">
        <ele>366.1</ele>
        <time>2026-03-09T15:48:06Z</time>
      </trkpt>
      <trkpt lat="49.03337" lon="7.73573">
        <ele>366.3</ele>
        <time>2026-03-09T15:48:11Z</time>
      </trkpt>
      <trkpt lat="49.03336" lon="7.73567">
        <ele>366.7</ele>
        <time>2026-03-09T15:48:16Z</time>
      </trkpt>
      <trkpt lat="49.03336" lon="7.73561">
        <ele>367.4</ele>
        <time>2026-03-09T15:48:21Z</time>
      </trkpt>
      <trkpt lat="49.03337" lon="7.73556">
        <ele>368.3</ele>
        <time>2026-03-09T15:48:26Z</time>
      </trkpt>
      <trkpt lat="49.0334" lon="7.73551">
        <ele>369.7</ele>
        <time>2026-03-09T15:48:31Z</time>
      </trkpt>
      <trkpt lat="49.0334" lon="7.73546">
        <ele>370.3</ele>
        <time>2026-03-09T15:48:36Z</time>
      </trkpt>
      <trkpt lat="49.03341" lon="7.7354">
        <ele>371.3</ele>
        <time>2026-03-09T15:48:41Z</time>
      </trkpt>
      <trkpt lat="49.03343" lon="7.73534">
        <ele>372.6</ele>
        <time>2026-03-09T15:48:46Z</time>
      </trkpt>
      <trkpt lat="49.03346" lon="7.7353">
        <ele>373.9</ele>
        <time>2026-03-09T15:48:51Z</time>
      </trkpt>
      <trkpt lat="49.03348" lon="7.73531">
        <ele>374.3</ele>
        <time>2026-03-09T15:48:56Z</time>
      </trkpt>
      <trkpt lat="49.03347" lon="7.73531">
        <ele>374</ele>
        <time>2026-03-09T15:49:01Z</time>
      </trkpt>
      <trkpt lat="49.03346" lon="7.73527">
        <ele>374.2</ele>
        <time>2026-03-09T15:49:06Z</time>
      </trkpt>
      <trkpt lat="49.03342" lon="7.73523">
        <ele>373.6</ele>
        <time>2026-03-09T15:49:11Z</time>
      </trkpt>
      <trkpt lat="49.0334" lon="7.73524">
        <ele>372.9</ele>
        <time>2026-03-09T15:49:16Z</time>
      </trkpt>
      <trkpt lat="49.0334" lon="7.73524">
        <ele>372.9</ele>
        <time>2026-03-09T15:49:21Z</time>
      </trkpt>
      <trkpt lat="49.03338" lon="7.7352">
        <ele>372.9</ele>
        <time>2026-03-09T15:49:26Z</time>
      </trkpt>
      <trkpt lat="49.03336" lon="7.73511">
        <ele>373.4</ele>
        <time>2026-03-09T15:49:31Z</time>
      </trkpt>
      <trkpt lat="49.03336" lon="7.73503">
        <ele>374.3</ele>
        <time>2026-03-09T15:49:36Z</time>
      </trkpt>
      <trkpt lat="49.03333" lon="7.73493">
        <ele>373.1</ele>
        <time>2026-03-09T15:49:41Z</time>
      </trkpt>
      <trkpt lat="49.03331" lon="7.73483">
        <ele>371.2</ele>
        <time>2026-03-09T15:49:46Z</time>
      </trkpt>
      <trkpt lat="49.0333" lon="7.73474">
        <ele>369.7</ele>
        <time>2026-03-09T15:49:51Z</time>
      </trkpt>
      <trkpt lat="49.03327" lon="7.73463">
        <ele>367.2</ele>
        <time>2026-03-09T15:49:56Z</time>
      </trkpt>
      <trkpt lat="49.03326" lon="7.73451">
        <ele>365.4</ele>
        <time>2026-03-09T15:50:01Z</time>
      </trkpt>
      <trkpt lat="49.03326" lon="7.73439">
        <ele>364</ele>
        <time>2026-03-09T15:50:06Z</time>
      </trkpt>
      <trkpt lat="49.03328" lon="7.73428">
        <ele>363.7</ele>
        <time>2026-03-09T15:50:11Z</time>
      </trkpt>
      <trkpt lat="49.03328" lon="7.73417">
        <ele>362.5</ele>
        <time>2026-03-09T15:50:16Z</time>
      </trkpt>
      <trkpt lat="49.03329" lon="7.73408">
        <ele>361.2</ele>
        <time>2026-03-09T15:50:21Z</time>
      </trkpt>
      <trkpt lat="49.03329" lon="7.73398">
        <ele>359.3</ele>
        <time>2026-03-09T15:50:26Z</time>
      </trkpt>
      <trkpt lat="49.03332" lon="7.73386">
        <ele>358.5</ele>
        <time>2026-03-09T15:50:31Z</time>
      </trkpt>
      <trkpt lat="49.03334" lon="7.73376">
        <ele>357.4</ele>
        <time>2026-03-09T15:50:36Z</time>
      </trkpt>
      <trkpt lat="49.03336" lon="7.73367">
        <ele>356.5</ele>
        <time>2026-03-09T15:50:41Z</time>
      </trkpt>
      <trkpt lat="49.03339" lon="7.73356">
        <ele>355.6</ele>
        <time>2026-03-09T15:50:46Z</time>
      </trkpt>
      <trkpt lat="49.03341" lon="7.73344">
        <ele>354.1</ele>
        <time>2026-03-09T15:50:51Z</time>
      </trkpt>
      <trkpt lat="49.03346" lon="7.73334">
        <ele>354.3</ele>
        <time>2026-03-09T15:50:56Z</time>
      </trkpt>
      <trkpt lat="49.03348" lon="7.73323">
        <ele>352.7</ele>
        <time>2026-03-09T15:51:01Z</time>
      </trkpt>
      <trkpt lat="49.03352" lon="7.73317">
        <ele>353</ele>
        <time>2026-03-09T15:51:06Z</time>
      </trkpt>
      <trkpt lat="49.03355" lon="7.73311">
        <ele>352.8</ele>
        <time>2026-03-09T15:51:11Z</time>
      </trkpt>
      <trkpt lat="49.03358" lon="7.73303">
        <ele>352.2</ele>
        <time>2026-03-09T15:51:16Z</time>
      </trkpt>
      <trkpt lat="49.03365" lon="7.73296">
        <ele>353.3</ele>
        <time>2026-03-09T15:51:21Z</time>
      </trkpt>
      <trkpt lat="49.03372" lon="7.73292">
        <ele>355.2</ele>
        <time>2026-03-09T15:51:26Z</time>
      </trkpt>
      <trkpt lat="49.03378" lon="7.73289">
        <ele>356.8</ele>
        <time>2026-03-09T15:51:31Z</time>
      </trkpt>
      <trkpt lat="49.03383" lon="7.73283">
        <ele>357.3</ele>
        <time>2026-03-09T15:51:36Z</time>
      </trkpt>
      <trkpt lat="49.03387" lon="7.73275">
        <ele>356.9</ele>
        <time>2026-03-09T15:51:41Z</time>
      </trkpt>
      <trkpt lat="49.03389" lon="7.73272">
        <ele>357</ele>
        <time>2026-03-09T15:51:46Z</time>
      </trkpt>
      <trkpt lat="49.03388" lon="7.7327">
        <ele>356.1</ele>
        <time>2026-03-09T15:51:51Z</time>
      </trkpt>
      <trkpt lat="49.03388" lon="7.7327">
        <ele>356.1</ele>
        <time>2026-03-09T15:51:56Z</time>
      </trkpt>
      <trkpt lat="49.03388" lon="7.7327">
        <ele>356.1</ele>
        <time>2026-03-09T15:52:01Z</time>
      </trkpt>
      <trkpt lat="49.03389" lon="7.73263">
        <ele>354.8</ele>
        <time>2026-03-09T15:52:06Z</time>
      </trkpt>
      <trkpt lat="49.03395" lon="7.73264">
        <ele>357.3</ele>
        <time>2026-03-09T15:52:11Z</time>
      </trkpt>
      <trkpt lat="49.03401" lon="7.73268">
        <ele>360.6</ele>
        <time>2026-03-09T15:52:16Z</time>
      </trkpt>
      <trkpt lat="49.03407" lon="7.7327">
        <ele>363.4</ele>
        <time>2026-03-09T15:52:21Z</time>
      </trkpt>
      <trkpt lat="49.03415" lon="7.73269">
        <ele>366.2</ele>
        <time>2026-03-09T15:52:26Z</time>
      </trkpt>
      <trkpt lat="49.03423" lon="7.7327">
        <ele>367.9</ele>
        <time>2026-03-09T15:52:31Z</time>
      </trkpt>
      <trkpt lat="49.03429" lon="7.73269">
        <ele>368.4</ele>
        <time>2026-03-09T15:52:36Z</time>
      </trkpt>
      <trkpt lat="49.03434" lon="7.73268">
        <ele>368.8</ele>
        <time>2026-03-09T15:52:41Z</time>
      </trkpt>
      <trkpt lat="49.03438" lon="7.73267">
        <ele>369</ele>
        <time>2026-03-09T15:52:46Z</time>
      </trkpt>
      <trkpt lat="49.03443" lon="7.73265">
        <ele>369.1</ele>
        <time>2026-03-09T15:52:51Z</time>
      </trkpt>
      <trkpt lat="49.03449" lon="7.73263">
        <ele>369.3</ele>
        <time>2026-03-09T15:52:56Z</time>
      </trkpt>
      <trkpt lat="49.03454" lon="7.73263">
        <ele>369.9</ele>
        <time>2026-03-09T15:53:01Z</time>
      </trkpt>
      <trkpt lat="49.03459" lon="7.73263">
        <ele>370.5</ele>
        <time>2026-03-09T15:53:06Z</time>
      </trkpt>
      <trkpt lat="49.03463" lon="7.73262">
        <ele>370.7</ele>
        <time>2026-03-09T15:53:11Z</time>
      </trkpt>
      <trkpt lat="49.03467" lon="7.73263">
        <ele>371.5</ele>
        <time>2026-03-09T15:53:16Z</time>
      </trkpt>
      <trkpt lat="49.03475" lon="7.73265">
        <ele>373.1</ele>
        <time>2026-03-09T15:53:21Z</time>
      </trkpt>
      <trkpt lat="49.03483" lon="7.73268">
        <ele>375.1</ele>
        <time>2026-03-09T15:53:26Z</time>
      </trkpt>
      <trkpt lat="49.03491" lon="7.73269">
        <ele>376.4</ele>
        <time>2026-03-09T15:53:31Z</time>
      </trkpt>
      <trkpt lat="49.03497" lon="7.73269">
        <ele>377.2</ele>
        <time>2026-03-09T15:53:36Z</time>
      </trkpt>
      <trkpt lat="49.03503" lon="7.73269">
        <ele>377.4</ele>
        <time>2026-03-09T15:53:41Z</time>
      </trkpt>
      <trkpt lat="49.0351" lon="7.73269">
        <ele>376.9</ele>
        <time>2026-03-09T15:53:46Z</time>
      </trkpt>
      <trkpt lat="49.03518" lon="7.73269">
        <ele>376.4</ele>
        <time>2026-03-09T15:53:51Z</time>
      </trkpt>
      <trkpt lat="49.03527" lon="7.7327">
        <ele>376.1</ele>
        <time>2026-03-09T15:53:56Z</time>
      </trkpt>
      <trkpt lat="49.03535" lon="7.73271">
        <ele>375.9</ele>
        <time>2026-03-09T15:54:01Z</time>
      </trkpt>
      <trkpt lat="49.0354" lon="7.73269">
        <ele>374.8</ele>
        <time>2026-03-09T15:54:06Z</time>
      </trkpt>
      <trkpt lat="49.03545" lon="7.73268">
        <ele>374.1</ele>
        <time>2026-03-09T15:54:11Z</time>
      </trkpt>
      <trkpt lat="49.03552" lon="7.73267">
        <ele>373.3</ele>
        <time>2026-03-09T15:54:16Z</time>
      </trkpt>
      <trkpt lat="49.03557" lon="7.73265">
        <ele>372.2</ele>
        <time>2026-03-09T15:54:21Z</time>
      </trkpt>
      <trkpt lat="49.03566" lon="7.73264">
        <ele>371.3</ele>
        <time>2026-03-09T15:54:26Z</time>
      </trkpt>
      <trkpt lat="49.03574" lon="7.73263">
        <ele>370.3</ele>
        <time>2026-03-09T15:54:31Z</time>
      </trkpt>
      <trkpt lat="49.0358" lon="7.7326">
        <ele>368.8</ele>
        <time>2026-03-09T15:54:36Z</time>
      </trkpt>
      <trkpt lat="49.03587" lon="7.73259">
        <ele>368.5</ele>
        <time>2026-03-09T15:54:41Z</time>
      </trkpt>
      <trkpt lat="49.03594" lon="7.73258">
        <ele>368.7</ele>
        <time>2026-03-09T15:54:46Z</time>
      </trkpt>
      <trkpt lat="49.036" lon="7.73254">
        <ele>367.8</ele>
        <time>2026-03-09T15:54:51Z</time>
      </trkpt>
      <trkpt lat="49.03608" lon="7.73252">
        <ele>367.8</ele>
        <time>2026-03-09T15:54:56Z</time>
      </trkpt>
      <trkpt lat="49.03614" lon="7.73248">
        <ele>366.8</ele>
        <time>2026-03-09T15:55:01Z</time>
      </trkpt>
      <trkpt lat="49.03619" lon="7.73242">
        <ele>365.1</ele>
        <time>2026-03-09T15:55:06Z</time>
      </trkpt>
      <trkpt lat="49.03623" lon="7.73234">
        <ele>362.6</ele>
        <time>2026-03-09T15:55:11Z</time>
      </trkpt>
      <trkpt lat="49.03626" lon="7.73227">
        <ele>360.3</ele>
        <time>2026-03-09T15:55:16Z</time>
      </trkpt>
      <trkpt lat="49.0363" lon="7.73223">
        <ele>359.2</ele>
        <time>2026-03-09T15:55:21Z</time>
      </trkpt>
      <trkpt lat="49.03634" lon="7.73217">
        <ele>357.5</ele>
        <time>2026-03-09T15:55:26Z</time>
      </trkpt>
      <trkpt lat="49.03639" lon="7.73213">
        <ele>356.5</ele>
        <time>2026-03-09T15:55:31Z</time>
      </trkpt>
      <trkpt lat="49.03644" lon="7.73206">
        <ele>354.5</ele>
        <time>2026-03-09T15:55:36Z</time>
      </trkpt>
      <trkpt lat="49.03648" lon="7.73201">
        <ele>353.1</ele>
        <time>2026-03-09T15:55:41Z</time>
      </trkpt>
      <trkpt lat="49.03652" lon="7.73199">
        <ele>352.8</ele>
        <time>2026-03-09T15:55:46Z</time>
      </trkpt>
      <trkpt lat="49.03658" lon="7.73198">
        <ele>353</ele>
        <time>2026-03-09T15:55:51Z</time>
      </trkpt>
      <trkpt lat="49.03665" lon="7.73194">
        <ele>352.3</ele>
        <time>2026-03-09T15:55:56Z</time>
      </trkpt>
      <trkpt lat="49.03671" lon="7.73193">
        <ele>353.2</ele>
        <time>2026-03-09T15:56:01Z</time>
      </trkpt>
      <trkpt lat="49.03678" lon="7.73192">
        <ele>354.4</ele>
        <time>2026-03-09T15:56:06Z</time>
      </trkpt>
      <trkpt lat="49.03683" lon="7.73191">
        <ele>355.2</ele>
        <time>2026-03-09T15:56:11Z</time>
      </trkpt>
      <trkpt lat="49.03688" lon="7.73186">
        <ele>354.6</ele>
        <time>2026-03-09T15:56:16Z</time>
      </trkpt>
      <trkpt lat="49.03693" lon="7.73185">
        <ele>355.3</ele>
        <time>2026-03-09T15:56:21Z</time>
      </trkpt>
      <trkpt lat="49.03698" lon="7.73181">
        <ele>355</ele>
        <time>2026-03-09T15:56:26Z</time>
      </trkpt>
      <trkpt lat="49.03702" lon="7.73176">
        <ele>354.1</ele>
        <time>2026-03-09T15:56:31Z</time>
      </trkpt>
      <trkpt lat="49.03707" lon="7.73173">
        <ele>354.1</ele>
        <time>2026-03-09T15:56:36Z</time>
      </trkpt>
      <trkpt lat="49.03714" lon="7.73175">
        <ele>356.4</ele>
        <time>2026-03-09T15:56:41Z</time>
      </trkpt>
      <trkpt lat="49.0372" lon="7.73175">
        <ele>357.7</ele>
        <time>2026-03-09T15:56:46Z</time>
      </trkpt>
      <trkpt lat="49.03727" lon="7.73174">
        <ele>358.8</ele>
        <time>2026-03-09T15:56:51Z</time>
      </trkpt>
      <trkpt lat="49.03732" lon="7.73172">
        <ele>359.2</ele>
        <time>2026-03-09T15:56:56Z</time>
      </trkpt>
      <trkpt lat="49.03735" lon="7.73171">
        <ele>359.4</ele>
        <time>2026-03-09T15:57:01Z</time>
      </trkpt>
      <trkpt lat="49.0374" lon="7.73171">
        <ele>360.5</ele>
        <time>2026-03-09T15:57:06Z</time>
      </trkpt>
      <trkpt lat="49.03744" lon="7.73169">
        <ele>360.6</ele>
        <time>2026-03-09T15:57:11Z</time>
      </trkpt>
      <trkpt lat="49.03749" lon="7.73166">
        <ele>360.5</ele>
        <time>2026-03-09T15:57:16Z</time>
      </trkpt>
      <trkpt lat="49.03753" lon="7.73163">
        <ele>359.7</ele>
        <time>2026-03-09T15:57:21Z</time>
      </trkpt>
      <trkpt lat="49.03756" lon="7.7316">
        <ele>358.6</ele>
        <time>2026-03-09T15:57:26Z</time>
      </trkpt>
      <trkpt lat="49.0376" lon="7.73163">
        <ele>360.3</ele>
        <time>2026-03-09T15:57:31Z</time>
      </trkpt>
      <trkpt lat="49.03766" lon="7.73165">
        <ele>361.8</ele>
        <time>2026-03-09T15:57:36Z</time>
      </trkpt>
      <trkpt lat="49.03771" lon="7.73164">
        <ele>361.8</ele>
        <time>2026-03-09T15:57:41Z</time>
      </trkpt>
      <trkpt lat="49.03773" lon="7.73159">
        <ele>359.7</ele>
        <time>2026-03-09T15:57:46Z</time>
      </trkpt>
      <trkpt lat="49.03777" lon="7.73157">
        <ele>359.2</ele>
        <time>2026-03-09T15:57:51Z</time>
      </trkpt>
      <trkpt lat="49.0378" lon="7.73158">
        <ele>359.9</ele>
        <time>2026-03-09T15:57:56Z</time>
      </trkpt>
      <trkpt lat="49.03785" lon="7.73158">
        <ele>360.4</ele>
        <time>2026-03-09T15:58:01Z</time>
      </trkpt>
      <trkpt lat="49.03791" lon="7.7316">
        <ele>361.9</ele>
        <time>2026-03-09T15:58:06Z</time>
      </trkpt>
      <trkpt lat="49.03798" lon="7.73161">
        <ele>363</ele>
        <time>2026-03-09T15:58:11Z</time>
      </trkpt>
      <trkpt lat="49.03803" lon="7.7316">
        <ele>363</ele>
        <time>2026-03-09T15:58:16Z</time>
      </trkpt>
      <trkpt lat="49.03809" lon="7.73161">
        <ele>364</ele>
        <time>2026-03-09T15:58:21Z</time>
      </trkpt>
      <trkpt lat="49.03815" lon="7.73162">
        <ele>365</ele>
        <time>2026-03-09T15:58:26Z</time>
      </trkpt>
      <trkpt lat="49.0382" lon="7.73164">
        <ele>366.5</ele>
        <time>2026-03-09T15:58:31Z</time>
      </trkpt>
      <trkpt lat="49.03827" lon="7.73164">
        <ele>367.1</ele>
        <time>2026-03-09T15:58:36Z</time>
      </trkpt>
      <trkpt lat="49.03834" lon="7.73163">
        <ele>367.2</ele>
        <time>2026-03-09T15:58:41Z</time>
      </trkpt>
      <trkpt lat="49.0384" lon="7.73164">
        <ele>367.5</ele>
        <time>2026-03-09T15:58:46Z</time>
      </trkpt>
      <trkpt lat="49.03846" lon="7.73164">
        <ele>367.3</ele>
        <time>2026-03-09T15:58:51Z</time>
      </trkpt>
      <trkpt lat="49.03853" lon="7.73164">
        <ele>367</ele>
        <time>2026-03-09T15:58:56Z</time>
      </trkpt>
      <trkpt lat="49.03859" lon="7.73162">
        <ele>365.8</ele>
        <time>2026-03-09T15:59:01Z</time>
      </trkpt>
      <trkpt lat="49.03863" lon="7.73162">
        <ele>365.7</ele>
        <time>2026-03-09T15:59:06Z</time>
      </trkpt>
      <trkpt lat="49.03869" lon="7.73163">
        <ele>366</ele>
        <time>2026-03-09T15:59:11Z</time>
      </trkpt>
      <trkpt lat="49.03875" lon="7.73164">
        <ele>366.2</ele>
        <time>2026-03-09T15:59:16Z</time>
      </trkpt>
      <trkpt lat="49.03881" lon="7.73165">
        <ele>366.5</ele>
        <time>2026-03-09T15:59:21Z</time>
      </trkpt>
      <trkpt lat="49.03888" lon="7.73166">
        <ele>366.7</ele>
        <time>2026-03-09T15:59:26Z</time>
      </trkpt>
      <trkpt lat="49.03897" lon="7.73163">
        <ele>364.9</ele>
        <time>2026-03-09T15:59:31Z</time>
      </trkpt>
      <trkpt lat="49.03903" lon="7.73161">
        <ele>363.8</ele>
        <time>2026-03-09T15:59:36Z</time>
      </trkpt>
      <trkpt lat="49.03907" lon="7.73161">
        <ele>363.6</ele>
        <time>2026-03-09T15:59:41Z</time>
      </trkpt>
      <trkpt lat="49.03913" lon="7.73162">
        <ele>363.9</ele>
        <time>2026-03-09T15:59:46Z</time>
      </trkpt>
      <trkpt lat="49.03916" lon="7.73162">
        <ele>363.8</ele>
        <time>2026-03-09T15:59:51Z</time>
      </trkpt>
      <trkpt lat="49.03919" lon="7.73159">
        <ele>362.2</ele>
        <time>2026-03-09T15:59:56Z</time>
      </trkpt>
      <trkpt lat="49.03919" lon="7.73157">
        <ele>361.3</ele>
        <time>2026-03-09T16:00:01Z</time>
      </trkpt>
      <trkpt lat="49.03919" lon="7.73157">
        <ele>361.3</ele>
        <time>2026-03-09T16:00:06Z</time>
      </trkpt>
      <trkpt lat="49.03919" lon="7.73157">
        <ele>361.3</ele>
        <time>2026-03-09T16:00:11Z</time>
      </trkpt>
      <trkpt lat="49.03921" lon="7.73152">
        <ele>358.8</ele>
        <time>2026-03-09T16:00:16Z</time>
      </trkpt>
      <trkpt lat="49.03921" lon="7.73152">
        <ele>358.8</ele>
        <time>2026-03-09T16:00:21Z</time>
      </trkpt>
      <trkpt lat="49.03928" lon="7.73154">
        <ele>359.6</ele>
        <time>2026-03-09T16:00:26Z</time>
      </trkpt>
      <trkpt lat="49.03938" lon="7.73153">
        <ele>358.9</ele>
        <time>2026-03-09T16:00:31Z</time>
      </trkpt>
      <trkpt lat="49.03945" lon="7.7315">
        <ele>357.3</ele>
        <time>2026-03-09T16:00:36Z</time>
      </trkpt>
      <trkpt lat="49.03947" lon="7.73151">
        <ele>357.7</ele>
        <time>2026-03-09T16:00:41Z</time>
      </trkpt>
      <trkpt lat="49.03951" lon="7.7315">
        <ele>357.2</ele>
        <time>2026-03-09T16:00:46Z</time>
      </trkpt>
      <trkpt lat="49.03958" lon="7.73149">
        <ele>356.6</ele>
        <time>2026-03-09T16:00:51Z</time>
      </trkpt>
      <trkpt lat="49.03963" lon="7.73149">
        <ele>356.4</ele>
        <time>2026-03-09T16:00:56Z</time>
      </trkpt>
      <trkpt lat="49.03965" lon="7.73148">
        <ele>355.9</ele>
        <time>2026-03-09T16:01:01Z</time>
      </trkpt>
      <trkpt lat="49.03975" lon="7.73148">
        <ele>355.7</ele>
        <time>2026-03-09T16:01:06Z</time>
      </trkpt>
      <trkpt lat="49.03977" lon="7.73148">
        <ele>355.7</ele>
        <time>2026-03-09T16:01:11Z</time>
      </trkpt>
      <trkpt lat="49.03986" lon="7.73144">
        <ele>353.8</ele>
        <time>2026-03-09T16:01:16Z</time>
      </trkpt>
      <trkpt lat="49.0399" lon="7.73143">
        <ele>353.2</ele>
        <time>2026-03-09T16:01:21Z</time>
      </trkpt>
      <trkpt lat="49.0399" lon="7.73143">
        <ele>353.2</ele>
        <time>2026-03-09T16:01:26Z</time>
      </trkpt>
      <trkpt lat="49.04004" lon="7.73142">
        <ele>352.8</ele>
        <time>2026-03-09T16:01:31Z</time>
      </trkpt>
      <trkpt lat="49.0401" lon="7.73142">
        <ele>353.1</ele>
        <time>2026-03-09T16:01:36Z</time>
      </trkpt>
      <trkpt lat="49.04014" lon="7.7314">
        <ele>352.5</ele>
        <time>2026-03-09T16:01:41Z</time>
      </trkpt>
      <trkpt lat="49.0402" lon="7.73138">
        <ele>351.9</ele>
        <time>2026-03-09T16:01:46Z</time>
      </trkpt>
      <trkpt lat="49.0402" lon="7.73138">
        <ele>351.9</ele>
        <time>2026-03-09T16:01:51Z</time>
      </trkpt>
      <trkpt lat="49.04033" lon="7.73134">
        <ele>350.9</ele>
        <time>2026-03-09T16:01:56Z</time>
      </trkpt>
      <trkpt lat="49.04041" lon="7.73134">
        <ele>351.2</ele>
        <time>2026-03-09T16:02:01Z</time>
      </trkpt>
      <trkpt lat="49.04049" lon="7.73131">
        <ele>350.4</ele>
        <time>2026-03-09T16:02:06Z</time>
      </trkpt>
      <trkpt lat="49.04053" lon="7.73128">
        <ele>349.3</ele>
        <time>2026-03-09T16:02:11Z</time>
      </trkpt>
      <trkpt lat="49.04056" lon="7.73125">
        <ele>348.2</ele>
        <time>2026-03-09T16:02:16Z</time>
      </trkpt>
      <trkpt lat="49.04061" lon="7.73122">
        <ele>347.2</ele>
        <time>2026-03-09T16:02:21Z</time>
      </trkpt>
      <trkpt lat="49.04069" lon="7.73121">
        <ele>347.1</ele>
        <time>2026-03-09T16:02:26Z</time>
      </trkpt>
      <trkpt lat="49.04074" lon="7.73116">
        <ele>345.3</ele>
        <time>2026-03-09T16:02:31Z</time>
      </trkpt>
      <trkpt lat="49.04077" lon="7.73113">
        <ele>344.2</ele>
        <time>2026-03-09T16:02:36Z</time>
      </trkpt>
      <trkpt lat="49.04085" lon="7.73113">
        <ele>344.7</ele>
        <time>2026-03-09T16:02:41Z</time>
      </trkpt>
      <trkpt lat="49.04091" lon="7.73113">
        <ele>345.4</ele>
        <time>2026-03-09T16:02:46Z</time>
      </trkpt>
      <trkpt lat="49.04097" lon="7.73111">
        <ele>345.3</ele>
        <time>2026-03-09T16:02:51Z</time>
      </trkpt>
      <trkpt lat="49.04103" lon="7.73109">
        <ele>345.2</ele>
        <time>2026-03-09T16:02:56Z</time>
      </trkpt>
      <trkpt lat="49.04109" lon="7.73108">
        <ele>345.5</ele>
        <time>2026-03-09T16:03:01Z</time>
      </trkpt>
      <trkpt lat="49.04115" lon="7.73109">
        <ele>346.6</ele>
        <time>2026-03-09T16:03:06Z</time>
      </trkpt>
      <trkpt lat="49.04122" lon="7.73106">
        <ele>346.3</ele>
        <time>2026-03-09T16:03:11Z</time>
      </trkpt>
      <trkpt lat="49.04129" lon="7.73102">
        <ele>345.7</ele>
        <time>2026-03-09T16:03:16Z</time>
      </trkpt>
      <trkpt lat="49.04138" lon="7.73099">
        <ele>345.7</ele>
        <time>2026-03-09T16:03:21Z</time>
      </trkpt>
      <trkpt lat="49.04148" lon="7.73098">
        <ele>346.7</ele>
        <time>2026-03-09T16:03:26Z</time>
      </trkpt>
      <trkpt lat="49.04154" lon="7.73093">
        <ele>345.6</ele>
        <time>2026-03-09T16:03:31Z</time>
      </trkpt>
      <trkpt lat="49.0416" lon="7.73091">
        <ele>345.8</ele>
        <time>2026-03-09T16:03:36Z</time>
      </trkpt>
      <trkpt lat="49.04165" lon="7.73088">
        <ele>345.4</ele>
        <time>2026-03-09T16:03:41Z</time>
      </trkpt>
      <trkpt lat="49.04173" lon="7.73087">
        <ele>346.4</ele>
        <time>2026-03-09T16:03:46Z</time>
      </trkpt>
      <trkpt lat="49.04179" lon="7.73087">
        <ele>347.5</ele>
        <time>2026-03-09T16:03:51Z</time>
      </trkpt>
      <trkpt lat="49.04184" lon="7.73083">
        <ele>347.1</ele>
        <time>2026-03-09T16:03:56Z</time>
      </trkpt>
      <trkpt lat="49.04189" lon="7.7308">
        <ele>347.7</ele>
        <time>2026-03-09T16:04:01Z</time>
      </trkpt>
      <trkpt lat="49.04194" lon="7.73078">
        <ele>348.4</ele>
        <time>2026-03-09T16:04:06Z</time>
      </trkpt>
      <trkpt lat="49.04201" lon="7.73075">
        <ele>349.5</ele>
        <time>2026-03-09T16:04:11Z</time>
      </trkpt>
      <trkpt lat="49.04206" lon="7.73072">
        <ele>350.2</ele>
        <time>2026-03-09T16:04:16Z</time>
      </trkpt>
      <trkpt lat="49.04211" lon="7.73066">
        <ele>350.8</ele>
        <time>2026-03-09T16:04:21Z</time>
      </trkpt>
      <trkpt lat="49.04216" lon="7.73059">
        <ele>351.5</ele>
        <time>2026-03-09T16:04:26Z</time>
      </trkpt>
      <trkpt lat="49.04222" lon="7.73054">
        <ele>352.7</ele>
        <time>2026-03-09T16:04:31Z</time>
      </trkpt>
      <trkpt lat="49.04228" lon="7.73051">
        <ele>354</ele>
        <time>2026-03-09T16:04:36Z</time>
      </trkpt>
      <trkpt lat="49.04234" lon="7.73046">
        <ele>355.4</ele>
        <time>2026-03-09T16:04:41Z</time>
      </trkpt>
      <trkpt lat="49.04238" lon="7.73041">
        <ele>356.3</ele>
        <time>2026-03-09T16:04:46Z</time>
      </trkpt>
      <trkpt lat="49.04241" lon="7.73036">
        <ele>357.1</ele>
        <time>2026-03-09T16:04:51Z</time>
      </trkpt>
      <trkpt lat="49.04243" lon="7.73037">
        <ele>357.6</ele>
        <time>2026-03-09T16:04:56Z</time>
      </trkpt>
      <trkpt lat="49.04243" lon="7.73037">
        <ele>357.6</ele>
        <time>2026-03-09T16:05:01Z</time>
      </trkpt>
      <trkpt lat="49.04251" lon="7.73042">
        <ele>359.7</ele>
        <time>2026-03-09T16:05:06Z</time>
      </trkpt>
      <trkpt lat="49.04253" lon="7.73042">
        <ele>360.1</ele>
        <time>2026-03-09T16:05:11Z</time>
      </trkpt>
      <trkpt lat="49.04253" lon="7.73042">
        <ele>360.1</ele>
        <time>2026-03-09T16:05:16Z</time>
      </trkpt>
      <trkpt lat="49.04259" lon="7.7304">
        <ele>361.3</ele>
        <time>2026-03-09T16:05:21Z</time>
      </trkpt>
      <trkpt lat="49.04261" lon="7.73036">
        <ele>361.9</ele>
        <time>2026-03-09T16:05:26Z</time>
      </trkpt>
    </trkseg>
  </trk>
</gpx>